GEFSNGP_prec_meanprecacc_006.txt.gz
Total_Precipitation_Accumulation
0.00 0.00 0.00 0.00 0.00 0.00 0.00 0.00 0.00 0.00 0.00 0.00 0.00 0.00 0.00 0.00 0.00 0.00 0.00 0.00 0.00 0.00 0.00 0.00 0.00 0.00 0.00 0.00 0.00 0.00 0.00 0.00 0.00 0.00 0.00 0.00 0.00 0.00 0.00 0.00 0.02 0.03 0.04 0.06
0.00 0.00 0.00 0.00 0.00 0.00 0.00 0.00 0.00 0.00 0.00 0.00 0.00 0.00 0.00 0.00 0.00 0.00 0.00 0.00 0.00 0.00 0.00 0.00 0.00 0.00 0.00 0.00 0.00 0.00 0.00 0.00 0.00 0.00 0.00 0.00 0.00 0.00 0.00 0.00 0.01 0.03 0.03 0.04
0.00 0.00 0.00 0.00 0.00 0.00 0.00 0.00 0.00 0.00 0.00 0.00 0.00 0.00 0.00 0.00 0.00 0.01 0.00 0.00 0.00 0.00 0.00 0.00 0.00 0.00 0.00 0.00 0.00 0.00 0.00 0.00 0.00 0.00 0.00 0.00 0.00 0.00 0.00 0.00 0.01 0.03 0.02 0.01
0.00 0.00 0.00 0.00 0.00 0.00 0.00 0.00 0.00 0.00 0.00 0.00 0.00 0.00 0.00 0.00 0.01 0.00 0.00 0.00 0.00 0.00 0.00 0.00 0.00 0.00 0.00 0.00 0.00 0.00 0.00 0.00 0.00 0.00 0.00 0.00 0.00 0.00 0.00 0.00 0.01 0.02 0.02 0.00
0.00 0.00 0.00 0.00 0.00 0.00 0.00 0.00 0.00 0.00 0.00 0.00 0.00 0.00 0.00 0.01 0.01 0.00 0.00 0.00 0.00 0.00 0.00 0.00 0.00 0.00 0.00 0.00 0.00 0.00 0.00 0.00 0.00 0.00 0.00 0.00 0.00 0.00 0.00 0.00 0.00 0.00 0.01 0.00
0.00 0.00 0.00 0.00 0.00 0.00 0.00 0.00 0.00 0.00 0.00 0.00 0.00 0.01 0.02 0.02 0.01 0.00 0.00 0.00 0.00 0.00 0.00 0.00 0.00 0.00 0.00 0.00 0.00 0.00 0.00 0.00 0.00 0.00 0.00 0.00 0.00 0.00 0.00 0.00 0.00 0.00 0.00 0.00
0.00 0.00 0.00 0.00 0.00 0.00 0.00 0.00 0.00 0.00 0.00 0.00 0.00 0.02 0.02 0.01 0.00 0.00 0.00 0.00 0.00 0.00 0.00 0.00 0.00 0.00 0.00 0.00 0.00 0.00 0.00 0.00 0.00 0.00 0.00 0.00 0.00 0.00 0.00 0.00 0.00 0.00 0.00 0.00
0.00 0.00 0.00 0.00 0.00 0.00 0.00 0.00 0.00 0.00 0.00 0.00 0.00 0.01 0.00 0.00 0.00 0.00 0.00 0.00 0.00 0.00 0.00 0.00 0.00 0.00 0.00 0.00 0.00 0.00 0.00 0.00 0.00 0.00 0.00 0.00 0.00 0.00 0.00 0.00 0.00 0.00 0.00 0.00
0.00 0.00 0.00 0.00 0.00 0.00 0.00 0.00 0.00 0.00 0.00 0.00 0.00 0.00 0.00 0.00 0.00 0.00 0.00 0.00 0.00 0.00 0.00 0.00 0.00 0.00 0.00 0.00 0.00 0.00 0.00 0.00 0.00 0.00 0.00 0.00 0.00 0.00 0.00 0.00 0.00 0.00 0.00 0.00
0.00 0.00 0.00 0.00 0.00 0.00 0.00 0.00 0.00 0.00 0.00 0.00 0.00 0.00 0.00 0.00 0.00 0.00 0.00 0.00 0.00 0.00 0.00 0.00 0.00 0.00 0.00 0.00 0.00 0.00 0.00 0.00 0.00 0.00 0.00 0.00 0.00 0.00 0.00 0.00 0.00 0.00 0.00 0.00
0.00 0.00 0.00 0.00 0.00 0.00 0.00 0.00 0.00 0.00 0.00 0.00 0.00 0.00 0.00 0.00 0.00 0.00 0.00 0.00 0.00 0.00 0.00 0.00 0.00 0.00 0.00 0.00 0.00 0.00 0.00 0.00 0.00 0.00 0.00 0.00 0.00 0.00 0.00 0.00 0.00 0.01 0.00 0.01
0.00 0.00 0.00 0.00 0.00 0.00 0.00 0.00 0.00 0.00 0.00 0.00 0.00 0.00 0.00 0.00 0.00 0.00 0.00 0.00 0.00 0.00 0.00 0.00 0.00 0.00 0.00 0.00 0.00 0.00 0.00 0.00 0.00 0.00 0.00 0.00 0.00 0.00 0.00 0.00 0.00 0.00 0.01 0.01
0.00 0.00 0.00 0.00 0.00 0.00 0.00 0.00 0.00 0.00 0.00 0.00 0.00 0.00 0.00 0.00 0.00 0.00 0.00 0.00 0.00 0.00 0.00 0.00 0.00 0.00 0.00 0.00 0.00 0.00 0.00 0.00 0.00 0.00 0.00 0.00 0.00 0.00 0.00 0.00 0.00 0.00 0.00 0.01
0.00 0.00 0.00 0.00 0.00 0.00 0.00 0.00 0.00 0.00 0.00 0.00 0.00 0.00 0.00 0.00 0.00 0.00 0.00 0.00 0.00 0.00 0.00 0.00 0.00 0.00 0.00 0.00 0.00 0.00 0.00 0.00 0.00 0.00 0.00 0.01 0.01 0.01 0.01 0.01 0.00 0.00 0.00 0.00
0.00 0.00 0.00 0.00 0.00 0.00 0.00 0.00 0.00 0.00 0.00 0.00 0.00 0.00 0.00 0.00 0.00 0.00 0.00 0.00 0.00 0.00 0.00 0.00 0.00 0.00 0.00 0.00 0.00 0.00 0.00 0.00 0.01 0.02 0.02 0.03 0.03 0.03 0.02 0.01 0.01 0.00 0.00 0.00
0.00 0.00 0.00 0.00 0.00 0.00 0.00 0.00 0.00 0.00 0.00 0.00 0.00 0.00 0.00 0.00 0.00 0.00 0.00 0.00 0.00 0.00 0.00 0.00 0.00 0.00 0.00 0.00 0.00 0.00 0.00 0.00 0.01 0.03 0.03 0.03 0.03 0.03 0.02 0.01 0.01 0.00 0.00 0.00
0.00 0.00 0.00 0.00 0.00 0.00 0.00 0.00 0.00 0.00 0.00 0.00 0.00 0.00 0.00 0.00 0.00 0.00 0.00 0.00 0.00 0.00 0.00 0.00 0.00 0.00 0.00 0.00 0.00 0.00 0.01 0.01 0.01 0.01 0.02 0.02 0.02 0.02 0.02 0.02 0.01 0.01 0.00 0.00
0.00 0.00 0.00 0.00 0.00 0.00 0.00 0.00 0.00 0.00 0.00 0.00 0.00 0.00 0.00 0.00 0.00 0.00 0.00 0.00 0.00 0.00 0.00 0.00 0.00 0.00 0.00 0.00 0.01 0.02 0.03 0.02 0.01 0.02 0.02 0.03 0.03 0.03 0.03 0.03 0.02 0.02 0.01 0.00
0.00 0.00 0.00 0.00 0.00 0.00 0.00 0.00 0.00 0.00 0.00 0.00 0.00 0.00 0.00 0.00 0.00 0.00 0.00 0.00 0.00 0.00 0.00 0.00 0.00 0.00 0.00 0.01 0.04 0.04 0.02 0.02 0.01 0.01 0.01 0.02 0.02 0.02 0.03 0.03 0.02 0.01 0.01 0.01
0.00 0.00 0.00 0.00 0.00 0.00 0.00 0.00 0.00 0.00 0.00 0.00 0.00 0.00 0.00 0.00 0.00 0.00 0.00 0.00 0.00 0.00 0.00 0.00 0.00 0.00 0.01 0.04 0.04 0.02 0.01 0.01 0.01 0.01 0.01 0.01 0.01 0.02 0.02 0.03 0.03 0.02 0.01 0.01
0.00 0.00 0.00 0.00 0.00 0.00 0.00 0.00 0.00 0.00 0.00 0.00 0.00 0.00 0.00 0.00 0.00 0.00 0.00 0.00 0.00 0.00 0.00 0.00 0.00 0.01 0.05 0.04 0.01 0.00 0.00 0.00 0.01 0.01 0.01 0.01 0.01 0.01 0.02 0.02 0.02 0.01 0.01 0.01
0.00 0.00 0.00 0.00 0.00 0.00 0.00 0.00 0.00 0.00 0.00 0.00 0.00 0.00 0.00 0.00 0.00 0.00 0.00 0.00 0.00 0.00 0.00 0.00 0.00 0.02 0.03 0.01 0.00 0.00 0.00 0.00 0.01 0.01 0.01 0.01 0.01 0.01 0.01 0.02 0.02 0.01 0.01 0.00
0.00 0.00 0.00 0.00 0.00 0.00 0.00 0.00 0.00 0.00 0.00 0.00 0.00 0.00 0.00 0.00 0.00 0.00 0.00 0.00 0.00 0.00 0.00 0.00 0.00 0.01 0.00 0.00 0.00 0.00 0.01 0.00 0.01 0.02 0.01 0.00 0.00 0.00 0.01 0.01 0.01 0.01 0.01 0.00
0.00 0.00 0.00 0.00 0.00 0.00 0.00 0.00 0.00 0.00 0.00 0.00 0.00 0.00 0.00 0.00 0.00 0.00 0.00 0.00 0.00 0.00 0.00 0.00 0.00 0.00 0.00 0.00 0.00 0.00 0.01 0.01 0.02 0.02 0.01 0.00 0.00 0.00 0.00 0.01 0.00 0.00 0.00 0.00
0.00 0.00 0.00 0.00 0.00 0.00 0.00 0.00 0.00 0.00 0.00 0.00 0.00 0.00 0.00 0.00 0.00 0.00 0.00 0.00 0.00 0.00 0.00 0.00 0.00 0.00 0.00 0.00 0.00 0.00 0.01 0.01 0.03 0.03 0.01 0.01 0.00 0.00 0.00 0.00 0.00 0.00 0.00 0.00
0.00 0.00 0.00 0.00 0.00 0.00 0.00 0.00 0.00 0.00 0.00 0.00 0.00 0.00 0.00 0.00 0.00 0.00 0.00 0.00 0.00 0.00 0.00 0.00 0.00 0.00 0.00 0.00 0.00 0.00 0.01 0.01 0.02 0.03 0.02 0.02 0.01 0.00 0.00 0.00 0.00 0.00 0.00 0.00
0.00 0.00 0.00 0.00 0.00 0.00 0.00 0.00 0.00 0.00 0.00 0.00 0.00 0.00 0.00 0.00 0.00 0.00 0.00 0.00 0.00 0.00 0.00 0.00 0.00 0.00 0.00 0.00 0.00 0.00 0.00 0.01 0.02 0.03 0.04 0.04 0.04 0.02 0.01 0.01 0.00 0.00 0.00 0.00

GEFSNGP_prec_meanprecacc_012.txt.gz
Total_Precipitation_Accumulation
0.00 0.00 0.00 0.00 0.00 0.00 0.00 0.00 0.00 0.00 0.00 0.00 0.00 0.00 0.00 0.00 0.00 0.00 0.00 0.00 0.00 0.00 0.00 0.00 0.00 0.00 0.00 0.00 0.00 0.00 0.00 0.00 0.00 0.00 0.00 0.00 0.00 0.00 0.00 0.00 0.02 0.04 0.05 0.07
0.00 0.00 0.00 0.00 0.00 0.00 0.00 0.00 0.00 0.00 0.00 0.00 0.00 0.00 0.00 0.00 0.00 0.00 0.00 0.00 0.00 0.00 0.00 0.00 0.00 0.00 0.00 0.00 0.00 0.00 0.00 0.00 0.00 0.00 0.00 0.00 0.00 0.00 0.00 0.00 0.01 0.03 0.03 0.04
0.00 0.00 0.00 0.00 0.00 0.00 0.00 0.00 0.00 0.00 0.00 0.00 0.00 0.00 0.00 0.00 0.00 0.01 0.00 0.00 0.00 0.00 0.00 0.00 0.00 0.00 0.00 0.00 0.00 0.00 0.00 0.00 0.00 0.00 0.00 0.00 0.00 0.00 0.00 0.00 0.01 0.03 0.02 0.01
0.00 0.00 0.00 0.00 0.00 0.00 0.00 0.00 0.00 0.00 0.00 0.00 0.00 0.00 0.00 0.00 0.01 0.01 0.00 0.00 0.00 0.00 0.00 0.00 0.00 0.00 0.00 0.00 0.00 0.00 0.00 0.00 0.00 0.00 0.00 0.00 0.00 0.00 0.00 0.00 0.01 0.02 0.02 0.00
0.00 0.00 0.00 0.00 0.00 0.00 0.00 0.00 0.00 0.00 0.00 0.00 0.00 0.00 0.00 0.01 0.01 0.00 0.00 0.00 0.00 0.00 0.00 0.00 0.00 0.00 0.00 0.00 0.00 0.00 0.00 0.00 0.00 0.00 0.00 0.00 0.00 0.00 0.00 0.00 0.00 0.00 0.01 0.00
0.00 0.00 0.00 0.00 0.00 0.00 0.00 0.00 0.00 0.00 0.00 0.00 0.00 0.01 0.02 0.03 0.01 0.00 0.00 0.00 0.00 0.00 0.00 0.00 0.00 0.00 0.00 0.00 0.00 0.00 0.00 0.00 0.00 0.00 0.00 0.00 0.00 0.00 0.00 0.00 0.00 0.00 0.00 0.00
0.00 0.00 0.00 0.00 0.00 0.00 0.00 0.00 0.00 0.00 0.00 0.00 0.00 0.02 0.02 0.01 0.00 0.00 0.00 0.00 0.00 0.00 0.00 0.00 0.00 0.00 0.00 0.00 0.00 0.00 0.00 0.00 0.00 0.00 0.00 0.00 0.00 0.00 0.00 0.00 0.00 0.00 0.00 0.00
0.00 0.00 0.00 0.00 0.00 0.00 0.00 0.00 0.00 0.00 0.00 0.00 0.00 0.01 0.00 0.00 0.00 0.00 0.00 0.00 0.00 0.00 0.00 0.00 0.00 0.00 0.00 0.00 0.00 0.00 0.00 0.00 0.00 0.00 0.00 0.00 0.00 0.00 0.00 0.00 0.00 0.00 0.00 0.00
0.00 0.00 0.00 0.00 0.00 0.00 0.00 0.00 0.00 0.00 0.00 0.00 0.00 0.00 0.00 0.00 0.00 0.00 0.00 0.00 0.00 0.00 0.00 0.00 0.00 0.00 0.00 0.00 0.00 0.00 0.00 0.00 0.00 0.00 0.00 0.00 0.00 0.00 0.00 0.00 0.00 0.00 0.00 0.00
0.00 0.00 0.00 0.00 0.00 0.00 0.00 0.00 0.00 0.00 0.00 0.00 0.00 0.00 0.00 0.00 0.00 0.00 0.00 0.00 0.00 0.00 0.00 0.00 0.00 0.00 0.00 0.00 0.00 0.00 0.00 0.00 0.00 0.00 0.00 0.00 0.00 0.00 0.00 0.01 0.01 0.03 0.03 0.01
0.00 0.00 0.00 0.00 0.00 0.00 0.00 0.00 0.00 0.00 0.00 0.00 0.00 0.00 0.00 0.00 0.00 0.00 0.00 0.00 0.00 0.00 0.00 0.00 0.00 0.00 0.00 0.00 0.00 0.00 0.00 0.00 0.00 0.00 0.00 0.00 0.00 0.00 0.01 0.02 0.05 0.09 0.05 0.02
0.00 0.00 0.00 0.00 0.00 0.00 0.00 0.00 0.00 0.00 0.00 0.00 0.00 0.00 0.00 0.00 0.00 0.00 0.00 0.00 0.00 0.00 0.00 0.00 0.00 0.00 0.00 0.00 0.00 0.00 0.00 0.00 0.00 0.00 0.00 0.00 0.00 0.00 0.01 0.02 0.04 0.04 0.03 0.03
0.00 0.00 0.00 0.00 0.00 0.00 0.00 0.00 0.00 0.00 0.00 0.00 0.00 0.00 0.00 0.00 0.00 0.00 0.00 0.00 0.00 0.00 0.00 0.00 0.00 0.00 0.00 0.00 0.00 0.00 0.00 0.01 0.01 0.01 0.01 0.01 0.01 0.01 0.01 0.01 0.01 0.01 0.01 0.02
0.00 0.00 0.00 0.00 0.00 0.00 0.00 0.00 0.00 0.00 0.00 0.00 0.00 0.00 0.00 0.00 0.00 0.00 0.00 0.00 0.00 0.00 0.00 0.00 0.00 0.00 0.00 0.00 0.00 0.00 0.00 0.01 0.01 0.01 0.02 0.02 0.03 0.03 0.03 0.02 0.01 0.00 0.00 0.00
0.00 0.00 0.00 0.00 0.00 0.00 0.00 0.00 0.00 0.00 0.00 0.00 0.00 0.00 0.00 0.00 0.00 0.00 0.00 0.00 0.00 0.00 0.00 0.00 0.00 0.00 0.00 0.00 0.00 0.00 0.00 0.01 0.02 0.03 0.03 0.03 0.04 0.03 0.03 0.03 0.02 0.01 0.00 0.00
0.00 0.00 0.00 0.00 0.00 0.00 0.00 0.00 0.00 0.00 0.00 0.00 0.00 0.00 0.00 0.00 0.00 0.00 0.00 0.00 0.00 0.00 0.00 0.00 0.00 0.00 0.00 0.00 0.00 0.00 0.00 0.01 0.02 0.03 0.03 0.03 0.04 0.03 0.03 0.03 0.02 0.01 0.01 0.00
0.00 0.00 0.00 0.00 0.00 0.00 0.00 0.00 0.00 0.00 0.00 0.00 0.00 0.00 0.00 0.00 0.00 0.00 0.00 0.00 0.00 0.00 0.00 0.00 0.00 0.00 0.00 0.00 0.01 0.01 0.02 0.01 0.01 0.02 0.02 0.03 0.04 0.03 0.03 0.03 0.03 0.02 0.01 0.01
0.00 0.00 0.00 0.00 0.00 0.00 0.00 0.00 0.00 0.00 0.00 0.00 0.00 0.00 0.00 0.00 0.00 0.00 0.00 0.00 0.00 0.00 0.00 0.00 0.00 0.00 0.00 0.00 0.02 0.03 0.03 0.02 0.02 0.02 0.03 0.03 0.04 0.04 0.04 0.04 0.03 0.02 0.01 0.01
0.00 0.00 0.00 0.00 0.00 0.00 0.00 0.00 0.00 0.00 0.00 0.00 0.00 0.00 0.00 0.00 0.00 0.00 0.00 0.00 0.00 0.00 0.00 0.00 0.00 0.00 0.00 0.01 0.04 0.04 0.02 0.02 0.01 0.01 0.01 0.02 0.02 0.02 0.03 0.03 0.03 0.02 0.01 0.01
0.00 0.00 0.00 0.00 0.00 0.00 0.00 0.00 0.00 0.00 0.00 0.00 0.00 0.00 0.00 0.00 0.00 0.00 0.00 0.00 0.00 0.00 0.00 0.00 0.00 0.00 0.02 0.04 0.04 0.02 0.01 0.01 0.01 0.01 0.01 0.01 0.01 0.02 0.02 0.03 0.03 0.02 0.02 0.01
0.00 0.00 0.00 0.00 0.00 0.00 0.00 0.00 0.00 0.00 0.00 0.00 0.00 0.00 0.00 0.00 0.00 0.00 0.00 0.00 0.00 0.00 0.00 0.00 0.00 0.03 0.07 0.04 0.01 0.00 0.00 0.01 0.01 0.02 0.02 0.02 0.01 0.01 0.02 0.02 0.02 0.02 0.01 0.01
0.00 0.00 0.00 0.00 0.00 0.00 0.00 0.00 0.00 0.00 0.00 0.00 0.00 0.00 0.00 0.00 0.00 0.00 0.00 0.00 0.00 0.00 0.00 0.00 0.00 0.04 0.04 0.01 0.00 0.00 0.00 0.00 0.01 0.02 0.02 0.02 0.01 0.02 0.02 0.02 0.02 0.01 0.01 0.00
0.00 0.00 0.00 0.00 0.00 0.00 0.00 0.00 0.00 0.00 0.00 0.00 0.00 0.00 0.00 0.00 0.00 0.00 0.00 0.00 0.00 0.00 0.00 0.00 0.01 0.02 0.01 0.00 0.00 0.00 0.01 0.01 0.02 0.03 0.02 0.01 0.01 0.01 0.02 0.02 0.02 0.01 0.01 0.01
0.00 0.00 0.00 0.00 0.00 0.00 0.00 0.00 0.00 0.00 0.00 0.00 0.00 0.00 0.00 0.00 0.00 0.00 0.00 0.00 0.00 0.00 0.00 0.00 0.00 0.00 0.00 0.00 0.00 0.00 0.01 0.01 0.03 0.03 0.02 0.01 0.01 0.02 0.02 0.02 0.02 0.02 0.02 0.02
0.00 0.00 0.00 0.00 0.00 0.00 0.00 0.00 0.00 0.00 0.00 0.00 0.00 0.00 0.00 0.00 0.00 0.00 0.00 0.00 0.00 0.00 0.00 0.00 0.00 0.00 0.00 0.00 0.00 0.01 0.01 0.02 0.04 0.03 0.02 0.02 0.02 0.02 0.03 0.03 0.03 0.03 0.03 0.04
0.00 0.00 0.00 0.00 0.00 0.00 0.00 0.00 0.00 0.00 0.00 0.00 0.00 0.00 0.00 0.00 0.00 0.00 0.00 0.00 0.00 0.00 0.00 0.00 0.00 0.00 0.00 0.00 0.00 0.00 0.01 0.01 0.03 0.04 0.03 0.03 0.03 0.03 0.04 0.04 0.04 0.04 0.04 0.05
0.00 0.00 0.00 0.00 0.00 0.00 0.00 0.00 0.00 0.00 0.00 0.00 0.00 0.00 0.00 0.00 0.00 0.00 0.00 0.00 0.00 0.00 0.00 0.00 0.00 0.00 0.00 0.00 0.00 0.00 0.00 0.01 0.02 0.04 0.04 0.05 0.05 0.06 0.06 0.05 0.05 0.05 0.06 0.06

GEFSNGP_prec_meanprecacc_018.txt.gz
Total_Precipitation_Accumulation
0.00 0.00 0.00 0.00 0.00 0.00 0.00 0.00 0.00 0.00 0.00 0.00 0.00 0.00 0.00 0.00 0.00 0.00 0.00 0.00 0.00 0.00 0.00 0.00 0.00 0.00 0.00 0.00 0.00 0.00 0.00 0.00 0.00 0.00 0.00 0.00 0.00 0.00 0.00 0.00 0.02 0.04 0.05 0.07
0.00 0.00 0.00 0.00 0.00 0.00 0.00 0.00 0.00 0.00 0.00 0.00 0.00 0.00 0.00 0.00 0.00 0.00 0.00 0.00 0.00 0.00 0.00 0.00 0.00 0.00 0.00 0.00 0.00 0.00 0.00 0.00 0.00 0.00 0.00 0.00 0.00 0.00 0.00 0.00 0.02 0.03 0.03 0.04
0.00 0.00 0.00 0.00 0.00 0.00 0.00 0.00 0.00 0.00 0.00 0.00 0.00 0.00 0.00 0.00 0.00 0.01 0.00 0.00 0.00 0.00 0.00 0.00 0.00 0.00 0.00 0.00 0.00 0.00 0.00 0.00 0.00 0.00 0.00 0.00 0.00 0.00 0.00 0.00 0.01 0.03 0.02 0.01
0.00 0.00 0.00 0.00 0.00 0.00 0.00 0.00 0.00 0.00 0.00 0.00 0.00 0.00 0.00 0.00 0.01 0.01 0.00 0.00 0.00 0.00 0.00 0.00 0.00 0.00 0.00 0.00 0.00 0.00 0.00 0.00 0.00 0.00 0.00 0.00 0.00 0.00 0.00 0.00 0.01 0.02 0.02 0.00
0.00 0.00 0.00 0.00 0.00 0.00 0.00 0.00 0.00 0.00 0.00 0.00 0.00 0.00 0.00 0.01 0.01 0.00 0.00 0.00 0.00 0.00 0.00 0.00 0.00 0.00 0.00 0.00 0.00 0.00 0.00 0.00 0.00 0.00 0.00 0.00 0.00 0.00 0.00 0.00 0.00 0.00 0.01 0.00
0.00 0.00 0.00 0.00 0.00 0.00 0.00 0.00 0.00 0.00 0.00 0.00 0.00 0.01 0.02 0.03 0.01 0.00 0.00 0.00 0.00 0.00 0.00 0.00 0.00 0.00 0.00 0.00 0.00 0.00 0.00 0.00 0.00 0.00 0.00 0.00 0.00 0.00 0.00 0.00 0.00 0.00 0.00 0.00
0.00 0.00 0.00 0.00 0.00 0.00 0.00 0.00 0.00 0.00 0.00 0.00 0.00 0.02 0.02 0.01 0.00 0.00 0.00 0.00 0.00 0.00 0.00 0.00 0.00 0.00 0.00 0.00 0.00 0.00 0.00 0.00 0.00 0.00 0.00 0.00 0.00 0.00 0.00 0.00 0.00 0.00 0.00 0.00
0.00 0.00 0.00 0.00 0.00 0.00 0.00 0.00 0.00 0.00 0.00 0.00 0.00 0.01 0.00 0.00 0.00 0.00 0.00 0.00 0.00 0.00 0.00 0.00 0.00 0.00 0.00 0.00 0.00 0.00 0.00 0.00 0.00 0.00 0.00 0.00 0.00 0.00 0.00 0.00 0.00 0.00 0.00 0.00
0.00 0.00 0.00 0.00 0.00 0.00 0.00 0.00 0.00 0.00 0.00 0.00 0.00 0.00 0.00 0.00 0.00 0.00 0.00 0.00 0.00 0.00 0.00 0.00 0.00 0.00 0.00 0.00 0.00 0.00 0.00 0.00 0.00 0.00 0.00 0.00 0.00 0.00 0.00 0.00 0.01 0.02 0.02 0.01
0.00 0.00 0.00 0.00 0.00 0.00 0.00 0.00 0.00 0.00 0.00 0.00 0.00 0.00 0.00 0.00 0.00 0.00 0.00 0.00 0.00 0.00 0.00 0.00 0.00 0.00 0.00 0.00 0.00 0.00 0.00 0.00 0.00 0.00 0.00 0.00 0.00 0.00 0.01 0.02 0.04 0.06 0.05 0.02
0.00 0.00 0.00 0.00 0.00 0.00 0.00 0.00 0.00 0.00 0.00 0.00 0.00 0.00 0.00 0.00 0.00 0.00 0.00 0.00 0.00 0.00 0.00 0.00 0.00 0.00 0.00 0.00 0.00 0.00 0.00 0.00 0.00 0.00 0.00 0.00 0.00 0.00 0.02 0.04 0.09 0.13 0.07 0.04
0.00 0.00 0.00 0.00 0.00 0.00 0.00 0.00 0.00 0.00 0.00 0.00 0.00 0.00 0.00 0.00 0.00 0.00 0.00 0.00 0.00 0.00 0.00 0.00 0.00 0.00 0.00 0.00 0.00 0.00 0.00 0.00 0.00 0.00 0.01 0.00 0.00 0.00 0.01 0.03 0.06 0.06 0.05 0.05
0.00 0.00 0.00 0.00 0.00 0.00 0.00 0.00 0.00 0.00 0.00 0.00 0.00 0.00 0.00 0.00 0.00 0.00 0.00 0.00 0.00 0.00 0.00 0.00 0.00 0.00 0.00 0.00 0.00 0.00 0.00 0.01 0.01 0.01 0.01 0.01 0.01 0.02 0.01 0.01 0.02 0.02 0.02 0.02
0.00 0.00 0.00 0.00 0.00 0.00 0.00 0.00 0.00 0.00 0.00 0.00 0.00 0.00 0.00 0.00 0.00 0.00 0.00 0.00 0.00 0.00 0.00 0.00 0.00 0.00 0.00 0.00 0.00 0.00 0.00 0.01 0.01 0.01 0.02 0.02 0.03 0.03 0.03 0.03 0.02 0.01 0.00 0.01
0.00 0.00 0.00 0.00 0.00 0.00 0.00 0.00 0.00 0.00 0.00 0.00 0.00 0.00 0.00 0.00 0.00 0.00 0.00 0.00 0.00 0.00 0.00 0.00 0.00 0.00 0.00 0.00 0.00 0.00 0.00 0.01 0.02 0.03 0.03 0.03 0.04 0.03 0.03 0.03 0.02 0.01 0.00 0.00
0.00 0.00 0.00 0.00 0.00 0.00 0.00 0.00 0.00 0.00 0.00 0.00 0.00 0.00 0.00 0.00 0.00 0.00 0.00 0.00 0.00 0.00 0.00 0.00 0.00 0.00 0.00 0.00 0.00 0.00 0.00 0.01 0.02 0.03 0.03 0.03 0.04 0.03 0.03 0.03 0.02 0.01 0.01 0.00
0.00 0.00 0.00 0.00 0.00 0.00 0.00 0.00 0.00 0.00 0.00 0.00 0.00 0.00 0.00 0.00 0.00 0.00 0.00 0.00 0.00 0.00 0.00 0.00 0.00 0.00 0.00 0.00 0.01 0.01 0.02 0.01 0.01 0.02 0.02 0.03 0.04 0.03 0.03 0.03 0.03 0.02 0.01 0.01
0.00 0.00 0.00 0.00 0.00 0.00 0.00 0.00 0.00 0.00 0.00 0.00 0.00 0.00 0.00 0.00 0.00 0.00 0.00 0.00 0.00 0.00 0.00 0.00 0.00 0.00 0.00 0.00 0.02 0.03 0.03 0.02 0.02 0.02 0.03 0.03 0.04 0.04 0.04 0.04 0.03 0.03 0.01 0.01
0.00 0.00 0.00 0.00 0.00 0.00 0.00 0.00 0.00 0.00 0.00 0.00 0.00 0.00 0.00 0.00 0.00 0.00 0.00 0.00 0.00 0.00 0.00 0.00 0.00 0.00 0.00 0.01 0.04 0.04 0.02 0.02 0.01 0.01 0.01 0.02 0.02 0.02 0.03 0.03 0.03 0.02 0.01 0.01
0.00 0.00 0.00 0.00 0.00 0.00 0.00 0.00 0.00 0.00 0.00 0.00 0.00 0.00 0.00 0.00 0.00 0.00 0.00 0.00 0.00 0.00 0.00 0.00 0.00 0.00 0.02 0.04 0.04 0.02 0.01 0.01 0.01 0.01 0.01 0.01 0.02 0.02 0.03 0.04 0.04 0.03 0.03 0.02
0.00 0.00 0.00 0.00 0.00 0.00 0.00 0.00 0.00 0.00 0.00 0.00 0.00 0.00 0.00 0.00 0.00 0.00 0.00 0.00 0.00 0.00 0.00 0.00 0.00 0.03 0.07 0.04 0.01 0.00 0.00 0.01 0.01 0.02 0.02 0.02 0.02 0.02 0.02 0.03 0.03 0.03 0.03 0.03
0.00 0.00 0.00 0.00 0.00 0.00 0.00 0.00 0.00 0.00 0.00 0.00 0.00 0.00 0.00 0.00 0.00 0.00 0.00 0.00 0.00 0.00 0.00 0.00 0.00 0.04 0.04 0.01 0.00 0.00 0.00 0.00 0.01 0.02 0.02 0.02 0.02 0.02 0.03 0.03 0.04 0.04 0.04 0.04
0.00 0.00 0.00 0.00 0.00 0.00 0.00 0.00 0.00 0.00 0.00 0.00 0.00 0.00 0.00 0.00 0.00 0.00 0.00 0.00 0.00 0.00 0.00 0.00 0.01 0.02 0.01 0.00 0.00 0.00 0.01 0.01 0.02 0.03 0.02 0.02 0.02 0.02 0.03 0.04 0.04 0.05 0.05 0.06
0.00 0.00 0.00 0.00 0.00 0.00 0.00 0.00 0.00 0.00 0.00 0.00 0.00 0.00 0.00 0.00 0.00 0.00 0.00 0.00 0.00 0.00 0.00 0.00 0.00 0.00 0.00 0.00 0.00 0.00 0.01 0.01 0.03 0.03 0.02 0.01 0.01 0.02 0.03 0.04 0.04 0.04 0.05 0.07
0.00 0.00 0.00 0.00 0.00 0.00 0.00 0.00 0.00 0.00 0.00 0.00 0.00 0.00 0.00 0.00 0.00 0.00 0.00 0.00 0.00 0.00 0.00 0.00 0.00 0.00 0.00 0.00 0.00 0.01 0.01 0.02 0.04 0.03 0.02 0.02 0.02 0.03 0.03 0.04 0.05 0.05 0.06 0.07
0.00 0.00 0.00 0.00 0.00 0.00 0.00 0.00 0.00 0.00 0.00 0.00 0.00 0.00 0.00 0.00 0.00 0.00 0.00 0.00 0.00 0.00 0.00 0.00 0.00 0.00 0.00 0.00 0.00 0.00 0.01 0.01 0.03 0.04 0.03 0.03 0.03 0.03 0.04 0.05 0.05 0.06 0.06 0.07
0.00 0.00 0.00 0.00 0.00 0.00 0.00 0.00 0.00 0.00 0.00 0.00 0.00 0.00 0.00 0.00 0.00 0.00 0.00 0.00 0.00 0.00 0.00 0.00 0.00 0.00 0.00 0.00 0.00 0.00 0.00 0.01 0.02 0.04 0.04 0.05 0.05 0.06 0.06 0.07 0.06 0.07 0.07 0.08

GEFSNGP_prec_meanprecacc_024.txt.gz
Total_Precipitation_Accumulation
0.00 0.00 0.00 0.00 0.00 0.00 0.00 0.00 0.00 0.00 0.00 0.00 0.00 0.00 0.00 0.00 0.00 0.00 0.00 0.00 0.00 0.00 0.00 0.00 0.00 0.00 0.00 0.00 0.00 0.00 0.00 0.00 0.00 0.00 0.00 0.00 0.00 0.00 0.00 0.01 0.02 0.04 0.05 0.08
0.00 0.00 0.00 0.00 0.00 0.00 0.00 0.00 0.00 0.00 0.00 0.00 0.00 0.00 0.00 0.00 0.00 0.00 0.00 0.00 0.00 0.00 0.00 0.00 0.00 0.00 0.00 0.00 0.00 0.00 0.00 0.00 0.00 0.00 0.00 0.00 0.00 0.00 0.00 0.00 0.02 0.03 0.03 0.04
0.00 0.00 0.00 0.00 0.00 0.00 0.00 0.00 0.00 0.00 0.00 0.00 0.00 0.00 0.00 0.00 0.00 0.01 0.00 0.00 0.00 0.00 0.00 0.00 0.00 0.00 0.00 0.00 0.00 0.00 0.00 0.00 0.00 0.00 0.00 0.00 0.00 0.00 0.00 0.00 0.01 0.03 0.02 0.01
0.00 0.00 0.00 0.00 0.00 0.00 0.00 0.00 0.00 0.00 0.00 0.00 0.00 0.00 0.00 0.00 0.01 0.01 0.00 0.00 0.00 0.00 0.00 0.00 0.00 0.00 0.00 0.00 0.00 0.00 0.00 0.00 0.00 0.00 0.00 0.00 0.00 0.00 0.00 0.00 0.01 0.02 0.02 0.00
0.00 0.00 0.00 0.00 0.00 0.00 0.00 0.00 0.00 0.00 0.00 0.00 0.00 0.00 0.00 0.01 0.01 0.00 0.00 0.00 0.00 0.00 0.00 0.00 0.00 0.00 0.00 0.00 0.00 0.00 0.00 0.00 0.00 0.00 0.00 0.00 0.00 0.00 0.00 0.00 0.00 0.00 0.01 0.00
0.00 0.00 0.00 0.00 0.00 0.00 0.00 0.00 0.00 0.00 0.00 0.00 0.00 0.01 0.02 0.03 0.01 0.00 0.00 0.00 0.00 0.00 0.00 0.00 0.00 0.00 0.00 0.00 0.00 0.00 0.00 0.00 0.00 0.00 0.00 0.00 0.00 0.00 0.00 0.00 0.00 0.00 0.00 0.00
0.00 0.00 0.00 0.00 0.00 0.00 0.00 0.00 0.00 0.00 0.00 0.00 0.00 0.02 0.02 0.01 0.00 0.00 0.00 0.00 0.00 0.00 0.00 0.00 0.00 0.00 0.00 0.00 0.00 0.00 0.00 0.00 0.00 0.00 0.00 0.00 0.00 0.00 0.00 0.00 0.00 0.00 0.00 0.00
0.00 0.00 0.00 0.00 0.00 0.00 0.00 0.00 0.00 0.00 0.00 0.00 0.00 0.01 0.00 0.00 0.00 0.00 0.00 0.00 0.00 0.00 0.00 0.00 0.00 0.00 0.00 0.00 0.00 0.00 0.00 0.00 0.00 0.00 0.00 0.00 0.00 0.00 0.00 0.00 0.00 0.00 0.00 0.00
0.00 0.00 0.00 0.00 0.00 0.00 0.00 0.00 0.00 0.00 0.00 0.00 0.00 0.00 0.00 0.00 0.00 0.00 0.00 0.00 0.00 0.00 0.00 0.00 0.00 0.00 0.00 0.00 0.00 0.00 0.00 0.00 0.00 0.00 0.00 0.00 0.00 0.00 0.00 0.01 0.02 0.02 0.02 0.01
0.00 0.00 0.00 0.00 0.00 0.00 0.00 0.00 0.00 0.00 0.00 0.00 0.00 0.00 0.00 0.00 0.00 0.00 0.00 0.00 0.00 0.00 0.00 0.00 0.00 0.00 0.00 0.00 0.00 0.00 0.00 0.00 0.00 0.00 0.00 0.00 0.00 0.01 0.01 0.03 0.08 0.08 0.05 0.02
0.00 0.00 0.00 0.00 0.00 0.00 0.00 0.00 0.00 0.00 0.00 0.00 0.00 0.00 0.00 0.00 0.00 0.00 0.00 0.00 0.00 0.00 0.00 0.00 0.00 0.00 0.00 0.00 0.00 0.00 0.00 0.00 0.00 0.00 0.00 0.00 0.00 0.00 0.02 0.04 0.13 0.15 0.08 0.05
0.00 0.00 0.00 0.00 0.00 0.00 0.00 0.00 0.00 0.00 0.00 0.00 0.00 0.00 0.00 0.00 0.00 0.00 0.00 0.00 0.00 0.00 0.00 0.00 0.00 0.00 0.00 0.00 0.00 0.00 0.00 0.00 0.00 0.00 0.01 0.00 0.00 0.00 0.01 0.03 0.07 0.07 0.06 0.07
0.00 0.00 0.00 0.00 0.00 0.00 0.00 0.00 0.00 0.00 0.00 0.00 0.00 0.00 0.00 0.00 0.00 0.00 0.00 0.00 0.00 0.00 0.00 0.00 0.00 0.00 0.00 0.00 0.00 0.00 0.00 0.01 0.01 0.01 0.01 0.01 0.01 0.02 0.02 0.01 0.02 0.02 0.02 0.03
0.00 0.00 0.00 0.00 0.00 0.00 0.00 0.00 0.00 0.00 0.00 0.00 0.00 0.00 0.00 0.00 0.00 0.00 0.00 0.00 0.00 0.00 0.00 0.00 0.00 0.00 0.00 0.00 0.00 0.00 0.00 0.01 0.01 0.01 0.02 0.02 0.03 0.03 0.03 0.03 0.02 0.01 0.00 0.01
0.00 0.00 0.00 0.00 0.00 0.00 0.00 0.00 0.00 0.00 0.00 0.00 0.00 0.00 0.00 0.00 0.00 0.00 0.00 0.00 0.00 0.00 0.00 0.00 0.00 0.00 0.00 0.00 0.00 0.00 0.00 0.01 0.02 0.03 0.03 0.03 0.04 0.03 0.03 0.03 0.02 0.01 0.00 0.00
0.00 0.00 0.00 0.00 0.00 0.00 0.00 0.00 0.00 0.00 0.00 0.00 0.00 0.00 0.00 0.00 0.00 0.00 0.00 0.00 0.00 0.00 0.00 0.00 0.00 0.00 0.00 0.00 0.00 0.00 0.00 0.01 0.02 0.03 0.03 0.03 0.04 0.03 0.03 0.03 0.02 0.02 0.01 0.01
0.00 0.00 0.00 0.00 0.00 0.00 0.00 0.00 0.00 0.00 0.00 0.00 0.00 0.00 0.00 0.00 0.00 0.00 0.00 0.00 0.00 0.00 0.00 0.00 0.00 0.00 0.00 0.00 0.01 0.01 0.02 0.01 0.01 0.02 0.02 0.03 0.04 0.04 0.03 0.04 0.03 0.03 0.02 0.02
0.00 0.00 0.00 0.00 0.00 0.00 0.00 0.00 0.00 0.00 0.00 0.00 0.00 0.00 0.00 0.00 0.00 0.00 0.00 0.00 0.00 0.00 0.00 0.00 0.00 0.00 0.00 0.00 0.02 0.03 0.03 0.02 0.02 0.02 0.03 0.03 0.04 0.04 0.04 0.04 0.04 0.03 0.02 0.01
0.00 0.00 0.00 0.00 0.00 0.00 0.00 0.00 0.00 0.00 0.00 0.00 0.00 0.00 0.00 0.00 0.00 0.00 0.00 0.00 0.00 0.00 0.00 0.00 0.00 0.00 0.00 0.01 0.04 0.04 0.02 0.02 0.01 0.01 0.01 0.02 0.02 0.02 0.03 0.04 0.04 0.03 0.03 0.03
0.00 0.00 0.00 0.00 0.00 0.00 0.00 0.00 0.00 0.00 0.00 0.00 0.00 0.00 0.00 0.00 0.00 0.00 0.00 0.00 0.00 0.00 0.00 0.00 0.00 0.00 0.02 0.04 0.04 0.02 0.01 0.01 0.01 0.01 0.01 0.01 0.02 0.02 0.03 0.04 0.04 0.04 0.04 0.04
0.00 0.00 0.00 0.00 0.00 0.00 0.00 0.00 0.00 0.00 0.00 0.00 0.00 0.00 0.00 0.00 0.00 0.00 0.00 0.00 0.00 0.00 0.00 0.00 0.00 0.03 0.07 0.04 0.01 0.00 0.00 0.01 0.01 0.02 0.02 0.02 0.02 0.02 0.02 0.03 0.04 0.04 0.04 0.04
0.00 0.00 0.00 0.00 0.00 0.00 0.00 0.00 0.00 0.00 0.00 0.00 0.00 0.00 0.00 0.00 0.00 0.00 0.00 0.00 0.00 0.00 0.00 0.00 0.00 0.04 0.04 0.01 0.00 0.00 0.00 0.00 0.01 0.02 0.02 0.02 0.02 0.03 0.03 0.04 0.05 0.04 0.04 0.05
0.00 0.00 0.00 0.00 0.00 0.00 0.00 0.00 0.00 0.00 0.00 0.00 0.00 0.00 0.00 0.00 0.00 0.00 0.00 0.00 0.00 0.00 0.00 0.00 0.01 0.02 0.01 0.00 0.00 0.00 0.01 0.01 0.02 0.03 0.02 0.02 0.02 0.02 0.03 0.04 0.05 0.05 0.06 0.07
0.00 0.00 0.00 0.00 0.00 0.00 0.00 0.00 0.00 0.00 0.00 0.00 0.00 0.00 0.00 0.00 0.00 0.00 0.00 0.00 0.00 0.00 0.00 0.00 0.00 0.00 0.00 0.00 0.00 0.00 0.01 0.01 0.03 0.03 0.02 0.01 0.02 0.02 0.03 0.04 0.05 0.05 0.06 0.07
0.00 0.00 0.00 0.00 0.00 0.00 0.00 0.00 0.00 0.00 0.00 0.00 0.00 0.00 0.00 0.00 0.00 0.00 0.00 0.00 0.00 0.00 0.00 0.00 0.00 0.00 0.00 0.00 0.00 0.01 0.01 0.02 0.04 0.03 0.02 0.02 0.02 0.03 0.03 0.05 0.06 0.06 0.07 0.08
0.00 0.00 0.00 0.00 0.00 0.00 0.00 0.00 0.00 0.00 0.00 0.00 0.00 0.00 0.00 0.00 0.00 0.00 0.00 0.00 0.00 0.00 0.00 0.00 0.00 0.00 0.00 0.00 0.00 0.00 0.01 0.01 0.03 0.04 0.03 0.03 0.03 0.03 0.04 0.05 0.06 0.06 0.07 0.08
0.00 0.00 0.00 0.00 0.00 0.00 0.00 0.00 0.00 0.00 0.00 0.00 0.00 0.00 0.00 0.00 0.00 0.00 0.00 0.00 0.00 0.00 0.00 0.00 0.00 0.00 0.00 0.00 0.00 0.00 0.00 0.01 0.02 0.04 0.04 0.05 0.05 0.06 0.07 0.07 0.07 0.07 0.08 0.09

GEFSNGP_prec_meanprecacc_030.txt.gz
Total_Precipitation_Accumulation
0.00 0.00 0.00 0.00 0.00 0.00 0.00 0.00 0.00 0.00 0.00 0.00 0.00 0.00 0.00 0.00 0.00 0.00 0.00 0.00 0.00 0.00 0.00 0.00 0.00 0.00 0.00 0.00 0.00 0.00 0.00 0.00 0.00 0.00 0.00 0.00 0.00 0.00 0.00 0.01 0.02 0.04 0.06 0.10
0.00 0.00 0.00 0.00 0.00 0.00 0.00 0.00 0.00 0.00 0.00 0.00 0.00 0.00 0.00 0.00 0.00 0.00 0.00 0.00 0.00 0.00 0.00 0.00 0.00 0.00 0.00 0.00 0.00 0.00 0.00 0.00 0.00 0.00 0.00 0.00 0.00 0.00 0.00 0.00 0.02 0.03 0.03 0.05
0.00 0.00 0.00 0.00 0.00 0.00 0.00 0.00 0.00 0.00 0.00 0.00 0.00 0.00 0.00 0.00 0.00 0.01 0.00 0.00 0.00 0.00 0.00 0.00 0.00 0.00 0.00 0.00 0.00 0.00 0.00 0.00 0.00 0.00 0.00 0.00 0.00 0.00 0.00 0.00 0.01 0.03 0.02 0.01
0.00 0.00 0.00 0.00 0.00 0.00 0.00 0.00 0.00 0.00 0.00 0.00 0.00 0.00 0.00 0.00 0.01 0.01 0.00 0.00 0.00 0.00 0.00 0.00 0.00 0.00 0.00 0.00 0.00 0.00 0.00 0.00 0.00 0.00 0.00 0.00 0.00 0.00 0.00 0.00 0.01 0.02 0.02 0.00
0.00 0.00 0.00 0.00 0.00 0.00 0.00 0.00 0.00 0.00 0.00 0.00 0.00 0.00 0.00 0.01 0.01 0.00 0.00 0.00 0.00 0.00 0.00 0.00 0.00 0.00 0.00 0.00 0.00 0.00 0.00 0.00 0.00 0.00 0.00 0.00 0.00 0.00 0.00 0.00 0.00 0.00 0.01 0.00
0.00 0.00 0.00 0.00 0.00 0.00 0.00 0.00 0.00 0.00 0.00 0.00 0.00 0.01 0.02 0.03 0.01 0.00 0.00 0.00 0.00 0.00 0.00 0.00 0.00 0.00 0.00 0.00 0.00 0.00 0.00 0.00 0.00 0.00 0.00 0.00 0.00 0.00 0.00 0.00 0.00 0.00 0.00 0.00
0.00 0.00 0.00 0.00 0.00 0.00 0.00 0.00 0.00 0.00 0.00 0.00 0.00 0.02 0.02 0.01 0.00 0.00 0.00 0.00 0.00 0.00 0.00 0.00 0.00 0.00 0.00 0.00 0.00 0.00 0.00 0.00 0.00 0.00 0.00 0.00 0.00 0.00 0.00 0.00 0.00 0.00 0.00 0.00
0.00 0.00 0.00 0.00 0.00 0.00 0.00 0.00 0.00 0.00 0.00 0.00 0.00 0.01 0.00 0.00 0.00 0.00 0.00 0.00 0.00 0.00 0.00 0.00 0.00 0.00 0.00 0.00 0.00 0.00 0.00 0.00 0.00 0.00 0.00 0.00 0.00 0.00 0.00 0.00 0.00 0.00 0.00 0.00
0.00 0.00 0.00 0.00 0.00 0.00 0.00 0.00 0.00 0.00 0.00 0.00 0.00 0.00 0.00 0.00 0.00 0.00 0.00 0.00 0.00 0.00 0.00 0.00 0.00 0.00 0.00 0.00 0.00 0.00 0.00 0.00 0.00 0.00 0.00 0.00 0.00 0.00 0.00 0.01 0.03 0.03 0.02 0.01
0.00 0.00 0.00 0.00 0.00 0.00 0.00 0.00 0.00 0.00 0.00 0.00 0.00 0.00 0.00 0.00 0.00 0.00 0.00 0.00 0.00 0.00 0.00 0.00 0.00 0.00 0.00 0.00 0.00 0.00 0.00 0.00 0.00 0.00 0.00 0.00 0.00 0.01 0.01 0.03 0.10 0.10 0.06 0.02
0.00 0.00 0.00 0.00 0.00 0.00 0.00 0.00 0.00 0.00 0.00 0.00 0.00 0.00 0.00 0.00 0.00 0.00 0.00 0.00 0.00 0.00 0.00 0.00 0.00 0.00 0.00 0.00 0.00 0.00 0.00 0.00 0.00 0.00 0.00 0.00 0.00 0.00 0.02 0.05 0.15 0.19 0.11 0.08
0.00 0.00 0.00 0.00 0.00 0.00 0.00 0.00 0.00 0.00 0.00 0.00 0.00 0.00 0.00 0.00 0.00 0.00 0.00 0.00 0.00 0.00 0.00 0.00 0.00 0.00 0.00 0.00 0.00 0.00 0.00 0.00 0.00 0.00 0.01 0.00 0.00 0.00 0.01 0.03 0.07 0.08 0.07 0.09
0.00 0.00 0.00 0.00 0.00 0.00 0.00 0.00 0.00 0.00 0.00 0.00 0.00 0.00 0.00 0.00 0.00 0.00 0.00 0.00 0.00 0.00 0.00 0.00 0.00 0.00 0.00 0.00 0.00 0.00 0.00 0.01 0.01 0.01 0.01 0.01 0.01 0.02 0.02 0.01 0.02 0.02 0.03 0.04
0.00 0.00 0.00 0.00 0.00 0.00 0.00 0.00 0.00 0.00 0.00 0.00 0.00 0.00 0.00 0.00 0.00 0.00 0.00 0.00 0.00 0.00 0.00 0.00 0.00 0.00 0.00 0.00 0.00 0.00 0.00 0.01 0.01 0.01 0.02 0.02 0.03 0.03 0.03 0.03 0.02 0.01 0.00 0.01
0.00 0.00 0.00 0.00 0.00 0.00 0.00 0.00 0.00 0.00 0.00 0.00 0.00 0.00 0.00 0.00 0.00 0.00 0.00 0.00 0.00 0.00 0.00 0.00 0.00 0.00 0.00 0.00 0.00 0.00 0.00 0.01 0.02 0.03 0.03 0.03 0.04 0.04 0.03 0.03 0.03 0.01 0.00 0.00
0.00 0.00 0.00 0.00 0.00 0.00 0.00 0.00 0.00 0.00 0.00 0.00 0.00 0.00 0.00 0.00 0.00 0.00 0.00 0.00 0.00 0.00 0.00 0.00 0.00 0.00 0.00 0.00 0.00 0.00 0.00 0.01 0.02 0.03 0.03 0.03 0.04 0.04 0.03 0.03 0.03 0.02 0.02 0.03
0.00 0.00 0.00 0.00 0.00 0.00 0.00 0.00 0.00 0.00 0.00 0.00 0.00 0.00 0.00 0.00 0.00 0.00 0.00 0.00 0.00 0.00 0.00 0.00 0.00 0.00 0.00 0.00 0.01 0.01 0.02 0.01 0.01 0.02 0.02 0.03 0.04 0.04 0.04 0.04 0.04 0.03 0.02 0.04
0.00 0.00 0.00 0.00 0.00 0.00 0.00 0.00 0.00 0.00 0.00 0.00 0.00 0.00 0.00 0.00 0.00 0.00 0.00 0.00 0.00 0.00 0.00 0.00 0.00 0.00 0.00 0.00 0.02 0.03 0.03 0.02 0.02 0.02 0.03 0.03 0.04 0.04 0.04 0.05 0.04 0.04 0.02 0.02
0.00 0.00 0.00 0.00 0.00 0.00 0.00 0.00 0.00 0.00 0.00 0.00 0.00 0.00 0.00 0.00 0.00 0.00 0.00 0.00 0.00 0.00 0.00 0.00 0.00 0.00 0.00 0.01 0.04 0.04 0.02 0.02 0.01 0.01 0.01 0.02 0.02 0.02 0.03 0.04 0.04 0.03 0.03 0.03
0.00 0.00 0.00 0.00 0.00 0.00 0.00 0.00 0.00 0.00 0.00 0.00 0.00 0.00 0.00 0.00 0.00 0.00 0.00 0.00 0.00 0.00 0.00 0.00 0.00 0.00 0.02 0.04 0.04 0.02 0.01 0.01 0.01 0.01 0.01 0.01 0.02 0.02 0.03 0.04 0.04 0.04 0.04 0.04
0.00 0.00 0.00 0.00 0.00 0.00 0.00 0.00 0.00 0.00 0.00 0.00 0.00 0.00 0.00 0.00 0.00 0.00 0.00 0.00 0.00 0.00 0.00 0.00 0.00 0.03 0.07 0.04 0.01 0.00 0.00 0.01 0.01 0.02 0.02 0.02 0.02 0.02 0.02 0.03 0.04 0.04 0.04 0.04
0.00 0.00 0.00 0.00 0.00 0.00 0.00 0.00 0.00 0.00 0.00 0.00 0.00 0.00 0.00 0.00 0.00 0.00 0.00 0.00 0.00 0.00 0.00 0.00 0.00 0.04 0.04 0.01 0.00 0.00 0.00 0.00 0.01 0.02 0.02 0.02 0.02 0.03 0.03 0.04 0.05 0.04 0.04 0.05
0.00 0.00 0.00 0.00 0.00 0.00 0.00 0.00 0.00 0.00 0.00 0.00 0.00 0.00 0.00 0.00 0.00 0.00 0.00 0.00 0.00 0.00 0.00 0.00 0.01 0.02 0.01 0.00 0.00 0.00 0.01 0.01 0.02 0.03 0.02 0.02 0.02 0.02 0.03 0.04 0.05 0.05 0.06 0.07
0.00 0.00 0.00 0.00 0.00 0.00 0.00 0.00 0.00 0.00 0.00 0.00 0.00 0.00 0.00 0.00 0.00 0.00 0.00 0.00 0.00 0.00 0.00 0.00 0.00 0.00 0.00 0.00 0.00 0.00 0.01 0.01 0.03 0.03 0.02 0.01 0.02 0.02 0.03 0.04 0.05 0.05 0.06 0.07
0.00 0.00 0.00 0.00 0.00 0.00 0.00 0.00 0.00 0.00 0.00 0.00 0.00 0.00 0.00 0.00 0.00 0.00 0.00 0.00 0.00 0.00 0.00 0.00 0.00 0.00 0.00 0.00 0.00 0.01 0.01 0.02 0.04 0.03 0.02 0.02 0.02 0.03 0.03 0.05 0.06 0.06 0.07 0.08
0.00 0.00 0.00 0.00 0.00 0.00 0.00 0.00 0.00 0.00 0.00 0.00 0.00 0.00 0.00 0.00 0.00 0.00 0.00 0.00 0.00 0.00 0.00 0.00 0.00 0.00 0.00 0.00 0.00 0.00 0.01 0.01 0.03 0.04 0.03 0.03 0.03 0.03 0.04 0.05 0.06 0.06 0.07 0.08
0.00 0.00 0.00 0.00 0.00 0.00 0.00 0.00 0.00 0.00 0.00 0.00 0.00 0.00 0.00 0.00 0.00 0.00 0.00 0.00 0.00 0.00 0.00 0.00 0.00 0.00 0.00 0.00 0.00 0.00 0.00 0.01 0.02 0.04 0.04 0.05 0.05 0.06 0.07 0.07 0.07 0.07 0.08 0.09

GEFSNGP_prec_meanprecacc_036.txt.gz
Total_Precipitation_Accumulation
0.00 0.00 0.00 0.00 0.00 0.00 0.00 0.00 0.00 0.00 0.00 0.00 0.00 0.00 0.00 0.00 0.00 0.00 0.00 0.00 0.00 0.00 0.00 0.00 0.00 0.00 0.00 0.00 0.00 0.00 0.00 0.00 0.00 0.00 0.00 0.00 0.00 0.00 0.00 0.01 0.02 0.04 0.06 0.10
0.00 0.00 0.00 0.00 0.00 0.00 0.00 0.00 0.00 0.00 0.00 0.00 0.00 0.00 0.00 0.00 0.00 0.00 0.00 0.00 0.00 0.00 0.00 0.00 0.00 0.00 0.00 0.00 0.00 0.00 0.00 0.00 0.00 0.00 0.00 0.00 0.00 0.00 0.00 0.00 0.02 0.03 0.03 0.05
0.00 0.00 0.00 0.00 0.00 0.00 0.00 0.00 0.00 0.00 0.00 0.00 0.00 0.00 0.00 0.00 0.00 0.01 0.00 0.00 0.00 0.00 0.00 0.00 0.00 0.00 0.00 0.00 0.00 0.00 0.00 0.00 0.00 0.00 0.00 0.00 0.00 0.00 0.00 0.00 0.01 0.03 0.02 0.01
0.00 0.00 0.00 0.00 0.00 0.00 0.00 0.00 0.00 0.00 0.00 0.00 0.00 0.00 0.00 0.00 0.01 0.01 0.00 0.00 0.00 0.00 0.00 0.00 0.00 0.00 0.00 0.00 0.00 0.00 0.00 0.00 0.00 0.00 0.00 0.00 0.00 0.00 0.00 0.00 0.01 0.02 0.02 0.00
0.00 0.00 0.00 0.00 0.00 0.00 0.00 0.00 0.00 0.00 0.00 0.00 0.00 0.00 0.00 0.01 0.01 0.00 0.00 0.00 0.00 0.00 0.00 0.00 0.00 0.00 0.00 0.00 0.00 0.00 0.00 0.00 0.00 0.00 0.00 0.00 0.00 0.00 0.00 0.00 0.00 0.00 0.01 0.00
0.00 0.00 0.00 0.00 0.00 0.00 0.00 0.00 0.00 0.00 0.00 0.00 0.00 0.01 0.02 0.03 0.01 0.00 0.00 0.00 0.00 0.00 0.00 0.00 0.00 0.00 0.00 0.00 0.00 0.00 0.00 0.00 0.00 0.00 0.00 0.00 0.00 0.00 0.00 0.00 0.00 0.00 0.00 0.00
0.00 0.00 0.00 0.00 0.00 0.00 0.00 0.00 0.00 0.00 0.00 0.00 0.00 0.02 0.02 0.01 0.00 0.00 0.00 0.00 0.00 0.00 0.00 0.00 0.00 0.00 0.00 0.00 0.00 0.00 0.00 0.00 0.00 0.00 0.00 0.00 0.00 0.00 0.00 0.00 0.00 0.00 0.00 0.00
0.00 0.00 0.00 0.00 0.00 0.00 0.00 0.00 0.00 0.00 0.00 0.00 0.00 0.01 0.00 0.00 0.00 0.00 0.00 0.00 0.00 0.00 0.00 0.00 0.00 0.00 0.00 0.00 0.00 0.00 0.00 0.00 0.00 0.00 0.00 0.00 0.00 0.00 0.00 0.00 0.00 0.00 0.00 0.00
0.00 0.00 0.00 0.00 0.00 0.00 0.00 0.00 0.00 0.00 0.00 0.00 0.00 0.00 0.00 0.00 0.00 0.00 0.00 0.00 0.00 0.00 0.00 0.00 0.00 0.00 0.00 0.00 0.00 0.00 0.00 0.00 0.00 0.00 0.00 0.00 0.00 0.00 0.00 0.01 0.03 0.03 0.03 0.01
0.00 0.00 0.00 0.00 0.00 0.00 0.00 0.00 0.00 0.00 0.00 0.00 0.00 0.00 0.00 0.00 0.00 0.00 0.00 0.00 0.00 0.00 0.00 0.00 0.00 0.00 0.00 0.00 0.00 0.00 0.00 0.00 0.00 0.00 0.00 0.00 0.00 0.01 0.01 0.03 0.11 0.13 0.08 0.03
0.00 0.00 0.00 0.00 0.00 0.00 0.00 0.00 0.00 0.00 0.00 0.00 0.00 0.00 0.00 0.00 0.00 0.00 0.00 0.00 0.00 0.00 0.00 0.00 0.00 0.00 0.00 0.00 0.00 0.00 0.00 0.00 0.00 0.00 0.00 0.00 0.00 0.00 0.02 0.05 0.17 0.23 0.13 0.11
0.00 0.00 0.00 0.00 0.00 0.00 0.00 0.00 0.00 0.00 0.00 0.00 0.00 0.00 0.00 0.00 0.00 0.00 0.00 0.00 0.00 0.00 0.00 0.00 0.00 0.00 0.00 0.00 0.00 0.00 0.00 0.00 0.00 0.00 0.01 0.00 0.00 0.00 0.01 0.03 0.08 0.09 0.08 0.11
0.00 0.00 0.00 0.00 0.00 0.00 0.00 0.00 0.00 0.00 0.00 0.00 0.00 0.00 0.00 0.00 0.00 0.00 0.00 0.00 0.00 0.00 0.00 0.00 0.00 0.00 0.00 0.00 0.00 0.00 0.00 0.01 0.01 0.01 0.01 0.01 0.01 0.02 0.02 0.01 0.02 0.02 0.03 0.05
0.00 0.00 0.00 0.00 0.00 0.00 0.00 0.00 0.00 0.00 0.00 0.00 0.00 0.00 0.00 0.00 0.00 0.00 0.00 0.00 0.00 0.00 0.00 0.00 0.00 0.00 0.00 0.00 0.00 0.00 0.00 0.01 0.01 0.01 0.02 0.03 0.03 0.03 0.03 0.03 0.02 0.01 0.00 0.01
0.00 0.00 0.00 0.00 0.00 0.00 0.00 0.00 0.00 0.00 0.00 0.00 0.00 0.00 0.00 0.00 0.00 0.00 0.00 0.00 0.00 0.00 0.00 0.00 0.00 0.00 0.00 0.00 0.00 0.00 0.00 0.01 0.02 0.03 0.03 0.03 0.04 0.04 0.03 0.03 0.03 0.01 0.00 0.00
0.00 0.00 0.00 0.00 0.00 0.00 0.00 0.00 0.00 0.00 0.00 0.00 0.00 0.00 0.00 0.00 0.00 0.00 0.00 0.00 0.00 0.00 0.00 0.00 0.00 0.00 0.00 0.00 0.00 0.00 0.00 0.01 0.02 0.03 0.03 0.03 0.04 0.04 0.03 0.03 0.03 0.02 0.02 0.03
0.00 0.00 0.00 0.00 0.00 0.00 0.00 0.00 0.00 0.00 0.00 0.00 0.00 0.00 0.00 0.00 0.00 0.00 0.00 0.00 0.00 0.00 0.00 0.00 0.00 0.00 0.00 0.00 0.01 0.01 0.02 0.01 0.01 0.02 0.02 0.03 0.04 0.04 0.04 0.04 0.04 0.03 0.02 0.04
0.00 0.00 0.00 0.00 0.00 0.00 0.00 0.00 0.00 0.00 0.00 0.00 0.00 0.00 0.00 0.00 0.00 0.00 0.00 0.00 0.00 0.00 0.00 0.00 0.00 0.00 0.00 0.00 0.02 0.03 0.03 0.02 0.02 0.02 0.03 0.03 0.04 0.04 0.04 0.05 0.04 0.04 0.02 0.02
0.00 0.00 0.00 0.00 0.00 0.00 0.00 0.00 0.00 0.00 0.00 0.00 0.00 0.00 0.00 0.00 0.00 0.00 0.00 0.00 0.00 0.00 0.00 0.00 0.00 0.00 0.00 0.01 0.04 0.04 0.02 0.02 0.01 0.01 0.01 0.02 0.02 0.02 0.03 0.04 0.04 0.03 0.03 0.03
0.00 0.00 0.00 0.00 0.00 0.00 0.00 0.00 0.00 0.00 0.00 0.00 0.00 0.00 0.00 0.00 0.00 0.00 0.00 0.00 0.00 0.00 0.00 0.00 0.00 0.00 0.02 0.04 0.04 0.02 0.01 0.01 0.01 0.01 0.01 0.01 0.02 0.02 0.03 0.04 0.04 0.04 0.04 0.04
0.00 0.00 0.00 0.00 0.00 0.00 0.00 0.00 0.00 0.00 0.00 0.00 0.00 0.00 0.00 0.00 0.00 0.00 0.00 0.00 0.00 0.00 0.00 0.00 0.00 0.03 0.07 0.04 0.01 0.00 0.00 0.01 0.01 0.02 0.02 0.02 0.02 0.02 0.02 0.03 0.04 0.04 0.04 0.04
0.00 0.00 0.00 0.00 0.00 0.00 0.00 0.00 0.00 0.00 0.00 0.00 0.00 0.00 0.00 0.00 0.00 0.00 0.00 0.00 0.00 0.00 0.00 0.00 0.00 0.04 0.04 0.01 0.00 0.00 0.00 0.00 0.01 0.02 0.02 0.02 0.02 0.03 0.03 0.04 0.05 0.04 0.04 0.05
0.00 0.00 0.00 0.00 0.00 0.00 0.00 0.00 0.00 0.00 0.00 0.00 0.00 0.00 0.00 0.00 0.00 0.00 0.00 0.00 0.00 0.00 0.00 0.00 0.01 0.02 0.01 0.00 0.00 0.00 0.01 0.01 0.02 0.03 0.02 0.02 0.02 0.02 0.03 0.04 0.05 0.05 0.06 0.07
0.00 0.00 0.00 0.00 0.00 0.00 0.00 0.00 0.00 0.00 0.00 0.00 0.00 0.00 0.00 0.00 0.00 0.00 0.00 0.00 0.00 0.00 0.00 0.00 0.00 0.00 0.00 0.00 0.00 0.00 0.01 0.01 0.03 0.03 0.02 0.01 0.02 0.02 0.03 0.04 0.05 0.05 0.06 0.07
0.00 0.00 0.00 0.00 0.00 0.00 0.00 0.00 0.00 0.00 0.00 0.00 0.00 0.00 0.00 0.00 0.00 0.00 0.00 0.00 0.00 0.00 0.00 0.00 0.00 0.00 0.00 0.00 0.00 0.01 0.01 0.02 0.04 0.03 0.02 0.02 0.02 0.03 0.03 0.05 0.06 0.06 0.07 0.08
0.01 0.01 0.01 0.01 0.01 0.00 0.00 0.00 0.00 0.00 0.00 0.00 0.00 0.00 0.00 0.00 0.00 0.00 0.00 0.00 0.00 0.00 0.00 0.00 0.00 0.00 0.00 0.00 0.00 0.00 0.01 0.01 0.03 0.04 0.03 0.03 0.03 0.03 0.04 0.05 0.06 0.06 0.07 0.08
0.02 0.02 0.01 0.01 0.01 0.01 0.01 0.01 0.01 0.00 0.01 0.01 0.00 0.00 0.00 0.00 0.00 0.00 0.00 0.00 0.00 0.00 0.00 0.00 0.00 0.00 0.00 0.00 0.00 0.00 0.00 0.01 0.02 0.04 0.04 0.05 0.05 0.06 0.07 0.07 0.07 0.07 0.08 0.09

GEFSNGP_prec_meanprecacc_042.txt.gz
Total_Precipitation_Accumulation
0.00 0.00 0.00 0.00 0.00 0.00 0.00 0.00 0.00 0.00 0.00 0.00 0.00 0.00 0.00 0.00 0.00 0.00 0.00 0.00 0.00 0.00 0.00 0.00 0.00 0.00 0.00 0.00 0.00 0.00 0.00 0.00 0.00 0.00 0.00 0.00 0.00 0.00 0.00 0.01 0.02 0.04 0.06 0.10
0.00 0.00 0.00 0.00 0.00 0.00 0.00 0.00 0.00 0.00 0.00 0.00 0.00 0.00 0.00 0.00 0.00 0.00 0.00 0.00 0.00 0.00 0.00 0.00 0.00 0.00 0.00 0.00 0.00 0.00 0.00 0.00 0.00 0.00 0.00 0.00 0.00 0.00 0.00 0.00 0.02 0.03 0.03 0.05
0.00 0.00 0.00 0.00 0.00 0.00 0.00 0.00 0.00 0.00 0.00 0.00 0.00 0.00 0.00 0.00 0.00 0.01 0.00 0.00 0.00 0.00 0.00 0.00 0.00 0.00 0.00 0.00 0.00 0.00 0.00 0.00 0.00 0.00 0.00 0.00 0.00 0.00 0.00 0.00 0.01 0.03 0.02 0.01
0.00 0.00 0.00 0.00 0.00 0.00 0.00 0.00 0.00 0.00 0.00 0.00 0.00 0.00 0.00 0.00 0.01 0.01 0.00 0.00 0.00 0.00 0.00 0.00 0.00 0.00 0.00 0.00 0.00 0.00 0.00 0.00 0.00 0.00 0.00 0.00 0.00 0.00 0.00 0.00 0.01 0.02 0.02 0.00
0.00 0.00 0.00 0.00 0.00 0.00 0.00 0.00 0.00 0.00 0.00 0.00 0.00 0.00 0.00 0.01 0.01 0.00 0.00 0.00 0.00 0.00 0.00 0.00 0.00 0.00 0.00 0.00 0.00 0.00 0.00 0.00 0.00 0.00 0.00 0.00 0.00 0.00 0.00 0.00 0.00 0.00 0.01 0.00
0.00 0.00 0.00 0.00 0.00 0.00 0.00 0.00 0.00 0.00 0.00 0.00 0.00 0.01 0.02 0.03 0.01 0.00 0.00 0.00 0.00 0.00 0.00 0.00 0.00 0.00 0.00 0.00 0.00 0.00 0.00 0.00 0.00 0.00 0.00 0.00 0.00 0.00 0.00 0.00 0.00 0.00 0.00 0.00
0.00 0.00 0.00 0.00 0.00 0.00 0.00 0.00 0.00 0.00 0.00 0.00 0.00 0.02 0.02 0.01 0.00 0.00 0.00 0.00 0.00 0.00 0.00 0.00 0.00 0.00 0.00 0.00 0.00 0.00 0.00 0.00 0.00 0.00 0.00 0.00 0.00 0.00 0.00 0.00 0.00 0.00 0.00 0.00
0.00 0.00 0.00 0.00 0.00 0.00 0.00 0.00 0.00 0.00 0.00 0.00 0.00 0.01 0.00 0.00 0.00 0.00 0.00 0.00 0.00 0.00 0.00 0.00 0.00 0.00 0.00 0.00 0.00 0.00 0.00 0.00 0.00 0.00 0.00 0.00 0.00 0.00 0.00 0.00 0.00 0.00 0.00 0.00
0.00 0.00 0.00 0.00 0.00 0.00 0.00 0.00 0.00 0.00 0.00 0.00 0.00 0.00 0.00 0.00 0.00 0.00 0.00 0.00 0.00 0.00 0.00 0.00 0.00 0.00 0.00 0.00 0.00 0.00 0.00 0.00 0.00 0.00 0.00 0.00 0.00 0.00 0.00 0.01 0.03 0.03 0.03 0.02
0.00 0.00 0.00 0.00 0.00 0.00 0.00 0.00 0.00 0.00 0.00 0.00 0.00 0.00 0.00 0.00 0.00 0.00 0.00 0.00 0.00 0.00 0.00 0.00 0.00 0.00 0.00 0.00 0.00 0.00 0.00 0.00 0.00 0.00 0.00 0.00 0.00 0.01 0.01 0.03 0.11 0.13 0.08 0.04
0.00 0.00 0.00 0.00 0.00 0.00 0.00 0.00 0.00 0.00 0.00 0.00 0.00 0.00 0.00 0.00 0.00 0.00 0.00 0.00 0.00 0.00 0.00 0.00 0.00 0.00 0.00 0.00 0.00 0.00 0.00 0.00 0.00 0.00 0.00 0.00 0.00 0.00 0.02 0.05 0.17 0.23 0.13 0.11
0.00 0.00 0.00 0.00 0.00 0.00 0.00 0.00 0.00 0.00 0.00 0.00 0.00 0.00 0.00 0.00 0.00 0.00 0.00 0.00 0.00 0.00 0.00 0.00 0.00 0.00 0.00 0.00 0.00 0.00 0.00 0.00 0.00 0.00 0.01 0.00 0.00 0.00 0.01 0.03 0.08 0.09 0.08 0.12
0.00 0.00 0.00 0.00 0.00 0.00 0.00 0.00 0.00 0.00 0.00 0.00 0.00 0.00 0.00 0.00 0.00 0.00 0.00 0.00 0.00 0.00 0.00 0.00 0.00 0.00 0.00 0.00 0.00 0.00 0.00 0.01 0.01 0.01 0.01 0.01 0.01 0.02 0.02 0.01 0.02 0.02 0.03 0.05
0.00 0.00 0.00 0.00 0.00 0.00 0.00 0.00 0.00 0.00 0.00 0.00 0.00 0.00 0.00 0.00 0.00 0.00 0.00 0.00 0.00 0.00 0.00 0.00 0.00 0.00 0.00 0.00 0.00 0.00 0.00 0.01 0.01 0.01 0.02 0.03 0.03 0.03 0.03 0.03 0.02 0.01 0.00 0.01
0.00 0.00 0.00 0.00 0.00 0.00 0.00 0.00 0.00 0.00 0.00 0.00 0.00 0.00 0.00 0.00 0.00 0.00 0.00 0.00 0.00 0.00 0.00 0.00 0.00 0.00 0.00 0.00 0.00 0.00 0.00 0.01 0.02 0.03 0.03 0.03 0.04 0.04 0.03 0.03 0.03 0.01 0.00 0.00
0.00 0.00 0.00 0.00 0.00 0.00 0.00 0.00 0.00 0.00 0.00 0.00 0.00 0.00 0.00 0.00 0.00 0.00 0.00 0.00 0.00 0.00 0.00 0.00 0.00 0.00 0.00 0.00 0.00 0.00 0.00 0.01 0.02 0.03 0.03 0.03 0.04 0.04 0.03 0.03 0.03 0.02 0.02 0.03
0.00 0.00 0.00 0.00 0.00 0.00 0.00 0.00 0.00 0.00 0.00 0.00 0.00 0.00 0.00 0.00 0.00 0.00 0.00 0.00 0.00 0.00 0.00 0.00 0.00 0.00 0.00 0.00 0.01 0.01 0.02 0.01 0.01 0.02 0.02 0.03 0.04 0.04 0.04 0.04 0.04 0.03 0.02 0.04
0.00 0.00 0.00 0.00 0.00 0.00 0.00 0.00 0.00 0.00 0.00 0.00 0.00 0.00 0.00 0.00 0.00 0.00 0.00 0.00 0.00 0.00 0.00 0.00 0.00 0.00 0.00 0.00 0.02 0.03 0.03 0.02 0.02 0.02 0.03 0.03 0.04 0.04 0.04 0.05 0.04 0.04 0.02 0.02
0.00 0.00 0.00 0.00 0.00 0.00 0.00 0.00 0.00 0.00 0.00 0.00 0.00 0.00 0.00 0.00 0.00 0.00 0.00 0.00 0.00 0.00 0.00 0.00 0.00 0.00 0.00 0.01 0.04 0.04 0.02 0.02 0.01 0.01 0.01 0.02 0.02 0.02 0.03 0.04 0.04 0.03 0.03 0.03
0.00 0.00 0.00 0.00 0.00 0.00 0.00 0.00 0.00 0.00 0.00 0.00 0.00 0.00 0.00 0.00 0.00 0.00 0.00 0.00 0.00 0.00 0.00 0.00 0.00 0.00 0.02 0.04 0.04 0.02 0.01 0.01 0.01 0.01 0.01 0.01 0.02 0.02 0.03 0.04 0.04 0.04 0.04 0.04
0.00 0.00 0.00 0.00 0.00 0.00 0.00 0.00 0.00 0.00 0.00 0.00 0.00 0.00 0.00 0.00 0.00 0.00 0.00 0.00 0.00 0.00 0.00 0.00 0.00 0.03 0.07 0.04 0.01 0.00 0.00 0.01 0.01 0.02 0.02 0.02 0.02 0.02 0.02 0.03 0.04 0.04 0.04 0.04
0.00 0.00 0.00 0.00 0.00 0.00 0.00 0.00 0.00 0.00 0.00 0.00 0.00 0.00 0.00 0.00 0.00 0.00 0.00 0.00 0.00 0.00 0.00 0.00 0.00 0.04 0.04 0.01 0.00 0.00 0.00 0.01 0.01 0.02 0.03 0.02 0.02 0.03 0.03 0.04 0.05 0.04 0.04 0.05
0.00 0.00 0.00 0.00 0.00 0.00 0.00 0.00 0.00 0.00 0.00 0.00 0.00 0.00 0.00 0.00 0.00 0.00 0.00 0.00 0.00 0.00 0.00 0.00 0.01 0.02 0.01 0.00 0.00 0.00 0.01 0.01 0.02 0.03 0.03 0.02 0.02 0.03 0.03 0.04 0.05 0.05 0.06 0.07
0.00 0.00 0.01 0.01 0.00 0.00 0.00 0.00 0.00 0.00 0.00 0.00 0.00 0.00 0.00 0.00 0.00 0.00 0.00 0.00 0.00 0.00 0.00 0.00 0.00 0.00 0.00 0.00 0.00 0.01 0.01 0.02 0.04 0.03 0.02 0.01 0.02 0.02 0.03 0.04 0.05 0.05 0.06 0.07
0.01 0.01 0.01 0.01 0.00 0.00 0.00 0.00 0.00 0.00 0.00 0.00 0.00 0.00 0.00 0.00 0.00 0.00 0.00 0.00 0.00 0.00 0.00 0.00 0.00 0.00 0.00 0.00 0.00 0.01 0.02 0.03 0.05 0.04 0.03 0.02 0.02 0.03 0.03 0.05 0.06 0.06 0.07 0.08
0.01 0.01 0.01 0.01 0.01 0.01 0.01 0.01 0.01 0.01 0.00 0.00 0.00 0.00 0.00 0.00 0.00 0.00 0.00 0.00 0.00 0.00 0.00 0.00 0.00 0.00 0.00 0.00 0.01 0.01 0.02 0.02 0.03 0.04 0.03 0.03 0.03 0.04 0.04 0.05 0.06 0.06 0.07 0.08
0.02 0.02 0.02 0.02 0.02 0.02 0.02 0.02 0.02 0.02 0.02 0.02 0.01 0.01 0.01 0.01 0.01 0.01 0.01 0.00 0.00 0.00 0.00 0.00 0.00 0.00 0.00 0.01 0.01 0.02 0.02 0.02 0.03 0.04 0.05 0.05 0.05 0.06 0.07 0.07 0.07 0.07 0.08 0.09

GEFSNGP_prec_meanprecacc_048.txt.gz
Total_Precipitation_Accumulation
0.00 0.00 0.00 0.00 0.00 0.00 0.00 0.00 0.00 0.00 0.00 0.00 0.00 0.00 0.00 0.00 0.00 0.00 0.00 0.00 0.00 0.00 0.00 0.00 0.00 0.00 0.00 0.00 0.00 0.00 0.00 0.00 0.00 0.00 0.00 0.00 0.00 0.00 0.00 0.01 0.02 0.04 0.06 0.10
0.00 0.00 0.00 0.00 0.00 0.00 0.00 0.00 0.00 0.00 0.00 0.00 0.00 0.00 0.00 0.00 0.00 0.00 0.00 0.00 0.00 0.00 0.00 0.00 0.00 0.00 0.00 0.00 0.00 0.00 0.00 0.00 0.00 0.00 0.00 0.00 0.00 0.00 0.00 0.00 0.02 0.03 0.03 0.05
0.00 0.00 0.00 0.00 0.00 0.00 0.00 0.00 0.00 0.00 0.00 0.00 0.00 0.00 0.00 0.00 0.00 0.01 0.00 0.00 0.00 0.00 0.00 0.00 0.00 0.00 0.00 0.00 0.00 0.00 0.00 0.00 0.00 0.00 0.00 0.00 0.00 0.00 0.00 0.00 0.01 0.03 0.02 0.01
0.00 0.00 0.00 0.00 0.00 0.00 0.00 0.00 0.00 0.00 0.00 0.00 0.00 0.00 0.00 0.00 0.01 0.01 0.00 0.00 0.00 0.00 0.00 0.00 0.00 0.00 0.00 0.00 0.00 0.00 0.00 0.00 0.00 0.00 0.00 0.00 0.00 0.00 0.00 0.00 0.01 0.02 0.02 0.00
0.00 0.00 0.00 0.00 0.00 0.00 0.00 0.00 0.00 0.00 0.00 0.00 0.00 0.00 0.00 0.01 0.01 0.00 0.00 0.00 0.00 0.00 0.00 0.00 0.00 0.00 0.00 0.00 0.00 0.00 0.00 0.00 0.00 0.00 0.00 0.00 0.00 0.00 0.00 0.00 0.00 0.00 0.01 0.00
0.00 0.00 0.00 0.00 0.00 0.00 0.00 0.00 0.00 0.00 0.00 0.00 0.00 0.01 0.02 0.03 0.01 0.00 0.00 0.00 0.00 0.00 0.00 0.00 0.00 0.00 0.00 0.00 0.00 0.00 0.00 0.00 0.00 0.00 0.00 0.00 0.00 0.00 0.00 0.00 0.00 0.00 0.00 0.00
0.00 0.00 0.00 0.00 0.00 0.00 0.00 0.00 0.00 0.00 0.00 0.00 0.00 0.02 0.02 0.01 0.00 0.00 0.00 0.00 0.00 0.00 0.00 0.00 0.00 0.00 0.00 0.00 0.00 0.00 0.00 0.00 0.00 0.00 0.00 0.00 0.00 0.00 0.00 0.00 0.00 0.00 0.00 0.00
0.00 0.00 0.00 0.00 0.00 0.00 0.00 0.00 0.00 0.00 0.00 0.00 0.00 0.01 0.00 0.00 0.00 0.00 0.00 0.00 0.00 0.00 0.00 0.00 0.00 0.00 0.00 0.00 0.00 0.00 0.00 0.00 0.00 0.00 0.00 0.00 0.01 0.01 0.01 0.00 0.00 0.00 0.00 0.00
0.00 0.00 0.00 0.00 0.00 0.00 0.00 0.00 0.00 0.00 0.00 0.00 0.00 0.00 0.00 0.00 0.00 0.00 0.00 0.00 0.00 0.00 0.00 0.00 0.00 0.00 0.00 0.00 0.00 0.00 0.00 0.00 0.00 0.00 0.00 0.01 0.01 0.01 0.01 0.01 0.03 0.03 0.03 0.02
0.00 0.00 0.00 0.00 0.00 0.00 0.00 0.00 0.00 0.00 0.00 0.00 0.00 0.00 0.00 0.00 0.00 0.00 0.00 0.00 0.00 0.00 0.00 0.00 0.00 0.00 0.00 0.00 0.00 0.00 0.00 0.00 0.00 0.00 0.01 0.01 0.02 0.02 0.02 0.04 0.12 0.13 0.08 0.04
0.00 0.00 0.00 0.00 0.00 0.00 0.00 0.00 0.00 0.00 0.00 0.00 0.00 0.00 0.00 0.00 0.00 0.00 0.00 0.00 0.00 0.00 0.00 0.00 0.00 0.00 0.00 0.00 0.00 0.00 0.00 0.00 0.00 0.01 0.02 0.02 0.02 0.02 0.03 0.05 0.17 0.23 0.13 0.11
0.00 0.00 0.00 0.00 0.00 0.00 0.00 0.00 0.00 0.00 0.00 0.00 0.00 0.00 0.00 0.00 0.00 0.00 0.00 0.00 0.00 0.00 0.00 0.00 0.00 0.00 0.00 0.00 0.00 0.00 0.00 0.00 0.01 0.02 0.02 0.02 0.02 0.02 0.02 0.04 0.08 0.09 0.08 0.12
0.00 0.00 0.00 0.00 0.00 0.00 0.00 0.00 0.00 0.00 0.00 0.00 0.00 0.00 0.00 0.00 0.00 0.00 0.00 0.00 0.00 0.00 0.00 0.00 0.00 0.00 0.00 0.00 0.00 0.00 0.01 0.01 0.02 0.02 0.02 0.02 0.02 0.03 0.03 0.02 0.02 0.02 0.03 0.05
0.00 0.00 0.00 0.00 0.00 0.00 0.00 0.00 0.00 0.00 0.00 0.00 0.00 0.00 0.00 0.00 0.00 0.00 0.00 0.00 0.00 0.00 0.00 0.00 0.00 0.00 0.00 0.00 0.00 0.00 0.01 0.01 0.02 0.03 0.04 0.04 0.04 0.05 0.05 0.05 0.03 0.01 0.00 0.01
0.00 0.00 0.00 0.00 0.00 0.00 0.00 0.00 0.00 0.00 0.00 0.00 0.00 0.00 0.00 0.00 0.00 0.00 0.00 0.00 0.00 0.00 0.00 0.00 0.00 0.00 0.00 0.00 0.00 0.00 0.01 0.02 0.03 0.04 0.05 0.05 0.05 0.05 0.05 0.05 0.03 0.02 0.00 0.00
0.00 0.00 0.00 0.00 0.00 0.00 0.00 0.00 0.00 0.00 0.00 0.00 0.00 0.00 0.00 0.00 0.00 0.00 0.00 0.00 0.00 0.00 0.00 0.00 0.00 0.00 0.00 0.00 0.01 0.00 0.01 0.02 0.03 0.04 0.05 0.05 0.05 0.06 0.05 0.05 0.04 0.03 0.02 0.03
0.00 0.00 0.00 0.00 0.00 0.00 0.00 0.00 0.00 0.00 0.00 0.00 0.00 0.00 0.00 0.00 0.00 0.00 0.00 0.00 0.00 0.00 0.00 0.00 0.00 0.00 0.00 0.00 0.01 0.01 0.02 0.02 0.02 0.03 0.04 0.05 0.06 0.06 0.06 0.05 0.05 0.03 0.02 0.04
0.00 0.00 0.00 0.00 0.00 0.00 0.00 0.00 0.00 0.00 0.00 0.00 0.00 0.00 0.00 0.00 0.00 0.00 0.00 0.00 0.00 0.00 0.00 0.00 0.00 0.00 0.00 0.00 0.02 0.03 0.03 0.03 0.02 0.03 0.04 0.06 0.06 0.06 0.06 0.06 0.05 0.04 0.03 0.02
0.00 0.01 0.01 0.01 0.01 0.00 0.00 0.00 0.00 0.00 0.00 0.00 0.00 0.00 0.00 0.00 0.00 0.00 0.00 0.00 0.00 0.00 0.00 0.00 0.00 0.00 0.00 0.01 0.04 0.04 0.03 0.02 0.02 0.02 0.03 0.04 0.04 0.04 0.05 0.05 0.04 0.03 0.03 0.03
0.00 0.00 0.00 0.00 0.00 0.00 0.00 0.00 0.00 0.00 0.00 0.00 0.00 0.00 0.00 0.00 0.00 0.00 0.00 0.00 0.00 0.00 0.00 0.00 0.00 0.00 0.02 0.05 0.04 0.02 0.01 0.01 0.02 0.03 0.03 0.04 0.04 0.05 0.05 0.06 0.05 0.04 0.04 0.04
0.00 0.00 0.00 0.00 0.00 0.00 0.00 0.00 0.00 0.00 0.00 0.00 0.00 0.00 0.00 0.00 0.00 0.00 0.00 0.00 0.00 0.00 0.00 0.00 0.00 0.03 0.07 0.04 0.01 0.00 0.01 0.01 0.02 0.04 0.04 0.04 0.04 0.05 0.05 0.05 0.05 0.04 0.04 0.04
0.00 0.00 0.00 0.00 0.00 0.00 0.00 0.00 0.00 0.00 0.00 0.00 0.00 0.00 0.00 0.00 0.00 0.00 0.00 0.00 0.00 0.00 0.00 0.00 0.01 0.04 0.04 0.01 0.00 0.00 0.01 0.02 0.03 0.04 0.05 0.05 0.05 0.06 0.05 0.05 0.05 0.04 0.05 0.05
0.00 0.00 0.00 0.00 0.00 0.00 0.00 0.00 0.00 0.00 0.00 0.00 0.00 0.00 0.00 0.00 0.00 0.00 0.00 0.00 0.00 0.00 0.00 0.00 0.01 0.02 0.01 0.01 0.01 0.01 0.02 0.03 0.04 0.06 0.06 0.05 0.05 0.06 0.06 0.06 0.06 0.06 0.06 0.07
0.00 0.00 0.01 0.01 0.00 0.00 0.00 0.00 0.00 0.00 0.00 0.00 0.00 0.00 0.00 0.00 0.00 0.00 0.00 0.00 0.00 0.00 0.00 0.01 0.01 0.02 0.02 0.02 0.02 0.03 0.04 0.05 0.07 0.07 0.06 0.06 0.06 0.06 0.06 0.06 0.06 0.05 0.06 0.07
0.01 0.01 0.01 0.01 0.00 0.00 0.00 0.00 0.00 0.00 0.00 0.00 0.00 0.00 0.00 0.00 0.00 0.00 0.00 0.00 0.01 0.01 0.01 0.01 0.02 0.03 0.03 0.04 0.03 0.04 0.05 0.07 0.09 0.09 0.08 0.08 0.07 0.06 0.06 0.06 0.06 0.06 0.07 0.08
0.01 0.01 0.01 0.01 0.01 0.01 0.01 0.01 0.01 0.01 0.00 0.00 0.00 0.00 0.00 0.01 0.01 0.01 0.01 0.01 0.01 0.02 0.02 0.02 0.03 0.04 0.05 0.06 0.06 0.06 0.07 0.09 0.11 0.12 0.10 0.09 0.08 0.07 0.07 0.07 0.06 0.06 0.07 0.08
0.02 0.02 0.02 0.02 0.02 0.02 0.02 0.02 0.02 0.02 0.02 0.02 0.02 0.02 0.02 0.02 0.02 0.02 0.02 0.02 0.02 0.03 0.03 0.04 0.04 0.06 0.07 0.09 0.09 0.09 0.10 0.11 0.12 0.13 0.12 0.11 0.10 0.09 0.09 0.08 0.07 0.07 0.08 0.09

GEFSNGP_prec_meanprecacc_054.txt.gz
Total_Precipitation_Accumulation
0.00 0.00 0.00 0.00 0.00 0.00 0.00 0.00 0.00 0.00 0.00 0.00 0.00 0.00 0.00 0.00 0.00 0.00 0.00 0.00 0.00 0.00 0.00 0.00 0.00 0.00 0.00 0.00 0.00 0.00 0.00 0.00 0.00 0.00 0.00 0.00 0.00 0.00 0.00 0.01 0.02 0.05 0.06 0.10
0.00 0.00 0.00 0.00 0.00 0.00 0.00 0.00 0.00 0.00 0.00 0.00 0.00 0.00 0.00 0.00 0.00 0.00 0.00 0.00 0.00 0.00 0.00 0.00 0.00 0.00 0.00 0.00 0.00 0.00 0.00 0.00 0.00 0.00 0.00 0.00 0.00 0.00 0.00 0.01 0.02 0.03 0.04 0.05
0.00 0.00 0.00 0.00 0.00 0.00 0.00 0.00 0.00 0.00 0.00 0.00 0.00 0.00 0.00 0.00 0.00 0.01 0.00 0.00 0.00 0.00 0.00 0.00 0.00 0.00 0.00 0.00 0.00 0.00 0.00 0.00 0.00 0.00 0.00 0.00 0.00 0.00 0.00 0.01 0.02 0.04 0.03 0.02
0.00 0.00 0.00 0.00 0.00 0.00 0.00 0.00 0.00 0.00 0.00 0.00 0.00 0.00 0.00 0.00 0.01 0.01 0.00 0.00 0.00 0.00 0.00 0.00 0.00 0.00 0.00 0.00 0.00 0.00 0.00 0.00 0.00 0.00 0.00 0.00 0.00 0.00 0.01 0.01 0.01 0.03 0.03 0.01
0.00 0.00 0.00 0.00 0.00 0.00 0.00 0.00 0.00 0.00 0.00 0.00 0.00 0.00 0.00 0.01 0.01 0.00 0.00 0.00 0.00 0.00 0.00 0.00 0.00 0.00 0.00 0.00 0.00 0.00 0.00 0.00 0.00 0.00 0.00 0.00 0.00 0.01 0.01 0.01 0.01 0.02 0.02 0.01
0.00 0.00 0.00 0.00 0.00 0.00 0.00 0.00 0.00 0.00 0.00 0.00 0.00 0.01 0.02 0.03 0.01 0.00 0.00 0.00 0.00 0.00 0.00 0.00 0.00 0.00 0.00 0.00 0.00 0.00 0.00 0.00 0.00 0.00 0.00 0.00 0.00 0.01 0.01 0.01 0.01 0.01 0.01 0.01
0.00 0.00 0.00 0.00 0.00 0.00 0.00 0.00 0.00 0.00 0.00 0.00 0.00 0.02 0.02 0.01 0.00 0.00 0.00 0.00 0.00 0.00 0.00 0.00 0.00 0.00 0.00 0.00 0.00 0.00 0.00 0.00 0.00 0.00 0.00 0.00 0.01 0.01 0.01 0.01 0.01 0.01 0.01 0.01
0.00 0.00 0.00 0.00 0.00 0.00 0.00 0.00 0.00 0.00 0.00 0.00 0.00 0.01 0.00 0.00 0.00 0.00 0.00 0.00 0.00 0.00 0.00 0.00 0.00 0.00 0.00 0.00 0.00 0.00 0.00 0.00 0.00 0.00 0.00 0.01 0.01 0.01 0.01 0.02 0.02 0.02 0.01 0.01
0.00 0.00 0.00 0.00 0.00 0.00 0.00 0.00 0.00 0.00 0.00 0.00 0.00 0.00 0.00 0.00 0.00 0.00 0.00 0.00 0.00 0.00 0.00 0.00 0.00 0.00 0.00 0.00 0.00 0.00 0.00 0.00 0.00 0.00 0.00 0.01 0.02 0.02 0.02 0.02 0.04 0.04 0.04 0.02
0.00 0.00 0.00 0.00 0.00 0.00 0.00 0.00 0.00 0.00 0.00 0.00 0.00 0.00 0.00 0.00 0.00 0.00 0.00 0.00 0.00 0.00 0.00 0.00 0.00 0.00 0.00 0.00 0.00 0.00 0.00 0.00 0.00 0.01 0.01 0.02 0.02 0.02 0.03 0.05 0.13 0.14 0.09 0.05
0.00 0.00 0.00 0.00 0.00 0.00 0.00 0.00 0.00 0.00 0.00 0.00 0.00 0.00 0.00 0.00 0.00 0.00 0.00 0.00 0.00 0.00 0.00 0.00 0.00 0.00 0.00 0.00 0.00 0.00 0.00 0.00 0.00 0.01 0.02 0.02 0.02 0.03 0.04 0.07 0.18 0.24 0.14 0.12
0.00 0.00 0.00 0.00 0.00 0.00 0.00 0.00 0.00 0.00 0.00 0.00 0.00 0.00 0.00 0.00 0.00 0.00 0.00 0.00 0.00 0.00 0.00 0.00 0.00 0.00 0.00 0.00 0.00 0.00 0.00 0.00 0.01 0.02 0.02 0.02 0.03 0.02 0.03 0.05 0.09 0.10 0.09 0.12
0.00 0.00 0.00 0.00 0.00 0.00 0.00 0.00 0.00 0.00 0.00 0.00 0.00 0.00 0.00 0.00 0.00 0.00 0.00 0.00 0.00 0.00 0.00 0.00 0.00 0.00 0.00 0.00 0.00 0.00 0.01 0.01 0.02 0.02 0.03 0.03 0.03 0.04 0.05 0.04 0.04 0.03 0.04 0.06
0.00 0.00 0.00 0.00 0.00 0.00 0.00 0.00 0.00 0.00 0.00 0.00 0.00 0.00 0.00 0.00 0.00 0.00 0.00 0.00 0.00 0.00 0.00 0.00 0.00 0.00 0.00 0.00 0.00 0.00 0.01 0.01 0.02 0.03 0.04 0.04 0.05 0.06 0.06 0.06 0.05 0.03 0.02 0.02
0.00 0.00 0.00 0.00 0.00 0.00 0.00 0.00 0.00 0.00 0.00 0.00 0.00 0.00 0.00 0.00 0.00 0.00 0.00 0.00 0.00 0.00 0.00 0.00 0.00 0.00 0.00 0.00 0.00 0.00 0.01 0.02 0.03 0.04 0.05 0.05 0.06 0.06 0.06 0.06 0.05 0.04 0.02 0.02
0.00 0.00 0.00 0.00 0.00 0.00 0.00 0.00 0.00 0.00 0.00 0.00 0.00 0.00 0.00 0.00 0.00 0.00 0.00 0.00 0.00 0.00 0.00 0.00 0.00 0.00 0.00 0.00 0.01 0.00 0.01 0.02 0.03 0.04 0.05 0.05 0.06 0.07 0.07 0.06 0.05 0.04 0.04 0.04
0.00 0.00 0.00 0.00 0.00 0.00 0.00 0.00 0.00 0.00 0.00 0.00 0.00 0.00 0.00 0.00 0.00 0.00 0.00 0.00 0.00 0.00 0.00 0.00 0.00 0.00 0.00 0.00 0.01 0.01 0.02 0.02 0.02 0.03 0.04 0.06 0.07 0.07 0.07 0.07 0.06 0.05 0.03 0.05
0.00 0.00 0.00 0.00 0.00 0.00 0.00 0.00 0.00 0.00 0.00 0.00 0.00 0.00 0.00 0.00 0.00 0.00 0.00 0.00 0.00 0.00 0.00 0.00 0.00 0.00 0.00 0.00 0.02 0.03 0.03 0.03 0.02 0.04 0.05 0.06 0.07 0.07 0.08 0.08 0.07 0.06 0.04 0.03
0.00 0.01 0.01 0.01 0.01 0.00 0.00 0.00 0.00 0.00 0.00 0.00 0.00 0.00 0.00 0.00 0.00 0.00 0.00 0.00 0.00 0.00 0.00 0.00 0.00 0.00 0.00 0.01 0.05 0.04 0.03 0.02 0.03 0.03 0.05 0.06 0.07 0.07 0.08 0.08 0.06 0.05 0.05 0.04
0.00 0.00 0.00 0.00 0.00 0.00 0.00 0.00 0.00 0.00 0.00 0.00 0.00 0.00 0.00 0.00 0.00 0.00 0.00 0.00 0.00 0.00 0.00 0.00 0.00 0.00 0.02 0.05 0.04 0.02 0.01 0.02 0.03 0.04 0.05 0.06 0.07 0.08 0.08 0.08 0.07 0.06 0.06 0.05
0.00 0.00 0.00 0.00 0.00 0.00 0.00 0.00 0.00 0.00 0.00 0.00 0.00 0.00 0.00 0.00 0.00 0.00 0.00 0.00 0.00 0.00 0.00 0.00 0.00 0.03 0.07 0.05 0.01 0.01 0.02 0.03 0.04 0.06 0.08 0.08 0.08 0.08 0.08 0.07 0.07 0.06 0.06 0.06
0.00 0.00 0.00 0.00 0.00 0.00 0.00 0.00 0.00 0.00 0.00 0.00 0.00 0.00 0.00 0.00 0.00 0.00 0.00 0.00 0.00 0.00 0.00 0.00 0.01 0.04 0.05 0.02 0.01 0.02 0.03 0.04 0.06 0.08 0.10 0.10 0.10 0.10 0.09 0.08 0.08 0.06 0.06 0.07
0.00 0.00 0.00 0.00 0.00 0.00 0.00 0.00 0.00 0.00 0.00 0.00 0.00 0.00 0.00 0.00 0.00 0.00 0.00 0.00 0.00 0.00 0.00 0.00 0.01 0.03 0.02 0.02 0.02 0.04 0.05 0.06 0.09 0.11 0.11 0.11 0.10 0.10 0.09 0.08 0.08 0.08 0.08 0.08
0.01 0.01 0.01 0.01 0.00 0.00 0.00 0.00 0.00 0.00 0.00 0.00 0.00 0.00 0.00 0.00 0.00 0.00 0.00 0.00 0.01 0.01 0.01 0.01 0.02 0.03 0.03 0.04 0.04 0.06 0.08 0.10 0.13 0.14 0.13 0.12 0.11 0.10 0.09 0.09 0.09 0.08 0.08 0.09
0.01 0.01 0.01 0.01 0.00 0.00 0.00 0.00 0.00 0.00 0.00 0.00 0.00 0.00 0.00 0.00 0.00 0.00 0.00 0.00 0.01 0.02 0.02 0.02 0.03 0.04 0.05 0.06 0.07 0.08 0.10 0.13 0.16 0.16 0.15 0.13 0.11 0.10 0.10 0.10 0.10 0.09 0.09 0.10
0.01 0.01 0.01 0.01 0.01 0.01 0.01 0.01 0.01 0.01 0.00 0.00 0.00 0.00 0.00 0.01 0.01 0.01 0.01 0.01 0.02 0.02 0.02 0.03 0.04 0.05 0.07 0.09 0.10 0.12 0.14 0.16 0.20 0.20 0.16 0.13 0.12 0.12 0.11 0.11 0.09 0.09 0.09 0.10
0.02 0.02 0.02 0.02 0.02 0.02 0.02 0.02 0.02 0.02 0.02 0.02 0.02 0.02 0.02 0.02 0.02 0.02 0.02 0.02 0.02 0.03 0.04 0.05 0.06 0.08 0.11 0.13 0.15 0.16 0.17 0.19 0.21 0.21 0.18 0.16 0.15 0.14 0.13 0.12 0.10 0.10 0.10 0.10

GEFSNGP_prec_meanprecacc_060.txt.gz
Total_Precipitation_Accumulation
0.00 0.00 0.00 0.00 0.00 0.00 0.00 0.00 0.00 0.00 0.00 0.00 0.00 0.00 0.00 0.00 0.00 0.00 0.00 0.00 0.00 0.00 0.00 0.00 0.00 0.00 0.00 0.00 0.00 0.00 0.00 0.00 0.00 0.00 0.00 0.00 0.00 0.00 0.00 0.01 0.02 0.05 0.06 0.11
0.00 0.00 0.00 0.00 0.00 0.00 0.00 0.00 0.00 0.00 0.00 0.00 0.00 0.00 0.00 0.00 0.00 0.00 0.00 0.00 0.00 0.00 0.00 0.00 0.00 0.00 0.00 0.00 0.00 0.00 0.00 0.00 0.00 0.00 0.00 0.00 0.00 0.00 0.00 0.01 0.02 0.04 0.04 0.06
0.00 0.00 0.00 0.00 0.00 0.00 0.00 0.00 0.00 0.00 0.00 0.00 0.00 0.00 0.00 0.00 0.00 0.01 0.00 0.00 0.00 0.00 0.00 0.00 0.00 0.00 0.00 0.00 0.00 0.00 0.00 0.00 0.00 0.00 0.00 0.00 0.00 0.00 0.00 0.01 0.02 0.04 0.03 0.03
0.00 0.00 0.00 0.00 0.00 0.00 0.00 0.00 0.00 0.00 0.00 0.00 0.00 0.00 0.00 0.00 0.01 0.01 0.00 0.00 0.00 0.00 0.00 0.00 0.00 0.00 0.00 0.00 0.00 0.00 0.00 0.00 0.00 0.00 0.00 0.00 0.00 0.00 0.01 0.01 0.02 0.03 0.03 0.02
0.00 0.00 0.00 0.00 0.00 0.00 0.00 0.00 0.00 0.00 0.00 0.00 0.00 0.00 0.00 0.01 0.01 0.00 0.00 0.00 0.00 0.00 0.00 0.00 0.00 0.00 0.00 0.00 0.00 0.00 0.00 0.00 0.00 0.00 0.00 0.00 0.01 0.01 0.01 0.01 0.01 0.02 0.02 0.02
0.00 0.00 0.00 0.00 0.00 0.00 0.00 0.00 0.00 0.00 0.00 0.00 0.00 0.01 0.02 0.03 0.01 0.00 0.00 0.00 0.00 0.00 0.00 0.00 0.00 0.00 0.00 0.00 0.00 0.00 0.00 0.00 0.00 0.00 0.00 0.01 0.01 0.01 0.01 0.01 0.02 0.02 0.01 0.01
0.00 0.00 0.00 0.00 0.00 0.00 0.00 0.00 0.00 0.00 0.00 0.00 0.00 0.02 0.02 0.01 0.00 0.00 0.00 0.00 0.00 0.00 0.00 0.00 0.00 0.00 0.00 0.00 0.00 0.00 0.00 0.00 0.00 0.00 0.00 0.01 0.01 0.01 0.01 0.01 0.02 0.01 0.01 0.01
0.00 0.00 0.00 0.00 0.00 0.00 0.00 0.00 0.00 0.00 0.00 0.00 0.00 0.01 0.00 0.00 0.00 0.00 0.00 0.00 0.00 0.00 0.00 0.00 0.00 0.00 0.00 0.00 0.00 0.00 0.00 0.00 0.00 0.00 0.01 0.01 0.01 0.02 0.02 0.02 0.02 0.02 0.02 0.02
0.00 0.00 0.00 0.00 0.00 0.00 0.00 0.00 0.00 0.00 0.00 0.00 0.00 0.00 0.00 0.00 0.00 0.00 0.00 0.00 0.00 0.00 0.00 0.00 0.00 0.00 0.00 0.00 0.00 0.00 0.00 0.00 0.00 0.00 0.00 0.01 0.02 0.02 0.02 0.02 0.04 0.05 0.05 0.03
0.00 0.00 0.00 0.00 0.00 0.00 0.00 0.00 0.00 0.00 0.00 0.00 0.00 0.00 0.00 0.00 0.00 0.00 0.00 0.00 0.00 0.00 0.00 0.00 0.00 0.00 0.00 0.00 0.00 0.00 0.00 0.00 0.00 0.01 0.01 0.02 0.02 0.02 0.03 0.05 0.13 0.15 0.10 0.06
0.00 0.00 0.00 0.00 0.00 0.00 0.00 0.00 0.00 0.00 0.00 0.00 0.00 0.00 0.00 0.00 0.00 0.00 0.00 0.00 0.00 0.00 0.00 0.00 0.00 0.00 0.00 0.00 0.00 0.00 0.00 0.00 0.00 0.01 0.02 0.02 0.02 0.03 0.04 0.07 0.19 0.25 0.15 0.13
0.00 0.00 0.00 0.00 0.00 0.00 0.00 0.00 0.00 0.00 0.00 0.00 0.00 0.00 0.00 0.00 0.00 0.00 0.00 0.00 0.00 0.00 0.00 0.00 0.00 0.00 0.00 0.00 0.00 0.00 0.00 0.00 0.01 0.02 0.02 0.03 0.03 0.03 0.03 0.06 0.10 0.11 0.10 0.14
0.00 0.00 0.00 0.00 0.00 0.00 0.00 0.00 0.00 0.00 0.00 0.00 0.00 0.00 0.00 0.00 0.00 0.00 0.00 0.00 0.00 0.00 0.00 0.00 0.00 0.00 0.00 0.00 0.00 0.00 0.01 0.01 0.02 0.03 0.03 0.03 0.03 0.05 0.05 0.04 0.04 0.04 0.05 0.07
0.00 0.00 0.00 0.00 0.00 0.00 0.00 0.00 0.00 0.00 0.00 0.00 0.00 0.00 0.00 0.00 0.00 0.00 0.00 0.00 0.00 0.00 0.00 0.00 0.00 0.00 0.00 0.00 0.00 0.00 0.01 0.01 0.02 0.03 0.04 0.04 0.05 0.06 0.07 0.07 0.06 0.03 0.03 0.04
0.00 0.00 0.00 0.00 0.00 0.00 0.00 0.00 0.00 0.00 0.00 0.00 0.00 0.00 0.00 0.00 0.00 0.00 0.00 0.00 0.00 0.00 0.00 0.00 0.00 0.00 0.00 0.00 0.00 0.00 0.01 0.02 0.03 0.04 0.05 0.05 0.06 0.07 0.07 0.07 0.06 0.04 0.03 0.03
0.00 0.00 0.00 0.00 0.00 0.00 0.00 0.00 0.00 0.00 0.00 0.00 0.00 0.00 0.00 0.00 0.00 0.00 0.00 0.00 0.00 0.00 0.00 0.00 0.00 0.00 0.00 0.00 0.01 0.01 0.01 0.02 0.03 0.04 0.05 0.06 0.07 0.07 0.08 0.07 0.07 0.06 0.05 0.06
0.00 0.00 0.00 0.00 0.00 0.00 0.00 0.00 0.00 0.00 0.00 0.00 0.00 0.00 0.00 0.00 0.00 0.00 0.00 0.00 0.00 0.00 0.00 0.00 0.00 0.00 0.00 0.00 0.01 0.02 0.02 0.02 0.02 0.03 0.04 0.06 0.08 0.08 0.08 0.09 0.08 0.07 0.05 0.06
0.00 0.00 0.00 0.00 0.00 0.01 0.00 0.00 0.00 0.00 0.00 0.00 0.00 0.00 0.00 0.00 0.00 0.00 0.00 0.00 0.00 0.00 0.00 0.00 0.00 0.00 0.00 0.00 0.02 0.03 0.04 0.03 0.03 0.04 0.06 0.07 0.09 0.09 0.10 0.10 0.09 0.08 0.06 0.05
0.01 0.01 0.01 0.01 0.01 0.01 0.00 0.00 0.00 0.00 0.00 0.00 0.00 0.00 0.00 0.00 0.00 0.00 0.00 0.00 0.00 0.00 0.00 0.00 0.00 0.00 0.00 0.01 0.05 0.04 0.03 0.03 0.04 0.05 0.06 0.08 0.09 0.09 0.10 0.11 0.09 0.08 0.07 0.07
0.00 0.00 0.00 0.00 0.00 0.00 0.00 0.00 0.00 0.00 0.00 0.00 0.00 0.00 0.00 0.00 0.00 0.00 0.00 0.00 0.00 0.00 0.00 0.00 0.00 0.00 0.02 0.05 0.05 0.03 0.03 0.04 0.06 0.07 0.08 0.09 0.11 0.11 0.11 0.11 0.10 0.09 0.08 0.08
0.00 0.00 0.00 0.00 0.00 0.00 0.00 0.00 0.00 0.00 0.00 0.00 0.00 0.00 0.00 0.00 0.00 0.00 0.00 0.00 0.00 0.00 0.00 0.00 0.00 0.03 0.08 0.06 0.03 0.03 0.04 0.06 0.08 0.10 0.12 0.13 0.13 0.12 0.12 0.11 0.10 0.09 0.09 0.09
0.00 0.01 0.01 0.01 0.01 0.00 0.00 0.00 0.00 0.00 0.00 0.00 0.00 0.00 0.00 0.00 0.00 0.00 0.00 0.00 0.00 0.00 0.00 0.00 0.01 0.05 0.06 0.03 0.03 0.04 0.06 0.08 0.10 0.13 0.15 0.15 0.15 0.15 0.13 0.12 0.11 0.10 0.09 0.09
0.01 0.01 0.01 0.01 0.01 0.01 0.00 0.00 0.00 0.00 0.00 0.00 0.00 0.00 0.00 0.00 0.00 0.00 0.00 0.00 0.00 0.00 0.01 0.01 0.01 0.04 0.04 0.04 0.04 0.06 0.08 0.10 0.14 0.16 0.17 0.17 0.16 0.15 0.13 0.12 0.11 0.11 0.11 0.11
0.01 0.01 0.01 0.01 0.01 0.00 0.00 0.00 0.00 0.00 0.00 0.00 0.00 0.00 0.00 0.00 0.00 0.00 0.00 0.00 0.01 0.01 0.01 0.01 0.02 0.04 0.05 0.06 0.07 0.09 0.11 0.14 0.18 0.19 0.19 0.18 0.16 0.14 0.13 0.12 0.12 0.11 0.11 0.11
0.01 0.01 0.01 0.01 0.01 0.00 0.00 0.00 0.00 0.00 0.00 0.00 0.00 0.00 0.00 0.00 0.00 0.00 0.00 0.00 0.01 0.02 0.02 0.02 0.04 0.05 0.07 0.08 0.10 0.12 0.15 0.18 0.22 0.23 0.21 0.19 0.16 0.15 0.14 0.13 0.12 0.11 0.11 0.12
0.01 0.01 0.01 0.01 0.01 0.01 0.01 0.01 0.01 0.01 0.00 0.00 0.00 0.00 0.00 0.01 0.01 0.01 0.01 0.01 0.02 0.02 0.03 0.03 0.05 0.06 0.09 0.12 0.13 0.15 0.18 0.21 0.25 0.27 0.22 0.19 0.17 0.16 0.15 0.14 0.12 0.12 0.12 0.12
0.02 0.02 0.02 0.02 0.02 0.02 0.02 0.02 0.02 0.02 0.02 0.02 0.02 0.02 0.02 0.02 0.02 0.02 0.02 0.02 0.03 0.03 0.04 0.05 0.07 0.10 0.13 0.17 0.18 0.19 0.22 0.24 0.26 0.27 0.24 0.21 0.19 0.17 0.16 0.14 0.13 0.12 0.12 0.12

GEFSNGP_prec_meanprecacc_066.txt.gz
Total_Precipitation_Accumulation
0.00 0.00 0.00 0.00 0.00 0.00 0.00 0.00 0.00 0.00 0.00 0.00 0.00 0.00 0.00 0.00 0.00 0.00 0.00 0.00 0.00 0.00 0.00 0.00 0.00 0.00 0.00 0.00 0.00 0.00 0.00 0.00 0.00 0.00 0.00 0.00 0.00 0.00 0.00 0.01 0.02 0.05 0.06 0.11
0.00 0.00 0.00 0.00 0.00 0.00 0.00 0.00 0.00 0.00 0.00 0.00 0.00 0.00 0.00 0.00 0.00 0.00 0.00 0.00 0.00 0.00 0.00 0.00 0.00 0.00 0.00 0.00 0.00 0.00 0.00 0.00 0.00 0.00 0.00 0.00 0.00 0.00 0.00 0.01 0.02 0.04 0.04 0.06
0.00 0.00 0.00 0.00 0.00 0.00 0.00 0.00 0.00 0.00 0.00 0.00 0.00 0.00 0.00 0.00 0.00 0.01 0.00 0.00 0.00 0.00 0.00 0.00 0.00 0.00 0.00 0.00 0.00 0.00 0.00 0.00 0.00 0.00 0.00 0.00 0.00 0.00 0.00 0.01 0.02 0.04 0.03 0.03
0.00 0.00 0.00 0.00 0.00 0.00 0.00 0.00 0.00 0.00 0.00 0.00 0.00 0.00 0.00 0.00 0.01 0.01 0.00 0.00 0.00 0.00 0.00 0.00 0.00 0.00 0.00 0.00 0.00 0.00 0.00 0.00 0.00 0.00 0.00 0.00 0.00 0.00 0.01 0.01 0.02 0.03 0.03 0.02
0.00 0.00 0.00 0.00 0.00 0.00 0.00 0.00 0.00 0.00 0.00 0.00 0.00 0.00 0.00 0.01 0.01 0.00 0.00 0.00 0.00 0.00 0.00 0.00 0.00 0.00 0.00 0.00 0.00 0.00 0.00 0.00 0.00 0.00 0.00 0.00 0.01 0.01 0.01 0.01 0.01 0.02 0.02 0.02
0.00 0.00 0.00 0.00 0.00 0.00 0.00 0.00 0.00 0.00 0.00 0.00 0.00 0.01 0.02 0.03 0.01 0.00 0.00 0.00 0.00 0.00 0.00 0.00 0.00 0.00 0.00 0.00 0.00 0.00 0.00 0.00 0.00 0.00 0.00 0.01 0.01 0.01 0.01 0.02 0.02 0.02 0.01 0.01
0.00 0.00 0.00 0.00 0.00 0.00 0.00 0.00 0.00 0.00 0.00 0.00 0.00 0.02 0.02 0.01 0.00 0.00 0.00 0.00 0.00 0.00 0.00 0.00 0.00 0.00 0.00 0.00 0.00 0.00 0.00 0.00 0.00 0.00 0.00 0.01 0.01 0.01 0.01 0.01 0.02 0.01 0.01 0.01
0.00 0.00 0.00 0.00 0.00 0.00 0.00 0.00 0.00 0.00 0.00 0.00 0.00 0.01 0.00 0.00 0.00 0.00 0.00 0.00 0.00 0.00 0.00 0.00 0.00 0.00 0.00 0.00 0.00 0.00 0.00 0.00 0.00 0.00 0.01 0.01 0.01 0.02 0.02 0.02 0.02 0.02 0.02 0.02
0.00 0.00 0.00 0.00 0.00 0.00 0.00 0.00 0.00 0.00 0.00 0.00 0.00 0.00 0.00 0.00 0.00 0.00 0.00 0.00 0.00 0.00 0.00 0.00 0.00 0.00 0.00 0.00 0.00 0.00 0.00 0.00 0.00 0.00 0.00 0.01 0.02 0.02 0.02 0.02 0.04 0.05 0.05 0.03
0.00 0.00 0.00 0.00 0.00 0.00 0.00 0.00 0.00 0.00 0.00 0.00 0.00 0.00 0.00 0.00 0.00 0.00 0.00 0.00 0.00 0.00 0.00 0.00 0.00 0.00 0.00 0.00 0.00 0.00 0.00 0.00 0.00 0.01 0.01 0.02 0.02 0.02 0.03 0.05 0.13 0.15 0.10 0.06
0.00 0.00 0.00 0.00 0.00 0.00 0.00 0.00 0.00 0.00 0.00 0.00 0.00 0.00 0.00 0.00 0.00 0.00 0.00 0.00 0.00 0.00 0.00 0.00 0.00 0.00 0.00 0.00 0.00 0.00 0.00 0.00 0.00 0.01 0.02 0.02 0.02 0.03 0.04 0.07 0.19 0.25 0.15 0.14
0.00 0.00 0.00 0.00 0.00 0.00 0.00 0.00 0.00 0.00 0.00 0.00 0.00 0.00 0.00 0.00 0.00 0.00 0.00 0.00 0.00 0.00 0.00 0.00 0.00 0.00 0.00 0.00 0.00 0.00 0.00 0.00 0.01 0.02 0.02 0.03 0.03 0.03 0.04 0.06 0.10 0.11 0.11 0.14
0.00 0.00 0.00 0.00 0.00 0.00 0.00 0.00 0.00 0.00 0.00 0.00 0.00 0.00 0.00 0.00 0.00 0.00 0.00 0.00 0.00 0.00 0.00 0.00 0.00 0.00 0.00 0.00 0.00 0.00 0.01 0.01 0.02 0.03 0.03 0.03 0.03 0.05 0.05 0.04 0.05 0.05 0.05 0.08
0.00 0.00 0.00 0.00 0.00 0.00 0.00 0.00 0.00 0.00 0.00 0.00 0.00 0.00 0.00 0.00 0.00 0.00 0.00 0.00 0.00 0.00 0.00 0.00 0.00 0.00 0.00 0.00 0.00 0.00 0.01 0.01 0.03 0.03 0.04 0.05 0.05 0.06 0.07 0.08 0.06 0.04 0.03 0.04
0.00 0.00 0.00 0.00 0.00 0.00 0.00 0.00 0.00 0.00 0.00 0.00 0.00 0.00 0.00 0.00 0.00 0.00 0.00 0.00 0.00 0.00 0.00 0.00 0.00 0.00 0.00 0.00 0.00 0.00 0.01 0.02 0.03 0.05 0.05 0.06 0.06 0.07 0.08 0.08 0.07 0.05 0.04 0.04
0.00 0.00 0.00 0.00 0.00 0.00 0.00 0.00 0.00 0.00 0.00 0.00 0.00 0.00 0.00 0.00 0.00 0.00 0.00 0.00 0.00 0.00 0.00 0.00 0.00 0.00 0.00 0.00 0.01 0.01 0.01 0.03 0.04 0.05 0.06 0.06 0.08 0.09 0.09 0.09 0.08 0.07 0.07 0.07
0.00 0.00 0.00 0.00 0.00 0.00 0.00 0.00 0.00 0.00 0.00 0.00 0.00 0.00 0.00 0.00 0.00 0.00 0.00 0.00 0.00 0.00 0.00 0.00 0.00 0.00 0.00 0.00 0.01 0.02 0.02 0.03 0.04 0.04 0.06 0.07 0.09 0.10 0.11 0.11 0.11 0.09 0.07 0.08
0.00 0.00 0.00 0.00 0.00 0.01 0.00 0.00 0.00 0.00 0.00 0.00 0.00 0.00 0.00 0.00 0.00 0.00 0.00 0.00 0.00 0.00 0.00 0.00 0.00 0.00 0.00 0.00 0.02 0.03 0.04 0.04 0.04 0.05 0.08 0.09 0.12 0.12 0.13 0.14 0.12 0.11 0.08 0.06
0.01 0.01 0.01 0.01 0.01 0.01 0.01 0.00 0.00 0.00 0.00 0.00 0.00 0.00 0.00 0.00 0.00 0.00 0.00 0.00 0.00 0.00 0.00 0.00 0.00 0.00 0.00 0.01 0.05 0.05 0.04 0.04 0.05 0.07 0.09 0.11 0.13 0.12 0.14 0.15 0.13 0.11 0.10 0.09
0.00 0.00 0.00 0.00 0.00 0.00 0.00 0.00 0.00 0.00 0.00 0.00 0.00 0.00 0.00 0.00 0.00 0.00 0.00 0.00 0.00 0.00 0.00 0.00 0.00 0.00 0.03 0.05 0.06 0.04 0.04 0.06 0.09 0.11 0.12 0.13 0.14 0.15 0.15 0.16 0.14 0.13 0.11 0.10
0.00 0.00 0.00 0.00 0.01 0.00 0.00 0.00 0.00 0.00 0.00 0.00 0.00 0.00 0.00 0.00 0.00 0.00 0.00 0.00 0.00 0.00 0.00 0.00 0.00 0.03 0.08 0.06 0.05 0.04 0.06 0.09 0.11 0.13 0.16 0.17 0.17 0.17 0.16 0.15 0.14 0.13 0.12 0.11
0.00 0.01 0.01 0.01 0.01 0.00 0.00 0.00 0.00 0.00 0.00 0.00 0.00 0.00 0.00 0.00 0.00 0.00 0.00 0.00 0.00 0.00 0.00 0.00 0.01 0.05 0.06 0.05 0.05 0.06 0.08 0.11 0.13 0.16 0.19 0.19 0.20 0.20 0.18 0.16 0.16 0.13 0.12 0.12
0.01 0.01 0.01 0.01 0.01 0.01 0.00 0.00 0.00 0.00 0.00 0.00 0.00 0.00 0.00 0.00 0.00 0.00 0.00 0.00 0.00 0.00 0.01 0.01 0.02 0.04 0.05 0.05 0.06 0.08 0.11 0.14 0.17 0.20 0.21 0.21 0.21 0.20 0.19 0.17 0.16 0.15 0.14 0.14
0.01 0.01 0.01 0.01 0.01 0.00 0.00 0.00 0.00 0.00 0.00 0.00 0.00 0.00 0.00 0.00 0.00 0.00 0.00 0.00 0.01 0.01 0.01 0.01 0.03 0.05 0.06 0.07 0.08 0.11 0.14 0.18 0.21 0.23 0.22 0.22 0.21 0.19 0.18 0.17 0.16 0.14 0.13 0.13
0.01 0.01 0.01 0.01 0.01 0.00 0.00 0.00 0.00 0.00 0.00 0.00 0.00 0.00 0.00 0.00 0.00 0.00 0.00 0.00 0.01 0.02 0.02 0.03 0.05 0.07 0.08 0.09 0.12 0.15 0.18 0.21 0.26 0.28 0.26 0.24 0.21 0.19 0.17 0.17 0.16 0.14 0.13 0.14
0.01 0.01 0.01 0.01 0.01 0.01 0.01 0.01 0.01 0.01 0.00 0.00 0.00 0.00 0.00 0.01 0.01 0.01 0.01 0.01 0.02 0.02 0.03 0.04 0.05 0.08 0.10 0.14 0.16 0.19 0.21 0.24 0.29 0.30 0.26 0.23 0.20 0.20 0.18 0.17 0.15 0.14 0.13 0.13
0.02 0.02 0.02 0.02 0.02 0.02 0.02 0.02 0.02 0.02 0.02 0.02 0.02 0.02 0.02 0.02 0.02 0.02 0.02 0.02 0.03 0.03 0.04 0.06 0.08 0.11 0.15 0.19 0.21 0.22 0.25 0.27 0.30 0.30 0.27 0.24 0.22 0.21 0.19 0.16 0.14 0.14 0.13 0.13

GEFSNGP_prec_meanprecacc_072.txt.gz
Total_Precipitation_Accumulation
0.00 0.00 0.00 0.00 0.00 0.00 0.00 0.00 0.00 0.00 0.00 0.00 0.00 0.00 0.00 0.00 0.00 0.00 0.00 0.00 0.00 0.00 0.00 0.00 0.00 0.00 0.00 0.00 0.00 0.00 0.00 0.00 0.00 0.00 0.00 0.00 0.00 0.00 0.00 0.01 0.02 0.05 0.06 0.11
0.00 0.00 0.00 0.00 0.00 0.00 0.00 0.00 0.00 0.00 0.00 0.00 0.00 0.00 0.00 0.00 0.00 0.00 0.00 0.00 0.00 0.00 0.00 0.00 0.00 0.00 0.00 0.00 0.00 0.00 0.00 0.00 0.00 0.00 0.00 0.00 0.00 0.00 0.00 0.01 0.02 0.04 0.04 0.06
0.00 0.00 0.00 0.00 0.00 0.00 0.00 0.00 0.00 0.00 0.00 0.00 0.00 0.00 0.00 0.00 0.00 0.01 0.00 0.00 0.00 0.00 0.00 0.00 0.00 0.00 0.00 0.00 0.00 0.00 0.00 0.00 0.00 0.00 0.00 0.00 0.00 0.00 0.00 0.01 0.02 0.04 0.03 0.03
0.00 0.00 0.00 0.00 0.00 0.00 0.00 0.00 0.00 0.00 0.00 0.00 0.00 0.00 0.00 0.00 0.01 0.01 0.00 0.00 0.00 0.00 0.00 0.00 0.00 0.00 0.00 0.00 0.00 0.00 0.00 0.00 0.00 0.00 0.00 0.00 0.00 0.00 0.01 0.01 0.02 0.03 0.03 0.02
0.00 0.00 0.00 0.00 0.00 0.00 0.00 0.00 0.00 0.00 0.00 0.00 0.00 0.00 0.00 0.01 0.01 0.00 0.00 0.00 0.00 0.00 0.00 0.00 0.00 0.00 0.00 0.00 0.00 0.00 0.00 0.00 0.00 0.00 0.00 0.00 0.01 0.01 0.01 0.01 0.01 0.02 0.02 0.02
0.00 0.00 0.00 0.00 0.00 0.00 0.00 0.00 0.00 0.00 0.00 0.00 0.00 0.01 0.02 0.03 0.01 0.00 0.00 0.00 0.00 0.00 0.00 0.00 0.00 0.00 0.00 0.00 0.00 0.00 0.00 0.00 0.00 0.00 0.00 0.01 0.01 0.01 0.01 0.02 0.02 0.02 0.01 0.01
0.00 0.00 0.00 0.00 0.00 0.00 0.00 0.00 0.00 0.00 0.00 0.00 0.00 0.02 0.02 0.01 0.00 0.00 0.00 0.00 0.00 0.00 0.00 0.00 0.00 0.00 0.00 0.00 0.00 0.00 0.00 0.00 0.00 0.00 0.00 0.01 0.01 0.01 0.01 0.01 0.02 0.01 0.01 0.01
0.00 0.00 0.00 0.00 0.00 0.00 0.00 0.00 0.00 0.00 0.00 0.00 0.00 0.01 0.00 0.00 0.00 0.00 0.00 0.00 0.00 0.00 0.00 0.00 0.00 0.00 0.00 0.00 0.00 0.00 0.00 0.00 0.00 0.00 0.01 0.01 0.01 0.02 0.02 0.02 0.02 0.02 0.02 0.02
0.00 0.00 0.00 0.00 0.00 0.00 0.00 0.00 0.00 0.00 0.00 0.00 0.00 0.00 0.00 0.00 0.00 0.00 0.00 0.00 0.00 0.00 0.00 0.00 0.00 0.00 0.00 0.00 0.00 0.00 0.00 0.00 0.00 0.00 0.00 0.01 0.02 0.02 0.02 0.02 0.04 0.05 0.05 0.04
0.00 0.00 0.00 0.00 0.00 0.00 0.00 0.00 0.00 0.00 0.00 0.00 0.00 0.00 0.00 0.00 0.00 0.00 0.00 0.00 0.00 0.00 0.00 0.00 0.00 0.00 0.00 0.00 0.00 0.00 0.00 0.00 0.00 0.01 0.01 0.02 0.02 0.02 0.03 0.05 0.13 0.15 0.11 0.06
0.00 0.00 0.00 0.00 0.00 0.00 0.00 0.00 0.00 0.00 0.00 0.00 0.00 0.00 0.00 0.00 0.00 0.00 0.00 0.00 0.00 0.00 0.00 0.00 0.00 0.00 0.00 0.00 0.00 0.00 0.00 0.00 0.00 0.01 0.02 0.02 0.02 0.03 0.04 0.07 0.19 0.26 0.17 0.15
0.00 0.00 0.00 0.00 0.00 0.00 0.00 0.00 0.00 0.00 0.00 0.00 0.00 0.00 0.00 0.00 0.00 0.00 0.00 0.00 0.00 0.00 0.00 0.00 0.00 0.00 0.00 0.00 0.00 0.00 0.00 0.00 0.01 0.02 0.02 0.03 0.03 0.03 0.04 0.06 0.11 0.12 0.12 0.16
0.00 0.00 0.00 0.00 0.00 0.00 0.00 0.00 0.00 0.00 0.00 0.00 0.00 0.00 0.00 0.00 0.00 0.00 0.00 0.00 0.00 0.00 0.00 0.00 0.00 0.00 0.00 0.00 0.00 0.00 0.01 0.01 0.02 0.03 0.03 0.03 0.04 0.06 0.06 0.05 0.05 0.05 0.06 0.09
0.00 0.00 0.00 0.00 0.00 0.00 0.00 0.00 0.00 0.00 0.00 0.00 0.00 0.00 0.00 0.00 0.00 0.00 0.00 0.00 0.00 0.00 0.00 0.00 0.00 0.00 0.00 0.00 0.00 0.00 0.01 0.01 0.03 0.03 0.04 0.05 0.06 0.08 0.09 0.10 0.08 0.05 0.03 0.04
0.00 0.00 0.00 0.00 0.00 0.00 0.00 0.00 0.00 0.00 0.00 0.00 0.00 0.00 0.00 0.00 0.00 0.00 0.00 0.00 0.00 0.00 0.00 0.00 0.00 0.00 0.00 0.00 0.00 0.00 0.01 0.02 0.04 0.05 0.06 0.06 0.07 0.09 0.10 0.10 0.09 0.07 0.05 0.05
0.00 0.00 0.00 0.00 0.00 0.00 0.00 0.00 0.00 0.00 0.00 0.00 0.00 0.00 0.00 0.00 0.00 0.00 0.00 0.00 0.00 0.00 0.00 0.00 0.00 0.00 0.00 0.00 0.01 0.01 0.01 0.03 0.05 0.06 0.06 0.07 0.09 0.11 0.12 0.12 0.11 0.09 0.08 0.08
0.00 0.00 0.00 0.00 0.00 0.00 0.00 0.00 0.00 0.00 0.00 0.00 0.00 0.00 0.00 0.00 0.00 0.00 0.00 0.00 0.00 0.00 0.00 0.00 0.00 0.00 0.00 0.00 0.01 0.02 0.03 0.03 0.04 0.05 0.07 0.09 0.12 0.13 0.14 0.15 0.14 0.12 0.09 0.09
0.00 0.00 0.00 0.00 0.00 0.01 0.00 0.00 0.00 0.00 0.00 0.00 0.00 0.00 0.00 0.00 0.00 0.00 0.00 0.00 0.00 0.00 0.00 0.00 0.00 0.00 0.00 0.00 0.03 0.04 0.05 0.05 0.05 0.07 0.09 0.12 0.15 0.15 0.16 0.17 0.16 0.14 0.10 0.08
0.01 0.01 0.01 0.01 0.01 0.01 0.01 0.00 0.00 0.00 0.00 0.00 0.00 0.00 0.00 0.00 0.00 0.00 0.00 0.00 0.00 0.00 0.00 0.00 0.00 0.00 0.00 0.01 0.05 0.05 0.05 0.06 0.07 0.09 0.11 0.14 0.16 0.15 0.17 0.18 0.17 0.14 0.13 0.12
0.00 0.00 0.00 0.00 0.00 0.00 0.00 0.00 0.00 0.00 0.00 0.00 0.00 0.00 0.00 0.00 0.00 0.00 0.00 0.00 0.00 0.00 0.00 0.00 0.00 0.00 0.03 0.05 0.06 0.06 0.06 0.09 0.11 0.13 0.14 0.16 0.18 0.18 0.18 0.19 0.18 0.17 0.15 0.13
0.00 0.00 0.00 0.00 0.01 0.00 0.00 0.00 0.00 0.00 0.00 0.00 0.00 0.00 0.00 0.00 0.00 0.00 0.00 0.00 0.00 0.00 0.00 0.00 0.00 0.03 0.08 0.07 0.06 0.06 0.08 0.11 0.14 0.17 0.20 0.21 0.21 0.20 0.19 0.18 0.18 0.16 0.15 0.14
0.00 0.01 0.01 0.01 0.01 0.00 0.00 0.00 0.00 0.00 0.00 0.00 0.00 0.00 0.00 0.00 0.00 0.00 0.00 0.00 0.00 0.00 0.00 0.00 0.01 0.05 0.07 0.07 0.06 0.08 0.10 0.13 0.16 0.20 0.23 0.23 0.24 0.24 0.21 0.20 0.19 0.17 0.15 0.15
0.01 0.01 0.01 0.01 0.01 0.01 0.00 0.00 0.00 0.00 0.00 0.00 0.00 0.00 0.00 0.00 0.00 0.00 0.00 0.00 0.00 0.00 0.01 0.01 0.02 0.05 0.07 0.07 0.07 0.09 0.12 0.16 0.21 0.24 0.25 0.25 0.25 0.25 0.23 0.21 0.19 0.18 0.17 0.16
0.01 0.01 0.01 0.01 0.01 0.00 0.00 0.00 0.00 0.00 0.00 0.00 0.00 0.00 0.00 0.00 0.00 0.00 0.00 0.00 0.01 0.01 0.01 0.01 0.03 0.05 0.07 0.08 0.09 0.13 0.16 0.20 0.25 0.27 0.26 0.25 0.24 0.23 0.21 0.20 0.19 0.17 0.15 0.15
0.01 0.01 0.01 0.01 0.01 0.00 0.00 0.00 0.00 0.00 0.00 0.00 0.00 0.00 0.00 0.00 0.00 0.00 0.00 0.00 0.01 0.02 0.02 0.03 0.05 0.07 0.08 0.10 0.13 0.17 0.21 0.24 0.30 0.32 0.30 0.27 0.24 0.22 0.20 0.19 0.18 0.16 0.16 0.16
0.01 0.01 0.01 0.01 0.01 0.01 0.01 0.01 0.01 0.01 0.00 0.00 0.00 0.00 0.00 0.01 0.01 0.01 0.01 0.01 0.02 0.02 0.03 0.04 0.05 0.08 0.11 0.15 0.18 0.21 0.24 0.27 0.32 0.33 0.29 0.26 0.24 0.23 0.21 0.19 0.17 0.15 0.15 0.15
0.02 0.02 0.02 0.02 0.02 0.02 0.02 0.02 0.02 0.02 0.02 0.02 0.02 0.02 0.02 0.02 0.02 0.02 0.02 0.02 0.03 0.03 0.05 0.06 0.08 0.12 0.16 0.20 0.23 0.24 0.27 0.30 0.33 0.34 0.31 0.27 0.25 0.24 0.21 0.19 0.16 0.15 0.15 0.14

GEFSNGP_prec_meanprecacc_078.txt.gz
Total_Precipitation_Accumulation
0.00 0.00 0.00 0.00 0.00 0.00 0.00 0.00 0.00 0.00 0.00 0.00 0.00 0.00 0.00 0.00 0.00 0.00 0.00 0.00 0.00 0.00 0.00 0.00 0.00 0.00 0.00 0.00 0.00 0.00 0.00 0.00 0.00 0.00 0.00 0.00 0.00 0.00 0.00 0.01 0.02 0.05 0.06 0.11
0.00 0.00 0.00 0.00 0.00 0.00 0.00 0.00 0.00 0.00 0.00 0.00 0.00 0.00 0.00 0.00 0.00 0.00 0.00 0.00 0.00 0.00 0.00 0.00 0.00 0.00 0.00 0.00 0.00 0.00 0.00 0.00 0.00 0.00 0.00 0.00 0.00 0.00 0.00 0.01 0.02 0.04 0.04 0.06
0.00 0.00 0.00 0.00 0.00 0.00 0.00 0.00 0.00 0.00 0.00 0.00 0.00 0.00 0.00 0.00 0.00 0.01 0.00 0.00 0.00 0.00 0.00 0.00 0.00 0.00 0.00 0.00 0.00 0.00 0.00 0.00 0.00 0.00 0.00 0.00 0.00 0.00 0.00 0.01 0.02 0.04 0.03 0.03
0.00 0.00 0.00 0.00 0.00 0.00 0.00 0.00 0.00 0.00 0.00 0.00 0.00 0.00 0.00 0.00 0.01 0.01 0.00 0.00 0.00 0.00 0.00 0.00 0.00 0.00 0.00 0.00 0.00 0.00 0.00 0.00 0.00 0.00 0.00 0.00 0.00 0.00 0.01 0.01 0.02 0.03 0.03 0.02
0.00 0.00 0.00 0.00 0.00 0.00 0.00 0.00 0.00 0.00 0.00 0.00 0.00 0.00 0.00 0.01 0.01 0.00 0.00 0.00 0.00 0.00 0.00 0.00 0.00 0.00 0.00 0.00 0.00 0.00 0.00 0.00 0.00 0.00 0.00 0.00 0.01 0.01 0.01 0.01 0.01 0.02 0.02 0.02
0.00 0.00 0.00 0.00 0.00 0.00 0.00 0.00 0.00 0.00 0.00 0.00 0.00 0.01 0.02 0.03 0.01 0.00 0.00 0.00 0.00 0.00 0.00 0.00 0.00 0.00 0.00 0.00 0.00 0.00 0.00 0.00 0.00 0.00 0.00 0.01 0.01 0.01 0.01 0.02 0.02 0.02 0.01 0.01
0.00 0.00 0.00 0.00 0.00 0.00 0.00 0.00 0.00 0.00 0.00 0.00 0.00 0.02 0.02 0.01 0.00 0.00 0.00 0.00 0.00 0.00 0.00 0.00 0.00 0.00 0.00 0.00 0.00 0.00 0.00 0.00 0.00 0.00 0.00 0.01 0.01 0.01 0.01 0.01 0.02 0.01 0.01 0.01
0.00 0.00 0.00 0.00 0.00 0.00 0.00 0.00 0.00 0.00 0.00 0.00 0.00 0.01 0.00 0.00 0.00 0.00 0.00 0.00 0.00 0.00 0.00 0.00 0.00 0.00 0.00 0.00 0.00 0.00 0.00 0.00 0.00 0.00 0.01 0.01 0.01 0.02 0.02 0.02 0.02 0.02 0.02 0.02
0.00 0.00 0.00 0.00 0.00 0.00 0.00 0.00 0.00 0.00 0.00 0.00 0.00 0.00 0.00 0.00 0.00 0.00 0.00 0.00 0.00 0.00 0.00 0.00 0.00 0.00 0.00 0.00 0.00 0.00 0.00 0.00 0.00 0.00 0.00 0.01 0.02 0.02 0.02 0.02 0.04 0.05 0.05 0.04
0.00 0.00 0.00 0.00 0.00 0.00 0.00 0.00 0.00 0.00 0.00 0.00 0.00 0.00 0.00 0.00 0.00 0.00 0.00 0.00 0.00 0.00 0.00 0.00 0.00 0.00 0.00 0.00 0.00 0.00 0.00 0.00 0.00 0.01 0.01 0.02 0.02 0.02 0.03 0.05 0.14 0.16 0.12 0.07
0.00 0.00 0.00 0.00 0.00 0.00 0.00 0.00 0.00 0.00 0.00 0.00 0.00 0.00 0.00 0.00 0.00 0.00 0.00 0.00 0.00 0.00 0.00 0.00 0.00 0.00 0.00 0.00 0.00 0.00 0.00 0.00 0.00 0.01 0.02 0.02 0.02 0.03 0.05 0.07 0.20 0.28 0.19 0.18
0.00 0.00 0.00 0.00 0.00 0.00 0.00 0.00 0.00 0.00 0.00 0.00 0.00 0.00 0.00 0.00 0.00 0.00 0.00 0.00 0.00 0.00 0.00 0.00 0.00 0.00 0.00 0.00 0.00 0.00 0.00 0.00 0.01 0.02 0.02 0.03 0.03 0.03 0.04 0.06 0.11 0.13 0.13 0.18
0.00 0.00 0.00 0.00 0.00 0.00 0.00 0.00 0.00 0.00 0.00 0.00 0.00 0.00 0.00 0.00 0.00 0.00 0.00 0.00 0.00 0.00 0.00 0.00 0.00 0.00 0.00 0.00 0.00 0.00 0.01 0.01 0.02 0.03 0.03 0.03 0.04 0.06 0.07 0.06 0.05 0.05 0.07 0.10
0.00 0.00 0.00 0.00 0.00 0.00 0.00 0.00 0.00 0.00 0.00 0.00 0.00 0.00 0.00 0.00 0.00 0.00 0.00 0.00 0.00 0.00 0.00 0.00 0.00 0.00 0.00 0.00 0.00 0.00 0.01 0.02 0.03 0.03 0.05 0.06 0.07 0.09 0.11 0.12 0.10 0.05 0.04 0.05
0.00 0.00 0.00 0.00 0.00 0.00 0.00 0.00 0.00 0.00 0.00 0.00 0.00 0.00 0.00 0.00 0.00 0.00 0.00 0.00 0.00 0.00 0.00 0.00 0.00 0.00 0.00 0.00 0.00 0.00 0.01 0.02 0.04 0.05 0.06 0.07 0.09 0.10 0.11 0.12 0.11 0.08 0.06 0.05
0.00 0.00 0.00 0.00 0.00 0.00 0.00 0.00 0.00 0.00 0.00 0.00 0.00 0.00 0.00 0.00 0.00 0.00 0.00 0.00 0.00 0.00 0.00 0.00 0.00 0.00 0.00 0.00 0.01 0.01 0.01 0.03 0.05 0.06 0.07 0.08 0.10 0.12 0.14 0.15 0.14 0.11 0.10 0.09
0.00 0.00 0.00 0.00 0.00 0.00 0.00 0.00 0.00 0.00 0.00 0.00 0.00 0.00 0.00 0.00 0.00 0.00 0.00 0.00 0.00 0.00 0.00 0.00 0.00 0.00 0.00 0.00 0.01 0.02 0.03 0.03 0.05 0.06 0.08 0.10 0.14 0.16 0.17 0.19 0.17 0.14 0.10 0.10
0.00 0.00 0.00 0.00 0.00 0.01 0.00 0.00 0.00 0.00 0.00 0.00 0.00 0.00 0.00 0.00 0.00 0.00 0.00 0.00 0.00 0.00 0.00 0.00 0.00 0.00 0.00 0.00 0.03 0.04 0.05 0.06 0.06 0.08 0.11 0.14 0.17 0.18 0.19 0.20 0.18 0.16 0.12 0.09
0.01 0.01 0.01 0.01 0.01 0.01 0.01 0.00 0.00 0.00 0.00 0.00 0.00 0.00 0.00 0.00 0.00 0.00 0.00 0.00 0.00 0.00 0.00 0.00 0.00 0.00 0.00 0.01 0.05 0.06 0.07 0.08 0.09 0.10 0.12 0.15 0.17 0.17 0.19 0.20 0.19 0.16 0.15 0.14
0.00 0.00 0.00 0.00 0.00 0.00 0.00 0.00 0.00 0.00 0.00 0.00 0.00 0.00 0.00 0.00 0.00 0.00 0.00 0.00 0.00 0.00 0.00 0.00 0.00 0.00 0.03 0.05 0.07 0.07 0.08 0.10 0.13 0.14 0.15 0.18 0.20 0.20 0.20 0.20 0.20 0.19 0.17 0.15
0.00 0.00 0.00 0.00 0.01 0.00 0.00 0.00 0.00 0.00 0.00 0.00 0.00 0.00 0.00 0.00 0.00 0.00 0.00 0.00 0.00 0.00 0.00 0.00 0.00 0.03 0.08 0.08 0.08 0.08 0.10 0.12 0.15 0.18 0.21 0.23 0.23 0.22 0.21 0.20 0.20 0.18 0.17 0.16
0.00 0.01 0.01 0.01 0.01 0.00 0.00 0.00 0.00 0.00 0.00 0.00 0.00 0.00 0.00 0.00 0.00 0.00 0.00 0.00 0.00 0.00 0.00 0.00 0.01 0.05 0.07 0.07 0.07 0.09 0.11 0.14 0.18 0.22 0.25 0.26 0.27 0.27 0.24 0.22 0.21 0.18 0.17 0.16
0.01 0.01 0.01 0.01 0.01 0.01 0.00 0.00 0.00 0.00 0.00 0.00 0.00 0.00 0.00 0.00 0.00 0.00 0.00 0.00 0.00 0.00 0.01 0.01 0.02 0.05 0.07 0.07 0.08 0.10 0.13 0.17 0.22 0.26 0.27 0.28 0.28 0.28 0.26 0.23 0.21 0.20 0.19 0.18
0.01 0.01 0.01 0.01 0.01 0.00 0.00 0.00 0.00 0.00 0.00 0.00 0.00 0.00 0.00 0.00 0.00 0.00 0.00 0.00 0.01 0.01 0.01 0.01 0.03 0.06 0.08 0.08 0.10 0.13 0.17 0.21 0.26 0.28 0.28 0.27 0.26 0.25 0.24 0.23 0.21 0.18 0.17 0.17
0.01 0.01 0.01 0.01 0.01 0.01 0.00 0.00 0.00 0.00 0.00 0.00 0.00 0.00 0.00 0.00 0.00 0.00 0.00 0.00 0.01 0.02 0.02 0.03 0.05 0.07 0.09 0.11 0.14 0.18 0.21 0.25 0.32 0.35 0.33 0.29 0.27 0.25 0.23 0.22 0.21 0.18 0.17 0.17
0.01 0.01 0.01 0.01 0.01 0.01 0.01 0.01 0.01 0.01 0.01 0.00 0.00 0.00 0.00 0.01 0.01 0.01 0.01 0.01 0.02 0.02 0.03 0.04 0.06 0.08 0.11 0.15 0.18 0.21 0.25 0.28 0.33 0.35 0.31 0.28 0.26 0.25 0.23 0.21 0.19 0.17 0.17 0.16
0.02 0.02 0.02 0.02 0.02 0.02 0.02 0.02 0.02 0.02 0.02 0.02 0.02 0.02 0.02 0.02 0.02 0.02 0.02 0.02 0.03 0.03 0.05 0.06 0.08 0.12 0.16 0.20 0.23 0.25 0.28 0.31 0.34 0.35 0.32 0.29 0.27 0.26 0.23 0.21 0.18 0.17 0.16 0.15

GEFSNGP_prec_meanprecacc_084.txt.gz
Total_Precipitation_Accumulation
0.00 0.00 0.00 0.00 0.00 0.00 0.00 0.00 0.00 0.00 0.00 0.00 0.00 0.00 0.00 0.00 0.00 0.00 0.00 0.00 0.00 0.00 0.00 0.00 0.00 0.00 0.00 0.00 0.00 0.00 0.00 0.00 0.00 0.00 0.00 0.00 0.00 0.00 0.00 0.01 0.02 0.05 0.06 0.11
0.00 0.00 0.00 0.00 0.00 0.00 0.00 0.00 0.00 0.00 0.00 0.00 0.00 0.00 0.00 0.00 0.00 0.00 0.00 0.00 0.00 0.00 0.00 0.00 0.00 0.00 0.00 0.00 0.00 0.00 0.00 0.00 0.00 0.00 0.00 0.00 0.00 0.00 0.00 0.01 0.02 0.04 0.04 0.06
0.00 0.00 0.00 0.00 0.00 0.00 0.00 0.00 0.00 0.00 0.00 0.00 0.00 0.00 0.00 0.00 0.00 0.01 0.00 0.00 0.00 0.00 0.00 0.00 0.00 0.00 0.00 0.00 0.00 0.00 0.00 0.00 0.00 0.00 0.00 0.00 0.00 0.00 0.00 0.01 0.02 0.04 0.03 0.03
0.00 0.00 0.00 0.00 0.00 0.00 0.00 0.00 0.00 0.00 0.00 0.00 0.00 0.00 0.00 0.00 0.01 0.01 0.00 0.00 0.00 0.00 0.00 0.00 0.00 0.00 0.00 0.00 0.00 0.00 0.00 0.00 0.00 0.00 0.00 0.00 0.00 0.00 0.01 0.01 0.02 0.03 0.03 0.02
0.00 0.00 0.00 0.00 0.00 0.00 0.00 0.00 0.00 0.00 0.00 0.00 0.00 0.00 0.00 0.01 0.01 0.00 0.00 0.00 0.00 0.00 0.00 0.00 0.00 0.00 0.00 0.00 0.00 0.00 0.00 0.00 0.00 0.00 0.00 0.00 0.01 0.01 0.01 0.01 0.01 0.02 0.02 0.02
0.00 0.00 0.00 0.00 0.00 0.00 0.00 0.00 0.00 0.00 0.00 0.00 0.00 0.01 0.02 0.03 0.01 0.00 0.00 0.00 0.00 0.00 0.00 0.00 0.00 0.00 0.00 0.00 0.00 0.00 0.00 0.00 0.00 0.00 0.00 0.01 0.01 0.01 0.01 0.02 0.02 0.02 0.01 0.01
0.00 0.00 0.00 0.00 0.00 0.00 0.00 0.00 0.00 0.00 0.00 0.00 0.00 0.02 0.02 0.01 0.00 0.00 0.00 0.00 0.00 0.00 0.00 0.00 0.00 0.00 0.00 0.00 0.00 0.00 0.00 0.00 0.00 0.00 0.00 0.01 0.01 0.01 0.01 0.01 0.02 0.01 0.01 0.01
0.00 0.00 0.00 0.00 0.00 0.00 0.00 0.00 0.00 0.00 0.00 0.00 0.00 0.01 0.00 0.00 0.00 0.00 0.00 0.00 0.00 0.00 0.00 0.00 0.00 0.00 0.00 0.00 0.00 0.00 0.00 0.00 0.00 0.00 0.01 0.01 0.01 0.02 0.02 0.02 0.02 0.02 0.02 0.02
0.00 0.00 0.00 0.00 0.00 0.00 0.00 0.00 0.00 0.00 0.00 0.00 0.00 0.00 0.00 0.00 0.00 0.00 0.00 0.00 0.00 0.00 0.00 0.00 0.00 0.00 0.00 0.00 0.00 0.00 0.00 0.00 0.00 0.00 0.00 0.01 0.02 0.02 0.02 0.02 0.04 0.05 0.05 0.04
0.00 0.00 0.00 0.00 0.00 0.00 0.00 0.00 0.00 0.00 0.00 0.00 0.00 0.00 0.00 0.00 0.00 0.00 0.00 0.00 0.00 0.00 0.00 0.00 0.00 0.00 0.00 0.00 0.00 0.00 0.00 0.00 0.00 0.01 0.01 0.02 0.02 0.02 0.03 0.05 0.14 0.17 0.13 0.09
0.00 0.00 0.00 0.00 0.00 0.00 0.00 0.00 0.00 0.00 0.00 0.00 0.00 0.00 0.00 0.00 0.00 0.00 0.00 0.00 0.00 0.00 0.00 0.00 0.00 0.00 0.00 0.00 0.00 0.00 0.00 0.00 0.00 0.01 0.02 0.02 0.02 0.03 0.05 0.07 0.20 0.29 0.21 0.20
0.00 0.00 0.00 0.00 0.00 0.00 0.00 0.00 0.00 0.00 0.00 0.00 0.00 0.00 0.00 0.00 0.00 0.00 0.00 0.00 0.00 0.00 0.00 0.00 0.00 0.00 0.00 0.00 0.00 0.00 0.00 0.00 0.01 0.02 0.02 0.03 0.03 0.03 0.04 0.06 0.11 0.13 0.14 0.19
0.00 0.00 0.00 0.00 0.00 0.00 0.00 0.00 0.00 0.00 0.00 0.00 0.00 0.00 0.00 0.00 0.00 0.00 0.00 0.00 0.00 0.00 0.00 0.00 0.00 0.00 0.00 0.00 0.00 0.00 0.01 0.01 0.02 0.03 0.03 0.03 0.04 0.07 0.08 0.06 0.05 0.06 0.07 0.10
0.00 0.00 0.00 0.00 0.00 0.00 0.00 0.00 0.00 0.00 0.00 0.00 0.00 0.00 0.00 0.00 0.00 0.00 0.00 0.00 0.00 0.00 0.00 0.00 0.00 0.00 0.00 0.00 0.00 0.00 0.01 0.02 0.03 0.04 0.05 0.06 0.08 0.10 0.12 0.13 0.11 0.06 0.04 0.05
0.00 0.00 0.00 0.00 0.00 0.00 0.00 0.00 0.00 0.00 0.00 0.00 0.00 0.00 0.00 0.00 0.00 0.00 0.00 0.00 0.00 0.00 0.00 0.00 0.00 0.00 0.00 0.00 0.00 0.00 0.01 0.02 0.04 0.05 0.06 0.08 0.09 0.11 0.12 0.13 0.12 0.09 0.06 0.05
0.00 0.00 0.00 0.00 0.00 0.00 0.00 0.00 0.00 0.00 0.00 0.00 0.00 0.00 0.00 0.00 0.00 0.00 0.00 0.00 0.00 0.00 0.00 0.00 0.00 0.00 0.00 0.00 0.01 0.01 0.01 0.03 0.05 0.07 0.08 0.09 0.11 0.13 0.15 0.16 0.15 0.13 0.10 0.10
0.00 0.00 0.00 0.00 0.00 0.00 0.00 0.00 0.00 0.00 0.00 0.00 0.00 0.00 0.00 0.00 0.00 0.00 0.00 0.00 0.00 0.00 0.00 0.00 0.00 0.00 0.00 0.00 0.01 0.02 0.03 0.03 0.05 0.06 0.08 0.11 0.15 0.17 0.19 0.20 0.19 0.15 0.11 0.10
0.00 0.00 0.00 0.00 0.00 0.01 0.00 0.00 0.00 0.00 0.00 0.00 0.00 0.00 0.00 0.00 0.00 0.00 0.00 0.00 0.00 0.00 0.00 0.00 0.00 0.00 0.00 0.00 0.03 0.04 0.05 0.06 0.07 0.09 0.12 0.14 0.18 0.19 0.21 0.22 0.20 0.17 0.13 0.10
0.01 0.01 0.01 0.01 0.01 0.01 0.01 0.00 0.00 0.00 0.00 0.00 0.00 0.00 0.00 0.00 0.00 0.00 0.00 0.00 0.00 0.00 0.00 0.00 0.00 0.00 0.00 0.01 0.05 0.06 0.07 0.09 0.10 0.11 0.13 0.16 0.18 0.18 0.20 0.21 0.20 0.17 0.16 0.15
0.00 0.00 0.00 0.00 0.00 0.00 0.00 0.00 0.00 0.00 0.00 0.00 0.00 0.00 0.00 0.00 0.00 0.00 0.00 0.00 0.00 0.00 0.00 0.00 0.00 0.00 0.03 0.05 0.07 0.08 0.09 0.12 0.14 0.15 0.16 0.18 0.20 0.21 0.21 0.21 0.21 0.20 0.18 0.16
0.00 0.00 0.00 0.00 0.01 0.00 0.00 0.00 0.00 0.00 0.00 0.00 0.00 0.00 0.00 0.00 0.00 0.00 0.00 0.00 0.00 0.00 0.00 0.00 0.00 0.03 0.08 0.08 0.08 0.09 0.11 0.13 0.16 0.19 0.22 0.24 0.24 0.23 0.22 0.21 0.21 0.19 0.18 0.17
0.00 0.01 0.01 0.01 0.01 0.00 0.00 0.00 0.00 0.00 0.00 0.00 0.00 0.00 0.00 0.00 0.00 0.00 0.00 0.00 0.00 0.00 0.00 0.00 0.01 0.05 0.08 0.08 0.08 0.09 0.11 0.14 0.18 0.22 0.26 0.27 0.29 0.28 0.25 0.23 0.22 0.20 0.18 0.18
0.01 0.01 0.01 0.01 0.01 0.01 0.00 0.00 0.00 0.00 0.00 0.00 0.00 0.00 0.00 0.00 0.00 0.00 0.00 0.00 0.00 0.01 0.01 0.01 0.02 0.05 0.08 0.08 0.08 0.10 0.13 0.17 0.22 0.26 0.28 0.29 0.30 0.30 0.28 0.25 0.22 0.21 0.20 0.19
0.01 0.01 0.01 0.01 0.01 0.00 0.00 0.00 0.00 0.00 0.00 0.00 0.00 0.00 0.00 0.00 0.00 0.00 0.00 0.00 0.01 0.01 0.01 0.02 0.03 0.06 0.08 0.09 0.10 0.13 0.17 0.22 0.27 0.29 0.29 0.29 0.28 0.27 0.25 0.24 0.23 0.20 0.18 0.18
0.01 0.01 0.01 0.01 0.01 0.01 0.00 0.00 0.00 0.00 0.00 0.00 0.00 0.00 0.00 0.00 0.00 0.00 0.00 0.00 0.01 0.02 0.02 0.03 0.05 0.08 0.09 0.11 0.14 0.18 0.22 0.26 0.33 0.37 0.34 0.31 0.28 0.26 0.24 0.23 0.22 0.20 0.18 0.18
0.01 0.01 0.01 0.01 0.01 0.01 0.01 0.01 0.01 0.01 0.01 0.00 0.00 0.00 0.00 0.01 0.01 0.01 0.01 0.01 0.02 0.02 0.03 0.04 0.06 0.08 0.11 0.15 0.18 0.22 0.25 0.29 0.34 0.36 0.32 0.29 0.27 0.26 0.25 0.23 0.20 0.19 0.18 0.17
0.02 0.02 0.02 0.02 0.02 0.02 0.02 0.02 0.02 0.02 0.02 0.02 0.02 0.02 0.02 0.02 0.02 0.02 0.02 0.02 0.03 0.04 0.05 0.06 0.08 0.12 0.16 0.21 0.23 0.25 0.28 0.31 0.35 0.36 0.33 0.31 0.29 0.27 0.25 0.22 0.20 0.18 0.17 0.16

GEFSNGP_prec_meanprecacc_090.txt.gz
Total_Precipitation_Accumulation
0.00 0.00 0.00 0.00 0.00 0.00 0.00 0.00 0.00 0.00 0.00 0.00 0.00 0.00 0.00 0.00 0.00 0.00 0.00 0.00 0.00 0.00 0.00 0.00 0.00 0.00 0.00 0.00 0.00 0.00 0.00 0.00 0.00 0.00 0.00 0.00 0.00 0.00 0.00 0.01 0.02 0.05 0.06 0.11
0.00 0.00 0.00 0.00 0.00 0.00 0.00 0.00 0.00 0.00 0.00 0.00 0.00 0.00 0.00 0.00 0.00 0.00 0.00 0.00 0.00 0.00 0.00 0.00 0.00 0.00 0.00 0.00 0.00 0.00 0.00 0.00 0.00 0.00 0.00 0.00 0.00 0.00 0.00 0.01 0.02 0.04 0.04 0.06
0.00 0.00 0.00 0.00 0.00 0.00 0.00 0.00 0.00 0.00 0.00 0.00 0.00 0.00 0.00 0.00 0.00 0.01 0.00 0.00 0.00 0.00 0.00 0.00 0.00 0.00 0.00 0.00 0.00 0.00 0.00 0.00 0.00 0.00 0.00 0.00 0.00 0.00 0.00 0.01 0.02 0.04 0.03 0.03
0.00 0.00 0.00 0.00 0.00 0.00 0.00 0.00 0.00 0.00 0.00 0.00 0.00 0.00 0.00 0.00 0.01 0.01 0.00 0.00 0.00 0.00 0.00 0.00 0.00 0.00 0.00 0.00 0.00 0.00 0.00 0.00 0.00 0.00 0.00 0.00 0.00 0.00 0.01 0.01 0.02 0.03 0.03 0.02
0.00 0.00 0.00 0.00 0.00 0.00 0.00 0.00 0.00 0.00 0.00 0.00 0.00 0.00 0.00 0.01 0.01 0.00 0.00 0.00 0.00 0.00 0.00 0.00 0.00 0.00 0.00 0.00 0.00 0.00 0.00 0.00 0.00 0.00 0.00 0.00 0.01 0.01 0.01 0.01 0.01 0.02 0.02 0.02
0.00 0.00 0.00 0.00 0.00 0.00 0.00 0.00 0.00 0.00 0.00 0.00 0.00 0.01 0.02 0.03 0.01 0.00 0.00 0.00 0.00 0.00 0.00 0.00 0.00 0.00 0.00 0.00 0.00 0.00 0.00 0.00 0.00 0.00 0.00 0.01 0.01 0.01 0.01 0.02 0.02 0.02 0.01 0.01
0.00 0.00 0.00 0.00 0.00 0.00 0.00 0.00 0.00 0.00 0.00 0.00 0.00 0.02 0.02 0.01 0.00 0.00 0.00 0.00 0.00 0.00 0.00 0.00 0.00 0.00 0.00 0.00 0.00 0.00 0.00 0.00 0.00 0.00 0.00 0.01 0.01 0.01 0.01 0.01 0.02 0.01 0.01 0.01
0.00 0.00 0.00 0.00 0.00 0.00 0.00 0.00 0.00 0.00 0.00 0.00 0.00 0.01 0.00 0.00 0.00 0.00 0.00 0.00 0.00 0.00 0.00 0.00 0.00 0.00 0.00 0.00 0.00 0.00 0.00 0.00 0.00 0.00 0.01 0.01 0.01 0.02 0.02 0.02 0.02 0.02 0.02 0.02
0.00 0.00 0.00 0.00 0.00 0.00 0.00 0.00 0.00 0.00 0.00 0.00 0.00 0.00 0.00 0.00 0.00 0.00 0.00 0.00 0.00 0.00 0.00 0.00 0.00 0.00 0.00 0.00 0.00 0.00 0.00 0.00 0.00 0.00 0.00 0.01 0.02 0.02 0.02 0.02 0.04 0.05 0.05 0.04
0.00 0.00 0.00 0.00 0.00 0.00 0.00 0.00 0.00 0.00 0.00 0.00 0.00 0.00 0.00 0.00 0.00 0.00 0.00 0.00 0.00 0.00 0.00 0.00 0.00 0.00 0.00 0.00 0.00 0.00 0.00 0.00 0.00 0.01 0.01 0.02 0.02 0.02 0.03 0.05 0.14 0.17 0.14 0.10
0.00 0.00 0.00 0.00 0.00 0.00 0.00 0.00 0.00 0.00 0.00 0.00 0.00 0.00 0.00 0.00 0.00 0.00 0.00 0.00 0.00 0.00 0.00 0.00 0.00 0.00 0.00 0.00 0.00 0.00 0.00 0.00 0.00 0.01 0.02 0.02 0.02 0.03 0.05 0.07 0.20 0.30 0.22 0.22
0.00 0.00 0.00 0.00 0.00 0.00 0.00 0.00 0.00 0.00 0.00 0.00 0.00 0.00 0.00 0.00 0.00 0.00 0.00 0.00 0.00 0.00 0.00 0.00 0.00 0.00 0.00 0.00 0.00 0.00 0.00 0.00 0.01 0.02 0.02 0.03 0.03 0.03 0.04 0.06 0.11 0.13 0.14 0.20
0.00 0.00 0.00 0.00 0.00 0.00 0.00 0.00 0.00 0.00 0.00 0.00 0.00 0.00 0.00 0.00 0.00 0.00 0.00 0.00 0.00 0.00 0.00 0.00 0.00 0.00 0.00 0.00 0.00 0.00 0.01 0.01 0.02 0.03 0.03 0.03 0.04 0.07 0.08 0.06 0.05 0.06 0.07 0.11
0.00 0.00 0.00 0.00 0.00 0.00 0.00 0.00 0.00 0.00 0.00 0.00 0.00 0.00 0.00 0.00 0.00 0.00 0.00 0.00 0.00 0.00 0.00 0.00 0.00 0.00 0.00 0.00 0.00 0.00 0.01 0.02 0.03 0.04 0.05 0.06 0.08 0.10 0.13 0.13 0.11 0.06 0.04 0.05
0.00 0.00 0.00 0.00 0.00 0.00 0.00 0.00 0.00 0.00 0.00 0.00 0.00 0.00 0.00 0.00 0.00 0.00 0.00 0.00 0.00 0.00 0.00 0.00 0.00 0.00 0.00 0.00 0.00 0.00 0.01 0.02 0.04 0.05 0.07 0.08 0.09 0.11 0.12 0.13 0.13 0.10 0.06 0.05
0.00 0.00 0.00 0.00 0.00 0.00 0.00 0.00 0.00 0.00 0.00 0.00 0.00 0.00 0.00 0.00 0.00 0.00 0.00 0.00 0.00 0.00 0.00 0.00 0.00 0.00 0.00 0.00 0.01 0.01 0.01 0.03 0.05 0.07 0.08 0.09 0.11 0.14 0.16 0.17 0.16 0.13 0.11 0.10
0.00 0.00 0.00 0.00 0.00 0.00 0.00 0.00 0.00 0.00 0.00 0.00 0.00 0.00 0.00 0.00 0.00 0.00 0.00 0.00 0.00 0.00 0.00 0.00 0.00 0.00 0.00 0.00 0.01 0.02 0.03 0.04 0.05 0.07 0.08 0.12 0.15 0.18 0.20 0.22 0.21 0.16 0.11 0.11
0.00 0.00 0.00 0.00 0.00 0.01 0.00 0.00 0.00 0.00 0.00 0.00 0.00 0.00 0.00 0.00 0.00 0.00 0.00 0.00 0.00 0.00 0.00 0.00 0.00 0.00 0.00 0.00 0.03 0.04 0.05 0.06 0.07 0.09 0.12 0.15 0.19 0.20 0.22 0.23 0.21 0.18 0.13 0.10
0.01 0.01 0.01 0.01 0.01 0.01 0.01 0.00 0.00 0.00 0.00 0.00 0.00 0.00 0.00 0.00 0.00 0.00 0.00 0.00 0.00 0.00 0.00 0.00 0.00 0.00 0.00 0.02 0.05 0.06 0.07 0.09 0.11 0.11 0.14 0.17 0.19 0.18 0.21 0.22 0.21 0.18 0.17 0.16
0.00 0.00 0.00 0.00 0.00 0.00 0.00 0.00 0.00 0.00 0.00 0.00 0.00 0.00 0.00 0.00 0.00 0.00 0.00 0.00 0.00 0.00 0.00 0.00 0.00 0.00 0.03 0.05 0.07 0.08 0.10 0.12 0.15 0.16 0.17 0.19 0.21 0.21 0.21 0.22 0.22 0.21 0.18 0.17
0.00 0.00 0.00 0.00 0.01 0.00 0.00 0.00 0.00 0.00 0.00 0.00 0.00 0.00 0.00 0.00 0.00 0.00 0.00 0.00 0.00 0.00 0.00 0.00 0.00 0.03 0.08 0.08 0.09 0.10 0.11 0.14 0.17 0.20 0.23 0.25 0.25 0.24 0.22 0.22 0.21 0.20 0.18 0.18
0.00 0.01 0.01 0.01 0.01 0.00 0.00 0.00 0.00 0.00 0.00 0.00 0.00 0.00 0.00 0.00 0.00 0.00 0.00 0.00 0.00 0.00 0.00 0.00 0.01 0.05 0.08 0.09 0.09 0.10 0.12 0.15 0.19 0.23 0.26 0.28 0.30 0.29 0.26 0.23 0.23 0.20 0.19 0.19
0.01 0.01 0.01 0.01 0.01 0.01 0.00 0.00 0.00 0.00 0.00 0.00 0.00 0.00 0.00 0.00 0.00 0.00 0.00 0.00 0.00 0.01 0.01 0.01 0.02 0.05 0.08 0.08 0.09 0.11 0.14 0.18 0.23 0.27 0.29 0.30 0.31 0.31 0.29 0.26 0.23 0.22 0.21 0.20
0.01 0.01 0.01 0.01 0.01 0.00 0.00 0.00 0.00 0.00 0.00 0.00 0.00 0.00 0.00 0.00 0.00 0.00 0.00 0.00 0.01 0.01 0.01 0.02 0.03 0.06 0.09 0.09 0.10 0.13 0.18 0.22 0.28 0.30 0.30 0.30 0.29 0.28 0.27 0.26 0.24 0.21 0.19 0.19
0.01 0.01 0.01 0.01 0.01 0.01 0.00 0.00 0.00 0.00 0.00 0.00 0.00 0.00 0.00 0.00 0.00 0.00 0.00 0.00 0.01 0.02 0.02 0.03 0.05 0.08 0.09 0.11 0.14 0.18 0.22 0.27 0.34 0.38 0.36 0.32 0.29 0.27 0.25 0.24 0.23 0.21 0.20 0.19
0.01 0.01 0.01 0.01 0.01 0.01 0.01 0.01 0.01 0.01 0.01 0.00 0.00 0.00 0.00 0.01 0.01 0.01 0.01 0.01 0.02 0.03 0.03 0.04 0.06 0.08 0.11 0.15 0.19 0.22 0.26 0.29 0.34 0.36 0.33 0.30 0.28 0.28 0.26 0.24 0.21 0.20 0.19 0.18
0.02 0.02 0.02 0.02 0.02 0.02 0.02 0.02 0.02 0.02 0.02 0.02 0.02 0.02 0.02 0.02 0.02 0.02 0.02 0.02 0.03 0.04 0.05 0.06 0.08 0.12 0.17 0.21 0.24 0.26 0.29 0.32 0.36 0.37 0.35 0.32 0.30 0.28 0.26 0.23 0.21 0.19 0.19 0.17

GEFSNGP_prec_meanprecacc_096.txt.gz
Total_Precipitation_Accumulation
0.00 0.00 0.00 0.00 0.00 0.00 0.00 0.00 0.00 0.00 0.00 0.00 0.00 0.00 0.00 0.00 0.00 0.00 0.00 0.00 0.00 0.00 0.00 0.00 0.00 0.00 0.00 0.00 0.00 0.00 0.00 0.00 0.00 0.00 0.00 0.00 0.00 0.00 0.00 0.01 0.02 0.05 0.06 0.11
0.00 0.00 0.00 0.00 0.00 0.00 0.00 0.00 0.00 0.00 0.00 0.00 0.00 0.00 0.00 0.00 0.00 0.00 0.00 0.00 0.00 0.00 0.00 0.00 0.00 0.00 0.00 0.00 0.00 0.00 0.00 0.00 0.00 0.00 0.00 0.00 0.00 0.00 0.00 0.01 0.02 0.04 0.04 0.06
0.00 0.00 0.00 0.00 0.00 0.00 0.00 0.00 0.00 0.00 0.00 0.00 0.00 0.00 0.00 0.00 0.00 0.01 0.00 0.00 0.00 0.00 0.00 0.00 0.00 0.00 0.00 0.00 0.00 0.00 0.00 0.00 0.00 0.00 0.00 0.00 0.00 0.00 0.00 0.01 0.02 0.04 0.03 0.03
0.00 0.00 0.00 0.00 0.00 0.00 0.00 0.00 0.00 0.00 0.00 0.00 0.00 0.00 0.00 0.00 0.01 0.01 0.00 0.00 0.00 0.00 0.00 0.00 0.00 0.00 0.00 0.00 0.00 0.00 0.00 0.00 0.00 0.00 0.00 0.00 0.00 0.00 0.01 0.01 0.02 0.03 0.03 0.02
0.00 0.00 0.00 0.00 0.00 0.00 0.00 0.00 0.00 0.00 0.00 0.00 0.00 0.00 0.00 0.01 0.01 0.00 0.00 0.00 0.00 0.00 0.00 0.00 0.00 0.00 0.00 0.00 0.00 0.00 0.00 0.00 0.00 0.00 0.00 0.00 0.01 0.01 0.01 0.01 0.01 0.02 0.02 0.02
0.00 0.00 0.00 0.00 0.00 0.00 0.00 0.00 0.00 0.00 0.00 0.00 0.00 0.01 0.02 0.03 0.01 0.00 0.00 0.00 0.00 0.00 0.00 0.00 0.00 0.00 0.00 0.00 0.00 0.00 0.00 0.00 0.00 0.00 0.00 0.01 0.01 0.01 0.01 0.02 0.02 0.02 0.01 0.01
0.00 0.00 0.00 0.00 0.00 0.00 0.00 0.00 0.00 0.00 0.00 0.00 0.00 0.02 0.02 0.01 0.00 0.00 0.00 0.00 0.00 0.00 0.00 0.00 0.00 0.00 0.00 0.00 0.00 0.00 0.00 0.00 0.00 0.00 0.00 0.01 0.01 0.01 0.01 0.01 0.02 0.01 0.01 0.01
0.00 0.00 0.00 0.00 0.00 0.00 0.00 0.00 0.00 0.00 0.00 0.00 0.00 0.01 0.00 0.00 0.00 0.00 0.00 0.00 0.00 0.00 0.00 0.00 0.00 0.00 0.00 0.00 0.00 0.00 0.00 0.00 0.00 0.00 0.01 0.01 0.01 0.02 0.02 0.02 0.02 0.02 0.02 0.02
0.00 0.00 0.00 0.00 0.00 0.00 0.00 0.00 0.00 0.00 0.00 0.00 0.00 0.00 0.00 0.00 0.00 0.00 0.00 0.00 0.00 0.00 0.00 0.00 0.00 0.00 0.00 0.00 0.00 0.00 0.00 0.00 0.00 0.00 0.00 0.01 0.02 0.02 0.02 0.02 0.04 0.05 0.05 0.04
0.00 0.00 0.00 0.00 0.00 0.00 0.00 0.00 0.00 0.00 0.00 0.00 0.00 0.00 0.00 0.00 0.00 0.00 0.00 0.00 0.00 0.00 0.00 0.00 0.00 0.00 0.00 0.00 0.00 0.00 0.00 0.00 0.00 0.01 0.01 0.02 0.02 0.02 0.03 0.05 0.14 0.17 0.14 0.10
0.00 0.00 0.00 0.00 0.00 0.00 0.00 0.00 0.00 0.00 0.00 0.00 0.00 0.00 0.00 0.00 0.00 0.00 0.00 0.00 0.00 0.00 0.00 0.00 0.00 0.00 0.00 0.00 0.00 0.00 0.00 0.00 0.00 0.01 0.02 0.02 0.02 0.03 0.05 0.07 0.20 0.30 0.22 0.22
0.00 0.00 0.00 0.00 0.00 0.00 0.00 0.00 0.00 0.00 0.00 0.00 0.00 0.00 0.00 0.00 0.00 0.00 0.00 0.00 0.00 0.00 0.00 0.00 0.00 0.00 0.00 0.00 0.00 0.00 0.00 0.00 0.01 0.02 0.02 0.03 0.03 0.03 0.04 0.06 0.12 0.14 0.15 0.20
0.00 0.00 0.00 0.00 0.00 0.00 0.00 0.00 0.00 0.00 0.00 0.00 0.00 0.00 0.00 0.00 0.00 0.00 0.00 0.00 0.00 0.00 0.00 0.00 0.00 0.00 0.00 0.00 0.00 0.00 0.01 0.01 0.02 0.03 0.03 0.03 0.04 0.07 0.08 0.06 0.06 0.06 0.07 0.11
0.00 0.00 0.00 0.00 0.00 0.00 0.00 0.00 0.00 0.00 0.00 0.00 0.00 0.00 0.00 0.00 0.00 0.00 0.00 0.00 0.00 0.00 0.00 0.00 0.00 0.00 0.00 0.00 0.00 0.00 0.01 0.02 0.03 0.04 0.05 0.06 0.08 0.10 0.13 0.14 0.11 0.06 0.04 0.05
0.00 0.00 0.00 0.00 0.00 0.00 0.00 0.00 0.00 0.00 0.00 0.00 0.00 0.00 0.00 0.00 0.00 0.00 0.00 0.00 0.00 0.00 0.00 0.00 0.00 0.00 0.00 0.00 0.00 0.00 0.01 0.02 0.04 0.05 0.07 0.08 0.09 0.12 0.13 0.14 0.13 0.10 0.07 0.05
0.00 0.00 0.00 0.00 0.00 0.00 0.00 0.00 0.00 0.00 0.00 0.00 0.00 0.00 0.00 0.00 0.00 0.00 0.00 0.00 0.00 0.00 0.00 0.00 0.00 0.00 0.00 0.00 0.01 0.01 0.01 0.03 0.05 0.07 0.08 0.09 0.11 0.14 0.16 0.17 0.16 0.14 0.12 0.11
0.00 0.00 0.00 0.00 0.00 0.01 0.00 0.00 0.00 0.00 0.00 0.00 0.00 0.00 0.00 0.00 0.00 0.00 0.00 0.00 0.00 0.00 0.00 0.00 0.00 0.00 0.00 0.00 0.01 0.02 0.03 0.04 0.05 0.07 0.09 0.12 0.16 0.18 0.21 0.23 0.22 0.17 0.12 0.11
0.00 0.00 0.00 0.00 0.00 0.01 0.00 0.00 0.00 0.00 0.00 0.00 0.00 0.00 0.00 0.00 0.00 0.00 0.00 0.00 0.00 0.00 0.00 0.00 0.00 0.00 0.00 0.00 0.03 0.04 0.05 0.06 0.07 0.10 0.13 0.15 0.19 0.21 0.23 0.24 0.22 0.19 0.14 0.11
0.01 0.01 0.01 0.01 0.01 0.01 0.01 0.00 0.00 0.00 0.00 0.00 0.00 0.00 0.00 0.00 0.00 0.00 0.00 0.00 0.00 0.00 0.00 0.00 0.00 0.00 0.00 0.02 0.05 0.06 0.07 0.10 0.11 0.12 0.14 0.17 0.20 0.19 0.21 0.23 0.22 0.19 0.18 0.16
0.00 0.00 0.00 0.00 0.00 0.00 0.00 0.00 0.00 0.00 0.00 0.00 0.00 0.00 0.00 0.00 0.00 0.00 0.00 0.00 0.00 0.00 0.00 0.00 0.00 0.00 0.03 0.05 0.07 0.08 0.10 0.13 0.15 0.16 0.17 0.20 0.22 0.22 0.22 0.23 0.23 0.22 0.20 0.18
0.00 0.00 0.00 0.00 0.01 0.00 0.00 0.00 0.00 0.00 0.00 0.00 0.00 0.00 0.00 0.00 0.00 0.00 0.00 0.00 0.00 0.00 0.00 0.00 0.00 0.03 0.08 0.08 0.09 0.10 0.12 0.15 0.17 0.20 0.24 0.25 0.26 0.25 0.23 0.22 0.23 0.21 0.19 0.19
0.00 0.01 0.01 0.01 0.01 0.00 0.00 0.00 0.00 0.00 0.00 0.00 0.00 0.00 0.00 0.00 0.00 0.00 0.00 0.00 0.00 0.00 0.00 0.00 0.01 0.05 0.08 0.09 0.09 0.10 0.12 0.15 0.19 0.24 0.27 0.29 0.31 0.31 0.27 0.24 0.24 0.21 0.20 0.19
0.01 0.01 0.01 0.01 0.01 0.01 0.00 0.00 0.00 0.00 0.00 0.00 0.00 0.00 0.00 0.00 0.00 0.00 0.00 0.00 0.00 0.01 0.01 0.01 0.02 0.05 0.09 0.09 0.09 0.11 0.14 0.18 0.23 0.27 0.29 0.30 0.31 0.32 0.30 0.27 0.24 0.23 0.22 0.21
0.01 0.01 0.01 0.01 0.01 0.00 0.00 0.00 0.00 0.00 0.00 0.00 0.00 0.00 0.00 0.00 0.00 0.00 0.00 0.00 0.01 0.01 0.01 0.02 0.03 0.06 0.09 0.09 0.10 0.13 0.18 0.22 0.28 0.30 0.31 0.31 0.30 0.29 0.28 0.27 0.25 0.22 0.20 0.20
0.01 0.01 0.01 0.01 0.01 0.01 0.00 0.00 0.00 0.00 0.00 0.00 0.00 0.00 0.00 0.00 0.00 0.00 0.00 0.00 0.01 0.02 0.02 0.03 0.05 0.08 0.09 0.11 0.14 0.18 0.22 0.27 0.34 0.39 0.37 0.33 0.30 0.28 0.26 0.25 0.24 0.23 0.21 0.20
0.01 0.01 0.01 0.01 0.01 0.01 0.01 0.01 0.01 0.01 0.01 0.00 0.00 0.00 0.00 0.01 0.01 0.01 0.01 0.01 0.02 0.03 0.03 0.04 0.06 0.08 0.11 0.15 0.19 0.22 0.26 0.30 0.35 0.37 0.34 0.31 0.29 0.29 0.27 0.25 0.22 0.21 0.20 0.19
0.02 0.02 0.02 0.02 0.02 0.02 0.02 0.02 0.02 0.02 0.02 0.02 0.02 0.02 0.02 0.02 0.02 0.02 0.02 0.02 0.03 0.04 0.05 0.06 0.08 0.12 0.17 0.21 0.24 0.26 0.29 0.32 0.36 0.38 0.35 0.33 0.31 0.30 0.27 0.24 0.22 0.20 0.19 0.18

GEFSNGP_prec_meanprecacc_102.txt.gz
Total_Precipitation_Accumulation
0.00 0.00 0.00 0.00 0.00 0.00 0.00 0.00 0.00 0.00 0.00 0.00 0.00 0.00 0.00 0.00 0.00 0.00 0.00 0.00 0.00 0.00 0.00 0.00 0.00 0.00 0.00 0.00 0.00 0.00 0.00 0.00 0.00 0.00 0.00 0.00 0.00 0.00 0.00 0.01 0.02 0.05 0.06 0.11
0.00 0.00 0.00 0.00 0.00 0.00 0.00 0.00 0.00 0.00 0.00 0.00 0.00 0.00 0.00 0.00 0.00 0.00 0.00 0.00 0.00 0.00 0.00 0.00 0.00 0.00 0.00 0.00 0.00 0.00 0.00 0.00 0.00 0.00 0.00 0.00 0.00 0.00 0.00 0.01 0.02 0.04 0.04 0.06
0.00 0.00 0.00 0.00 0.00 0.00 0.00 0.00 0.00 0.00 0.00 0.00 0.00 0.00 0.00 0.00 0.00 0.01 0.00 0.00 0.00 0.00 0.00 0.00 0.00 0.00 0.00 0.00 0.00 0.00 0.00 0.00 0.00 0.00 0.00 0.00 0.00 0.00 0.00 0.01 0.02 0.04 0.03 0.03
0.00 0.00 0.00 0.00 0.00 0.00 0.00 0.00 0.00 0.00 0.00 0.00 0.00 0.00 0.00 0.00 0.01 0.01 0.00 0.00 0.00 0.00 0.00 0.00 0.00 0.00 0.00 0.00 0.00 0.00 0.00 0.00 0.00 0.00 0.00 0.00 0.00 0.00 0.01 0.01 0.02 0.03 0.03 0.02
0.00 0.00 0.00 0.00 0.00 0.00 0.00 0.00 0.00 0.00 0.00 0.00 0.00 0.00 0.00 0.01 0.01 0.00 0.00 0.00 0.00 0.00 0.00 0.00 0.00 0.00 0.00 0.00 0.00 0.00 0.00 0.00 0.00 0.00 0.00 0.00 0.01 0.01 0.01 0.01 0.01 0.02 0.02 0.02
0.00 0.00 0.00 0.00 0.00 0.00 0.00 0.00 0.00 0.00 0.00 0.00 0.00 0.01 0.02 0.03 0.01 0.00 0.00 0.00 0.00 0.00 0.00 0.00 0.00 0.00 0.00 0.00 0.00 0.00 0.00 0.00 0.00 0.00 0.00 0.01 0.01 0.01 0.01 0.02 0.02 0.02 0.01 0.01
0.00 0.00 0.00 0.00 0.00 0.00 0.00 0.00 0.00 0.00 0.00 0.00 0.00 0.02 0.02 0.01 0.00 0.00 0.00 0.00 0.00 0.00 0.00 0.00 0.00 0.00 0.00 0.00 0.00 0.00 0.00 0.00 0.00 0.00 0.00 0.01 0.01 0.01 0.01 0.01 0.02 0.01 0.01 0.01
0.00 0.00 0.00 0.00 0.00 0.00 0.00 0.00 0.00 0.00 0.00 0.00 0.00 0.01 0.00 0.00 0.00 0.00 0.00 0.00 0.00 0.00 0.00 0.00 0.00 0.00 0.00 0.00 0.00 0.00 0.00 0.00 0.00 0.00 0.01 0.01 0.01 0.02 0.02 0.02 0.02 0.02 0.02 0.02
0.00 0.00 0.00 0.00 0.00 0.00 0.00 0.00 0.00 0.00 0.00 0.00 0.00 0.00 0.00 0.00 0.00 0.00 0.00 0.00 0.00 0.00 0.00 0.00 0.00 0.00 0.00 0.00 0.00 0.00 0.00 0.00 0.00 0.00 0.00 0.01 0.02 0.02 0.02 0.02 0.04 0.05 0.05 0.04
0.00 0.00 0.00 0.00 0.00 0.00 0.00 0.00 0.00 0.00 0.00 0.00 0.00 0.00 0.00 0.00 0.00 0.00 0.00 0.00 0.00 0.00 0.00 0.00 0.00 0.00 0.00 0.00 0.00 0.00 0.00 0.00 0.00 0.01 0.01 0.02 0.02 0.02 0.03 0.05 0.14 0.17 0.14 0.10
0.00 0.00 0.00 0.00 0.00 0.00 0.00 0.00 0.00 0.00 0.00 0.00 0.00 0.00 0.00 0.00 0.00 0.00 0.00 0.00 0.00 0.00 0.00 0.00 0.00 0.00 0.00 0.00 0.00 0.00 0.00 0.00 0.00 0.01 0.02 0.02 0.02 0.03 0.05 0.07 0.20 0.30 0.23 0.23
0.00 0.00 0.00 0.00 0.00 0.00 0.00 0.00 0.00 0.00 0.00 0.00 0.00 0.00 0.00 0.00 0.00 0.00 0.00 0.00 0.00 0.00 0.00 0.00 0.00 0.00 0.00 0.00 0.00 0.00 0.00 0.00 0.01 0.02 0.02 0.03 0.03 0.03 0.04 0.06 0.12 0.14 0.15 0.21
0.00 0.00 0.00 0.00 0.00 0.00 0.00 0.00 0.00 0.00 0.00 0.00 0.00 0.00 0.00 0.00 0.00 0.00 0.00 0.00 0.00 0.00 0.00 0.00 0.00 0.00 0.00 0.00 0.00 0.00 0.01 0.01 0.02 0.03 0.03 0.03 0.04 0.07 0.08 0.06 0.06 0.06 0.07 0.11
0.00 0.00 0.00 0.00 0.00 0.00 0.00 0.00 0.00 0.00 0.00 0.00 0.00 0.00 0.00 0.00 0.00 0.00 0.00 0.00 0.00 0.00 0.00 0.00 0.00 0.00 0.00 0.00 0.00 0.00 0.01 0.02 0.03 0.04 0.05 0.06 0.08 0.10 0.13 0.14 0.11 0.06 0.04 0.06
0.00 0.00 0.00 0.00 0.00 0.00 0.00 0.00 0.00 0.00 0.00 0.00 0.00 0.00 0.00 0.00 0.00 0.00 0.00 0.00 0.00 0.00 0.00 0.00 0.00 0.00 0.00 0.00 0.00 0.00 0.01 0.02 0.04 0.05 0.07 0.08 0.10 0.12 0.13 0.14 0.13 0.10 0.07 0.06
0.00 0.00 0.00 0.00 0.00 0.00 0.00 0.00 0.00 0.00 0.00 0.00 0.00 0.00 0.00 0.00 0.00 0.00 0.00 0.00 0.00 0.00 0.00 0.00 0.00 0.00 0.00 0.00 0.01 0.01 0.01 0.03 0.06 0.07 0.08 0.09 0.11 0.14 0.16 0.17 0.17 0.15 0.12 0.11
0.00 0.00 0.00 0.00 0.00 0.01 0.00 0.00 0.00 0.00 0.00 0.00 0.00 0.00 0.00 0.00 0.00 0.00 0.00 0.00 0.00 0.00 0.00 0.00 0.00 0.00 0.00 0.00 0.01 0.02 0.03 0.04 0.05 0.07 0.09 0.12 0.16 0.19 0.21 0.24 0.23 0.18 0.12 0.11
0.00 0.00 0.00 0.00 0.00 0.01 0.00 0.00 0.00 0.00 0.00 0.00 0.00 0.00 0.00 0.00 0.00 0.00 0.00 0.00 0.00 0.00 0.00 0.00 0.00 0.00 0.00 0.00 0.03 0.04 0.05 0.06 0.07 0.10 0.13 0.16 0.20 0.21 0.24 0.25 0.22 0.20 0.14 0.11
0.01 0.01 0.01 0.01 0.01 0.01 0.01 0.00 0.00 0.00 0.00 0.00 0.00 0.00 0.00 0.00 0.00 0.00 0.00 0.00 0.00 0.00 0.00 0.00 0.00 0.00 0.00 0.02 0.05 0.06 0.07 0.10 0.11 0.12 0.14 0.18 0.20 0.19 0.22 0.24 0.22 0.20 0.18 0.17
0.00 0.00 0.00 0.00 0.00 0.00 0.00 0.00 0.00 0.00 0.00 0.00 0.00 0.00 0.00 0.00 0.00 0.00 0.00 0.00 0.00 0.00 0.00 0.00 0.00 0.00 0.03 0.05 0.07 0.08 0.10 0.13 0.16 0.17 0.18 0.20 0.22 0.22 0.22 0.23 0.23 0.22 0.20 0.19
0.00 0.00 0.00 0.00 0.01 0.00 0.00 0.00 0.00 0.00 0.00 0.00 0.00 0.00 0.00 0.00 0.00 0.00 0.00 0.00 0.00 0.00 0.00 0.00 0.00 0.03 0.08 0.08 0.09 0.10 0.12 0.15 0.18 0.21 0.24 0.26 0.26 0.25 0.24 0.23 0.23 0.22 0.20 0.19
0.00 0.01 0.01 0.01 0.01 0.00 0.00 0.00 0.00 0.00 0.00 0.00 0.00 0.00 0.00 0.00 0.00 0.00 0.00 0.00 0.00 0.00 0.00 0.00 0.01 0.05 0.08 0.09 0.09 0.10 0.12 0.15 0.19 0.24 0.27 0.29 0.31 0.31 0.27 0.25 0.24 0.22 0.20 0.20
0.01 0.01 0.01 0.01 0.01 0.01 0.00 0.00 0.00 0.00 0.00 0.00 0.00 0.00 0.00 0.00 0.00 0.00 0.00 0.00 0.00 0.01 0.01 0.01 0.02 0.05 0.09 0.09 0.09 0.11 0.14 0.18 0.23 0.27 0.29 0.31 0.32 0.32 0.31 0.28 0.25 0.24 0.23 0.22
0.01 0.01 0.01 0.01 0.01 0.01 0.00 0.00 0.00 0.00 0.00 0.00 0.00 0.00 0.00 0.00 0.00 0.00 0.00 0.00 0.01 0.01 0.01 0.02 0.03 0.06 0.09 0.09 0.10 0.13 0.18 0.22 0.28 0.31 0.31 0.31 0.31 0.30 0.29 0.28 0.26 0.22 0.21 0.21
0.01 0.01 0.01 0.01 0.01 0.01 0.01 0.01 0.01 0.00 0.00 0.00 0.00 0.00 0.00 0.00 0.00 0.00 0.00 0.00 0.01 0.02 0.02 0.03 0.05 0.08 0.09 0.11 0.14 0.18 0.22 0.27 0.34 0.39 0.37 0.34 0.31 0.29 0.27 0.26 0.25 0.23 0.22 0.21
0.01 0.01 0.01 0.01 0.01 0.02 0.02 0.01 0.01 0.01 0.01 0.00 0.00 0.00 0.00 0.01 0.01 0.01 0.01 0.01 0.02 0.03 0.03 0.04 0.06 0.08 0.11 0.15 0.19 0.22 0.26 0.30 0.35 0.37 0.34 0.32 0.30 0.29 0.28 0.26 0.23 0.22 0.21 0.20
0.02 0.02 0.02 0.02 0.02 0.02 0.03 0.02 0.02 0.02 0.02 0.02 0.02 0.02 0.02 0.02 0.02 0.02 0.02 0.02 0.03 0.04 0.05 0.06 0.08 0.12 0.17 0.21 0.24 0.26 0.29 0.33 0.36 0.38 0.36 0.34 0.32 0.31 0.28 0.25 0.23 0.21 0.20 0.19

GEFSNGP_prec_meanprecacc_108.txt.gz
Total_Precipitation_Accumulation
0.00 0.00 0.00 0.00 0.00 0.00 0.00 0.00 0.00 0.00 0.00 0.00 0.00 0.00 0.00 0.00 0.00 0.00 0.00 0.00 0.00 0.00 0.00 0.00 0.00 0.00 0.00 0.00 0.00 0.00 0.00 0.00 0.00 0.00 0.00 0.00 0.00 0.00 0.00 0.01 0.02 0.05 0.06 0.11
0.00 0.00 0.00 0.00 0.00 0.00 0.00 0.00 0.00 0.00 0.00 0.00 0.00 0.00 0.00 0.00 0.00 0.00 0.00 0.00 0.00 0.00 0.00 0.00 0.00 0.00 0.00 0.00 0.00 0.00 0.00 0.00 0.00 0.00 0.00 0.00 0.00 0.00 0.00 0.01 0.02 0.04 0.04 0.06
0.00 0.00 0.00 0.00 0.00 0.00 0.00 0.00 0.00 0.00 0.00 0.00 0.00 0.00 0.00 0.00 0.00 0.01 0.00 0.00 0.00 0.00 0.00 0.00 0.00 0.00 0.00 0.00 0.00 0.00 0.00 0.00 0.00 0.00 0.00 0.00 0.00 0.00 0.00 0.01 0.02 0.04 0.03 0.03
0.00 0.01 0.01 0.00 0.00 0.00 0.00 0.00 0.00 0.00 0.00 0.00 0.00 0.00 0.00 0.00 0.01 0.01 0.00 0.00 0.00 0.00 0.00 0.00 0.00 0.00 0.00 0.00 0.00 0.00 0.00 0.00 0.00 0.00 0.00 0.00 0.00 0.00 0.01 0.01 0.02 0.03 0.03 0.02
0.01 0.01 0.00 0.00 0.00 0.00 0.00 0.00 0.00 0.00 0.00 0.00 0.00 0.00 0.00 0.01 0.01 0.00 0.00 0.00 0.00 0.00 0.00 0.00 0.00 0.00 0.00 0.00 0.00 0.00 0.00 0.00 0.00 0.00 0.00 0.00 0.01 0.01 0.01 0.01 0.02 0.02 0.02 0.02
0.01 0.00 0.00 0.00 0.00 0.00 0.00 0.00 0.00 0.00 0.00 0.00 0.00 0.01 0.02 0.03 0.01 0.00 0.00 0.00 0.00 0.00 0.00 0.00 0.00 0.00 0.00 0.00 0.00 0.00 0.00 0.00 0.00 0.00 0.00 0.01 0.01 0.01 0.01 0.02 0.02 0.02 0.01 0.01
0.01 0.00 0.00 0.00 0.00 0.00 0.00 0.00 0.00 0.00 0.00 0.00 0.00 0.02 0.02 0.01 0.00 0.00 0.00 0.00 0.00 0.00 0.00 0.00 0.00 0.00 0.00 0.00 0.00 0.00 0.00 0.00 0.00 0.00 0.00 0.01 0.01 0.01 0.01 0.01 0.02 0.01 0.01 0.01
0.00 0.00 0.00 0.00 0.00 0.00 0.00 0.00 0.00 0.00 0.00 0.00 0.00 0.01 0.00 0.00 0.00 0.00 0.00 0.00 0.00 0.00 0.00 0.00 0.00 0.00 0.00 0.00 0.00 0.00 0.00 0.00 0.00 0.00 0.01 0.01 0.01 0.02 0.02 0.02 0.02 0.02 0.02 0.02
0.00 0.00 0.00 0.00 0.00 0.00 0.00 0.00 0.00 0.00 0.00 0.00 0.00 0.00 0.00 0.00 0.00 0.00 0.00 0.00 0.00 0.00 0.00 0.00 0.00 0.00 0.00 0.00 0.00 0.00 0.00 0.00 0.00 0.00 0.00 0.01 0.02 0.02 0.02 0.02 0.04 0.05 0.05 0.04
0.00 0.00 0.00 0.00 0.00 0.00 0.00 0.00 0.00 0.00 0.00 0.00 0.00 0.00 0.00 0.00 0.00 0.00 0.00 0.00 0.00 0.00 0.00 0.00 0.00 0.00 0.00 0.00 0.00 0.00 0.00 0.00 0.00 0.01 0.01 0.02 0.02 0.02 0.03 0.05 0.14 0.17 0.14 0.10
0.00 0.00 0.00 0.00 0.00 0.00 0.00 0.00 0.00 0.00 0.00 0.00 0.00 0.00 0.00 0.00 0.00 0.00 0.00 0.00 0.00 0.00 0.00 0.00 0.00 0.00 0.00 0.00 0.00 0.00 0.00 0.00 0.00 0.01 0.02 0.02 0.02 0.03 0.05 0.07 0.20 0.30 0.23 0.23
0.00 0.00 0.00 0.00 0.00 0.00 0.00 0.00 0.00 0.00 0.00 0.00 0.00 0.00 0.00 0.00 0.00 0.00 0.00 0.00 0.00 0.00 0.00 0.00 0.00 0.00 0.00 0.00 0.00 0.00 0.00 0.00 0.01 0.02 0.02 0.03 0.03 0.03 0.04 0.06 0.12 0.14 0.15 0.21
0.00 0.00 0.00 0.00 0.00 0.00 0.00 0.00 0.00 0.00 0.00 0.00 0.00 0.00 0.00 0.00 0.00 0.00 0.00 0.00 0.00 0.00 0.00 0.00 0.00 0.00 0.00 0.00 0.00 0.00 0.01 0.01 0.02 0.03 0.03 0.03 0.04 0.07 0.08 0.06 0.06 0.06 0.08 0.11
0.00 0.00 0.00 0.00 0.00 0.00 0.00 0.00 0.00 0.00 0.00 0.00 0.00 0.00 0.00 0.00 0.00 0.00 0.00 0.00 0.00 0.00 0.00 0.00 0.00 0.00 0.00 0.00 0.00 0.00 0.01 0.02 0.03 0.04 0.05 0.06 0.08 0.10 0.13 0.14 0.11 0.06 0.04 0.06
0.00 0.00 0.00 0.00 0.00 0.00 0.00 0.00 0.00 0.00 0.00 0.00 0.00 0.00 0.00 0.00 0.00 0.00 0.00 0.00 0.00 0.00 0.00 0.00 0.00 0.00 0.00 0.00 0.00 0.00 0.01 0.02 0.04 0.05 0.07 0.08 0.10 0.12 0.13 0.14 0.13 0.10 0.07 0.06
0.00 0.00 0.00 0.00 0.00 0.00 0.00 0.00 0.00 0.00 0.00 0.00 0.00 0.00 0.00 0.00 0.00 0.00 0.00 0.00 0.00 0.00 0.00 0.00 0.00 0.00 0.00 0.00 0.01 0.01 0.01 0.03 0.06 0.07 0.08 0.09 0.11 0.14 0.16 0.17 0.17 0.15 0.12 0.11
0.00 0.00 0.00 0.00 0.00 0.01 0.00 0.00 0.00 0.00 0.00 0.00 0.00 0.00 0.00 0.00 0.00 0.00 0.00 0.00 0.00 0.00 0.00 0.00 0.00 0.00 0.00 0.00 0.01 0.02 0.03 0.04 0.05 0.07 0.09 0.12 0.16 0.19 0.21 0.24 0.23 0.18 0.13 0.11
0.00 0.00 0.00 0.00 0.00 0.01 0.00 0.00 0.00 0.00 0.00 0.00 0.00 0.00 0.00 0.00 0.00 0.00 0.00 0.00 0.00 0.00 0.00 0.00 0.00 0.00 0.00 0.00 0.03 0.04 0.05 0.06 0.07 0.10 0.13 0.16 0.20 0.22 0.24 0.25 0.22 0.20 0.15 0.11
0.01 0.01 0.01 0.01 0.01 0.01 0.01 0.00 0.00 0.00 0.00 0.00 0.00 0.00 0.00 0.00 0.00 0.00 0.00 0.00 0.00 0.00 0.00 0.00 0.00 0.00 0.00 0.02 0.05 0.06 0.07 0.10 0.11 0.12 0.14 0.18 0.20 0.19 0.22 0.24 0.23 0.20 0.19 0.17
0.00 0.00 0.00 0.00 0.00 0.00 0.00 0.00 0.00 0.00 0.00 0.00 0.00 0.00 0.00 0.00 0.00 0.00 0.00 0.00 0.00 0.00 0.00 0.00 0.00 0.00 0.03 0.05 0.07 0.08 0.10 0.13 0.16 0.17 0.18 0.20 0.23 0.23 0.23 0.24 0.24 0.23 0.20 0.19
0.00 0.00 0.00 0.00 0.01 0.00 0.00 0.00 0.00 0.00 0.00 0.00 0.00 0.00 0.00 0.00 0.00 0.00 0.00 0.00 0.00 0.00 0.00 0.00 0.00 0.03 0.08 0.08 0.09 0.10 0.12 0.15 0.18 0.21 0.24 0.26 0.27 0.25 0.24 0.23 0.23 0.22 0.20 0.19
0.00 0.01 0.01 0.01 0.01 0.00 0.00 0.00 0.00 0.00 0.00 0.00 0.00 0.00 0.00 0.00 0.00 0.00 0.00 0.00 0.00 0.00 0.00 0.00 0.01 0.05 0.08 0.09 0.09 0.10 0.12 0.15 0.19 0.24 0.27 0.29 0.31 0.31 0.27 0.25 0.25 0.22 0.20 0.20
0.01 0.01 0.01 0.01 0.01 0.01 0.00 0.00 0.00 0.00 0.00 0.00 0.00 0.00 0.00 0.00 0.00 0.00 0.00 0.00 0.00 0.01 0.01 0.01 0.02 0.05 0.09 0.09 0.09 0.11 0.14 0.18 0.23 0.27 0.29 0.31 0.32 0.33 0.32 0.28 0.25 0.24 0.23 0.22
0.01 0.01 0.01 0.01 0.01 0.01 0.00 0.00 0.00 0.00 0.00 0.00 0.00 0.00 0.00 0.00 0.00 0.00 0.00 0.00 0.01 0.01 0.01 0.02 0.03 0.06 0.09 0.09 0.10 0.13 0.18 0.22 0.28 0.31 0.31 0.31 0.31 0.30 0.29 0.28 0.27 0.23 0.21 0.21
0.01 0.01 0.01 0.01 0.01 0.01 0.01 0.01 0.01 0.01 0.01 0.01 0.00 0.00 0.00 0.00 0.00 0.00 0.00 0.00 0.01 0.02 0.02 0.03 0.05 0.08 0.09 0.11 0.14 0.18 0.22 0.27 0.34 0.39 0.38 0.34 0.31 0.29 0.27 0.26 0.26 0.24 0.22 0.21
0.02 0.02 0.02 0.02 0.02 0.02 0.02 0.02 0.02 0.02 0.01 0.01 0.01 0.01 0.01 0.01 0.01 0.01 0.01 0.01 0.02 0.03 0.03 0.04 0.06 0.08 0.11 0.15 0.19 0.22 0.26 0.30 0.35 0.38 0.34 0.32 0.30 0.30 0.28 0.26 0.23 0.22 0.22 0.20
0.03 0.03 0.03 0.03 0.03 0.03 0.03 0.03 0.03 0.02 0.02 0.02 0.02 0.02 0.02 0.02 0.02 0.02 0.02 0.02 0.03 0.04 0.05 0.06 0.08 0.12 0.17 0.21 0.24 0.26 0.29 0.33 0.37 0.39 0.37 0.34 0.33 0.31 0.28 0.26 0.23 0.22 0.21 0.19

GEFSNGP_prec_meanprecacc_114.txt.gz
Total_Precipitation_Accumulation
0.00 0.00 0.00 0.00 0.00 0.00 0.00 0.00 0.00 0.00 0.00 0.00 0.00 0.00 0.00 0.00 0.00 0.00 0.00 0.00 0.00 0.00 0.00 0.00 0.00 0.00 0.00 0.00 0.00 0.00 0.00 0.00 0.00 0.00 0.00 0.00 0.00 0.00 0.00 0.01 0.02 0.05 0.06 0.11
0.01 0.00 0.00 0.01 0.00 0.00 0.00 0.00 0.00 0.00 0.00 0.00 0.00 0.00 0.00 0.00 0.00 0.00 0.00 0.00 0.00 0.00 0.00 0.00 0.00 0.00 0.00 0.00 0.00 0.00 0.00 0.00 0.00 0.00 0.00 0.00 0.00 0.00 0.00 0.01 0.02 0.04 0.04 0.06
0.02 0.01 0.02 0.02 0.00 0.00 0.00 0.00 0.00 0.00 0.00 0.00 0.00 0.00 0.00 0.00 0.00 0.01 0.00 0.00 0.00 0.00 0.00 0.00 0.00 0.00 0.00 0.00 0.00 0.00 0.00 0.00 0.00 0.00 0.00 0.00 0.00 0.00 0.00 0.01 0.02 0.04 0.03 0.03
0.03 0.04 0.08 0.03 0.00 0.00 0.00 0.00 0.00 0.00 0.00 0.00 0.00 0.00 0.00 0.00 0.01 0.01 0.00 0.00 0.00 0.00 0.00 0.00 0.00 0.00 0.00 0.00 0.00 0.00 0.00 0.00 0.00 0.00 0.00 0.00 0.00 0.00 0.01 0.01 0.02 0.03 0.03 0.02
0.07 0.06 0.04 0.00 0.00 0.00 0.00 0.00 0.00 0.00 0.00 0.00 0.00 0.00 0.00 0.01 0.01 0.00 0.00 0.00 0.00 0.00 0.00 0.00 0.00 0.00 0.00 0.00 0.00 0.00 0.00 0.00 0.00 0.00 0.00 0.00 0.01 0.01 0.01 0.01 0.02 0.02 0.02 0.02
0.08 0.04 0.01 0.00 0.00 0.00 0.00 0.00 0.00 0.00 0.00 0.00 0.00 0.01 0.02 0.03 0.01 0.00 0.00 0.00 0.00 0.00 0.00 0.00 0.00 0.00 0.00 0.00 0.00 0.00 0.00 0.00 0.00 0.00 0.00 0.01 0.01 0.01 0.01 0.02 0.02 0.02 0.02 0.01
0.07 0.03 0.01 0.00 0.00 0.00 0.00 0.00 0.00 0.00 0.00 0.00 0.00 0.02 0.02 0.01 0.00 0.00 0.00 0.00 0.00 0.00 0.00 0.00 0.00 0.00 0.00 0.00 0.00 0.00 0.00 0.00 0.00 0.00 0.00 0.01 0.01 0.01 0.01 0.01 0.02 0.01 0.01 0.01
0.04 0.02 0.01 0.01 0.00 0.00 0.00 0.00 0.00 0.00 0.00 0.00 0.00 0.01 0.00 0.00 0.00 0.00 0.00 0.00 0.00 0.00 0.00 0.00 0.00 0.00 0.00 0.00 0.00 0.00 0.00 0.00 0.00 0.00 0.01 0.01 0.01 0.02 0.02 0.02 0.02 0.02 0.02 0.02
0.01 0.01 0.00 0.01 0.01 0.00 0.00 0.00 0.00 0.00 0.00 0.00 0.00 0.00 0.00 0.00 0.00 0.00 0.00 0.00 0.00 0.00 0.00 0.00 0.00 0.00 0.00 0.00 0.00 0.00 0.00 0.00 0.00 0.00 0.00 0.01 0.02 0.02 0.02 0.02 0.04 0.05 0.05 0.04
0.01 0.00 0.00 0.00 0.00 0.00 0.00 0.00 0.00 0.00 0.00 0.00 0.00 0.00 0.00 0.00 0.00 0.00 0.00 0.00 0.00 0.00 0.00 0.00 0.00 0.00 0.00 0.00 0.00 0.00 0.00 0.00 0.00 0.01 0.01 0.02 0.02 0.02 0.03 0.05 0.14 0.17 0.14 0.10
0.01 0.01 0.00 0.00 0.00 0.00 0.00 0.00 0.00 0.00 0.00 0.00 0.00 0.00 0.00 0.00 0.00 0.00 0.00 0.00 0.00 0.00 0.00 0.00 0.00 0.00 0.00 0.00 0.00 0.00 0.00 0.00 0.00 0.01 0.02 0.02 0.02 0.03 0.05 0.07 0.20 0.30 0.23 0.23
0.01 0.01 0.01 0.00 0.00 0.00 0.00 0.00 0.00 0.00 0.00 0.00 0.00 0.00 0.00 0.00 0.00 0.00 0.00 0.00 0.00 0.00 0.00 0.00 0.00 0.00 0.00 0.00 0.00 0.00 0.00 0.00 0.01 0.02 0.02 0.03 0.03 0.03 0.04 0.06 0.12 0.14 0.15 0.21
0.01 0.01 0.01 0.01 0.01 0.00 0.00 0.00 0.00 0.00 0.00 0.00 0.00 0.00 0.00 0.00 0.00 0.00 0.00 0.00 0.00 0.00 0.00 0.00 0.00 0.00 0.00 0.00 0.00 0.00 0.01 0.01 0.02 0.03 0.03 0.03 0.04 0.07 0.08 0.06 0.06 0.06 0.08 0.11
0.00 0.00 0.01 0.00 0.00 0.00 0.00 0.00 0.00 0.00 0.00 0.00 0.00 0.00 0.00 0.00 0.00 0.00 0.00 0.00 0.00 0.00 0.00 0.00 0.00 0.00 0.00 0.00 0.00 0.00 0.01 0.02 0.03 0.04 0.05 0.06 0.08 0.10 0.13 0.14 0.11 0.06 0.04 0.06
0.00 0.00 0.00 0.00 0.00 0.00 0.00 0.00 0.00 0.00 0.00 0.00 0.00 0.00 0.00 0.00 0.00 0.00 0.00 0.00 0.00 0.00 0.00 0.00 0.00 0.00 0.00 0.00 0.00 0.00 0.01 0.02 0.04 0.05 0.07 0.08 0.10 0.12 0.13 0.14 0.13 0.10 0.07 0.06
0.00 0.00 0.00 0.00 0.00 0.00 0.00 0.00 0.00 0.00 0.00 0.00 0.00 0.00 0.00 0.00 0.00 0.00 0.00 0.00 0.00 0.00 0.00 0.00 0.00 0.00 0.00 0.00 0.01 0.01 0.01 0.03 0.06 0.07 0.08 0.09 0.11 0.14 0.16 0.17 0.17 0.15 0.12 0.11
0.00 0.00 0.00 0.00 0.00 0.01 0.01 0.00 0.00 0.00 0.00 0.00 0.00 0.00 0.00 0.00 0.00 0.00 0.00 0.00 0.00 0.00 0.00 0.00 0.00 0.00 0.00 0.00 0.01 0.02 0.03 0.04 0.05 0.07 0.09 0.12 0.16 0.19 0.21 0.24 0.23 0.18 0.13 0.12
0.00 0.00 0.00 0.00 0.01 0.01 0.01 0.00 0.00 0.00 0.00 0.00 0.00 0.00 0.00 0.00 0.00 0.00 0.00 0.00 0.00 0.00 0.00 0.00 0.00 0.00 0.00 0.00 0.03 0.04 0.05 0.06 0.07 0.10 0.13 0.16 0.20 0.22 0.24 0.25 0.22 0.20 0.15 0.11
0.01 0.01 0.01 0.01 0.01 0.01 0.01 0.00 0.00 0.00 0.00 0.00 0.00 0.00 0.00 0.00 0.00 0.00 0.00 0.00 0.00 0.00 0.00 0.00 0.00 0.00 0.00 0.02 0.05 0.06 0.07 0.10 0.11 0.12 0.14 0.18 0.20 0.19 0.22 0.24 0.23 0.20 0.19 0.17
0.00 0.00 0.00 0.00 0.00 0.00 0.00 0.00 0.00 0.00 0.00 0.00 0.00 0.00 0.00 0.00 0.00 0.00 0.00 0.00 0.00 0.00 0.00 0.00 0.00 0.00 0.03 0.05 0.07 0.08 0.10 0.13 0.16 0.17 0.18 0.20 0.23 0.23 0.23 0.24 0.24 0.23 0.21 0.19
0.00 0.00 0.01 0.01 0.01 0.01 0.00 0.00 0.00 0.00 0.00 0.00 0.00 0.00 0.00 0.00 0.00 0.00 0.00 0.00 0.00 0.00 0.00 0.00 0.00 0.03 0.08 0.08 0.09 0.10 0.12 0.15 0.18 0.21 0.24 0.26 0.27 0.25 0.24 0.23 0.23 0.22 0.20 0.19
0.00 0.01 0.01 0.01 0.01 0.01 0.00 0.00 0.00 0.00 0.00 0.00 0.00 0.00 0.00 0.00 0.00 0.00 0.00 0.00 0.00 0.00 0.00 0.00 0.01 0.05 0.08 0.09 0.09 0.10 0.12 0.15 0.19 0.24 0.27 0.29 0.31 0.31 0.27 0.25 0.25 0.22 0.21 0.20
0.01 0.01 0.01 0.01 0.01 0.01 0.01 0.01 0.01 0.01 0.01 0.00 0.00 0.00 0.00 0.00 0.00 0.00 0.00 0.00 0.00 0.01 0.01 0.01 0.02 0.05 0.09 0.09 0.09 0.11 0.14 0.18 0.23 0.27 0.29 0.31 0.32 0.33 0.32 0.29 0.26 0.24 0.24 0.22
0.01 0.01 0.01 0.01 0.01 0.01 0.01 0.01 0.01 0.01 0.01 0.00 0.00 0.00 0.00 0.00 0.00 0.00 0.00 0.01 0.01 0.01 0.01 0.02 0.03 0.06 0.09 0.09 0.10 0.13 0.18 0.22 0.28 0.31 0.31 0.32 0.31 0.31 0.29 0.29 0.27 0.23 0.21 0.21
0.02 0.02 0.02 0.01 0.02 0.02 0.02 0.01 0.01 0.01 0.01 0.01 0.01 0.01 0.00 0.00 0.01 0.00 0.00 0.01 0.01 0.02 0.02 0.03 0.05 0.08 0.09 0.11 0.14 0.18 0.22 0.27 0.34 0.39 0.38 0.35 0.31 0.29 0.27 0.26 0.26 0.24 0.22 0.22
0.03 0.03 0.03 0.03 0.03 0.03 0.03 0.02 0.02 0.02 0.02 0.02 0.01 0.01 0.01 0.01 0.01 0.01 0.01 0.01 0.02 0.03 0.03 0.04 0.06 0.08 0.11 0.15 0.19 0.22 0.26 0.30 0.35 0.38 0.35 0.32 0.31 0.30 0.28 0.26 0.24 0.22 0.22 0.21
0.05 0.04 0.04 0.05 0.05 0.05 0.05 0.04 0.04 0.04 0.03 0.03 0.03 0.02 0.02 0.02 0.02 0.02 0.02 0.02 0.03 0.04 0.05 0.06 0.08 0.12 0.17 0.21 0.24 0.26 0.29 0.33 0.37 0.39 0.37 0.34 0.33 0.32 0.29 0.26 0.24 0.22 0.21 0.20

GEFSNGP_prec_meanprecacc_120.txt.gz
Total_Precipitation_Accumulation
0.02 0.01 0.01 0.01 0.01 0.01 0.02 0.03 0.02 0.00 0.00 0.00 0.00 0.00 0.00 0.00 0.00 0.00 0.00 0.00 0.00 0.00 0.00 0.00 0.00 0.00 0.00 0.00 0.00 0.00 0.00 0.00 0.00 0.00 0.00 0.00 0.00 0.00 0.00 0.01 0.02 0.05 0.06 0.11
0.03 0.01 0.02 0.02 0.01 0.01 0.01 0.01 0.01 0.00 0.00 0.00 0.00 0.00 0.00 0.00 0.00 0.00 0.00 0.00 0.00 0.00 0.00 0.00 0.00 0.00 0.00 0.00 0.00 0.00 0.00 0.00 0.00 0.00 0.00 0.00 0.00 0.00 0.00 0.01 0.02 0.04 0.04 0.06
0.07 0.03 0.06 0.06 0.01 0.00 0.00 0.00 0.00 0.00 0.00 0.00 0.00 0.00 0.00 0.00 0.00 0.01 0.00 0.00 0.00 0.00 0.00 0.00 0.00 0.00 0.00 0.00 0.00 0.00 0.00 0.00 0.00 0.00 0.00 0.00 0.00 0.00 0.01 0.01 0.02 0.04 0.03 0.03
0.09 0.10 0.20 0.07 0.00 0.00 0.00 0.00 0.00 0.00 0.00 0.00 0.00 0.00 0.00 0.00 0.01 0.01 0.00 0.00 0.00 0.00 0.00 0.00 0.00 0.00 0.00 0.00 0.00 0.00 0.00 0.00 0.00 0.00 0.00 0.00 0.00 0.00 0.01 0.01 0.02 0.03 0.03 0.02
0.17 0.14 0.10 0.02 0.00 0.00 0.00 0.00 0.00 0.00 0.00 0.00 0.00 0.00 0.00 0.01 0.01 0.00 0.00 0.00 0.00 0.00 0.00 0.00 0.00 0.00 0.00 0.00 0.00 0.00 0.00 0.00 0.00 0.00 0.00 0.00 0.01 0.01 0.01 0.01 0.02 0.02 0.02 0.02
0.20 0.12 0.05 0.00 0.00 0.00 0.00 0.00 0.00 0.00 0.00 0.00 0.00 0.01 0.02 0.03 0.01 0.00 0.00 0.00 0.00 0.00 0.00 0.00 0.00 0.00 0.00 0.00 0.00 0.00 0.00 0.00 0.00 0.00 0.00 0.01 0.01 0.01 0.01 0.02 0.02 0.02 0.02 0.01
0.17 0.08 0.02 0.00 0.00 0.00 0.01 0.00 0.00 0.00 0.00 0.00 0.00 0.02 0.02 0.01 0.00 0.00 0.00 0.00 0.00 0.00 0.00 0.00 0.00 0.00 0.00 0.00 0.00 0.00 0.00 0.00 0.00 0.00 0.00 0.01 0.01 0.01 0.01 0.01 0.02 0.01 0.01 0.01
0.11 0.07 0.02 0.01 0.01 0.01 0.01 0.00 0.00 0.00 0.00 0.00 0.00 0.01 0.00 0.00 0.00 0.00 0.00 0.00 0.00 0.00 0.00 0.00 0.00 0.00 0.00 0.00 0.00 0.00 0.00 0.00 0.00 0.00 0.01 0.01 0.01 0.02 0.02 0.02 0.02 0.02 0.02 0.02
0.07 0.03 0.01 0.01 0.02 0.02 0.01 0.01 0.00 0.00 0.00 0.00 0.00 0.00 0.00 0.00 0.00 0.00 0.00 0.00 0.00 0.00 0.00 0.00 0.00 0.00 0.00 0.00 0.00 0.00 0.00 0.00 0.00 0.00 0.00 0.01 0.02 0.02 0.02 0.02 0.04 0.05 0.05 0.04
0.05 0.02 0.01 0.01 0.01 0.02 0.02 0.01 0.01 0.01 0.00 0.00 0.00 0.00 0.00 0.00 0.00 0.00 0.00 0.00 0.00 0.00 0.00 0.00 0.00 0.00 0.00 0.00 0.00 0.00 0.00 0.00 0.00 0.01 0.01 0.02 0.02 0.02 0.03 0.05 0.14 0.17 0.14 0.10
0.04 0.02 0.02 0.01 0.01 0.01 0.01 0.01 0.01 0.01 0.01 0.01 0.00 0.00 0.00 0.00 0.00 0.00 0.00 0.00 0.00 0.00 0.00 0.00 0.00 0.00 0.00 0.00 0.00 0.00 0.00 0.00 0.00 0.01 0.02 0.02 0.02 0.03 0.05 0.07 0.20 0.30 0.23 0.23
0.03 0.02 0.02 0.01 0.01 0.01 0.01 0.01 0.01 0.01 0.01 0.01 0.00 0.00 0.00 0.00 0.00 0.00 0.00 0.00 0.00 0.00 0.00 0.00 0.00 0.00 0.00 0.00 0.00 0.00 0.00 0.00 0.01 0.02 0.02 0.03 0.03 0.03 0.04 0.06 0.12 0.14 0.15 0.21
0.02 0.01 0.01 0.01 0.02 0.01 0.01 0.01 0.01 0.01 0.01 0.01 0.00 0.00 0.00 0.00 0.00 0.00 0.00 0.00 0.00 0.00 0.00 0.00 0.00 0.00 0.00 0.00 0.00 0.00 0.01 0.01 0.02 0.03 0.03 0.03 0.04 0.07 0.08 0.06 0.06 0.06 0.08 0.11
0.01 0.01 0.01 0.01 0.01 0.01 0.01 0.00 0.00 0.00 0.00 0.00 0.00 0.00 0.00 0.00 0.00 0.00 0.00 0.00 0.00 0.00 0.00 0.00 0.00 0.00 0.00 0.00 0.00 0.00 0.01 0.02 0.03 0.04 0.05 0.06 0.08 0.10 0.13 0.14 0.11 0.06 0.04 0.06
0.01 0.01 0.01 0.01 0.01 0.01 0.00 0.00 0.00 0.00 0.00 0.01 0.00 0.00 0.00 0.00 0.00 0.00 0.00 0.00 0.00 0.00 0.00 0.00 0.00 0.00 0.00 0.00 0.00 0.00 0.01 0.02 0.04 0.05 0.07 0.08 0.10 0.12 0.13 0.14 0.13 0.10 0.07 0.06
0.01 0.01 0.01 0.01 0.01 0.01 0.01 0.01 0.01 0.00 0.00 0.00 0.00 0.00 0.00 0.00 0.00 0.00 0.00 0.00 0.00 0.00 0.00 0.00 0.00 0.00 0.00 0.00 0.01 0.01 0.01 0.03 0.06 0.07 0.08 0.09 0.11 0.14 0.16 0.17 0.17 0.15 0.12 0.11
0.01 0.01 0.01 0.01 0.01 0.01 0.01 0.01 0.01 0.00 0.00 0.00 0.00 0.00 0.00 0.00 0.00 0.00 0.00 0.00 0.00 0.00 0.00 0.00 0.00 0.00 0.00 0.00 0.01 0.02 0.03 0.04 0.05 0.07 0.09 0.12 0.16 0.19 0.21 0.24 0.23 0.18 0.13 0.12
0.01 0.01 0.01 0.01 0.01 0.01 0.01 0.01 0.01 0.00 0.00 0.00 0.00 0.00 0.00 0.00 0.00 0.00 0.00 0.00 0.00 0.00 0.00 0.00 0.00 0.00 0.00 0.00 0.03 0.04 0.05 0.06 0.07 0.10 0.13 0.16 0.20 0.22 0.24 0.25 0.22 0.20 0.15 0.11
0.01 0.01 0.01 0.01 0.01 0.02 0.01 0.01 0.00 0.00 0.00 0.00 0.00 0.00 0.00 0.00 0.00 0.00 0.00 0.00 0.00 0.00 0.00 0.00 0.00 0.00 0.00 0.02 0.05 0.06 0.07 0.10 0.11 0.12 0.14 0.18 0.20 0.19 0.22 0.24 0.23 0.20 0.19 0.17
0.01 0.00 0.00 0.00 0.00 0.01 0.01 0.00 0.00 0.00 0.00 0.00 0.00 0.00 0.00 0.00 0.00 0.00 0.00 0.00 0.00 0.00 0.00 0.00 0.00 0.01 0.03 0.05 0.07 0.08 0.10 0.13 0.16 0.17 0.18 0.20 0.23 0.23 0.23 0.24 0.24 0.23 0.21 0.19
0.00 0.00 0.01 0.01 0.01 0.01 0.00 0.00 0.00 0.01 0.01 0.00 0.00 0.00 0.00 0.00 0.00 0.00 0.00 0.00 0.00 0.00 0.00 0.01 0.01 0.03 0.09 0.08 0.09 0.10 0.12 0.15 0.18 0.21 0.25 0.26 0.27 0.25 0.24 0.23 0.23 0.22 0.20 0.19
0.01 0.01 0.01 0.01 0.01 0.01 0.01 0.00 0.00 0.01 0.01 0.01 0.01 0.00 0.00 0.00 0.00 0.00 0.00 0.00 0.00 0.01 0.01 0.01 0.01 0.05 0.08 0.09 0.09 0.10 0.12 0.15 0.20 0.24 0.28 0.29 0.31 0.31 0.27 0.25 0.25 0.22 0.21 0.20
0.01 0.01 0.01 0.01 0.01 0.01 0.01 0.01 0.01 0.01 0.01 0.01 0.01 0.00 0.00 0.00 0.01 0.01 0.01 0.01 0.01 0.01 0.01 0.01 0.02 0.06 0.09 0.09 0.09 0.11 0.14 0.18 0.23 0.27 0.29 0.31 0.32 0.33 0.32 0.29 0.26 0.24 0.24 0.22
0.01 0.02 0.02 0.02 0.01 0.01 0.02 0.02 0.02 0.01 0.02 0.02 0.01 0.01 0.01 0.01 0.01 0.01 0.01 0.01 0.01 0.02 0.02 0.02 0.04 0.07 0.10 0.10 0.11 0.14 0.18 0.23 0.28 0.31 0.31 0.32 0.31 0.31 0.29 0.29 0.27 0.23 0.21 0.21
0.03 0.03 0.02 0.02 0.02 0.03 0.03 0.03 0.03 0.03 0.02 0.03 0.02 0.02 0.02 0.02 0.02 0.02 0.02 0.02 0.03 0.04 0.04 0.04 0.07 0.09 0.10 0.12 0.14 0.19 0.23 0.27 0.35 0.40 0.38 0.35 0.31 0.30 0.27 0.27 0.26 0.24 0.22 0.22
0.05 0.05 0.05 0.05 0.05 0.05 0.05 0.04 0.04 0.04 0.03 0.03 0.04 0.03 0.03 0.03 0.03 0.03 0.03 0.04 0.04 0.04 0.04 0.05 0.07 0.09 0.12 0.16 0.19 0.22 0.26 0.30 0.35 0.38 0.35 0.32 0.31 0.30 0.28 0.26 0.24 0.23 0.22 0.21
0.08 0.08 0.08 0.08 0.08 0.08 0.07 0.07 0.06 0.06 0.06 0.05 0.06 0.05 0.05 0.04 0.04 0.04 0.04 0.04 0.04 0.05 0.06 0.07 0.09 0.12 0.17 0.21 0.24 0.26 0.29 0.33 0.37 0.39 0.37 0.34 0.33 0.32 0.29 0.26 0.24 0.22 0.21 0.20

GEFSNGP_prec_meanprecacc_126.txt.gz
Total_Precipitation_Accumulation
0.06 0.04 0.04 0.04 0.04 0.05 0.07 0.08 0.04 0.01 0.00 0.00 0.00 0.00 0.00 0.00 0.00 0.00 0.00 0.00 0.00 0.00 0.00 0.00 0.00 0.00 0.00 0.00 0.00 0.00 0.00 0.00 0.00 0.00 0.00 0.00 0.00 0.00 0.00 0.01 0.03 0.05 0.07 0.11
0.06 0.04 0.04 0.04 0.02 0.01 0.02 0.02 0.02 0.00 0.00 0.00 0.00 0.00 0.00 0.00 0.00 0.00 0.00 0.00 0.00 0.00 0.00 0.00 0.00 0.00 0.00 0.00 0.00 0.00 0.00 0.00 0.00 0.00 0.00 0.00 0.00 0.00 0.00 0.01 0.02 0.04 0.04 0.06
0.11 0.05 0.11 0.11 0.02 0.01 0.01 0.00 0.00 0.00 0.00 0.00 0.00 0.00 0.00 0.00 0.00 0.01 0.00 0.00 0.00 0.00 0.00 0.00 0.00 0.00 0.00 0.00 0.00 0.00 0.00 0.00 0.00 0.00 0.00 0.00 0.00 0.00 0.01 0.01 0.02 0.04 0.03 0.03
0.16 0.17 0.30 0.10 0.01 0.00 0.00 0.00 0.00 0.00 0.00 0.00 0.00 0.00 0.00 0.00 0.01 0.01 0.00 0.00 0.00 0.00 0.00 0.00 0.00 0.00 0.00 0.00 0.00 0.00 0.00 0.00 0.00 0.00 0.00 0.00 0.00 0.01 0.01 0.01 0.02 0.03 0.03 0.02
0.29 0.23 0.16 0.03 0.00 0.01 0.01 0.00 0.00 0.00 0.00 0.00 0.00 0.00 0.00 0.01 0.01 0.00 0.00 0.00 0.00 0.00 0.00 0.00 0.00 0.00 0.00 0.00 0.00 0.00 0.00 0.00 0.00 0.00 0.00 0.01 0.01 0.01 0.01 0.01 0.02 0.02 0.02 0.02
0.33 0.22 0.09 0.01 0.00 0.00 0.01 0.01 0.01 0.01 0.00 0.00 0.00 0.01 0.02 0.03 0.01 0.00 0.00 0.00 0.00 0.00 0.00 0.00 0.00 0.00 0.00 0.00 0.00 0.00 0.00 0.00 0.00 0.00 0.00 0.01 0.01 0.01 0.01 0.02 0.02 0.02 0.02 0.01
0.27 0.15 0.04 0.01 0.01 0.01 0.03 0.02 0.01 0.01 0.01 0.00 0.01 0.02 0.02 0.01 0.00 0.00 0.00 0.00 0.00 0.00 0.00 0.00 0.00 0.00 0.00 0.00 0.00 0.00 0.00 0.00 0.00 0.00 0.00 0.01 0.01 0.01 0.01 0.01 0.02 0.01 0.01 0.01
0.20 0.13 0.04 0.02 0.03 0.04 0.04 0.01 0.01 0.01 0.01 0.01 0.01 0.01 0.00 0.00 0.00 0.00 0.00 0.00 0.00 0.00 0.00 0.00 0.00 0.00 0.00 0.00 0.00 0.00 0.00 0.00 0.00 0.00 0.01 0.01 0.01 0.02 0.02 0.02 0.02 0.02 0.02 0.02
0.13 0.06 0.02 0.03 0.04 0.04 0.03 0.02 0.01 0.01 0.01 0.01 0.00 0.00 0.00 0.00 0.00 0.00 0.00 0.00 0.00 0.00 0.00 0.00 0.00 0.00 0.00 0.00 0.00 0.00 0.00 0.00 0.00 0.00 0.00 0.01 0.02 0.02 0.02 0.02 0.04 0.05 0.05 0.04
0.08 0.03 0.02 0.02 0.03 0.03 0.02 0.02 0.02 0.02 0.02 0.01 0.01 0.00 0.00 0.00 0.00 0.00 0.00 0.00 0.00 0.00 0.00 0.00 0.00 0.00 0.00 0.00 0.00 0.00 0.00 0.00 0.00 0.01 0.01 0.02 0.02 0.02 0.03 0.05 0.14 0.17 0.14 0.10
0.06 0.03 0.03 0.02 0.02 0.02 0.02 0.02 0.02 0.02 0.02 0.02 0.01 0.00 0.00 0.00 0.00 0.00 0.00 0.00 0.00 0.00 0.00 0.00 0.00 0.00 0.00 0.00 0.00 0.00 0.00 0.00 0.00 0.01 0.02 0.02 0.02 0.03 0.05 0.07 0.20 0.30 0.23 0.23
0.05 0.03 0.04 0.02 0.02 0.01 0.01 0.02 0.02 0.02 0.02 0.02 0.01 0.01 0.00 0.00 0.00 0.00 0.00 0.00 0.00 0.00 0.00 0.00 0.00 0.00 0.00 0.00 0.00 0.00 0.00 0.00 0.01 0.02 0.02 0.03 0.03 0.03 0.04 0.06 0.12 0.14 0.15 0.21
0.03 0.02 0.02 0.02 0.02 0.02 0.01 0.01 0.01 0.02 0.02 0.02 0.02 0.01 0.01 0.01 0.00 0.00 0.00 0.00 0.00 0.00 0.00 0.00 0.00 0.00 0.00 0.00 0.00 0.00 0.01 0.01 0.02 0.03 0.03 0.03 0.04 0.07 0.08 0.06 0.06 0.06 0.08 0.11
0.01 0.02 0.02 0.01 0.02 0.02 0.01 0.01 0.01 0.01 0.01 0.01 0.01 0.01 0.01 0.01 0.00 0.00 0.00 0.00 0.00 0.00 0.00 0.00 0.00 0.00 0.00 0.00 0.00 0.00 0.01 0.02 0.03 0.04 0.05 0.06 0.08 0.10 0.13 0.14 0.11 0.06 0.04 0.06
0.02 0.02 0.02 0.01 0.02 0.02 0.01 0.01 0.01 0.01 0.01 0.01 0.01 0.01 0.01 0.01 0.01 0.00 0.00 0.00 0.00 0.00 0.00 0.00 0.00 0.00 0.00 0.00 0.00 0.00 0.01 0.02 0.04 0.05 0.07 0.08 0.10 0.12 0.13 0.14 0.13 0.10 0.07 0.06
0.02 0.02 0.02 0.02 0.03 0.03 0.02 0.02 0.02 0.02 0.01 0.01 0.01 0.01 0.01 0.01 0.01 0.01 0.00 0.00 0.00 0.00 0.00 0.00 0.00 0.00 0.00 0.00 0.01 0.01 0.01 0.03 0.06 0.07 0.08 0.09 0.11 0.14 0.16 0.17 0.17 0.15 0.12 0.11
0.03 0.02 0.02 0.03 0.03 0.03 0.02 0.02 0.02 0.02 0.01 0.01 0.01 0.01 0.01 0.01 0.01 0.01 0.01 0.00 0.00 0.00 0.00 0.00 0.00 0.00 0.00 0.00 0.01 0.02 0.03 0.04 0.05 0.07 0.09 0.12 0.16 0.19 0.21 0.24 0.23 0.18 0.13 0.12
0.03 0.02 0.03 0.03 0.04 0.03 0.03 0.02 0.02 0.02 0.01 0.00 0.00 0.01 0.01 0.01 0.01 0.01 0.01 0.00 0.00 0.00 0.00 0.00 0.00 0.00 0.00 0.00 0.03 0.04 0.05 0.06 0.07 0.10 0.13 0.16 0.20 0.22 0.24 0.25 0.22 0.20 0.15 0.11
0.04 0.03 0.02 0.02 0.03 0.03 0.03 0.02 0.02 0.01 0.00 0.00 0.00 0.01 0.01 0.01 0.01 0.00 0.00 0.00 0.00 0.00 0.00 0.00 0.00 0.00 0.00 0.02 0.05 0.06 0.07 0.10 0.11 0.12 0.14 0.18 0.20 0.19 0.22 0.24 0.23 0.20 0.19 0.17
0.04 0.03 0.02 0.02 0.01 0.02 0.03 0.02 0.02 0.01 0.00 0.00 0.00 0.01 0.01 0.01 0.01 0.00 0.00 0.00 0.00 0.00 0.00 0.00 0.00 0.01 0.03 0.05 0.07 0.08 0.10 0.13 0.16 0.17 0.18 0.20 0.23 0.23 0.23 0.24 0.24 0.23 0.21 0.19
0.04 0.04 0.03 0.02 0.02 0.02 0.03 0.03 0.02 0.01 0.01 0.01 0.01 0.01 0.01 0.01 0.01 0.00 0.00 0.00 0.00 0.00 0.00 0.01 0.01 0.03 0.09 0.08 0.09 0.10 0.12 0.15 0.18 0.21 0.25 0.26 0.27 0.25 0.24 0.23 0.23 0.22 0.20 0.19
0.05 0.04 0.04 0.03 0.02 0.02 0.02 0.02 0.02 0.01 0.01 0.01 0.01 0.01 0.01 0.01 0.01 0.00 0.00 0.00 0.01 0.01 0.01 0.01 0.01 0.06 0.08 0.09 0.09 0.10 0.12 0.15 0.20 0.24 0.28 0.29 0.31 0.31 0.28 0.25 0.25 0.22 0.21 0.20
0.05 0.05 0.04 0.03 0.02 0.02 0.02 0.02 0.02 0.02 0.02 0.02 0.02 0.01 0.01 0.01 0.01 0.01 0.01 0.01 0.01 0.01 0.01 0.01 0.02 0.06 0.09 0.09 0.09 0.11 0.14 0.18 0.24 0.28 0.30 0.31 0.32 0.33 0.32 0.29 0.26 0.24 0.24 0.22
0.06 0.05 0.04 0.03 0.03 0.03 0.03 0.03 0.03 0.03 0.03 0.03 0.03 0.02 0.02 0.02 0.02 0.02 0.02 0.02 0.02 0.02 0.02 0.02 0.04 0.07 0.10 0.10 0.11 0.15 0.19 0.23 0.29 0.32 0.32 0.32 0.32 0.31 0.30 0.29 0.27 0.23 0.21 0.21
0.07 0.06 0.04 0.03 0.03 0.04 0.05 0.05 0.05 0.05 0.05 0.05 0.05 0.04 0.04 0.03 0.03 0.03 0.03 0.03 0.03 0.04 0.04 0.05 0.07 0.09 0.10 0.12 0.15 0.20 0.24 0.28 0.36 0.41 0.39 0.36 0.32 0.30 0.28 0.27 0.26 0.24 0.23 0.22
0.08 0.08 0.08 0.07 0.07 0.06 0.06 0.06 0.06 0.07 0.07 0.07 0.07 0.06 0.05 0.04 0.04 0.04 0.04 0.04 0.04 0.05 0.05 0.06 0.07 0.10 0.13 0.16 0.20 0.23 0.27 0.31 0.36 0.38 0.35 0.33 0.31 0.31 0.29 0.27 0.24 0.23 0.22 0.21
0.12 0.11 0.11 0.11 0.12 0.11 0.11 0.10 0.09 0.10 0.09 0.08 0.08 0.07 0.07 0.06 0.05 0.05 0.05 0.05 0.05 0.06 0.06 0.08 0.10 0.13 0.18 0.22 0.25 0.27 0.30 0.34 0.37 0.40 0.37 0.35 0.33 0.32 0.29 0.26 0.24 0.22 0.21 0.20

GEFSNGP_prec_meanprecacc_132.txt.gz
Total_Precipitation_Accumulation
0.10 0.07 0.06 0.08 0.09 0.12 0.15 0.15 0.08 0.01 0.00 0.00 0.00 0.00 0.00 0.00 0.00 0.00 0.00 0.00 0.00 0.00 0.00 0.00 0.00 0.00 0.00 0.00 0.00 0.00 0.00 0.00 0.00 0.00 0.00 0.00 0.00 0.00 0.01 0.01 0.03 0.05 0.07 0.11
0.09 0.06 0.07 0.06 0.04 0.04 0.05 0.05 0.04 0.01 0.00 0.00 0.00 0.00 0.00 0.00 0.00 0.00 0.00 0.00 0.00 0.00 0.00 0.00 0.00 0.00 0.00 0.00 0.00 0.00 0.00 0.00 0.00 0.00 0.00 0.00 0.00 0.01 0.01 0.01 0.03 0.04 0.05 0.06
0.15 0.07 0.15 0.15 0.04 0.02 0.02 0.02 0.01 0.01 0.00 0.00 0.00 0.00 0.00 0.00 0.01 0.01 0.00 0.00 0.00 0.00 0.00 0.00 0.00 0.00 0.00 0.00 0.00 0.00 0.00 0.00 0.00 0.00 0.00 0.00 0.00 0.01 0.01 0.01 0.03 0.04 0.04 0.03
0.22 0.22 0.37 0.14 0.02 0.01 0.01 0.01 0.01 0.01 0.00 0.00 0.00 0.00 0.00 0.00 0.01 0.01 0.00 0.00 0.00 0.00 0.00 0.00 0.00 0.00 0.00 0.00 0.00 0.00 0.00 0.00 0.00 0.00 0.00 0.00 0.01 0.01 0.01 0.01 0.02 0.04 0.04 0.02
0.37 0.30 0.20 0.05 0.02 0.02 0.02 0.02 0.02 0.01 0.01 0.00 0.00 0.00 0.00 0.01 0.01 0.00 0.00 0.00 0.00 0.00 0.00 0.00 0.00 0.00 0.00 0.00 0.00 0.00 0.00 0.00 0.00 0.00 0.00 0.01 0.01 0.01 0.01 0.01 0.02 0.02 0.03 0.02
0.41 0.29 0.13 0.04 0.02 0.02 0.03 0.04 0.03 0.02 0.01 0.00 0.00 0.02 0.02 0.03 0.01 0.00 0.00 0.00 0.00 0.00 0.00 0.00 0.00 0.00 0.00 0.00 0.00 0.00 0.00 0.00 0.00 0.00 0.00 0.01 0.01 0.01 0.02 0.02 0.02 0.02 0.02 0.01
0.34 0.21 0.08 0.04 0.03 0.03 0.06 0.06 0.03 0.02 0.01 0.01 0.01 0.03 0.02 0.01 0.00 0.00 0.00 0.00 0.00 0.00 0.00 0.00 0.00 0.00 0.00 0.00 0.00 0.00 0.00 0.00 0.00 0.00 0.00 0.01 0.01 0.01 0.01 0.01 0.02 0.01 0.01 0.01
0.25 0.18 0.08 0.04 0.04 0.07 0.07 0.03 0.02 0.01 0.01 0.01 0.01 0.01 0.00 0.00 0.00 0.00 0.00 0.00 0.00 0.00 0.00 0.00 0.00 0.00 0.00 0.00 0.00 0.00 0.00 0.00 0.00 0.00 0.01 0.01 0.01 0.02 0.02 0.02 0.02 0.02 0.02 0.02
0.18 0.09 0.05 0.05 0.06 0.06 0.04 0.03 0.02 0.02 0.01 0.01 0.01 0.00 0.00 0.00 0.00 0.00 0.00 0.00 0.00 0.00 0.00 0.00 0.00 0.00 0.00 0.00 0.00 0.00 0.00 0.00 0.00 0.00 0.01 0.01 0.02 0.02 0.02 0.03 0.04 0.05 0.05 0.04
0.12 0.05 0.04 0.03 0.04 0.05 0.04 0.03 0.02 0.02 0.02 0.02 0.01 0.00 0.00 0.00 0.00 0.00 0.00 0.00 0.00 0.00 0.00 0.00 0.00 0.00 0.00 0.00 0.00 0.00 0.00 0.00 0.00 0.01 0.01 0.02 0.02 0.03 0.03 0.05 0.14 0.17 0.14 0.10
0.09 0.06 0.05 0.04 0.04 0.04 0.03 0.03 0.02 0.02 0.03 0.02 0.01 0.01 0.00 0.00 0.00 0.00 0.00 0.00 0.00 0.00 0.00 0.00 0.00 0.00 0.00 0.00 0.00 0.00 0.00 0.00 0.00 0.01 0.02 0.02 0.02 0.03 0.05 0.07 0.20 0.30 0.23 0.23
0.08 0.06 0.06 0.04 0.03 0.03 0.02 0.02 0.02 0.02 0.03 0.03 0.02 0.01 0.01 0.00 0.00 0.00 0.00 0.00 0.00 0.00 0.00 0.00 0.00 0.00 0.00 0.00 0.00 0.00 0.00 0.00 0.01 0.02 0.02 0.03 0.03 0.03 0.04 0.06 0.12 0.14 0.15 0.21
0.05 0.05 0.04 0.04 0.04 0.03 0.02 0.01 0.02 0.02 0.02 0.03 0.02 0.02 0.01 0.01 0.00 0.00 0.00 0.00 0.00 0.00 0.00 0.00 0.00 0.00 0.00 0.00 0.00 0.00 0.01 0.01 0.02 0.03 0.03 0.03 0.04 0.07 0.09 0.06 0.06 0.06 0.08 0.11
0.04 0.04 0.04 0.03 0.03 0.02 0.02 0.01 0.01 0.02 0.02 0.03 0.03 0.02 0.01 0.01 0.00 0.00 0.00 0.00 0.00 0.00 0.00 0.00 0.00 0.00 0.00 0.00 0.00 0.00 0.01 0.02 0.03 0.04 0.05 0.06 0.08 0.10 0.13 0.14 0.11 0.06 0.04 0.06
0.04 0.04 0.04 0.02 0.03 0.03 0.02 0.02 0.02 0.02 0.03 0.03 0.03 0.03 0.02 0.01 0.01 0.00 0.00 0.00 0.00 0.00 0.00 0.00 0.00 0.00 0.00 0.00 0.00 0.00 0.01 0.02 0.04 0.05 0.07 0.08 0.10 0.12 0.13 0.14 0.13 0.10 0.07 0.06
0.04 0.03 0.03 0.04 0.04 0.04 0.03 0.03 0.02 0.03 0.03 0.03 0.03 0.02 0.01 0.01 0.01 0.01 0.00 0.00 0.00 0.00 0.00 0.00 0.00 0.00 0.00 0.00 0.01 0.01 0.01 0.03 0.06 0.07 0.08 0.09 0.11 0.14 0.16 0.17 0.17 0.15 0.12 0.11
0.05 0.04 0.04 0.04 0.04 0.04 0.03 0.03 0.02 0.03 0.03 0.03 0.03 0.02 0.02 0.02 0.01 0.01 0.01 0.00 0.00 0.00 0.00 0.00 0.00 0.00 0.00 0.00 0.01 0.02 0.03 0.04 0.05 0.07 0.09 0.12 0.16 0.19 0.21 0.24 0.23 0.18 0.13 0.12
0.05 0.04 0.04 0.05 0.05 0.05 0.03 0.02 0.02 0.03 0.04 0.03 0.02 0.02 0.02 0.02 0.01 0.01 0.01 0.01 0.00 0.00 0.00 0.00 0.00 0.00 0.00 0.00 0.03 0.04 0.05 0.06 0.07 0.10 0.13 0.16 0.20 0.22 0.24 0.25 0.22 0.20 0.15 0.11
0.06 0.05 0.04 0.04 0.05 0.05 0.04 0.02 0.02 0.03 0.04 0.03 0.02 0.02 0.02 0.02 0.02 0.02 0.01 0.01 0.01 0.01 0.00 0.00 0.01 0.00 0.01 0.02 0.06 0.06 0.07 0.10 0.11 0.12 0.14 0.18 0.20 0.19 0.22 0.24 0.23 0.20 0.19 0.17
0.06 0.05 0.05 0.04 0.03 0.03 0.04 0.03 0.03 0.04 0.04 0.03 0.02 0.02 0.02 0.02 0.02 0.02 0.02 0.01 0.01 0.01 0.01 0.01 0.01 0.01 0.03 0.06 0.08 0.08 0.10 0.13 0.16 0.17 0.18 0.20 0.23 0.23 0.23 0.24 0.24 0.23 0.21 0.19
0.08 0.07 0.06 0.05 0.04 0.03 0.05 0.05 0.04 0.05 0.05 0.03 0.02 0.02 0.03 0.03 0.03 0.03 0.02 0.02 0.02 0.01 0.01 0.01 0.01 0.04 0.09 0.09 0.10 0.11 0.13 0.15 0.18 0.21 0.25 0.26 0.27 0.25 0.24 0.23 0.23 0.22 0.20 0.19
0.09 0.09 0.08 0.07 0.05 0.05 0.05 0.06 0.06 0.06 0.05 0.03 0.03 0.03 0.03 0.04 0.04 0.03 0.03 0.03 0.03 0.02 0.02 0.01 0.02 0.07 0.09 0.10 0.10 0.11 0.13 0.16 0.20 0.25 0.28 0.29 0.32 0.31 0.28 0.25 0.25 0.22 0.21 0.20
0.12 0.11 0.10 0.08 0.07 0.07 0.07 0.07 0.07 0.07 0.06 0.05 0.04 0.04 0.05 0.05 0.05 0.04 0.05 0.04 0.03 0.03 0.02 0.02 0.03 0.07 0.10 0.10 0.10 0.12 0.15 0.19 0.24 0.28 0.30 0.31 0.33 0.33 0.32 0.29 0.26 0.24 0.24 0.22
0.14 0.13 0.11 0.10 0.07 0.07 0.09 0.10 0.09 0.08 0.07 0.07 0.06 0.06 0.06 0.05 0.06 0.06 0.05 0.05 0.04 0.04 0.03 0.03 0.05 0.08 0.11 0.11 0.12 0.15 0.19 0.24 0.29 0.32 0.33 0.33 0.32 0.32 0.30 0.29 0.27 0.23 0.22 0.22
0.16 0.14 0.12 0.09 0.08 0.10 0.12 0.11 0.11 0.10 0.09 0.09 0.09 0.08 0.07 0.07 0.07 0.07 0.06 0.05 0.05 0.05 0.05 0.06 0.08 0.10 0.11 0.13 0.16 0.21 0.24 0.28 0.36 0.41 0.39 0.36 0.32 0.31 0.28 0.27 0.27 0.25 0.23 0.22
0.18 0.16 0.15 0.14 0.13 0.13 0.13 0.13 0.13 0.13 0.11 0.11 0.11 0.10 0.09 0.08 0.07 0.07 0.06 0.06 0.06 0.06 0.06 0.07 0.08 0.10 0.13 0.17 0.20 0.24 0.27 0.31 0.36 0.39 0.36 0.33 0.32 0.31 0.30 0.28 0.25 0.23 0.22 0.21
0.21 0.19 0.18 0.18 0.19 0.18 0.17 0.16 0.16 0.17 0.16 0.13 0.13 0.12 0.11 0.09 0.08 0.08 0.07 0.07 0.07 0.07 0.08 0.09 0.11 0.15 0.19 0.23 0.26 0.28 0.31 0.34 0.38 0.40 0.38 0.36 0.34 0.33 0.30 0.27 0.24 0.22 0.21 0.20

GEFSNGP_prec_meanprecacc_138.txt.gz
Total_Precipitation_Accumulation
0.14 0.11 0.10 0.12 0.13 0.17 0.23 0.21 0.12 0.03 0.02 0.04 0.04 0.02 0.01 0.01 0.00 0.00 0.00 0.00 0.00 0.00 0.00 0.00 0.00 0.00 0.00 0.00 0.00 0.00 0.00 0.00 0.00 0.00 0.00 0.00 0.00 0.00 0.01 0.01 0.03 0.05 0.07 0.11
0.11 0.08 0.09 0.08 0.06 0.07 0.08 0.08 0.05 0.01 0.01 0.01 0.02 0.02 0.01 0.01 0.01 0.01 0.01 0.00 0.00 0.00 0.00 0.00 0.00 0.00 0.00 0.00 0.00 0.00 0.00 0.00 0.00 0.00 0.00 0.01 0.00 0.01 0.01 0.01 0.03 0.04 0.05 0.06
0.18 0.09 0.18 0.19 0.07 0.04 0.04 0.03 0.02 0.02 0.01 0.01 0.01 0.01 0.01 0.01 0.01 0.01 0.01 0.01 0.01 0.00 0.00 0.00 0.00 0.00 0.00 0.00 0.00 0.00 0.00 0.00 0.00 0.00 0.00 0.01 0.01 0.01 0.01 0.02 0.03 0.05 0.04 0.03
0.27 0.25 0.42 0.19 0.04 0.02 0.03 0.04 0.03 0.02 0.02 0.01 0.01 0.00 0.01 0.01 0.02 0.01 0.01 0.01 0.01 0.00 0.00 0.00 0.00 0.00 0.00 0.00 0.00 0.00 0.00 0.00 0.00 0.00 0.00 0.01 0.01 0.01 0.01 0.02 0.02 0.04 0.04 0.03
0.44 0.36 0.23 0.07 0.03 0.04 0.05 0.06 0.04 0.03 0.02 0.01 0.01 0.01 0.01 0.02 0.02 0.01 0.00 0.01 0.01 0.00 0.00 0.00 0.00 0.00 0.00 0.00 0.00 0.00 0.00 0.00 0.00 0.00 0.00 0.01 0.01 0.01 0.02 0.02 0.02 0.03 0.03 0.02
0.48 0.35 0.17 0.07 0.04 0.03 0.05 0.08 0.05 0.03 0.03 0.01 0.01 0.03 0.03 0.03 0.01 0.00 0.00 0.01 0.01 0.00 0.00 0.00 0.00 0.00 0.00 0.00 0.00 0.00 0.00 0.00 0.00 0.00 0.01 0.01 0.01 0.01 0.02 0.02 0.02 0.02 0.02 0.02
0.39 0.25 0.11 0.06 0.05 0.05 0.10 0.10 0.04 0.03 0.03 0.02 0.03 0.04 0.03 0.01 0.00 0.00 0.00 0.00 0.01 0.00 0.00 0.00 0.00 0.00 0.00 0.00 0.00 0.00 0.00 0.00 0.00 0.00 0.01 0.01 0.01 0.01 0.02 0.02 0.02 0.02 0.02 0.02
0.31 0.25 0.13 0.08 0.08 0.12 0.12 0.05 0.03 0.02 0.02 0.02 0.01 0.01 0.00 0.00 0.00 0.00 0.00 0.00 0.00 0.00 0.00 0.00 0.00 0.00 0.00 0.00 0.00 0.00 0.00 0.00 0.00 0.01 0.01 0.01 0.01 0.02 0.02 0.02 0.02 0.02 0.02 0.02
0.24 0.15 0.10 0.09 0.11 0.09 0.07 0.05 0.03 0.02 0.02 0.01 0.01 0.00 0.00 0.00 0.00 0.00 0.00 0.00 0.00 0.01 0.00 0.00 0.00 0.00 0.00 0.00 0.00 0.00 0.00 0.00 0.00 0.01 0.01 0.01 0.02 0.02 0.03 0.03 0.05 0.06 0.06 0.04
0.15 0.07 0.07 0.06 0.07 0.07 0.05 0.03 0.03 0.02 0.02 0.02 0.01 0.00 0.00 0.00 0.00 0.00 0.00 0.00 0.00 0.01 0.01 0.00 0.00 0.00 0.00 0.00 0.00 0.00 0.00 0.00 0.01 0.01 0.01 0.02 0.02 0.03 0.04 0.06 0.14 0.17 0.14 0.10
0.11 0.07 0.06 0.05 0.05 0.05 0.04 0.03 0.02 0.02 0.03 0.03 0.02 0.01 0.00 0.00 0.00 0.00 0.00 0.00 0.00 0.01 0.01 0.00 0.00 0.00 0.00 0.00 0.00 0.00 0.00 0.01 0.01 0.01 0.02 0.03 0.03 0.03 0.05 0.07 0.20 0.30 0.23 0.23
0.09 0.07 0.08 0.05 0.04 0.03 0.03 0.03 0.03 0.03 0.03 0.03 0.02 0.01 0.01 0.00 0.00 0.00 0.00 0.00 0.00 0.00 0.01 0.01 0.00 0.00 0.00 0.00 0.00 0.00 0.00 0.01 0.01 0.02 0.03 0.03 0.03 0.03 0.04 0.07 0.12 0.14 0.15 0.21
0.05 0.05 0.05 0.04 0.04 0.04 0.03 0.02 0.02 0.02 0.02 0.03 0.03 0.02 0.01 0.01 0.00 0.00 0.00 0.00 0.00 0.00 0.01 0.01 0.00 0.00 0.00 0.00 0.00 0.00 0.01 0.02 0.03 0.03 0.03 0.04 0.05 0.07 0.09 0.07 0.06 0.06 0.08 0.11
0.04 0.04 0.04 0.03 0.04 0.03 0.02 0.02 0.02 0.02 0.03 0.03 0.03 0.03 0.02 0.01 0.01 0.00 0.00 0.00 0.00 0.00 0.00 0.00 0.00 0.00 0.00 0.00 0.00 0.00 0.01 0.02 0.03 0.04 0.05 0.07 0.08 0.10 0.13 0.14 0.11 0.06 0.04 0.06
0.04 0.05 0.04 0.03 0.03 0.03 0.03 0.03 0.03 0.03 0.03 0.04 0.04 0.03 0.02 0.01 0.01 0.01 0.00 0.00 0.00 0.00 0.00 0.00 0.00 0.01 0.00 0.01 0.01 0.01 0.01 0.02 0.04 0.06 0.07 0.08 0.10 0.12 0.13 0.14 0.13 0.10 0.07 0.06
0.05 0.05 0.05 0.05 0.05 0.05 0.04 0.04 0.04 0.04 0.04 0.04 0.04 0.03 0.02 0.01 0.01 0.01 0.01 0.00 0.00 0.00 0.00 0.00 0.00 0.00 0.01 0.01 0.01 0.01 0.01 0.03 0.06 0.07 0.08 0.09 0.11 0.14 0.16 0.18 0.17 0.15 0.12 0.11
0.08 0.06 0.05 0.05 0.06 0.05 0.04 0.04 0.04 0.05 0.05 0.04 0.04 0.03 0.02 0.02 0.01 0.01 0.01 0.00 0.00 0.00 0.00 0.00 0.00 0.00 0.01 0.01 0.02 0.03 0.03 0.04 0.06 0.07 0.09 0.12 0.16 0.19 0.21 0.24 0.23 0.18 0.13 0.12
0.08 0.07 0.07 0.07 0.07 0.06 0.04 0.04 0.04 0.05 0.05 0.04 0.03 0.03 0.02 0.02 0.02 0.02 0.01 0.01 0.01 0.00 0.00 0.00 0.00 0.00 0.01 0.02 0.04 0.05 0.06 0.06 0.07 0.10 0.13 0.16 0.20 0.22 0.24 0.25 0.23 0.20 0.15 0.11
0.08 0.07 0.07 0.07 0.07 0.08 0.06 0.05 0.04 0.05 0.05 0.04 0.03 0.03 0.02 0.03 0.03 0.02 0.02 0.01 0.01 0.01 0.01 0.00 0.01 0.01 0.01 0.03 0.07 0.07 0.08 0.10 0.11 0.12 0.14 0.18 0.20 0.20 0.22 0.24 0.23 0.20 0.19 0.18
0.09 0.08 0.08 0.07 0.07 0.07 0.07 0.05 0.04 0.05 0.05 0.04 0.03 0.03 0.04 0.04 0.04 0.03 0.02 0.02 0.01 0.01 0.01 0.01 0.01 0.01 0.03 0.06 0.08 0.09 0.11 0.13 0.16 0.17 0.18 0.20 0.23 0.23 0.23 0.24 0.24 0.23 0.21 0.19
0.11 0.11 0.10 0.09 0.07 0.06 0.07 0.07 0.06 0.06 0.06 0.05 0.04 0.04 0.05 0.05 0.05 0.04 0.04 0.04 0.03 0.02 0.02 0.02 0.02 0.04 0.10 0.09 0.10 0.11 0.13 0.16 0.18 0.21 0.25 0.27 0.27 0.26 0.25 0.24 0.24 0.22 0.20 0.20
0.14 0.14 0.13 0.12 0.10 0.09 0.09 0.09 0.09 0.10 0.09 0.08 0.07 0.07 0.07 0.07 0.06 0.06 0.05 0.05 0.04 0.04 0.03 0.02 0.03 0.08 0.11 0.11 0.11 0.12 0.14 0.17 0.21 0.25 0.28 0.30 0.32 0.32 0.28 0.26 0.25 0.23 0.21 0.21
0.19 0.17 0.16 0.15 0.13 0.13 0.13 0.13 0.13 0.13 0.12 0.11 0.10 0.10 0.09 0.09 0.07 0.07 0.07 0.06 0.05 0.06 0.05 0.04 0.05 0.09 0.13 0.13 0.12 0.13 0.16 0.20 0.25 0.29 0.31 0.32 0.34 0.34 0.33 0.29 0.26 0.25 0.24 0.23
0.22 0.20 0.19 0.17 0.15 0.15 0.17 0.17 0.16 0.15 0.14 0.15 0.14 0.12 0.11 0.10 0.09 0.09 0.08 0.08 0.07 0.07 0.06 0.06 0.08 0.11 0.14 0.14 0.15 0.18 0.21 0.26 0.31 0.33 0.34 0.34 0.33 0.32 0.31 0.30 0.28 0.24 0.22 0.22
0.24 0.22 0.21 0.18 0.17 0.19 0.22 0.21 0.19 0.18 0.17 0.18 0.17 0.15 0.14 0.12 0.11 0.11 0.09 0.09 0.09 0.09 0.08 0.09 0.10 0.12 0.13 0.16 0.19 0.23 0.26 0.30 0.38 0.42 0.41 0.37 0.34 0.32 0.29 0.29 0.28 0.26 0.24 0.23
0.26 0.25 0.25 0.23 0.22 0.23 0.24 0.22 0.22 0.21 0.20 0.19 0.19 0.18 0.16 0.14 0.12 0.11 0.10 0.10 0.10 0.09 0.09 0.09 0.11 0.13 0.15 0.19 0.23 0.26 0.30 0.33 0.38 0.41 0.37 0.35 0.33 0.33 0.31 0.29 0.26 0.25 0.24 0.22
0.29 0.29 0.28 0.28 0.27 0.27 0.27 0.26 0.25 0.26 0.24 0.19 0.18 0.18 0.16 0.14 0.13 0.12 0.11 0.11 0.10 0.09 0.10 0.12 0.14 0.17 0.21 0.25 0.28 0.30 0.34 0.37 0.40 0.43 0.40 0.38 0.36 0.35 0.32 0.29 0.26 0.24 0.23 0.21

GEFSNGP_prec_meanprecacc_144.txt.gz
Total_Precipitation_Accumulation
0.17 0.15 0.15 0.15 0.15 0.20 0.27 0.26 0.17 0.04 0.03 0.06 0.06 0.05 0.04 0.03 0.03 0.02 0.01 0.01 0.00 0.00 0.00 0.00 0.00 0.00 0.00 0.00 0.00 0.00 0.00 0.01 0.01 0.01 0.01 0.01 0.01 0.01 0.02 0.02 0.03 0.06 0.07 0.11
0.14 0.10 0.13 0.12 0.07 0.08 0.10 0.09 0.08 0.03 0.02 0.02 0.03 0.04 0.04 0.04 0.04 0.04 0.02 0.01 0.01 0.00 0.00 0.00 0.00 0.00 0.00 0.00 0.00 0.00 0.00 0.00 0.00 0.01 0.01 0.01 0.01 0.01 0.01 0.02 0.03 0.04 0.05 0.07
0.20 0.11 0.22 0.23 0.09 0.06 0.05 0.05 0.05 0.06 0.05 0.02 0.01 0.02 0.03 0.05 0.05 0.05 0.04 0.02 0.01 0.01 0.00 0.00 0.00 0.00 0.00 0.00 0.00 0.00 0.00 0.00 0.00 0.01 0.01 0.01 0.01 0.01 0.02 0.02 0.03 0.05 0.04 0.03
0.30 0.29 0.47 0.23 0.07 0.05 0.06 0.07 0.07 0.08 0.06 0.03 0.01 0.01 0.03 0.04 0.05 0.05 0.04 0.03 0.02 0.01 0.01 0.00 0.00 0.00 0.00 0.00 0.00 0.00 0.00 0.00 0.00 0.00 0.01 0.01 0.01 0.01 0.02 0.02 0.03 0.04 0.04 0.03
0.49 0.41 0.26 0.10 0.06 0.08 0.09 0.10 0.08 0.08 0.06 0.04 0.02 0.02 0.03 0.04 0.04 0.03 0.02 0.03 0.02 0.01 0.01 0.00 0.00 0.00 0.00 0.00 0.00 0.00 0.00 0.00 0.00 0.00 0.01 0.01 0.01 0.02 0.02 0.02 0.02 0.03 0.03 0.03
0.54 0.41 0.20 0.10 0.06 0.07 0.09 0.13 0.08 0.07 0.08 0.06 0.04 0.05 0.05 0.04 0.03 0.02 0.01 0.02 0.02 0.01 0.01 0.00 0.00 0.00 0.00 0.00 0.00 0.00 0.00 0.00 0.00 0.00 0.01 0.01 0.02 0.02 0.02 0.02 0.02 0.02 0.02 0.02
0.43 0.30 0.13 0.09 0.07 0.08 0.15 0.17 0.08 0.06 0.07 0.06 0.06 0.06 0.04 0.02 0.02 0.02 0.01 0.01 0.01 0.01 0.01 0.01 0.00 0.00 0.00 0.00 0.00 0.00 0.00 0.00 0.00 0.01 0.01 0.01 0.01 0.02 0.02 0.02 0.02 0.02 0.02 0.02
0.34 0.30 0.17 0.10 0.10 0.16 0.17 0.10 0.06 0.05 0.05 0.04 0.03 0.03 0.01 0.01 0.01 0.02 0.01 0.01 0.01 0.01 0.01 0.01 0.01 0.00 0.00 0.01 0.00 0.00 0.00 0.00 0.00 0.01 0.01 0.01 0.02 0.02 0.02 0.03 0.03 0.03 0.03 0.03
0.27 0.18 0.12 0.12 0.13 0.13 0.10 0.08 0.05 0.05 0.04 0.03 0.02 0.02 0.01 0.01 0.01 0.02 0.02 0.01 0.01 0.01 0.01 0.01 0.01 0.01 0.01 0.01 0.01 0.01 0.00 0.00 0.01 0.01 0.01 0.01 0.02 0.03 0.03 0.04 0.05 0.06 0.06 0.05
0.18 0.10 0.09 0.08 0.09 0.09 0.08 0.06 0.05 0.04 0.04 0.03 0.02 0.01 0.01 0.01 0.01 0.01 0.02 0.01 0.01 0.01 0.02 0.01 0.01 0.01 0.01 0.01 0.01 0.01 0.01 0.01 0.01 0.01 0.02 0.02 0.03 0.03 0.04 0.06 0.15 0.17 0.14 0.11
0.14 0.09 0.07 0.06 0.06 0.06 0.07 0.05 0.04 0.04 0.04 0.04 0.03 0.01 0.01 0.01 0.01 0.01 0.02 0.01 0.01 0.01 0.02 0.02 0.02 0.02 0.02 0.01 0.01 0.01 0.02 0.01 0.01 0.02 0.03 0.03 0.03 0.03 0.05 0.07 0.21 0.30 0.23 0.23
0.10 0.08 0.08 0.06 0.05 0.04 0.04 0.05 0.04 0.04 0.04 0.04 0.03 0.02 0.01 0.01 0.01 0.01 0.01 0.01 0.01 0.01 0.02 0.02 0.02 0.03 0.02 0.02 0.02 0.02 0.02 0.01 0.02 0.03 0.03 0.04 0.04 0.04 0.05 0.07 0.13 0.15 0.16 0.21
0.06 0.05 0.05 0.04 0.05 0.04 0.03 0.03 0.03 0.03 0.03 0.03 0.03 0.02 0.01 0.01 0.01 0.01 0.01 0.01 0.01 0.01 0.01 0.02 0.03 0.04 0.03 0.02 0.02 0.02 0.03 0.02 0.03 0.04 0.04 0.04 0.05 0.08 0.10 0.08 0.08 0.08 0.09 0.13
0.04 0.05 0.05 0.03 0.04 0.03 0.03 0.03 0.03 0.03 0.03 0.03 0.03 0.03 0.02 0.01 0.01 0.01 0.01 0.01 0.01 0.01 0.01 0.02 0.03 0.05 0.03 0.03 0.03 0.02 0.02 0.03 0.04 0.04 0.06 0.07 0.09 0.11 0.13 0.14 0.12 0.07 0.06 0.08
0.04 0.05 0.05 0.03 0.04 0.03 0.03 0.03 0.04 0.04 0.04 0.04 0.04 0.04 0.03 0.02 0.01 0.01 0.01 0.01 0.01 0.00 0.01 0.01 0.03 0.05 0.03 0.03 0.04 0.02 0.01 0.02 0.04 0.06 0.07 0.09 0.10 0.12 0.13 0.14 0.14 0.11 0.08 0.09
0.05 0.05 0.05 0.05 0.05 0.05 0.04 0.04 0.04 0.05 0.05 0.05 0.04 0.03 0.02 0.02 0.01 0.01 0.02 0.01 0.01 0.00 0.00 0.01 0.02 0.04 0.03 0.03 0.03 0.02 0.02 0.04 0.07 0.08 0.09 0.10 0.12 0.15 0.17 0.18 0.18 0.15 0.13 0.12
0.10 0.07 0.06 0.06 0.06 0.06 0.05 0.05 0.05 0.06 0.06 0.05 0.04 0.03 0.02 0.02 0.02 0.02 0.02 0.01 0.01 0.00 0.00 0.01 0.01 0.03 0.03 0.02 0.03 0.04 0.04 0.05 0.07 0.08 0.09 0.12 0.16 0.19 0.22 0.25 0.24 0.19 0.13 0.12
0.10 0.09 0.08 0.09 0.09 0.08 0.06 0.05 0.05 0.06 0.06 0.05 0.04 0.03 0.03 0.03 0.02 0.02 0.02 0.01 0.01 0.01 0.00 0.00 0.01 0.02 0.03 0.03 0.05 0.06 0.07 0.07 0.08 0.10 0.13 0.16 0.20 0.22 0.25 0.26 0.23 0.21 0.15 0.12
0.10 0.10 0.09 0.09 0.10 0.11 0.09 0.07 0.06 0.06 0.06 0.06 0.04 0.03 0.03 0.03 0.03 0.02 0.02 0.01 0.01 0.01 0.01 0.01 0.01 0.02 0.03 0.04 0.08 0.08 0.09 0.11 0.12 0.13 0.15 0.19 0.22 0.20 0.23 0.24 0.23 0.21 0.20 0.18
0.12 0.11 0.10 0.10 0.10 0.11 0.11 0.08 0.07 0.07 0.07 0.07 0.05 0.05 0.05 0.06 0.05 0.04 0.03 0.02 0.02 0.02 0.01 0.02 0.01 0.03 0.05 0.08 0.10 0.10 0.12 0.15 0.17 0.18 0.19 0.21 0.24 0.24 0.24 0.25 0.25 0.23 0.21 0.20
0.14 0.14 0.14 0.13 0.11 0.10 0.11 0.11 0.09 0.09 0.09 0.08 0.07 0.06 0.08 0.08 0.07 0.06 0.05 0.04 0.03 0.02 0.02 0.02 0.02 0.06 0.11 0.11 0.12 0.13 0.15 0.18 0.20 0.22 0.26 0.27 0.28 0.27 0.25 0.24 0.24 0.23 0.21 0.20
0.19 0.18 0.18 0.16 0.14 0.13 0.13 0.13 0.14 0.14 0.12 0.10 0.10 0.09 0.10 0.10 0.08 0.07 0.07 0.07 0.06 0.05 0.03 0.03 0.04 0.09 0.13 0.14 0.13 0.14 0.16 0.19 0.22 0.26 0.29 0.31 0.33 0.33 0.29 0.27 0.26 0.23 0.22 0.22
0.24 0.23 0.22 0.21 0.19 0.18 0.18 0.18 0.19 0.19 0.17 0.15 0.14 0.13 0.13 0.12 0.10 0.09 0.09 0.09 0.08 0.08 0.06 0.06 0.07 0.12 0.15 0.15 0.15 0.16 0.19 0.22 0.27 0.31 0.33 0.34 0.35 0.35 0.34 0.31 0.28 0.26 0.26 0.24
0.28 0.27 0.26 0.24 0.22 0.22 0.24 0.25 0.23 0.22 0.21 0.20 0.19 0.17 0.15 0.15 0.14 0.13 0.12 0.11 0.10 0.09 0.09 0.09 0.12 0.14 0.17 0.17 0.18 0.20 0.24 0.28 0.33 0.36 0.36 0.36 0.36 0.35 0.33 0.32 0.30 0.26 0.24 0.23
0.30 0.29 0.28 0.26 0.25 0.27 0.31 0.30 0.28 0.26 0.24 0.25 0.24 0.21 0.20 0.18 0.16 0.16 0.14 0.13 0.12 0.12 0.11 0.12 0.14 0.16 0.16 0.19 0.22 0.25 0.29 0.33 0.40 0.45 0.43 0.40 0.36 0.34 0.31 0.30 0.29 0.27 0.25 0.24
0.33 0.33 0.33 0.32 0.31 0.32 0.34 0.33 0.31 0.31 0.28 0.26 0.26 0.25 0.23 0.21 0.19 0.16 0.15 0.15 0.14 0.14 0.13 0.13 0.14 0.16 0.18 0.22 0.25 0.28 0.32 0.36 0.41 0.43 0.40 0.38 0.36 0.35 0.33 0.30 0.28 0.26 0.25 0.23
0.35 0.35 0.35 0.35 0.35 0.36 0.37 0.36 0.35 0.35 0.33 0.28 0.27 0.27 0.25 0.23 0.20 0.18 0.16 0.15 0.14 0.14 0.15 0.16 0.18 0.21 0.25 0.29 0.32 0.33 0.37 0.40 0.43 0.45 0.43 0.41 0.39 0.38 0.34 0.31 0.28 0.26 0.25 0.23

GEFSNGP_prec_meanprecacc_150.txt.gz
Total_Precipitation_Accumulation
0.20 0.17 0.18 0.19 0.18 0.22 0.29 0.28 0.18 0.05 0.04 0.06 0.07 0.06 0.05 0.05 0.05 0.04 0.03 0.02 0.01 0.01 0.00 0.00 0.01 0.01 0.01 0.01 0.01 0.02 0.03 0.04 0.04 0.04 0.05 0.08 0.08 0.06 0.05 0.06 0.06 0.08 0.10 0.14
0.15 0.11 0.15 0.15 0.09 0.10 0.11 0.10 0.08 0.04 0.03 0.03 0.04 0.05 0.05 0.05 0.06 0.05 0.04 0.03 0.02 0.01 0.01 0.00 0.00 0.01 0.01 0.01 0.01 0.01 0.02 0.02 0.02 0.04 0.05 0.05 0.07 0.07 0.05 0.05 0.07 0.08 0.07 0.09
0.23 0.12 0.25 0.26 0.11 0.08 0.07 0.06 0.06 0.08 0.07 0.04 0.02 0.03 0.05 0.07 0.07 0.07 0.05 0.04 0.03 0.02 0.01 0.01 0.00 0.00 0.00 0.01 0.01 0.01 0.01 0.02 0.02 0.03 0.04 0.04 0.04 0.06 0.07 0.06 0.06 0.08 0.07 0.06
0.35 0.32 0.50 0.25 0.09 0.07 0.08 0.09 0.09 0.10 0.09 0.06 0.03 0.03 0.05 0.06 0.06 0.06 0.06 0.05 0.03 0.02 0.01 0.01 0.01 0.00 0.00 0.01 0.01 0.01 0.01 0.01 0.02 0.02 0.03 0.03 0.04 0.05 0.05 0.06 0.06 0.06 0.06 0.05
0.56 0.45 0.28 0.11 0.08 0.11 0.12 0.13 0.11 0.10 0.08 0.05 0.03 0.03 0.05 0.05 0.05 0.04 0.04 0.04 0.03 0.02 0.02 0.01 0.01 0.00 0.00 0.00 0.01 0.01 0.01 0.01 0.01 0.02 0.02 0.03 0.03 0.03 0.04 0.05 0.05 0.05 0.05 0.04
0.61 0.46 0.22 0.12 0.08 0.08 0.11 0.17 0.10 0.09 0.09 0.07 0.06 0.08 0.07 0.06 0.04 0.03 0.03 0.03 0.03 0.02 0.02 0.01 0.01 0.01 0.00 0.00 0.01 0.01 0.01 0.01 0.01 0.02 0.02 0.02 0.02 0.03 0.04 0.04 0.04 0.04 0.05 0.04
0.49 0.34 0.15 0.10 0.08 0.08 0.18 0.20 0.10 0.08 0.09 0.09 0.09 0.09 0.06 0.03 0.02 0.03 0.03 0.03 0.03 0.02 0.02 0.02 0.01 0.01 0.00 0.00 0.00 0.01 0.01 0.01 0.02 0.02 0.02 0.02 0.03 0.03 0.04 0.04 0.04 0.04 0.04 0.04
0.37 0.34 0.19 0.12 0.11 0.19 0.20 0.11 0.08 0.07 0.07 0.07 0.06 0.05 0.03 0.02 0.02 0.03 0.03 0.03 0.03 0.02 0.02 0.02 0.01 0.01 0.01 0.01 0.01 0.01 0.01 0.01 0.02 0.02 0.02 0.03 0.04 0.04 0.04 0.05 0.05 0.05 0.05 0.05
0.29 0.20 0.14 0.14 0.15 0.15 0.12 0.09 0.06 0.06 0.06 0.06 0.05 0.04 0.03 0.03 0.02 0.03 0.04 0.03 0.03 0.03 0.03 0.02 0.02 0.02 0.02 0.02 0.01 0.02 0.01 0.01 0.02 0.02 0.02 0.03 0.04 0.05 0.05 0.06 0.07 0.08 0.08 0.07
0.19 0.11 0.10 0.09 0.10 0.10 0.09 0.07 0.06 0.06 0.06 0.06 0.05 0.05 0.04 0.03 0.02 0.03 0.05 0.04 0.03 0.04 0.04 0.03 0.03 0.02 0.02 0.02 0.02 0.02 0.02 0.01 0.02 0.02 0.03 0.03 0.03 0.04 0.06 0.07 0.16 0.18 0.15 0.11
0.15 0.10 0.08 0.06 0.06 0.07 0.07 0.06 0.05 0.05 0.06 0.06 0.06 0.04 0.04 0.03 0.03 0.03 0.05 0.04 0.03 0.04 0.05 0.05 0.04 0.03 0.03 0.03 0.03 0.02 0.03 0.02 0.02 0.03 0.03 0.04 0.04 0.04 0.06 0.08 0.21 0.31 0.23 0.23
0.12 0.09 0.09 0.07 0.05 0.04 0.05 0.05 0.05 0.05 0.05 0.06 0.06 0.04 0.03 0.04 0.03 0.03 0.05 0.04 0.04 0.04 0.06 0.06 0.06 0.06 0.04 0.03 0.03 0.03 0.04 0.03 0.04 0.04 0.04 0.04 0.05 0.05 0.06 0.08 0.13 0.15 0.16 0.22
0.07 0.06 0.06 0.05 0.05 0.04 0.03 0.03 0.04 0.04 0.04 0.05 0.05 0.04 0.03 0.03 0.03 0.03 0.05 0.04 0.04 0.04 0.05 0.06 0.07 0.08 0.05 0.04 0.04 0.04 0.05 0.05 0.05 0.05 0.05 0.05 0.06 0.09 0.10 0.09 0.09 0.09 0.10 0.13
0.04 0.05 0.06 0.04 0.05 0.04 0.03 0.03 0.03 0.04 0.04 0.04 0.04 0.04 0.03 0.02 0.02 0.03 0.04 0.04 0.04 0.04 0.05 0.07 0.08 0.08 0.07 0.06 0.06 0.05 0.05 0.06 0.07 0.06 0.07 0.08 0.09 0.11 0.14 0.15 0.13 0.09 0.08 0.10
0.04 0.05 0.05 0.04 0.04 0.04 0.03 0.04 0.04 0.04 0.05 0.05 0.05 0.05 0.03 0.02 0.02 0.02 0.03 0.04 0.04 0.03 0.05 0.07 0.07 0.08 0.08 0.07 0.07 0.06 0.06 0.06 0.07 0.08 0.09 0.09 0.11 0.13 0.14 0.15 0.14 0.12 0.09 0.11
0.06 0.05 0.05 0.05 0.05 0.05 0.04 0.05 0.05 0.05 0.06 0.06 0.05 0.04 0.03 0.02 0.02 0.02 0.03 0.04 0.04 0.04 0.05 0.06 0.06 0.08 0.09 0.09 0.08 0.07 0.07 0.09 0.10 0.10 0.10 0.11 0.13 0.15 0.17 0.19 0.18 0.16 0.14 0.13
0.12 0.08 0.06 0.06 0.06 0.06 0.05 0.05 0.05 0.06 0.07 0.06 0.06 0.04 0.03 0.03 0.02 0.02 0.03 0.03 0.04 0.04 0.05 0.05 0.05 0.07 0.09 0.09 0.09 0.09 0.09 0.09 0.10 0.11 0.11 0.13 0.17 0.20 0.22 0.25 0.24 0.20 0.14 0.13
0.13 0.11 0.10 0.11 0.11 0.10 0.07 0.06 0.06 0.07 0.07 0.07 0.06 0.05 0.04 0.03 0.03 0.03 0.03 0.03 0.04 0.04 0.05 0.04 0.04 0.07 0.08 0.09 0.11 0.10 0.11 0.11 0.11 0.13 0.15 0.18 0.21 0.23 0.25 0.27 0.25 0.22 0.16 0.13
0.12 0.12 0.11 0.11 0.12 0.13 0.11 0.08 0.07 0.07 0.08 0.07 0.07 0.05 0.05 0.04 0.04 0.03 0.04 0.04 0.04 0.05 0.04 0.04 0.05 0.07 0.08 0.11 0.15 0.12 0.13 0.14 0.15 0.15 0.17 0.21 0.23 0.22 0.24 0.26 0.25 0.23 0.21 0.19
0.13 0.13 0.13 0.12 0.12 0.14 0.13 0.10 0.08 0.08 0.08 0.08 0.08 0.07 0.07 0.07 0.05 0.05 0.05 0.05 0.04 0.05 0.05 0.05 0.05 0.07 0.10 0.14 0.16 0.14 0.16 0.18 0.20 0.20 0.21 0.23 0.25 0.26 0.25 0.26 0.27 0.25 0.23 0.21
0.16 0.16 0.16 0.16 0.13 0.12 0.13 0.12 0.11 0.11 0.10 0.10 0.09 0.09 0.10 0.10 0.08 0.07 0.07 0.07 0.06 0.06 0.06 0.07 0.06 0.10 0.17 0.17 0.18 0.16 0.18 0.20 0.22 0.24 0.28 0.29 0.30 0.29 0.27 0.26 0.26 0.25 0.23 0.22
0.21 0.21 0.20 0.19 0.17 0.15 0.15 0.16 0.16 0.16 0.15 0.13 0.13 0.11 0.12 0.12 0.10 0.08 0.09 0.09 0.08 0.09 0.07 0.07 0.08 0.14 0.18 0.19 0.17 0.17 0.18 0.21 0.24 0.28 0.31 0.33 0.35 0.35 0.31 0.29 0.29 0.26 0.24 0.24
0.27 0.26 0.26 0.25 0.22 0.22 0.21 0.21 0.22 0.22 0.21 0.18 0.17 0.16 0.15 0.15 0.12 0.10 0.11 0.11 0.10 0.11 0.10 0.10 0.12 0.17 0.21 0.20 0.19 0.19 0.21 0.25 0.29 0.33 0.35 0.36 0.38 0.38 0.36 0.33 0.30 0.28 0.28 0.26
0.31 0.31 0.30 0.29 0.26 0.26 0.28 0.28 0.27 0.26 0.25 0.24 0.22 0.20 0.18 0.17 0.16 0.15 0.14 0.14 0.13 0.13 0.13 0.15 0.18 0.20 0.23 0.21 0.22 0.24 0.27 0.31 0.36 0.39 0.40 0.39 0.39 0.38 0.35 0.34 0.33 0.28 0.26 0.25
0.34 0.33 0.32 0.30 0.29 0.32 0.36 0.35 0.32 0.30 0.28 0.28 0.26 0.24 0.22 0.21 0.20 0.19 0.17 0.16 0.16 0.16 0.16 0.18 0.20 0.23 0.22 0.24 0.26 0.29 0.32 0.36 0.44 0.48 0.47 0.43 0.39 0.37 0.35 0.34 0.33 0.30 0.28 0.27
0.36 0.36 0.38 0.37 0.37 0.39 0.40 0.38 0.37 0.36 0.32 0.30 0.29 0.29 0.27 0.25 0.23 0.21 0.20 0.20 0.19 0.19 0.18 0.19 0.20 0.22 0.24 0.28 0.29 0.31 0.35 0.40 0.45 0.46 0.43 0.41 0.39 0.38 0.36 0.34 0.32 0.30 0.28 0.26
0.38 0.38 0.39 0.39 0.40 0.42 0.43 0.43 0.41 0.42 0.38 0.33 0.33 0.33 0.31 0.28 0.25 0.23 0.22 0.21 0.20 0.20 0.21 0.23 0.24 0.27 0.31 0.34 0.36 0.37 0.41 0.44 0.47 0.48 0.46 0.44 0.42 0.41 0.38 0.35 0.32 0.30 0.28 0.25

GEFSNGP_prec_meanprecacc_156.txt.gz
Total_Precipitation_Accumulation
0.21 0.18 0.20 0.21 0.18 0.23 0.32 0.30 0.21 0.06 0.04 0.07 0.07 0.06 0.06 0.06 0.06 0.05 0.04 0.03 0.02 0.01 0.01 0.01 0.02 0.02 0.03 0.04 0.04 0.04 0.06 0.09 0.09 0.08 0.10 0.15 0.21 0.23 0.20 0.14 0.09 0.11 0.14 0.17
0.17 0.11 0.16 0.16 0.10 0.11 0.12 0.11 0.10 0.05 0.03 0.03 0.04 0.05 0.05 0.06 0.06 0.06 0.06 0.04 0.03 0.02 0.01 0.01 0.01 0.02 0.02 0.03 0.03 0.03 0.04 0.05 0.07 0.08 0.09 0.11 0.15 0.21 0.22 0.19 0.16 0.12 0.10 0.12
0.25 0.13 0.26 0.29 0.12 0.09 0.09 0.08 0.08 0.09 0.08 0.04 0.02 0.03 0.05 0.07 0.07 0.08 0.07 0.06 0.04 0.03 0.02 0.01 0.01 0.01 0.01 0.02 0.02 0.02 0.02 0.03 0.06 0.07 0.08 0.09 0.09 0.14 0.20 0.20 0.19 0.17 0.12 0.10
0.39 0.34 0.54 0.27 0.10 0.08 0.09 0.11 0.11 0.11 0.10 0.06 0.03 0.03 0.05 0.07 0.08 0.07 0.07 0.06 0.05 0.03 0.02 0.02 0.01 0.01 0.01 0.01 0.02 0.02 0.02 0.03 0.04 0.06 0.06 0.08 0.09 0.11 0.13 0.17 0.19 0.18 0.14 0.10
0.61 0.49 0.30 0.12 0.08 0.12 0.15 0.15 0.13 0.11 0.09 0.06 0.03 0.03 0.06 0.06 0.05 0.05 0.05 0.05 0.05 0.04 0.03 0.02 0.02 0.01 0.01 0.01 0.01 0.02 0.02 0.03 0.03 0.04 0.05 0.07 0.08 0.09 0.11 0.13 0.15 0.16 0.15 0.11
0.67 0.50 0.24 0.13 0.08 0.10 0.13 0.19 0.12 0.10 0.10 0.08 0.06 0.08 0.08 0.06 0.04 0.03 0.03 0.04 0.04 0.03 0.03 0.02 0.02 0.02 0.02 0.01 0.01 0.01 0.01 0.02 0.03 0.04 0.04 0.05 0.06 0.07 0.09 0.11 0.12 0.13 0.14 0.12
0.53 0.38 0.17 0.11 0.09 0.10 0.20 0.24 0.12 0.10 0.10 0.09 0.09 0.09 0.07 0.05 0.04 0.04 0.03 0.03 0.03 0.03 0.03 0.03 0.02 0.03 0.03 0.02 0.01 0.01 0.01 0.02 0.03 0.03 0.03 0.04 0.06 0.07 0.09 0.11 0.11 0.11 0.12 0.11
0.39 0.38 0.22 0.12 0.12 0.20 0.22 0.13 0.09 0.08 0.08 0.08 0.07 0.06 0.04 0.04 0.05 0.04 0.04 0.03 0.04 0.03 0.03 0.03 0.03 0.03 0.03 0.03 0.01 0.02 0.02 0.02 0.03 0.03 0.04 0.05 0.07 0.08 0.09 0.11 0.12 0.11 0.11 0.12
0.31 0.22 0.15 0.14 0.16 0.16 0.13 0.11 0.07 0.06 0.06 0.06 0.06 0.06 0.05 0.05 0.05 0.05 0.04 0.04 0.04 0.04 0.04 0.03 0.03 0.03 0.04 0.04 0.03 0.03 0.03 0.03 0.03 0.04 0.05 0.06 0.06 0.08 0.09 0.11 0.14 0.14 0.14 0.12
0.21 0.13 0.11 0.10 0.10 0.11 0.10 0.09 0.06 0.06 0.07 0.06 0.06 0.06 0.06 0.05 0.05 0.05 0.05 0.04 0.04 0.05 0.06 0.05 0.05 0.05 0.04 0.05 0.05 0.04 0.04 0.03 0.04 0.05 0.06 0.07 0.07 0.07 0.09 0.11 0.21 0.23 0.20 0.16
0.17 0.11 0.09 0.07 0.07 0.07 0.08 0.07 0.05 0.05 0.06 0.07 0.06 0.05 0.06 0.06 0.06 0.06 0.06 0.05 0.04 0.05 0.06 0.08 0.07 0.07 0.06 0.06 0.06 0.05 0.05 0.05 0.06 0.06 0.08 0.09 0.09 0.08 0.09 0.10 0.23 0.33 0.26 0.26
0.13 0.09 0.10 0.07 0.05 0.05 0.05 0.06 0.05 0.05 0.05 0.06 0.06 0.06 0.05 0.06 0.07 0.07 0.07 0.05 0.05 0.06 0.07 0.09 0.10 0.10 0.08 0.07 0.06 0.05 0.07 0.07 0.08 0.09 0.09 0.09 0.11 0.12 0.13 0.13 0.16 0.17 0.19 0.25
0.07 0.06 0.06 0.06 0.05 0.04 0.04 0.04 0.04 0.04 0.04 0.05 0.05 0.05 0.04 0.04 0.06 0.08 0.08 0.06 0.05 0.06 0.08 0.09 0.12 0.13 0.10 0.09 0.08 0.07 0.08 0.10 0.12 0.11 0.10 0.10 0.11 0.14 0.16 0.16 0.16 0.14 0.14 0.17
0.04 0.06 0.06 0.04 0.05 0.04 0.03 0.03 0.04 0.04 0.04 0.04 0.05 0.05 0.04 0.03 0.04 0.06 0.07 0.06 0.07 0.06 0.08 0.10 0.13 0.15 0.12 0.11 0.10 0.09 0.10 0.13 0.15 0.13 0.13 0.13 0.14 0.16 0.17 0.18 0.18 0.15 0.13 0.14
0.04 0.05 0.06 0.04 0.04 0.04 0.03 0.04 0.05 0.05 0.05 0.05 0.05 0.06 0.05 0.04 0.04 0.05 0.06 0.07 0.08 0.07 0.08 0.11 0.13 0.16 0.15 0.13 0.12 0.11 0.13 0.15 0.17 0.16 0.16 0.16 0.16 0.17 0.17 0.17 0.17 0.15 0.13 0.17
0.06 0.05 0.05 0.05 0.06 0.05 0.05 0.05 0.05 0.06 0.06 0.06 0.06 0.05 0.05 0.05 0.04 0.05 0.06 0.08 0.10 0.09 0.09 0.10 0.11 0.14 0.17 0.16 0.14 0.14 0.15 0.20 0.21 0.20 0.19 0.19 0.18 0.19 0.20 0.21 0.20 0.18 0.16 0.16
0.13 0.09 0.07 0.07 0.07 0.06 0.06 0.06 0.06 0.07 0.07 0.07 0.07 0.06 0.05 0.05 0.04 0.05 0.07 0.08 0.10 0.11 0.09 0.09 0.10 0.13 0.17 0.17 0.16 0.17 0.18 0.19 0.22 0.22 0.20 0.21 0.22 0.23 0.25 0.27 0.26 0.21 0.15 0.15
0.14 0.12 0.11 0.11 0.12 0.10 0.08 0.06 0.07 0.08 0.08 0.08 0.07 0.06 0.06 0.05 0.04 0.06 0.08 0.10 0.11 0.12 0.10 0.09 0.10 0.14 0.16 0.18 0.19 0.19 0.20 0.21 0.23 0.23 0.24 0.25 0.27 0.26 0.28 0.29 0.26 0.24 0.18 0.16
0.12 0.12 0.12 0.12 0.13 0.14 0.12 0.09 0.08 0.08 0.08 0.09 0.08 0.07 0.07 0.06 0.06 0.07 0.10 0.11 0.12 0.12 0.11 0.12 0.13 0.15 0.15 0.19 0.24 0.21 0.22 0.25 0.27 0.26 0.25 0.29 0.30 0.26 0.27 0.28 0.27 0.24 0.23 0.21
0.14 0.13 0.14 0.13 0.13 0.15 0.14 0.11 0.09 0.09 0.09 0.09 0.10 0.09 0.09 0.08 0.08 0.09 0.11 0.11 0.11 0.12 0.12 0.14 0.14 0.15 0.18 0.23 0.25 0.23 0.25 0.28 0.30 0.30 0.30 0.30 0.31 0.31 0.29 0.29 0.29 0.27 0.25 0.23
0.17 0.17 0.17 0.17 0.15 0.13 0.14 0.14 0.12 0.12 0.11 0.11 0.11 0.11 0.12 0.12 0.11 0.10 0.10 0.12 0.12 0.13 0.13 0.15 0.16 0.19 0.26 0.27 0.26 0.25 0.27 0.29 0.32 0.34 0.36 0.36 0.35 0.34 0.31 0.30 0.29 0.27 0.25 0.24
0.22 0.22 0.22 0.21 0.18 0.16 0.16 0.17 0.18 0.18 0.16 0.14 0.14 0.14 0.14 0.14 0.12 0.11 0.11 0.13 0.14 0.16 0.15 0.15 0.17 0.23 0.28 0.29 0.26 0.25 0.27 0.29 0.33 0.37 0.39 0.40 0.41 0.40 0.36 0.33 0.32 0.28 0.26 0.26
0.29 0.28 0.27 0.26 0.24 0.23 0.22 0.22 0.24 0.24 0.22 0.20 0.19 0.19 0.17 0.17 0.15 0.13 0.14 0.15 0.15 0.19 0.18 0.18 0.21 0.26 0.31 0.29 0.26 0.27 0.30 0.32 0.37 0.40 0.42 0.43 0.44 0.43 0.41 0.37 0.33 0.31 0.31 0.29
0.33 0.32 0.31 0.30 0.28 0.28 0.29 0.29 0.29 0.28 0.27 0.26 0.24 0.22 0.20 0.20 0.19 0.18 0.18 0.19 0.19 0.21 0.21 0.23 0.26 0.29 0.32 0.30 0.29 0.31 0.34 0.37 0.42 0.45 0.46 0.46 0.45 0.44 0.40 0.38 0.35 0.31 0.30 0.29
0.35 0.34 0.33 0.31 0.31 0.34 0.37 0.37 0.34 0.32 0.30 0.30 0.28 0.26 0.25 0.24 0.24 0.23 0.22 0.22 0.23 0.24 0.24 0.26 0.29 0.31 0.31 0.31 0.33 0.36 0.39 0.43 0.50 0.55 0.53 0.49 0.46 0.44 0.40 0.38 0.36 0.33 0.32 0.31
0.37 0.38 0.39 0.39 0.40 0.41 0.43 0.41 0.40 0.38 0.35 0.32 0.32 0.31 0.30 0.29 0.27 0.26 0.26 0.26 0.27 0.28 0.27 0.27 0.29 0.31 0.33 0.36 0.36 0.38 0.42 0.47 0.53 0.54 0.49 0.47 0.45 0.44 0.41 0.39 0.35 0.33 0.32 0.31
0.39 0.40 0.41 0.41 0.42 0.44 0.46 0.46 0.45 0.45 0.42 0.37 0.36 0.36 0.34 0.33 0.30 0.29 0.28 0.28 0.28 0.28 0.31 0.32 0.34 0.37 0.40 0.42 0.43 0.44 0.48 0.51 0.54 0.55 0.52 0.50 0.48 0.46 0.43 0.40 0.36 0.34 0.33 0.30

GEFSNGP_prec_meanprecacc_162.txt.gz
Total_Precipitation_Accumulation
0.21 0.18 0.21 0.23 0.20 0.24 0.34 0.33 0.24 0.07 0.05 0.07 0.08 0.07 0.06 0.06 0.06 0.06 0.05 0.04 0.03 0.03 0.03 0.04 0.04 0.06 0.08 0.09 0.09 0.11 0.15 0.21 0.27 0.26 0.27 0.29 0.34 0.36 0.38 0.35 0.29 0.27 0.25 0.24
0.18 0.12 0.18 0.18 0.12 0.12 0.13 0.12 0.11 0.06 0.04 0.03 0.04 0.05 0.05 0.06 0.07 0.07 0.06 0.05 0.04 0.03 0.03 0.03 0.03 0.04 0.07 0.08 0.08 0.08 0.10 0.12 0.18 0.24 0.27 0.25 0.26 0.33 0.35 0.38 0.38 0.32 0.24 0.20
0.28 0.14 0.28 0.30 0.13 0.10 0.10 0.09 0.09 0.10 0.09 0.04 0.02 0.03 0.05 0.07 0.08 0.08 0.07 0.07 0.05 0.04 0.04 0.03 0.02 0.03 0.06 0.07 0.07 0.07 0.07 0.09 0.13 0.18 0.23 0.25 0.22 0.25 0.32 0.34 0.39 0.39 0.29 0.20
0.45 0.37 0.57 0.28 0.11 0.09 0.11 0.13 0.12 0.13 0.10 0.07 0.04 0.03 0.05 0.07 0.08 0.07 0.07 0.07 0.06 0.05 0.04 0.04 0.03 0.03 0.05 0.06 0.07 0.07 0.07 0.08 0.09 0.13 0.18 0.22 0.24 0.23 0.25 0.29 0.34 0.36 0.33 0.26
0.68 0.53 0.32 0.13 0.09 0.14 0.16 0.17 0.14 0.12 0.09 0.06 0.03 0.04 0.06 0.06 0.05 0.05 0.05 0.06 0.05 0.05 0.04 0.04 0.03 0.03 0.05 0.05 0.05 0.06 0.07 0.07 0.07 0.09 0.13 0.18 0.19 0.19 0.21 0.24 0.26 0.29 0.29 0.26
0.74 0.55 0.26 0.14 0.09 0.10 0.15 0.21 0.14 0.12 0.11 0.08 0.07 0.08 0.08 0.06 0.04 0.04 0.04 0.04 0.04 0.04 0.04 0.04 0.03 0.04 0.05 0.04 0.04 0.05 0.05 0.05 0.06 0.08 0.09 0.13 0.16 0.15 0.18 0.21 0.22 0.23 0.25 0.23
0.58 0.43 0.19 0.11 0.10 0.10 0.22 0.27 0.14 0.12 0.12 0.10 0.10 0.10 0.08 0.05 0.04 0.04 0.04 0.04 0.03 0.03 0.03 0.04 0.03 0.05 0.06 0.05 0.04 0.05 0.05 0.06 0.05 0.06 0.08 0.09 0.14 0.16 0.17 0.18 0.21 0.23 0.22 0.21
0.43 0.43 0.24 0.13 0.13 0.22 0.24 0.14 0.11 0.09 0.09 0.09 0.07 0.06 0.05 0.04 0.05 0.05 0.04 0.04 0.04 0.04 0.03 0.03 0.03 0.04 0.06 0.06 0.05 0.06 0.06 0.06 0.06 0.06 0.07 0.10 0.14 0.16 0.17 0.18 0.21 0.23 0.22 0.23
0.33 0.24 0.15 0.15 0.17 0.18 0.15 0.12 0.09 0.08 0.07 0.06 0.06 0.06 0.05 0.05 0.06 0.05 0.05 0.04 0.04 0.05 0.04 0.04 0.04 0.05 0.06 0.06 0.05 0.06 0.06 0.06 0.07 0.08 0.08 0.10 0.12 0.15 0.19 0.18 0.21 0.23 0.23 0.21
0.22 0.13 0.11 0.10 0.11 0.12 0.11 0.10 0.08 0.07 0.07 0.06 0.06 0.06 0.06 0.06 0.06 0.06 0.06 0.05 0.05 0.05 0.06 0.06 0.05 0.05 0.06 0.06 0.06 0.06 0.07 0.07 0.07 0.09 0.11 0.11 0.12 0.12 0.16 0.19 0.26 0.30 0.28 0.23
0.18 0.12 0.10 0.08 0.07 0.07 0.09 0.08 0.07 0.06 0.06 0.07 0.06 0.05 0.06 0.06 0.07 0.07 0.07 0.05 0.05 0.06 0.07 0.08 0.08 0.07 0.07 0.07 0.07 0.07 0.08 0.08 0.09 0.10 0.12 0.14 0.14 0.13 0.13 0.15 0.28 0.38 0.32 0.32
0.15 0.10 0.11 0.08 0.05 0.05 0.06 0.07 0.06 0.06 0.05 0.06 0.06 0.06 0.05 0.06 0.07 0.08 0.08 0.06 0.05 0.07 0.08 0.09 0.10 0.10 0.09 0.09 0.09 0.09 0.10 0.11 0.12 0.13 0.13 0.15 0.17 0.18 0.19 0.18 0.22 0.23 0.23 0.30
0.08 0.07 0.07 0.06 0.05 0.04 0.04 0.04 0.05 0.06 0.05 0.05 0.05 0.05 0.04 0.05 0.07 0.09 0.09 0.07 0.06 0.07 0.08 0.10 0.12 0.14 0.12 0.11 0.11 0.11 0.12 0.14 0.16 0.15 0.15 0.15 0.17 0.19 0.21 0.23 0.25 0.23 0.21 0.23
0.04 0.06 0.06 0.04 0.05 0.04 0.03 0.03 0.04 0.04 0.05 0.04 0.05 0.05 0.04 0.04 0.05 0.08 0.09 0.07 0.07 0.07 0.08 0.11 0.14 0.15 0.14 0.14 0.14 0.13 0.14 0.18 0.20 0.17 0.17 0.18 0.20 0.21 0.22 0.23 0.26 0.26 0.24 0.24
0.04 0.05 0.06 0.04 0.04 0.04 0.03 0.04 0.05 0.05 0.05 0.05 0.05 0.06 0.05 0.05 0.04 0.07 0.08 0.08 0.09 0.08 0.09 0.11 0.14 0.17 0.18 0.17 0.17 0.16 0.18 0.20 0.22 0.22 0.21 0.22 0.23 0.24 0.23 0.23 0.23 0.22 0.22 0.28
0.06 0.05 0.05 0.05 0.06 0.05 0.05 0.05 0.05 0.06 0.06 0.06 0.06 0.05 0.05 0.05 0.05 0.07 0.09 0.10 0.11 0.10 0.10 0.11 0.13 0.17 0.21 0.21 0.20 0.19 0.20 0.26 0.27 0.27 0.26 0.26 0.27 0.27 0.27 0.28 0.27 0.24 0.22 0.23
0.13 0.09 0.07 0.07 0.07 0.07 0.06 0.06 0.06 0.07 0.07 0.07 0.07 0.06 0.05 0.05 0.05 0.06 0.10 0.11 0.13 0.13 0.11 0.11 0.12 0.16 0.21 0.22 0.22 0.22 0.24 0.26 0.30 0.30 0.28 0.30 0.31 0.32 0.33 0.34 0.32 0.27 0.20 0.20
0.14 0.12 0.11 0.12 0.12 0.11 0.08 0.07 0.07 0.08 0.08 0.08 0.07 0.07 0.07 0.07 0.06 0.07 0.11 0.13 0.15 0.15 0.12 0.11 0.12 0.17 0.20 0.22 0.24 0.24 0.26 0.28 0.31 0.33 0.34 0.35 0.37 0.36 0.36 0.36 0.32 0.29 0.24 0.23
0.13 0.13 0.12 0.12 0.13 0.15 0.13 0.09 0.08 0.08 0.09 0.09 0.09 0.08 0.08 0.08 0.07 0.09 0.14 0.16 0.17 0.16 0.15 0.15 0.17 0.19 0.20 0.24 0.29 0.26 0.29 0.33 0.37 0.37 0.37 0.40 0.41 0.35 0.34 0.34 0.32 0.30 0.29 0.28
0.14 0.14 0.14 0.14 0.14 0.16 0.15 0.11 0.09 0.09 0.09 0.10 0.11 0.10 0.10 0.10 0.11 0.13 0.16 0.19 0.19 0.18 0.18 0.20 0.19 0.20 0.24 0.29 0.32 0.29 0.32 0.36 0.41 0.43 0.41 0.39 0.41 0.40 0.36 0.35 0.35 0.33 0.31 0.29
0.17 0.17 0.18 0.17 0.15 0.13 0.15 0.15 0.13 0.12 0.11 0.11 0.13 0.12 0.14 0.14 0.14 0.14 0.17 0.19 0.19 0.20 0.21 0.24 0.23 0.25 0.32 0.34 0.34 0.33 0.35 0.38 0.44 0.47 0.46 0.45 0.45 0.43 0.39 0.36 0.36 0.34 0.32 0.31
0.22 0.22 0.22 0.21 0.19 0.17 0.16 0.18 0.19 0.19 0.17 0.16 0.15 0.15 0.17 0.17 0.15 0.14 0.17 0.20 0.22 0.25 0.24 0.23 0.26 0.30 0.36 0.37 0.34 0.34 0.36 0.39 0.45 0.49 0.49 0.49 0.50 0.50 0.45 0.41 0.39 0.36 0.33 0.33
0.29 0.28 0.28 0.27 0.25 0.24 0.23 0.23 0.25 0.26 0.24 0.22 0.21 0.21 0.20 0.20 0.18 0.17 0.19 0.21 0.23 0.27 0.27 0.26 0.30 0.35 0.40 0.37 0.35 0.37 0.39 0.42 0.47 0.51 0.51 0.52 0.53 0.53 0.50 0.46 0.41 0.38 0.38 0.36
0.33 0.33 0.32 0.31 0.29 0.29 0.30 0.30 0.30 0.30 0.29 0.29 0.27 0.26 0.24 0.23 0.23 0.22 0.24 0.26 0.27 0.29 0.29 0.32 0.35 0.38 0.42 0.39 0.38 0.41 0.45 0.47 0.51 0.55 0.55 0.55 0.56 0.55 0.50 0.48 0.44 0.39 0.36 0.34
0.36 0.35 0.34 0.32 0.32 0.35 0.39 0.38 0.36 0.35 0.33 0.33 0.31 0.30 0.29 0.28 0.29 0.28 0.27 0.28 0.30 0.33 0.33 0.35 0.38 0.40 0.41 0.42 0.42 0.45 0.49 0.52 0.59 0.65 0.63 0.59 0.57 0.55 0.50 0.47 0.44 0.40 0.37 0.34
0.38 0.39 0.40 0.41 0.41 0.43 0.45 0.43 0.42 0.41 0.38 0.36 0.35 0.35 0.34 0.33 0.32 0.30 0.31 0.32 0.34 0.36 0.36 0.36 0.38 0.39 0.42 0.45 0.45 0.47 0.52 0.58 0.63 0.64 0.59 0.57 0.55 0.53 0.50 0.47 0.42 0.38 0.36 0.34
0.40 0.41 0.42 0.41 0.42 0.46 0.48 0.49 0.48 0.48 0.45 0.41 0.40 0.40 0.38 0.37 0.35 0.34 0.33 0.34 0.35 0.37 0.40 0.42 0.43 0.45 0.49 0.51 0.52 0.52 0.56 0.60 0.62 0.65 0.63 0.60 0.57 0.54 0.50 0.47 0.42 0.38 0.36 0.33

GEFSNGP_prec_meanprecacc_168.txt.gz
Total_Precipitation_Accumulation
0.22 0.19 0.22 0.25 0.21 0.25 0.35 0.34 0.25 0.08 0.05 0.08 0.08 0.07 0.06 0.06 0.06 0.06 0.05 0.05 0.04 0.04 0.06 0.07 0.07 0.10 0.13 0.14 0.13 0.14 0.19 0.30 0.42 0.48 0.55 0.61 0.61 0.58 0.57 0.50 0.39 0.39 0.40 0.41
0.20 0.13 0.18 0.19 0.13 0.13 0.14 0.13 0.12 0.06 0.04 0.03 0.04 0.05 0.05 0.06 0.07 0.07 0.06 0.06 0.05 0.04 0.05 0.05 0.05 0.07 0.11 0.13 0.12 0.12 0.15 0.19 0.30 0.40 0.49 0.56 0.58 0.59 0.56 0.54 0.49 0.42 0.38 0.36
0.33 0.15 0.30 0.33 0.15 0.11 0.11 0.10 0.10 0.11 0.09 0.04 0.02 0.03 0.05 0.07 0.08 0.08 0.08 0.07 0.06 0.05 0.05 0.05 0.04 0.05 0.09 0.12 0.13 0.12 0.11 0.14 0.22 0.29 0.38 0.47 0.53 0.56 0.57 0.52 0.51 0.49 0.39 0.32
0.53 0.42 0.61 0.29 0.11 0.10 0.12 0.14 0.14 0.14 0.11 0.07 0.04 0.03 0.06 0.07 0.08 0.07 0.07 0.07 0.07 0.06 0.05 0.05 0.04 0.04 0.08 0.10 0.12 0.12 0.11 0.11 0.15 0.20 0.27 0.37 0.49 0.53 0.53 0.51 0.49 0.48 0.43 0.35
0.79 0.60 0.34 0.13 0.10 0.15 0.17 0.18 0.16 0.14 0.11 0.07 0.04 0.04 0.06 0.06 0.06 0.05 0.05 0.06 0.06 0.06 0.06 0.05 0.04 0.05 0.08 0.08 0.10 0.10 0.10 0.10 0.11 0.13 0.19 0.28 0.38 0.47 0.48 0.49 0.45 0.44 0.41 0.35
0.85 0.63 0.29 0.14 0.10 0.11 0.15 0.22 0.15 0.13 0.12 0.09 0.07 0.09 0.08 0.07 0.05 0.04 0.04 0.04 0.05 0.05 0.05 0.05 0.05 0.06 0.08 0.08 0.08 0.08 0.08 0.08 0.08 0.10 0.13 0.19 0.27 0.35 0.42 0.44 0.43 0.40 0.40 0.36
0.64 0.49 0.21 0.12 0.10 0.10 0.23 0.28 0.15 0.14 0.13 0.12 0.11 0.11 0.08 0.05 0.04 0.04 0.04 0.04 0.04 0.04 0.04 0.05 0.05 0.07 0.11 0.08 0.07 0.07 0.08 0.08 0.07 0.08 0.10 0.14 0.21 0.28 0.37 0.42 0.42 0.40 0.37 0.34
0.46 0.50 0.27 0.14 0.14 0.23 0.26 0.16 0.13 0.11 0.11 0.10 0.09 0.07 0.05 0.05 0.05 0.05 0.04 0.04 0.05 0.05 0.04 0.04 0.05 0.08 0.11 0.09 0.08 0.09 0.08 0.08 0.08 0.07 0.09 0.13 0.19 0.26 0.32 0.38 0.42 0.39 0.37 0.36
0.35 0.25 0.16 0.16 0.18 0.20 0.17 0.14 0.12 0.10 0.09 0.08 0.08 0.07 0.06 0.05 0.06 0.05 0.05 0.05 0.05 0.06 0.05 0.05 0.06 0.09 0.11 0.10 0.09 0.09 0.09 0.09 0.09 0.09 0.10 0.12 0.16 0.22 0.31 0.33 0.39 0.38 0.35 0.34
0.23 0.13 0.11 0.11 0.12 0.13 0.14 0.13 0.11 0.10 0.10 0.08 0.08 0.07 0.06 0.06 0.06 0.06 0.07 0.06 0.06 0.06 0.07 0.07 0.08 0.10 0.10 0.11 0.11 0.09 0.09 0.09 0.10 0.12 0.14 0.14 0.15 0.18 0.26 0.30 0.38 0.42 0.37 0.32
0.19 0.12 0.10 0.08 0.08 0.08 0.10 0.10 0.09 0.09 0.08 0.08 0.08 0.06 0.06 0.06 0.07 0.08 0.08 0.06 0.06 0.07 0.08 0.10 0.11 0.11 0.11 0.12 0.12 0.11 0.11 0.11 0.12 0.14 0.16 0.17 0.18 0.18 0.21 0.23 0.35 0.46 0.39 0.39
0.16 0.11 0.12 0.09 0.06 0.05 0.06 0.07 0.08 0.08 0.07 0.07 0.07 0.06 0.05 0.06 0.07 0.09 0.09 0.06 0.06 0.08 0.09 0.11 0.13 0.13 0.13 0.14 0.13 0.13 0.14 0.14 0.16 0.17 0.18 0.19 0.22 0.24 0.28 0.26 0.30 0.29 0.29 0.37
0.08 0.07 0.07 0.06 0.06 0.04 0.04 0.04 0.05 0.07 0.06 0.06 0.05 0.05 0.04 0.05 0.07 0.09 0.10 0.07 0.07 0.08 0.09 0.12 0.14 0.16 0.15 0.15 0.15 0.14 0.16 0.17 0.19 0.19 0.19 0.21 0.23 0.25 0.29 0.32 0.34 0.32 0.30 0.32
0.05 0.06 0.06 0.04 0.05 0.04 0.03 0.03 0.04 0.05 0.05 0.05 0.05 0.05 0.04 0.04 0.05 0.08 0.09 0.08 0.08 0.08 0.09 0.12 0.15 0.18 0.17 0.16 0.17 0.16 0.18 0.22 0.23 0.21 0.22 0.24 0.26 0.28 0.29 0.31 0.34 0.36 0.37 0.38
0.04 0.05 0.06 0.04 0.04 0.04 0.03 0.04 0.05 0.05 0.05 0.06 0.05 0.06 0.05 0.05 0.05 0.07 0.09 0.09 0.10 0.09 0.10 0.13 0.16 0.19 0.20 0.20 0.19 0.19 0.21 0.24 0.26 0.26 0.26 0.28 0.29 0.31 0.31 0.30 0.29 0.30 0.35 0.44
0.06 0.05 0.05 0.05 0.06 0.05 0.05 0.05 0.05 0.06 0.06 0.06 0.06 0.05 0.05 0.05 0.05 0.07 0.10 0.11 0.12 0.11 0.11 0.12 0.14 0.18 0.23 0.23 0.22 0.21 0.23 0.29 0.31 0.31 0.31 0.32 0.34 0.35 0.35 0.36 0.34 0.31 0.32 0.35
0.13 0.09 0.07 0.07 0.07 0.07 0.06 0.06 0.06 0.07 0.08 0.07 0.07 0.06 0.05 0.06 0.05 0.07 0.10 0.12 0.14 0.14 0.12 0.12 0.13 0.17 0.22 0.24 0.23 0.24 0.26 0.29 0.34 0.34 0.33 0.36 0.39 0.40 0.40 0.42 0.40 0.34 0.29 0.30
0.14 0.12 0.11 0.12 0.12 0.11 0.08 0.07 0.07 0.08 0.09 0.08 0.08 0.07 0.07 0.07 0.06 0.08 0.12 0.14 0.16 0.16 0.13 0.13 0.14 0.19 0.22 0.24 0.25 0.25 0.28 0.31 0.34 0.37 0.39 0.41 0.44 0.44 0.44 0.43 0.40 0.37 0.33 0.33
0.13 0.13 0.12 0.13 0.14 0.15 0.13 0.10 0.08 0.09 0.09 0.09 0.10 0.09 0.08 0.08 0.08 0.10 0.15 0.18 0.19 0.18 0.16 0.17 0.19 0.21 0.22 0.26 0.31 0.28 0.31 0.35 0.40 0.42 0.43 0.47 0.49 0.44 0.43 0.42 0.40 0.38 0.37 0.37
0.14 0.14 0.14 0.14 0.14 0.16 0.15 0.11 0.09 0.09 0.10 0.10 0.11 0.10 0.10 0.11 0.12 0.14 0.18 0.20 0.20 0.20 0.19 0.22 0.22 0.24 0.26 0.31 0.34 0.31 0.35 0.39 0.45 0.48 0.47 0.47 0.49 0.48 0.45 0.44 0.44 0.42 0.39 0.36
0.17 0.17 0.18 0.17 0.15 0.14 0.15 0.15 0.14 0.13 0.12 0.12 0.13 0.14 0.15 0.15 0.15 0.16 0.19 0.21 0.21 0.22 0.23 0.26 0.26 0.29 0.34 0.36 0.37 0.36 0.39 0.42 0.48 0.52 0.53 0.52 0.52 0.51 0.49 0.47 0.46 0.43 0.39 0.38
0.23 0.23 0.22 0.22 0.19 0.17 0.17 0.18 0.19 0.19 0.18 0.16 0.16 0.17 0.18 0.19 0.16 0.16 0.19 0.24 0.25 0.28 0.27 0.26 0.30 0.36 0.39 0.41 0.38 0.38 0.40 0.43 0.50 0.54 0.55 0.56 0.57 0.58 0.55 0.51 0.49 0.45 0.42 0.40
0.30 0.29 0.28 0.27 0.26 0.25 0.23 0.24 0.26 0.27 0.25 0.23 0.23 0.23 0.23 0.22 0.21 0.21 0.23 0.25 0.27 0.32 0.31 0.31 0.36 0.42 0.45 0.43 0.41 0.41 0.44 0.47 0.52 0.57 0.59 0.60 0.61 0.60 0.59 0.55 0.51 0.48 0.47 0.44
0.34 0.33 0.33 0.32 0.29 0.29 0.31 0.30 0.30 0.31 0.30 0.30 0.29 0.28 0.27 0.27 0.25 0.25 0.29 0.32 0.34 0.36 0.35 0.37 0.41 0.45 0.49 0.47 0.46 0.48 0.52 0.54 0.58 0.63 0.63 0.63 0.63 0.62 0.59 0.58 0.55 0.49 0.45 0.42
0.36 0.36 0.34 0.33 0.33 0.36 0.39 0.39 0.37 0.36 0.34 0.35 0.33 0.32 0.32 0.32 0.33 0.32 0.33 0.35 0.37 0.39 0.39 0.41 0.44 0.47 0.49 0.52 0.52 0.54 0.57 0.60 0.68 0.74 0.70 0.66 0.64 0.64 0.61 0.59 0.54 0.49 0.46 0.43
0.39 0.40 0.41 0.41 0.42 0.44 0.46 0.45 0.44 0.43 0.40 0.38 0.37 0.37 0.37 0.36 0.36 0.36 0.37 0.38 0.40 0.43 0.43 0.43 0.45 0.47 0.52 0.56 0.56 0.57 0.61 0.67 0.73 0.73 0.66 0.64 0.63 0.63 0.62 0.57 0.51 0.47 0.45 0.42
0.40 0.41 0.42 0.42 0.43 0.47 0.50 0.50 0.50 0.51 0.48 0.45 0.44 0.43 0.42 0.41 0.40 0.39 0.39 0.39 0.41 0.44 0.47 0.49 0.51 0.54 0.59 0.62 0.63 0.63 0.66 0.69 0.71 0.73 0.71 0.68 0.66 0.63 0.60 0.55 0.50 0.48 0.45 0.42

GEFSNGP_prec_meanprecacc_174.txt.gz
Total_Precipitation_Accumulation
0.23 0.19 0.23 0.25 0.22 0.26 0.37 0.37 0.28 0.09 0.06 0.08 0.08 0.07 0.07 0.07 0.07 0.07 0.06 0.06 0.06 0.05 0.07 0.08 0.10 0.13 0.17 0.18 0.15 0.17 0.22 0.33 0.46 0.54 0.62 0.72 0.78 0.78 0.79 0.77 0.67 0.60 0.55 0.55
0.21 0.13 0.19 0.20 0.13 0.14 0.15 0.14 0.13 0.07 0.04 0.03 0.04 0.05 0.06 0.07 0.08 0.08 0.08 0.08 0.06 0.05 0.06 0.06 0.07 0.09 0.14 0.16 0.15 0.14 0.16 0.20 0.33 0.46 0.56 0.65 0.72 0.80 0.79 0.78 0.77 0.68 0.56 0.52
0.38 0.15 0.32 0.35 0.15 0.12 0.11 0.11 0.11 0.12 0.10 0.05 0.03 0.03 0.06 0.08 0.09 0.10 0.10 0.09 0.07 0.06 0.06 0.07 0.06 0.06 0.11 0.14 0.15 0.14 0.13 0.16 0.24 0.33 0.46 0.56 0.64 0.72 0.80 0.77 0.74 0.73 0.62 0.50
0.62 0.46 0.65 0.30 0.12 0.11 0.13 0.15 0.15 0.15 0.12 0.08 0.04 0.04 0.06 0.08 0.10 0.10 0.10 0.09 0.08 0.07 0.07 0.07 0.06 0.06 0.10 0.12 0.14 0.14 0.12 0.13 0.16 0.23 0.34 0.46 0.59 0.65 0.71 0.77 0.74 0.68 0.61 0.54
0.91 0.67 0.36 0.13 0.11 0.16 0.18 0.19 0.17 0.14 0.11 0.07 0.04 0.04 0.06 0.06 0.07 0.08 0.09 0.09 0.08 0.07 0.07 0.06 0.05 0.06 0.09 0.10 0.12 0.12 0.11 0.12 0.12 0.15 0.23 0.36 0.47 0.57 0.62 0.69 0.70 0.66 0.57 0.49
0.97 0.72 0.32 0.15 0.10 0.11 0.15 0.23 0.15 0.13 0.13 0.10 0.07 0.09 0.08 0.07 0.05 0.05 0.06 0.08 0.07 0.06 0.06 0.06 0.05 0.07 0.10 0.10 0.10 0.10 0.10 0.10 0.10 0.11 0.15 0.26 0.36 0.45 0.56 0.62 0.64 0.62 0.57 0.47
0.71 0.56 0.23 0.12 0.10 0.10 0.24 0.29 0.16 0.14 0.14 0.12 0.12 0.12 0.09 0.06 0.05 0.05 0.05 0.06 0.06 0.06 0.06 0.06 0.06 0.09 0.13 0.10 0.10 0.11 0.10 0.11 0.09 0.09 0.12 0.18 0.30 0.39 0.52 0.60 0.63 0.59 0.52 0.47
0.50 0.56 0.29 0.14 0.14 0.24 0.27 0.17 0.14 0.12 0.11 0.11 0.09 0.07 0.06 0.05 0.06 0.05 0.05 0.05 0.06 0.06 0.06 0.06 0.07 0.11 0.15 0.13 0.11 0.12 0.11 0.11 0.10 0.10 0.11 0.16 0.27 0.37 0.46 0.55 0.62 0.58 0.50 0.49
0.36 0.26 0.16 0.16 0.19 0.20 0.18 0.15 0.13 0.11 0.09 0.08 0.08 0.07 0.06 0.05 0.06 0.06 0.06 0.05 0.06 0.07 0.07 0.07 0.09 0.13 0.15 0.13 0.12 0.12 0.11 0.11 0.11 0.12 0.13 0.16 0.23 0.33 0.45 0.50 0.57 0.57 0.48 0.46
0.24 0.14 0.12 0.12 0.13 0.14 0.14 0.13 0.12 0.11 0.11 0.09 0.08 0.07 0.07 0.06 0.06 0.06 0.07 0.06 0.07 0.08 0.09 0.10 0.11 0.13 0.13 0.13 0.13 0.12 0.12 0.12 0.13 0.15 0.16 0.17 0.21 0.28 0.39 0.45 0.53 0.57 0.50 0.43
0.20 0.13 0.11 0.09 0.08 0.09 0.10 0.10 0.10 0.09 0.09 0.10 0.09 0.07 0.06 0.06 0.07 0.08 0.08 0.07 0.08 0.09 0.10 0.12 0.14 0.14 0.13 0.13 0.14 0.13 0.13 0.13 0.14 0.17 0.19 0.21 0.24 0.27 0.31 0.36 0.48 0.59 0.50 0.48
0.17 0.11 0.13 0.09 0.06 0.05 0.06 0.08 0.08 0.08 0.07 0.08 0.08 0.07 0.05 0.06 0.07 0.09 0.10 0.08 0.08 0.10 0.11 0.14 0.16 0.16 0.15 0.15 0.14 0.14 0.15 0.16 0.18 0.20 0.21 0.23 0.27 0.31 0.36 0.37 0.40 0.41 0.42 0.47
0.09 0.08 0.08 0.07 0.06 0.05 0.04 0.04 0.05 0.07 0.06 0.06 0.06 0.05 0.04 0.05 0.07 0.10 0.11 0.09 0.09 0.10 0.12 0.14 0.17 0.19 0.17 0.16 0.16 0.16 0.18 0.19 0.21 0.22 0.23 0.25 0.28 0.32 0.37 0.40 0.42 0.41 0.40 0.42
0.05 0.06 0.07 0.05 0.05 0.04 0.03 0.03 0.04 0.05 0.05 0.05 0.06 0.06 0.05 0.04 0.06 0.09 0.10 0.10 0.11 0.11 0.12 0.15 0.18 0.20 0.19 0.18 0.18 0.18 0.20 0.23 0.25 0.24 0.25 0.28 0.31 0.34 0.37 0.40 0.42 0.42 0.45 0.47
0.05 0.06 0.06 0.04 0.05 0.04 0.03 0.04 0.05 0.05 0.05 0.06 0.06 0.06 0.06 0.05 0.05 0.08 0.10 0.11 0.13 0.12 0.13 0.16 0.18 0.21 0.22 0.21 0.21 0.21 0.23 0.26 0.28 0.29 0.30 0.32 0.34 0.37 0.38 0.38 0.37 0.36 0.41 0.54
0.07 0.06 0.06 0.06 0.06 0.05 0.05 0.05 0.05 0.06 0.06 0.06 0.06 0.05 0.05 0.06 0.06 0.09 0.12 0.14 0.16 0.15 0.15 0.15 0.17 0.20 0.24 0.24 0.24 0.23 0.25 0.31 0.33 0.35 0.36 0.37 0.39 0.40 0.41 0.43 0.41 0.38 0.38 0.43
0.14 0.10 0.07 0.07 0.07 0.07 0.06 0.06 0.06 0.07 0.08 0.07 0.07 0.06 0.06 0.06 0.06 0.08 0.12 0.15 0.17 0.18 0.15 0.15 0.15 0.20 0.24 0.25 0.26 0.27 0.28 0.32 0.37 0.38 0.38 0.41 0.44 0.46 0.46 0.49 0.47 0.41 0.36 0.38
0.14 0.13 0.12 0.12 0.13 0.11 0.08 0.07 0.07 0.08 0.09 0.08 0.08 0.07 0.08 0.08 0.08 0.10 0.15 0.17 0.20 0.20 0.17 0.16 0.16 0.21 0.24 0.25 0.27 0.28 0.31 0.34 0.38 0.40 0.43 0.47 0.50 0.50 0.50 0.51 0.47 0.43 0.40 0.43
0.13 0.13 0.12 0.13 0.14 0.15 0.13 0.10 0.08 0.09 0.09 0.10 0.10 0.10 0.09 0.09 0.10 0.13 0.18 0.21 0.23 0.23 0.20 0.20 0.21 0.23 0.23 0.27 0.33 0.30 0.33 0.38 0.43 0.45 0.47 0.53 0.55 0.50 0.50 0.50 0.48 0.45 0.45 0.46
0.14 0.14 0.15 0.14 0.14 0.16 0.15 0.12 0.10 0.10 0.10 0.11 0.12 0.11 0.11 0.12 0.13 0.16 0.20 0.23 0.24 0.24 0.23 0.25 0.24 0.25 0.27 0.32 0.36 0.33 0.37 0.41 0.48 0.51 0.52 0.52 0.56 0.55 0.52 0.52 0.52 0.49 0.46 0.45
0.17 0.17 0.18 0.18 0.15 0.14 0.15 0.15 0.14 0.13 0.12 0.12 0.15 0.15 0.16 0.17 0.17 0.18 0.22 0.25 0.24 0.25 0.27 0.29 0.29 0.31 0.36 0.38 0.39 0.37 0.41 0.45 0.51 0.56 0.57 0.59 0.60 0.59 0.56 0.55 0.55 0.51 0.48 0.46
0.23 0.23 0.22 0.22 0.19 0.17 0.17 0.19 0.20 0.20 0.18 0.17 0.17 0.18 0.21 0.21 0.18 0.18 0.21 0.27 0.29 0.32 0.30 0.29 0.32 0.38 0.41 0.43 0.40 0.40 0.42 0.46 0.53 0.58 0.60 0.63 0.65 0.65 0.62 0.59 0.58 0.54 0.50 0.49
0.30 0.29 0.29 0.28 0.26 0.25 0.23 0.24 0.26 0.27 0.26 0.25 0.25 0.25 0.26 0.25 0.24 0.24 0.26 0.28 0.32 0.36 0.35 0.34 0.39 0.44 0.48 0.46 0.43 0.43 0.46 0.50 0.56 0.62 0.64 0.67 0.68 0.67 0.66 0.63 0.59 0.57 0.56 0.53
0.34 0.33 0.33 0.32 0.30 0.30 0.31 0.31 0.31 0.32 0.32 0.32 0.32 0.32 0.32 0.31 0.29 0.29 0.33 0.37 0.38 0.40 0.39 0.41 0.45 0.49 0.53 0.50 0.49 0.50 0.55 0.58 0.63 0.69 0.69 0.70 0.71 0.69 0.66 0.65 0.63 0.58 0.54 0.52
0.37 0.36 0.35 0.33 0.33 0.36 0.40 0.40 0.38 0.37 0.36 0.37 0.36 0.36 0.37 0.38 0.38 0.37 0.38 0.41 0.42 0.44 0.43 0.45 0.49 0.54 0.55 0.56 0.56 0.58 0.61 0.65 0.74 0.80 0.76 0.73 0.71 0.70 0.68 0.66 0.62 0.58 0.55 0.53
0.39 0.41 0.42 0.42 0.43 0.45 0.47 0.46 0.45 0.45 0.42 0.41 0.40 0.40 0.41 0.41 0.42 0.42 0.43 0.44 0.45 0.48 0.47 0.47 0.50 0.55 0.60 0.62 0.61 0.62 0.67 0.73 0.80 0.79 0.72 0.70 0.69 0.70 0.69 0.66 0.60 0.56 0.54 0.53
0.41 0.42 0.43 0.43 0.44 0.48 0.51 0.52 0.52 0.53 0.51 0.48 0.48 0.47 0.47 0.46 0.45 0.45 0.45 0.45 0.46 0.49 0.52 0.55 0.57 0.62 0.67 0.68 0.69 0.70 0.73 0.76 0.78 0.80 0.77 0.75 0.73 0.70 0.68 0.65 0.60 0.57 0.54 0.52

GEFSNGP_prec_meanprecacc_180.txt.gz
Total_Precipitation_Accumulation
0.23 0.19 0.23 0.26 0.23 0.26 0.39 0.38 0.30 0.09 0.06 0.08 0.08 0.08 0.08 0.08 0.08 0.08 0.07 0.07 0.06 0.06 0.08 0.11 0.12 0.16 0.20 0.21 0.19 0.19 0.23 0.34 0.48 0.57 0.66 0.76 0.82 0.86 0.88 0.87 0.77 0.73 0.70 0.69
0.23 0.13 0.19 0.20 0.14 0.14 0.16 0.15 0.13 0.07 0.05 0.03 0.04 0.06 0.07 0.08 0.09 0.10 0.09 0.08 0.07 0.06 0.07 0.08 0.09 0.12 0.17 0.21 0.19 0.17 0.19 0.22 0.35 0.48 0.60 0.70 0.77 0.86 0.90 0.91 0.89 0.81 0.72 0.66
0.42 0.16 0.34 0.37 0.16 0.12 0.12 0.11 0.12 0.13 0.11 0.06 0.03 0.04 0.07 0.09 0.11 0.12 0.11 0.10 0.08 0.07 0.07 0.07 0.07 0.09 0.15 0.19 0.20 0.18 0.17 0.19 0.26 0.35 0.49 0.60 0.69 0.79 0.91 0.91 0.89 0.87 0.77 0.65
0.71 0.50 0.68 0.31 0.12 0.11 0.13 0.15 0.15 0.16 0.12 0.08 0.06 0.05 0.08 0.11 0.13 0.11 0.11 0.10 0.09 0.07 0.07 0.07 0.06 0.08 0.13 0.16 0.18 0.19 0.17 0.17 0.20 0.26 0.36 0.50 0.65 0.73 0.82 0.91 0.89 0.83 0.79 0.70
1.04 0.75 0.39 0.13 0.11 0.16 0.18 0.19 0.17 0.15 0.11 0.07 0.04 0.04 0.07 0.08 0.10 0.11 0.10 0.10 0.08 0.07 0.07 0.06 0.06 0.07 0.10 0.12 0.15 0.16 0.16 0.16 0.16 0.18 0.27 0.41 0.53 0.65 0.73 0.83 0.86 0.83 0.75 0.66
1.11 0.81 0.35 0.15 0.10 0.11 0.15 0.23 0.15 0.14 0.13 0.10 0.07 0.09 0.09 0.08 0.08 0.09 0.08 0.09 0.08 0.07 0.07 0.06 0.06 0.08 0.10 0.11 0.12 0.13 0.14 0.13 0.13 0.15 0.19 0.31 0.43 0.54 0.67 0.75 0.81 0.81 0.77 0.66
0.81 0.64 0.26 0.13 0.10 0.11 0.25 0.30 0.17 0.15 0.14 0.13 0.13 0.13 0.10 0.07 0.07 0.08 0.08 0.08 0.08 0.07 0.07 0.07 0.07 0.10 0.13 0.11 0.11 0.14 0.14 0.13 0.11 0.12 0.15 0.22 0.36 0.49 0.65 0.74 0.79 0.78 0.71 0.66
0.54 0.63 0.32 0.14 0.14 0.25 0.28 0.17 0.15 0.13 0.12 0.11 0.10 0.08 0.06 0.06 0.07 0.07 0.07 0.08 0.09 0.09 0.07 0.07 0.08 0.12 0.16 0.14 0.13 0.14 0.13 0.13 0.12 0.11 0.13 0.19 0.34 0.47 0.59 0.71 0.79 0.79 0.70 0.68
0.38 0.28 0.16 0.16 0.19 0.20 0.18 0.16 0.14 0.12 0.10 0.09 0.09 0.07 0.06 0.06 0.06 0.06 0.07 0.07 0.09 0.11 0.09 0.08 0.10 0.14 0.16 0.15 0.14 0.14 0.14 0.13 0.13 0.13 0.14 0.19 0.29 0.43 0.59 0.65 0.74 0.78 0.67 0.62
0.26 0.15 0.12 0.12 0.14 0.15 0.15 0.14 0.12 0.12 0.11 0.10 0.09 0.08 0.07 0.06 0.06 0.07 0.08 0.08 0.09 0.10 0.11 0.12 0.13 0.15 0.16 0.15 0.16 0.15 0.14 0.13 0.14 0.16 0.18 0.21 0.27 0.37 0.51 0.60 0.69 0.77 0.68 0.56
0.21 0.13 0.12 0.10 0.09 0.09 0.10 0.10 0.10 0.09 0.10 0.10 0.09 0.07 0.07 0.07 0.07 0.08 0.09 0.08 0.09 0.11 0.12 0.14 0.16 0.16 0.15 0.15 0.16 0.15 0.15 0.15 0.16 0.19 0.21 0.25 0.31 0.37 0.42 0.49 0.62 0.75 0.67 0.60
0.18 0.12 0.14 0.10 0.06 0.05 0.06 0.08 0.08 0.08 0.07 0.08 0.08 0.07 0.05 0.06 0.08 0.09 0.10 0.09 0.10 0.11 0.12 0.15 0.18 0.17 0.16 0.17 0.17 0.17 0.17 0.18 0.20 0.22 0.24 0.27 0.34 0.41 0.46 0.48 0.52 0.52 0.56 0.59
0.09 0.08 0.08 0.07 0.06 0.05 0.04 0.04 0.05 0.07 0.06 0.06 0.06 0.06 0.05 0.05 0.07 0.10 0.12 0.10 0.10 0.11 0.13 0.16 0.18 0.20 0.18 0.18 0.18 0.19 0.20 0.21 0.24 0.25 0.25 0.27 0.32 0.40 0.47 0.51 0.53 0.51 0.52 0.54
0.05 0.07 0.07 0.05 0.05 0.04 0.03 0.03 0.04 0.05 0.05 0.05 0.06 0.06 0.05 0.04 0.06 0.10 0.11 0.11 0.11 0.11 0.14 0.17 0.19 0.22 0.21 0.19 0.20 0.21 0.22 0.26 0.28 0.28 0.28 0.30 0.35 0.40 0.46 0.51 0.56 0.57 0.57 0.59
0.05 0.06 0.06 0.04 0.05 0.04 0.04 0.04 0.05 0.05 0.05 0.06 0.06 0.06 0.06 0.06 0.06 0.09 0.11 0.12 0.14 0.13 0.14 0.17 0.19 0.23 0.24 0.23 0.23 0.24 0.25 0.28 0.31 0.33 0.32 0.34 0.38 0.43 0.46 0.49 0.50 0.53 0.57 0.70
0.07 0.06 0.06 0.06 0.06 0.06 0.05 0.05 0.06 0.06 0.06 0.06 0.06 0.06 0.06 0.06 0.07 0.09 0.13 0.15 0.16 0.16 0.16 0.16 0.17 0.21 0.25 0.26 0.27 0.27 0.27 0.34 0.36 0.38 0.37 0.39 0.42 0.46 0.49 0.53 0.53 0.53 0.53 0.58
0.14 0.10 0.08 0.08 0.07 0.07 0.06 0.06 0.06 0.07 0.08 0.07 0.07 0.07 0.07 0.07 0.07 0.09 0.13 0.16 0.18 0.18 0.16 0.15 0.16 0.20 0.25 0.27 0.29 0.31 0.31 0.34 0.40 0.41 0.40 0.43 0.47 0.51 0.54 0.59 0.57 0.53 0.48 0.49
0.15 0.13 0.12 0.13 0.13 0.11 0.08 0.07 0.07 0.08 0.09 0.09 0.08 0.08 0.09 0.09 0.09 0.11 0.16 0.18 0.21 0.21 0.18 0.16 0.17 0.21 0.24 0.26 0.30 0.32 0.34 0.36 0.41 0.43 0.46 0.49 0.53 0.56 0.59 0.61 0.57 0.53 0.50 0.53
0.13 0.13 0.13 0.13 0.14 0.16 0.13 0.10 0.09 0.09 0.10 0.10 0.11 0.10 0.10 0.11 0.11 0.14 0.19 0.23 0.25 0.24 0.21 0.20 0.22 0.23 0.24 0.29 0.36 0.33 0.36 0.41 0.46 0.48 0.50 0.55 0.58 0.55 0.57 0.60 0.58 0.53 0.54 0.55
0.14 0.14 0.15 0.14 0.14 0.16 0.16 0.12 0.10 0.10 0.10 0.12 0.13 0.13 0.13 0.13 0.15 0.18 0.22 0.25 0.25 0.25 0.24 0.26 0.25 0.26 0.28 0.33 0.38 0.36 0.39 0.44 0.51 0.54 0.55 0.55 0.59 0.59 0.58 0.61 0.61 0.58 0.55 0.53
0.18 0.18 0.18 0.18 0.16 0.14 0.16 0.16 0.15 0.14 0.13 0.14 0.16 0.17 0.18 0.19 0.19 0.20 0.25 0.26 0.25 0.26 0.27 0.30 0.30 0.32 0.37 0.40 0.42 0.41 0.44 0.48 0.54 0.59 0.61 0.61 0.63 0.62 0.62 0.63 0.64 0.59 0.55 0.54
0.23 0.23 0.23 0.22 0.20 0.17 0.17 0.19 0.20 0.21 0.19 0.18 0.19 0.21 0.23 0.23 0.21 0.20 0.23 0.29 0.31 0.34 0.32 0.30 0.33 0.39 0.43 0.46 0.43 0.43 0.46 0.49 0.56 0.61 0.63 0.66 0.68 0.69 0.67 0.66 0.65 0.60 0.56 0.55
0.30 0.29 0.29 0.28 0.26 0.26 0.24 0.24 0.27 0.29 0.28 0.26 0.27 0.28 0.29 0.28 0.26 0.27 0.28 0.30 0.34 0.38 0.37 0.36 0.41 0.47 0.50 0.48 0.46 0.47 0.50 0.54 0.59 0.66 0.68 0.70 0.72 0.71 0.71 0.69 0.65 0.62 0.61 0.60
0.34 0.34 0.34 0.32 0.30 0.30 0.31 0.31 0.32 0.34 0.34 0.35 0.35 0.36 0.36 0.35 0.31 0.31 0.36 0.40 0.41 0.43 0.42 0.43 0.48 0.52 0.56 0.53 0.52 0.54 0.59 0.62 0.67 0.73 0.73 0.74 0.75 0.73 0.71 0.71 0.69 0.63 0.60 0.59
0.37 0.36 0.35 0.34 0.34 0.37 0.41 0.40 0.39 0.38 0.37 0.39 0.39 0.39 0.41 0.42 0.43 0.41 0.42 0.44 0.46 0.47 0.46 0.47 0.51 0.57 0.58 0.59 0.59 0.61 0.65 0.70 0.79 0.85 0.81 0.78 0.76 0.75 0.72 0.71 0.68 0.64 0.62 0.60
0.40 0.41 0.42 0.43 0.44 0.46 0.48 0.47 0.47 0.46 0.44 0.43 0.42 0.43 0.45 0.45 0.45 0.46 0.47 0.47 0.48 0.51 0.50 0.50 0.52 0.58 0.63 0.65 0.65 0.66 0.71 0.78 0.86 0.85 0.78 0.75 0.75 0.75 0.74 0.72 0.66 0.62 0.61 0.60
0.42 0.43 0.44 0.44 0.45 0.49 0.53 0.54 0.54 0.55 0.54 0.51 0.51 0.51 0.51 0.50 0.49 0.49 0.49 0.48 0.48 0.51 0.55 0.58 0.61 0.66 0.72 0.73 0.73 0.74 0.78 0.81 0.83 0.85 0.83 0.80 0.78 0.76 0.73 0.71 0.66 0.64 0.62 0.59

GEFSNGP_prec_meanprecacc_186.txt.gz
Total_Precipitation_Accumulation
0.24 0.19 0.23 0.26 0.23 0.27 0.40 0.39 0.31 0.10 0.06 0.08 0.09 0.08 0.08 0.08 0.08 0.08 0.07 0.07 0.06 0.06 0.08 0.11 0.13 0.17 0.21 0.23 0.22 0.21 0.26 0.37 0.51 0.61 0.71 0.80 0.85 0.88 0.90 0.90 0.82 0.81 0.81 0.79
0.25 0.14 0.20 0.21 0.15 0.15 0.16 0.16 0.14 0.07 0.05 0.03 0.05 0.06 0.07 0.08 0.09 0.10 0.09 0.08 0.07 0.06 0.07 0.08 0.10 0.13 0.18 0.22 0.20 0.18 0.20 0.24 0.37 0.51 0.64 0.74 0.81 0.90 0.92 0.94 0.94 0.88 0.83 0.78
0.46 0.17 0.36 0.40 0.16 0.12 0.12 0.12 0.12 0.14 0.11 0.06 0.04 0.05 0.08 0.10 0.11 0.12 0.11 0.10 0.08 0.07 0.07 0.08 0.08 0.10 0.16 0.20 0.21 0.19 0.18 0.20 0.27 0.37 0.52 0.63 0.73 0.83 0.95 0.96 0.95 0.94 0.85 0.78
0.79 0.55 0.74 0.33 0.12 0.11 0.13 0.15 0.15 0.16 0.13 0.09 0.06 0.06 0.08 0.12 0.15 0.12 0.11 0.10 0.09 0.07 0.07 0.08 0.07 0.08 0.14 0.17 0.20 0.21 0.19 0.18 0.21 0.27 0.38 0.52 0.67 0.76 0.87 0.97 0.97 0.91 0.86 0.80
1.14 0.82 0.42 0.14 0.11 0.16 0.18 0.19 0.18 0.15 0.11 0.07 0.04 0.04 0.07 0.08 0.11 0.12 0.11 0.11 0.09 0.08 0.08 0.08 0.07 0.08 0.11 0.13 0.17 0.18 0.17 0.17 0.17 0.20 0.29 0.43 0.56 0.68 0.78 0.90 0.94 0.91 0.84 0.76
1.24 0.90 0.39 0.15 0.10 0.11 0.15 0.23 0.16 0.14 0.13 0.10 0.08 0.10 0.09 0.09 0.09 0.10 0.09 0.09 0.09 0.08 0.09 0.07 0.07 0.09 0.11 0.11 0.13 0.15 0.15 0.15 0.15 0.17 0.22 0.33 0.45 0.57 0.72 0.82 0.89 0.89 0.85 0.76
0.92 0.73 0.31 0.14 0.11 0.11 0.26 0.31 0.17 0.15 0.15 0.13 0.13 0.13 0.11 0.08 0.08 0.10 0.09 0.09 0.10 0.09 0.09 0.08 0.08 0.11 0.15 0.12 0.12 0.15 0.16 0.15 0.13 0.14 0.17 0.25 0.40 0.53 0.69 0.80 0.88 0.87 0.81 0.77
0.59 0.70 0.37 0.15 0.15 0.26 0.29 0.18 0.15 0.13 0.12 0.12 0.10 0.08 0.06 0.06 0.08 0.09 0.09 0.09 0.11 0.12 0.10 0.09 0.10 0.13 0.17 0.15 0.15 0.16 0.16 0.15 0.14 0.13 0.16 0.23 0.38 0.51 0.63 0.77 0.88 0.89 0.82 0.81
0.40 0.30 0.18 0.17 0.19 0.21 0.18 0.16 0.14 0.13 0.10 0.09 0.09 0.07 0.06 0.06 0.07 0.08 0.09 0.09 0.12 0.14 0.12 0.12 0.13 0.16 0.18 0.18 0.18 0.17 0.15 0.15 0.15 0.15 0.17 0.22 0.33 0.48 0.66 0.74 0.84 0.90 0.80 0.77
0.28 0.16 0.13 0.12 0.14 0.15 0.15 0.14 0.12 0.12 0.11 0.10 0.09 0.08 0.07 0.06 0.06 0.07 0.09 0.10 0.11 0.13 0.14 0.15 0.17 0.19 0.19 0.20 0.21 0.17 0.16 0.15 0.16 0.19 0.22 0.24 0.31 0.42 0.59 0.71 0.80 0.90 0.82 0.71
0.23 0.14 0.12 0.10 0.10 0.10 0.11 0.10 0.10 0.09 0.10 0.10 0.09 0.07 0.07 0.07 0.07 0.09 0.10 0.10 0.11 0.12 0.14 0.18 0.21 0.21 0.20 0.21 0.22 0.19 0.18 0.17 0.18 0.22 0.26 0.29 0.35 0.42 0.49 0.59 0.74 0.88 0.81 0.74
0.20 0.13 0.15 0.11 0.07 0.05 0.06 0.08 0.08 0.08 0.07 0.08 0.08 0.07 0.05 0.06 0.08 0.10 0.12 0.10 0.11 0.12 0.13 0.16 0.21 0.22 0.20 0.20 0.21 0.21 0.21 0.20 0.22 0.26 0.27 0.30 0.38 0.46 0.53 0.57 0.62 0.64 0.70 0.75
0.11 0.10 0.09 0.08 0.07 0.05 0.04 0.05 0.06 0.07 0.06 0.06 0.06 0.06 0.05 0.06 0.08 0.12 0.13 0.11 0.10 0.12 0.14 0.17 0.20 0.22 0.21 0.21 0.22 0.23 0.24 0.24 0.27 0.28 0.28 0.30 0.36 0.45 0.55 0.60 0.63 0.62 0.64 0.68
0.06 0.08 0.08 0.06 0.06 0.04 0.04 0.03 0.04 0.05 0.05 0.05 0.06 0.06 0.05 0.06 0.07 0.11 0.12 0.12 0.12 0.12 0.14 0.17 0.21 0.24 0.22 0.22 0.24 0.25 0.27 0.30 0.33 0.32 0.31 0.33 0.38 0.45 0.54 0.61 0.67 0.68 0.70 0.73
0.06 0.07 0.07 0.05 0.05 0.04 0.04 0.04 0.05 0.05 0.05 0.06 0.06 0.07 0.07 0.07 0.07 0.10 0.12 0.13 0.15 0.14 0.15 0.17 0.20 0.24 0.25 0.25 0.26 0.27 0.28 0.32 0.35 0.37 0.36 0.36 0.41 0.47 0.53 0.58 0.61 0.64 0.70 0.86
0.07 0.06 0.06 0.06 0.07 0.06 0.05 0.05 0.06 0.06 0.07 0.06 0.07 0.06 0.07 0.08 0.08 0.11 0.14 0.16 0.18 0.17 0.16 0.16 0.17 0.22 0.27 0.30 0.30 0.29 0.29 0.37 0.41 0.42 0.40 0.41 0.45 0.50 0.56 0.61 0.62 0.64 0.66 0.73
0.15 0.11 0.08 0.08 0.08 0.07 0.06 0.06 0.06 0.07 0.08 0.08 0.08 0.08 0.08 0.09 0.08 0.10 0.14 0.17 0.19 0.19 0.16 0.16 0.16 0.20 0.26 0.29 0.32 0.34 0.33 0.36 0.43 0.43 0.43 0.46 0.50 0.55 0.59 0.66 0.66 0.63 0.59 0.62
0.16 0.14 0.12 0.13 0.13 0.12 0.08 0.07 0.07 0.08 0.09 0.09 0.09 0.09 0.10 0.11 0.10 0.12 0.16 0.19 0.21 0.22 0.18 0.16 0.17 0.22 0.26 0.28 0.32 0.35 0.37 0.39 0.43 0.45 0.48 0.52 0.57 0.59 0.63 0.68 0.65 0.64 0.63 0.67
0.13 0.13 0.13 0.13 0.14 0.16 0.13 0.10 0.09 0.09 0.10 0.11 0.12 0.12 0.12 0.12 0.12 0.15 0.20 0.23 0.25 0.25 0.21 0.20 0.22 0.24 0.26 0.30 0.38 0.36 0.39 0.44 0.48 0.50 0.52 0.58 0.62 0.58 0.62 0.66 0.66 0.64 0.65 0.66
0.14 0.14 0.15 0.14 0.14 0.16 0.16 0.12 0.10 0.11 0.11 0.13 0.15 0.14 0.14 0.14 0.16 0.19 0.23 0.25 0.25 0.25 0.24 0.26 0.26 0.27 0.30 0.35 0.40 0.39 0.42 0.47 0.54 0.57 0.57 0.58 0.61 0.63 0.63 0.68 0.71 0.69 0.65 0.64
0.18 0.18 0.18 0.18 0.16 0.14 0.16 0.16 0.16 0.15 0.14 0.15 0.18 0.19 0.20 0.20 0.20 0.21 0.26 0.27 0.26 0.27 0.28 0.30 0.31 0.34 0.39 0.42 0.45 0.43 0.46 0.50 0.57 0.62 0.64 0.64 0.65 0.66 0.66 0.70 0.73 0.69 0.65 0.64
0.24 0.24 0.24 0.23 0.20 0.18 0.18 0.20 0.21 0.22 0.20 0.20 0.21 0.22 0.25 0.24 0.21 0.21 0.23 0.29 0.31 0.34 0.32 0.31 0.35 0.41 0.46 0.49 0.46 0.46 0.48 0.51 0.58 0.64 0.66 0.68 0.71 0.72 0.71 0.71 0.72 0.68 0.65 0.64
0.31 0.30 0.30 0.28 0.27 0.26 0.24 0.25 0.28 0.30 0.29 0.28 0.29 0.30 0.30 0.29 0.27 0.28 0.29 0.30 0.34 0.39 0.39 0.38 0.43 0.49 0.54 0.52 0.49 0.49 0.52 0.56 0.62 0.68 0.70 0.72 0.74 0.73 0.74 0.73 0.71 0.69 0.68 0.67
0.35 0.34 0.34 0.33 0.31 0.31 0.32 0.32 0.33 0.35 0.36 0.37 0.37 0.37 0.38 0.36 0.32 0.32 0.37 0.41 0.42 0.45 0.44 0.45 0.50 0.55 0.59 0.57 0.55 0.56 0.61 0.64 0.69 0.75 0.75 0.76 0.77 0.76 0.73 0.74 0.73 0.69 0.66 0.66
0.38 0.37 0.35 0.34 0.34 0.37 0.41 0.41 0.40 0.39 0.39 0.41 0.40 0.40 0.42 0.44 0.44 0.42 0.43 0.46 0.47 0.49 0.47 0.49 0.53 0.59 0.62 0.63 0.62 0.64 0.68 0.72 0.82 0.88 0.84 0.80 0.78 0.78 0.75 0.74 0.72 0.70 0.68 0.68
0.41 0.42 0.43 0.44 0.46 0.48 0.49 0.48 0.48 0.47 0.46 0.44 0.43 0.44 0.46 0.47 0.47 0.48 0.49 0.49 0.49 0.52 0.51 0.52 0.54 0.60 0.66 0.69 0.68 0.68 0.74 0.81 0.89 0.88 0.81 0.78 0.77 0.78 0.77 0.75 0.71 0.68 0.68 0.68
0.42 0.43 0.44 0.44 0.46 0.50 0.54 0.56 0.56 0.57 0.55 0.53 0.53 0.52 0.52 0.52 0.51 0.51 0.51 0.50 0.50 0.53 0.57 0.60 0.63 0.68 0.74 0.76 0.76 0.77 0.80 0.84 0.86 0.88 0.86 0.83 0.81 0.79 0.76 0.74 0.72 0.70 0.70 0.68

GEFSNGP_prec_meanprecacc_192.txt.gz
Total_Precipitation_Accumulation
0.26 0.21 0.25 0.28 0.24 0.28 0.41 0.41 0.32 0.10 0.06 0.08 0.09 0.08 0.08 0.08 0.08 0.08 0.07 0.07 0.06 0.06 0.09 0.11 0.13 0.18 0.22 0.27 0.28 0.27 0.28 0.39 0.54 0.64 0.75 0.83 0.88 0.90 0.92 0.92 0.85 0.84 0.84 0.82
0.27 0.15 0.21 0.23 0.16 0.16 0.17 0.17 0.15 0.08 0.05 0.04 0.05 0.06 0.07 0.08 0.09 0.10 0.09 0.09 0.07 0.06 0.07 0.08 0.10 0.14 0.19 0.23 0.24 0.25 0.26 0.28 0.41 0.57 0.70 0.78 0.84 0.93 0.94 0.96 0.96 0.91 0.87 0.82
0.51 0.18 0.39 0.43 0.17 0.13 0.12 0.12 0.13 0.15 0.13 0.07 0.04 0.05 0.08 0.10 0.12 0.13 0.11 0.10 0.08 0.07 0.07 0.08 0.09 0.11 0.16 0.21 0.22 0.21 0.21 0.23 0.30 0.40 0.57 0.68 0.77 0.87 0.99 1.00 0.98 0.97 0.89 0.81
0.85 0.58 0.78 0.35 0.12 0.11 0.13 0.16 0.16 0.17 0.14 0.10 0.06 0.06 0.08 0.13 0.15 0.12 0.12 0.11 0.09 0.08 0.08 0.09 0.08 0.09 0.14 0.17 0.20 0.21 0.19 0.19 0.22 0.28 0.41 0.56 0.71 0.80 0.91 1.01 1.01 0.95 0.90 0.83
1.20 0.87 0.44 0.14 0.11 0.16 0.18 0.20 0.18 0.16 0.12 0.08 0.04 0.04 0.07 0.08 0.11 0.12 0.11 0.11 0.10 0.09 0.10 0.09 0.07 0.08 0.12 0.13 0.17 0.18 0.18 0.18 0.17 0.20 0.30 0.44 0.58 0.71 0.81 0.93 0.97 0.94 0.87 0.80
1.32 0.96 0.42 0.16 0.10 0.11 0.15 0.24 0.16 0.14 0.14 0.11 0.08 0.10 0.09 0.09 0.09 0.10 0.10 0.10 0.10 0.10 0.10 0.08 0.07 0.09 0.12 0.12 0.14 0.15 0.16 0.15 0.15 0.17 0.22 0.33 0.46 0.59 0.74 0.86 0.92 0.92 0.90 0.82
0.99 0.79 0.34 0.15 0.11 0.11 0.27 0.32 0.17 0.15 0.15 0.13 0.14 0.14 0.11 0.08 0.08 0.10 0.10 0.10 0.11 0.11 0.11 0.09 0.08 0.11 0.15 0.13 0.13 0.16 0.16 0.15 0.13 0.14 0.18 0.26 0.40 0.53 0.70 0.82 0.91 0.91 0.86 0.85
0.63 0.75 0.40 0.16 0.16 0.27 0.31 0.19 0.16 0.14 0.12 0.12 0.11 0.08 0.07 0.07 0.08 0.09 0.09 0.10 0.13 0.13 0.12 0.11 0.11 0.14 0.18 0.16 0.15 0.17 0.16 0.15 0.14 0.14 0.16 0.24 0.39 0.52 0.65 0.79 0.92 0.93 0.87 0.89
0.43 0.33 0.20 0.18 0.21 0.22 0.20 0.18 0.15 0.14 0.11 0.10 0.09 0.08 0.06 0.06 0.07 0.08 0.09 0.10 0.13 0.15 0.14 0.13 0.14 0.17 0.20 0.19 0.19 0.17 0.16 0.15 0.15 0.16 0.18 0.23 0.34 0.49 0.68 0.78 0.88 0.94 0.86 0.85
0.29 0.17 0.14 0.13 0.15 0.16 0.16 0.15 0.13 0.12 0.12 0.10 0.09 0.08 0.07 0.06 0.07 0.08 0.10 0.11 0.12 0.14 0.15 0.17 0.18 0.20 0.20 0.21 0.21 0.18 0.17 0.16 0.16 0.19 0.23 0.25 0.33 0.44 0.62 0.77 0.86 0.95 0.88 0.79
0.24 0.15 0.13 0.11 0.10 0.10 0.11 0.11 0.10 0.10 0.10 0.10 0.09 0.07 0.07 0.07 0.08 0.10 0.11 0.11 0.12 0.13 0.15 0.19 0.23 0.22 0.21 0.22 0.23 0.20 0.19 0.18 0.18 0.22 0.26 0.30 0.37 0.45 0.55 0.65 0.81 0.96 0.88 0.81
0.23 0.15 0.16 0.11 0.07 0.06 0.07 0.08 0.09 0.09 0.08 0.08 0.08 0.07 0.06 0.07 0.09 0.11 0.13 0.11 0.11 0.13 0.14 0.17 0.22 0.23 0.22 0.22 0.23 0.23 0.22 0.21 0.23 0.27 0.28 0.31 0.40 0.50 0.59 0.63 0.70 0.72 0.78 0.83
0.14 0.12 0.11 0.09 0.07 0.05 0.05 0.05 0.06 0.07 0.06 0.06 0.06 0.06 0.06 0.07 0.09 0.13 0.13 0.11 0.11 0.12 0.14 0.17 0.21 0.23 0.23 0.24 0.26 0.26 0.26 0.26 0.28 0.30 0.29 0.31 0.37 0.49 0.61 0.67 0.73 0.73 0.73 0.77
0.07 0.09 0.10 0.07 0.07 0.05 0.04 0.04 0.04 0.05 0.05 0.05 0.06 0.07 0.06 0.07 0.08 0.12 0.13 0.12 0.12 0.12 0.14 0.17 0.21 0.25 0.24 0.25 0.28 0.29 0.29 0.32 0.35 0.34 0.32 0.34 0.40 0.49 0.60 0.70 0.78 0.81 0.82 0.84
0.06 0.07 0.08 0.06 0.05 0.05 0.04 0.05 0.05 0.06 0.06 0.06 0.07 0.08 0.08 0.08 0.08 0.10 0.12 0.13 0.15 0.14 0.15 0.17 0.20 0.25 0.26 0.27 0.28 0.29 0.31 0.34 0.38 0.40 0.37 0.38 0.43 0.52 0.60 0.66 0.71 0.76 0.82 0.97
0.08 0.07 0.06 0.06 0.07 0.06 0.05 0.05 0.06 0.07 0.07 0.08 0.08 0.07 0.08 0.09 0.09 0.11 0.14 0.16 0.18 0.17 0.16 0.16 0.18 0.23 0.28 0.31 0.31 0.31 0.31 0.39 0.43 0.44 0.43 0.44 0.48 0.54 0.61 0.68 0.70 0.73 0.75 0.82
0.16 0.11 0.09 0.08 0.08 0.07 0.06 0.06 0.07 0.08 0.09 0.09 0.09 0.09 0.09 0.10 0.09 0.11 0.15 0.17 0.19 0.19 0.17 0.16 0.17 0.21 0.27 0.30 0.33 0.35 0.35 0.38 0.45 0.45 0.45 0.49 0.54 0.59 0.65 0.72 0.72 0.71 0.68 0.71
0.17 0.15 0.13 0.14 0.14 0.12 0.09 0.07 0.08 0.10 0.11 0.11 0.10 0.10 0.11 0.11 0.11 0.13 0.17 0.19 0.22 0.22 0.18 0.17 0.18 0.23 0.27 0.29 0.33 0.36 0.39 0.41 0.45 0.47 0.50 0.55 0.60 0.63 0.68 0.73 0.71 0.70 0.70 0.75
0.14 0.14 0.13 0.14 0.15 0.17 0.14 0.11 0.10 0.10 0.11 0.12 0.13 0.13 0.13 0.13 0.13 0.15 0.21 0.23 0.26 0.25 0.22 0.21 0.23 0.26 0.27 0.31 0.39 0.37 0.41 0.46 0.51 0.52 0.54 0.61 0.65 0.62 0.66 0.71 0.72 0.71 0.71 0.73
0.15 0.14 0.15 0.15 0.15 0.17 0.17 0.13 0.11 0.12 0.12 0.15 0.16 0.15 0.15 0.16 0.17 0.20 0.24 0.26 0.26 0.26 0.25 0.27 0.27 0.29 0.31 0.36 0.41 0.40 0.44 0.49 0.56 0.59 0.59 0.60 0.64 0.66 0.67 0.72 0.76 0.75 0.72 0.71
0.19 0.18 0.19 0.19 0.17 0.15 0.17 0.17 0.17 0.16 0.16 0.17 0.20 0.21 0.22 0.22 0.21 0.22 0.27 0.28 0.26 0.27 0.29 0.31 0.32 0.36 0.40 0.44 0.46 0.45 0.48 0.51 0.58 0.64 0.66 0.66 0.68 0.69 0.70 0.74 0.78 0.75 0.73 0.72
0.25 0.24 0.24 0.23 0.21 0.19 0.19 0.21 0.23 0.23 0.22 0.21 0.23 0.24 0.27 0.26 0.23 0.22 0.24 0.30 0.32 0.35 0.34 0.32 0.36 0.43 0.48 0.51 0.48 0.47 0.49 0.52 0.60 0.66 0.68 0.70 0.73 0.75 0.74 0.75 0.77 0.74 0.72 0.72
0.32 0.31 0.30 0.29 0.28 0.27 0.25 0.26 0.29 0.32 0.31 0.30 0.31 0.32 0.32 0.30 0.28 0.30 0.30 0.31 0.35 0.40 0.40 0.39 0.45 0.52 0.56 0.54 0.51 0.51 0.53 0.57 0.63 0.70 0.72 0.74 0.75 0.75 0.76 0.76 0.75 0.74 0.74 0.75
0.36 0.36 0.35 0.34 0.32 0.32 0.33 0.34 0.35 0.36 0.38 0.38 0.38 0.39 0.39 0.37 0.33 0.33 0.38 0.41 0.43 0.47 0.46 0.47 0.52 0.58 0.62 0.59 0.57 0.58 0.63 0.65 0.70 0.77 0.77 0.77 0.79 0.78 0.76 0.77 0.76 0.73 0.71 0.73
0.39 0.38 0.37 0.35 0.36 0.39 0.43 0.43 0.41 0.41 0.40 0.42 0.41 0.41 0.43 0.45 0.46 0.43 0.44 0.47 0.48 0.50 0.49 0.51 0.56 0.61 0.64 0.65 0.64 0.66 0.69 0.73 0.83 0.89 0.85 0.82 0.80 0.80 0.77 0.77 0.75 0.73 0.73 0.74
0.42 0.43 0.45 0.46 0.47 0.49 0.51 0.50 0.50 0.49 0.47 0.46 0.44 0.45 0.47 0.48 0.48 0.49 0.51 0.50 0.51 0.54 0.53 0.54 0.56 0.62 0.68 0.70 0.69 0.70 0.75 0.82 0.90 0.89 0.82 0.80 0.79 0.80 0.79 0.77 0.74 0.72 0.72 0.74
0.43 0.44 0.46 0.46 0.47 0.52 0.56 0.58 0.58 0.58 0.57 0.55 0.54 0.53 0.53 0.53 0.52 0.52 0.53 0.51 0.52 0.54 0.58 0.62 0.65 0.70 0.76 0.77 0.78 0.78 0.82 0.85 0.87 0.88 0.87 0.84 0.82 0.81 0.79 0.77 0.75 0.74 0.74 0.73

GEFSNGP_prec_meanprecacc_198.txt.gz
Total_Precipitation_Accumulation
0.27 0.21 0.26 0.29 0.25 0.28 0.43 0.42 0.33 0.10 0.06 0.09 0.09 0.08 0.08 0.08 0.08 0.08 0.07 0.07 0.06 0.06 0.09 0.11 0.13 0.18 0.22 0.27 0.29 0.28 0.29 0.40 0.55 0.65 0.76 0.84 0.89 0.91 0.93 0.94 0.88 0.88 0.88 0.87
0.30 0.16 0.22 0.24 0.16 0.16 0.18 0.17 0.16 0.09 0.06 0.04 0.05 0.06 0.07 0.08 0.09 0.10 0.09 0.09 0.07 0.06 0.07 0.08 0.10 0.14 0.19 0.23 0.25 0.27 0.30 0.31 0.43 0.59 0.71 0.80 0.86 0.94 0.95 0.97 0.97 0.94 0.90 0.86
0.54 0.20 0.42 0.46 0.18 0.13 0.13 0.13 0.14 0.16 0.13 0.07 0.04 0.05 0.08 0.10 0.12 0.13 0.11 0.10 0.08 0.07 0.07 0.08 0.09 0.11 0.16 0.21 0.22 0.22 0.22 0.24 0.32 0.44 0.61 0.74 0.81 0.89 1.01 1.02 1.00 0.98 0.91 0.85
0.88 0.60 0.82 0.36 0.13 0.11 0.13 0.16 0.16 0.18 0.15 0.10 0.06 0.06 0.08 0.13 0.15 0.12 0.12 0.11 0.09 0.08 0.08 0.09 0.08 0.09 0.14 0.18 0.20 0.22 0.20 0.19 0.23 0.30 0.44 0.60 0.75 0.85 0.95 1.05 1.04 0.99 0.93 0.86
1.25 0.90 0.45 0.14 0.11 0.16 0.19 0.20 0.18 0.16 0.12 0.08 0.04 0.05 0.07 0.08 0.11 0.12 0.11 0.11 0.10 0.09 0.10 0.09 0.07 0.08 0.12 0.13 0.17 0.18 0.18 0.18 0.18 0.21 0.30 0.46 0.60 0.74 0.83 0.95 0.98 0.97 0.92 0.83
1.37 1.00 0.44 0.17 0.10 0.11 0.16 0.25 0.16 0.14 0.14 0.11 0.08 0.11 0.10 0.09 0.09 0.10 0.10 0.10 0.10 0.10 0.10 0.09 0.07 0.09 0.12 0.12 0.14 0.16 0.16 0.16 0.16 0.17 0.22 0.34 0.47 0.60 0.76 0.88 0.94 0.94 0.94 0.86
1.04 0.83 0.36 0.16 0.11 0.12 0.28 0.34 0.18 0.16 0.15 0.14 0.14 0.14 0.11 0.08 0.09 0.10 0.10 0.10 0.11 0.12 0.11 0.09 0.08 0.12 0.15 0.13 0.13 0.16 0.17 0.15 0.14 0.15 0.18 0.26 0.41 0.54 0.72 0.85 0.94 0.93 0.89 0.88
0.67 0.79 0.44 0.19 0.17 0.29 0.33 0.21 0.17 0.14 0.13 0.12 0.11 0.09 0.07 0.07 0.08 0.09 0.09 0.10 0.13 0.14 0.12 0.11 0.11 0.14 0.18 0.16 0.16 0.17 0.16 0.16 0.15 0.14 0.16 0.24 0.39 0.53 0.66 0.82 0.94 0.96 0.89 0.92
0.45 0.36 0.22 0.20 0.23 0.24 0.21 0.18 0.15 0.14 0.11 0.10 0.09 0.08 0.07 0.06 0.08 0.08 0.10 0.11 0.13 0.15 0.14 0.13 0.14 0.17 0.20 0.19 0.20 0.18 0.16 0.15 0.16 0.16 0.18 0.23 0.34 0.50 0.69 0.80 0.91 0.97 0.89 0.88
0.31 0.18 0.15 0.15 0.17 0.18 0.17 0.16 0.13 0.12 0.12 0.10 0.10 0.08 0.08 0.07 0.08 0.09 0.12 0.12 0.12 0.14 0.15 0.17 0.18 0.20 0.21 0.22 0.22 0.18 0.17 0.16 0.16 0.19 0.24 0.26 0.34 0.45 0.64 0.79 0.89 0.99 0.92 0.83
0.25 0.16 0.14 0.12 0.11 0.11 0.11 0.11 0.10 0.10 0.10 0.10 0.10 0.08 0.07 0.08 0.09 0.11 0.12 0.12 0.12 0.13 0.15 0.20 0.23 0.22 0.21 0.23 0.24 0.21 0.19 0.18 0.19 0.22 0.27 0.31 0.38 0.46 0.57 0.68 0.86 1.02 0.95 0.87
0.24 0.17 0.17 0.12 0.07 0.06 0.07 0.08 0.09 0.09 0.08 0.08 0.09 0.08 0.06 0.08 0.10 0.12 0.13 0.11 0.11 0.13 0.14 0.17 0.22 0.23 0.22 0.23 0.24 0.24 0.22 0.21 0.23 0.27 0.29 0.31 0.40 0.51 0.61 0.66 0.75 0.78 0.86 0.90
0.15 0.13 0.12 0.09 0.07 0.06 0.05 0.05 0.06 0.07 0.07 0.07 0.07 0.07 0.07 0.08 0.10 0.13 0.13 0.11 0.11 0.12 0.14 0.17 0.21 0.23 0.23 0.25 0.28 0.28 0.27 0.26 0.29 0.30 0.29 0.31 0.38 0.51 0.63 0.70 0.76 0.77 0.79 0.84
0.08 0.10 0.11 0.08 0.07 0.05 0.04 0.04 0.04 0.05 0.06 0.06 0.07 0.08 0.07 0.07 0.09 0.12 0.13 0.12 0.12 0.12 0.14 0.17 0.21 0.25 0.24 0.26 0.30 0.30 0.30 0.33 0.35 0.34 0.32 0.35 0.41 0.52 0.63 0.73 0.81 0.84 0.86 0.90
0.07 0.08 0.09 0.06 0.06 0.05 0.04 0.05 0.06 0.06 0.06 0.07 0.07 0.09 0.09 0.09 0.08 0.11 0.13 0.13 0.15 0.14 0.15 0.17 0.20 0.25 0.27 0.28 0.30 0.31 0.32 0.35 0.39 0.41 0.39 0.39 0.45 0.54 0.62 0.70 0.75 0.81 0.88 1.04
0.08 0.07 0.07 0.07 0.07 0.06 0.05 0.06 0.07 0.07 0.08 0.09 0.09 0.08 0.08 0.09 0.10 0.12 0.14 0.16 0.18 0.17 0.16 0.17 0.19 0.23 0.29 0.32 0.33 0.32 0.33 0.40 0.45 0.46 0.45 0.46 0.50 0.57 0.64 0.71 0.75 0.78 0.82 0.90
0.16 0.12 0.09 0.09 0.09 0.08 0.07 0.07 0.08 0.09 0.10 0.10 0.10 0.10 0.10 0.11 0.10 0.12 0.15 0.17 0.19 0.19 0.17 0.17 0.18 0.22 0.28 0.31 0.34 0.36 0.37 0.40 0.46 0.47 0.47 0.51 0.56 0.62 0.68 0.76 0.77 0.76 0.75 0.80
0.18 0.16 0.15 0.16 0.15 0.13 0.10 0.08 0.09 0.11 0.12 0.12 0.11 0.11 0.12 0.12 0.12 0.14 0.18 0.20 0.22 0.23 0.19 0.18 0.19 0.24 0.27 0.29 0.34 0.37 0.40 0.43 0.46 0.48 0.52 0.57 0.62 0.66 0.71 0.77 0.75 0.75 0.76 0.82
0.15 0.15 0.14 0.15 0.16 0.18 0.15 0.12 0.11 0.12 0.12 0.13 0.14 0.14 0.14 0.14 0.14 0.16 0.21 0.24 0.26 0.26 0.23 0.21 0.24 0.26 0.27 0.31 0.39 0.38 0.42 0.47 0.52 0.53 0.55 0.63 0.67 0.64 0.70 0.75 0.76 0.75 0.76 0.78
0.15 0.15 0.16 0.16 0.15 0.18 0.18 0.14 0.12 0.13 0.13 0.16 0.17 0.16 0.16 0.17 0.18 0.21 0.25 0.27 0.27 0.27 0.26 0.28 0.28 0.30 0.31 0.36 0.42 0.41 0.45 0.51 0.58 0.61 0.61 0.62 0.67 0.69 0.70 0.76 0.80 0.79 0.76 0.75
0.19 0.19 0.20 0.19 0.17 0.16 0.18 0.19 0.18 0.17 0.16 0.18 0.21 0.22 0.23 0.23 0.21 0.23 0.27 0.29 0.28 0.28 0.30 0.33 0.34 0.37 0.41 0.45 0.48 0.46 0.49 0.54 0.60 0.66 0.68 0.69 0.71 0.71 0.72 0.77 0.82 0.79 0.77 0.76
0.25 0.25 0.25 0.24 0.22 0.20 0.20 0.22 0.24 0.24 0.23 0.22 0.23 0.25 0.27 0.27 0.23 0.22 0.24 0.31 0.33 0.36 0.35 0.33 0.37 0.44 0.49 0.53 0.49 0.49 0.51 0.54 0.62 0.68 0.70 0.73 0.75 0.77 0.76 0.78 0.81 0.79 0.77 0.77
0.33 0.32 0.31 0.31 0.29 0.29 0.26 0.27 0.30 0.33 0.32 0.30 0.31 0.32 0.32 0.31 0.29 0.31 0.31 0.31 0.35 0.41 0.42 0.40 0.47 0.53 0.58 0.56 0.53 0.52 0.55 0.58 0.65 0.71 0.73 0.76 0.78 0.77 0.78 0.78 0.78 0.78 0.79 0.79
0.37 0.37 0.37 0.36 0.33 0.33 0.35 0.35 0.36 0.38 0.39 0.39 0.39 0.40 0.40 0.38 0.34 0.33 0.39 0.42 0.44 0.48 0.47 0.48 0.54 0.59 0.64 0.61 0.59 0.60 0.64 0.67 0.72 0.78 0.78 0.79 0.81 0.80 0.78 0.79 0.79 0.76 0.75 0.76
0.40 0.40 0.39 0.37 0.37 0.40 0.44 0.44 0.42 0.42 0.42 0.43 0.42 0.42 0.44 0.46 0.47 0.44 0.45 0.48 0.49 0.52 0.51 0.52 0.57 0.63 0.66 0.67 0.66 0.67 0.71 0.75 0.84 0.90 0.86 0.83 0.81 0.82 0.80 0.79 0.78 0.77 0.77 0.77
0.43 0.45 0.47 0.48 0.50 0.52 0.53 0.52 0.51 0.50 0.48 0.47 0.45 0.46 0.48 0.49 0.50 0.50 0.52 0.52 0.52 0.55 0.55 0.55 0.57 0.63 0.69 0.72 0.71 0.71 0.76 0.83 0.90 0.90 0.82 0.81 0.80 0.81 0.81 0.80 0.77 0.75 0.76 0.77
0.44 0.46 0.47 0.47 0.49 0.54 0.58 0.59 0.59 0.60 0.58 0.56 0.56 0.54 0.54 0.54 0.54 0.54 0.54 0.53 0.53 0.56 0.60 0.63 0.66 0.71 0.77 0.78 0.79 0.79 0.83 0.85 0.87 0.89 0.87 0.85 0.84 0.82 0.81 0.80 0.78 0.78 0.77 0.76

GEFSNGP_prec_meanprecacc_204.txt.gz
Total_Precipitation_Accumulation
0.28 0.22 0.27 0.30 0.26 0.30 0.45 0.44 0.34 0.11 0.07 0.09 0.09 0.09 0.08 0.08 0.08 0.08 0.07 0.07 0.06 0.06 0.09 0.11 0.13 0.18 0.22 0.27 0.29 0.28 0.29 0.40 0.56 0.66 0.76 0.84 0.89 0.91 0.94 0.94 0.88 0.88 0.89 0.88
0.31 0.16 0.23 0.25 0.17 0.16 0.19 0.18 0.17 0.09 0.06 0.04 0.05 0.07 0.08 0.08 0.09 0.10 0.09 0.09 0.07 0.06 0.07 0.08 0.10 0.14 0.19 0.23 0.25 0.27 0.30 0.31 0.43 0.59 0.71 0.80 0.86 0.95 0.96 0.98 0.97 0.94 0.91 0.87
0.56 0.21 0.43 0.47 0.19 0.13 0.13 0.13 0.14 0.16 0.14 0.07 0.04 0.05 0.08 0.10 0.12 0.13 0.12 0.10 0.09 0.07 0.07 0.08 0.09 0.11 0.16 0.21 0.22 0.22 0.22 0.24 0.32 0.44 0.62 0.75 0.81 0.90 1.02 1.03 1.01 0.99 0.92 0.86
0.90 0.62 0.84 0.37 0.13 0.11 0.13 0.16 0.16 0.18 0.15 0.10 0.06 0.06 0.08 0.13 0.15 0.13 0.12 0.11 0.09 0.08 0.08 0.09 0.08 0.09 0.14 0.18 0.20 0.22 0.20 0.19 0.23 0.30 0.45 0.61 0.77 0.86 0.96 1.06 1.07 1.02 0.95 0.87
1.28 0.92 0.47 0.15 0.11 0.17 0.19 0.21 0.18 0.16 0.12 0.08 0.04 0.05 0.07 0.08 0.11 0.12 0.11 0.11 0.10 0.09 0.10 0.09 0.07 0.08 0.12 0.13 0.17 0.18 0.18 0.18 0.18 0.21 0.30 0.46 0.61 0.75 0.85 0.96 1.00 0.99 0.94 0.86
1.42 1.04 0.46 0.18 0.11 0.11 0.16 0.26 0.17 0.15 0.14 0.11 0.09 0.11 0.10 0.09 0.09 0.10 0.10 0.10 0.10 0.10 0.11 0.09 0.07 0.09 0.12 0.12 0.14 0.16 0.16 0.16 0.16 0.17 0.22 0.34 0.47 0.61 0.77 0.88 0.95 0.96 0.96 0.88
1.09 0.87 0.39 0.18 0.12 0.12 0.30 0.36 0.19 0.16 0.16 0.14 0.15 0.15 0.12 0.09 0.09 0.10 0.10 0.10 0.11 0.12 0.11 0.09 0.08 0.12 0.15 0.13 0.13 0.16 0.17 0.15 0.14 0.15 0.18 0.27 0.41 0.54 0.72 0.85 0.94 0.94 0.90 0.90
0.70 0.83 0.47 0.20 0.18 0.31 0.36 0.22 0.18 0.15 0.13 0.13 0.12 0.09 0.08 0.08 0.09 0.09 0.10 0.10 0.13 0.14 0.12 0.11 0.11 0.14 0.18 0.16 0.16 0.17 0.16 0.16 0.15 0.14 0.17 0.24 0.39 0.53 0.66 0.82 0.95 0.97 0.90 0.93
0.47 0.39 0.25 0.21 0.25 0.26 0.22 0.19 0.16 0.14 0.12 0.10 0.10 0.08 0.07 0.07 0.08 0.09 0.10 0.11 0.13 0.15 0.14 0.13 0.15 0.17 0.20 0.19 0.20 0.18 0.16 0.15 0.16 0.16 0.18 0.24 0.35 0.50 0.70 0.80 0.92 0.98 0.90 0.90
0.33 0.20 0.15 0.15 0.17 0.19 0.19 0.17 0.14 0.13 0.12 0.11 0.10 0.08 0.08 0.07 0.08 0.10 0.12 0.12 0.13 0.14 0.15 0.17 0.18 0.20 0.21 0.22 0.22 0.18 0.17 0.16 0.16 0.20 0.24 0.26 0.34 0.45 0.65 0.80 0.91 1.01 0.94 0.86
0.27 0.18 0.15 0.13 0.11 0.11 0.12 0.12 0.11 0.10 0.10 0.11 0.10 0.08 0.08 0.08 0.09 0.11 0.13 0.12 0.13 0.13 0.15 0.20 0.23 0.22 0.21 0.24 0.24 0.21 0.19 0.18 0.19 0.23 0.28 0.31 0.38 0.46 0.58 0.70 0.90 1.07 0.99 0.91
0.26 0.19 0.20 0.14 0.08 0.06 0.07 0.09 0.09 0.09 0.08 0.08 0.09 0.08 0.07 0.08 0.10 0.12 0.13 0.11 0.11 0.13 0.14 0.17 0.22 0.24 0.23 0.24 0.25 0.24 0.23 0.22 0.23 0.28 0.29 0.32 0.41 0.51 0.61 0.68 0.77 0.81 0.90 0.96
0.16 0.14 0.13 0.11 0.08 0.06 0.05 0.05 0.07 0.08 0.07 0.07 0.07 0.07 0.07 0.08 0.10 0.13 0.14 0.11 0.11 0.12 0.14 0.17 0.21 0.23 0.23 0.26 0.28 0.28 0.28 0.27 0.29 0.31 0.30 0.31 0.39 0.51 0.64 0.71 0.77 0.80 0.82 0.89
0.08 0.10 0.11 0.09 0.08 0.06 0.05 0.04 0.05 0.06 0.06 0.06 0.07 0.08 0.08 0.08 0.09 0.12 0.13 0.12 0.12 0.12 0.14 0.17 0.21 0.25 0.25 0.26 0.30 0.31 0.31 0.34 0.36 0.35 0.33 0.35 0.42 0.53 0.64 0.75 0.82 0.86 0.89 0.95
0.07 0.09 0.09 0.07 0.06 0.05 0.05 0.06 0.07 0.07 0.07 0.08 0.08 0.09 0.09 0.09 0.09 0.11 0.13 0.14 0.15 0.14 0.15 0.17 0.20 0.25 0.27 0.28 0.31 0.32 0.33 0.36 0.40 0.41 0.40 0.40 0.45 0.54 0.64 0.72 0.77 0.83 0.91 1.08
0.09 0.08 0.07 0.08 0.08 0.07 0.06 0.06 0.07 0.08 0.10 0.10 0.09 0.09 0.09 0.10 0.10 0.12 0.15 0.16 0.18 0.17 0.16 0.17 0.19 0.23 0.29 0.32 0.33 0.33 0.33 0.41 0.46 0.48 0.46 0.47 0.51 0.58 0.66 0.74 0.77 0.81 0.85 0.94
0.17 0.13 0.10 0.10 0.09 0.08 0.07 0.08 0.08 0.10 0.11 0.11 0.11 0.11 0.11 0.11 0.10 0.12 0.16 0.18 0.20 0.19 0.17 0.17 0.18 0.22 0.28 0.31 0.35 0.37 0.37 0.41 0.47 0.49 0.48 0.52 0.57 0.63 0.70 0.78 0.79 0.79 0.79 0.84
0.19 0.17 0.16 0.17 0.16 0.14 0.10 0.08 0.09 0.11 0.12 0.13 0.13 0.12 0.12 0.13 0.12 0.14 0.18 0.20 0.23 0.23 0.19 0.18 0.19 0.24 0.28 0.30 0.35 0.38 0.41 0.44 0.47 0.50 0.53 0.58 0.64 0.68 0.74 0.80 0.78 0.78 0.79 0.86
0.16 0.16 0.15 0.16 0.17 0.18 0.16 0.12 0.11 0.12 0.13 0.14 0.15 0.15 0.14 0.14 0.14 0.17 0.22 0.24 0.27 0.26 0.23 0.22 0.25 0.27 0.28 0.32 0.40 0.39 0.43 0.48 0.53 0.54 0.57 0.64 0.68 0.66 0.72 0.78 0.79 0.78 0.79 0.82
0.16 0.16 0.17 0.17 0.16 0.19 0.19 0.15 0.13 0.13 0.14 0.16 0.18 0.17 0.17 0.17 0.18 0.21 0.25 0.28 0.28 0.28 0.27 0.29 0.29 0.31 0.32 0.37 0.44 0.42 0.46 0.52 0.59 0.62 0.63 0.64 0.68 0.70 0.72 0.78 0.82 0.82 0.79 0.79
0.20 0.20 0.21 0.20 0.18 0.17 0.19 0.19 0.19 0.18 0.17 0.18 0.22 0.22 0.23 0.23 0.22 0.23 0.28 0.30 0.28 0.29 0.31 0.33 0.34 0.38 0.43 0.47 0.49 0.48 0.51 0.56 0.62 0.68 0.70 0.71 0.73 0.74 0.74 0.79 0.84 0.82 0.81 0.80
0.26 0.26 0.26 0.25 0.23 0.20 0.20 0.22 0.24 0.25 0.23 0.23 0.24 0.25 0.28 0.27 0.23 0.22 0.25 0.31 0.33 0.36 0.36 0.34 0.38 0.45 0.51 0.55 0.51 0.50 0.52 0.56 0.63 0.70 0.72 0.75 0.78 0.80 0.79 0.80 0.83 0.81 0.79 0.80
0.34 0.33 0.32 0.31 0.30 0.29 0.27 0.28 0.31 0.33 0.32 0.31 0.32 0.33 0.33 0.31 0.29 0.31 0.32 0.31 0.36 0.42 0.43 0.41 0.48 0.55 0.60 0.57 0.54 0.53 0.56 0.59 0.66 0.73 0.75 0.78 0.80 0.80 0.81 0.81 0.80 0.80 0.81 0.82
0.38 0.38 0.38 0.36 0.34 0.34 0.35 0.35 0.36 0.38 0.39 0.40 0.40 0.40 0.41 0.39 0.34 0.34 0.39 0.43 0.45 0.49 0.49 0.49 0.55 0.61 0.65 0.63 0.60 0.61 0.65 0.68 0.72 0.79 0.79 0.80 0.83 0.82 0.80 0.81 0.81 0.78 0.77 0.78
0.41 0.41 0.39 0.38 0.38 0.41 0.45 0.44 0.43 0.43 0.42 0.44 0.43 0.43 0.45 0.47 0.48 0.45 0.45 0.49 0.50 0.53 0.51 0.53 0.58 0.64 0.67 0.68 0.67 0.68 0.72 0.75 0.85 0.91 0.87 0.84 0.83 0.83 0.82 0.81 0.80 0.78 0.79 0.80
0.45 0.46 0.48 0.49 0.51 0.53 0.54 0.53 0.52 0.51 0.49 0.47 0.46 0.47 0.49 0.50 0.51 0.51 0.53 0.53 0.53 0.56 0.56 0.55 0.58 0.64 0.70 0.73 0.72 0.72 0.77 0.84 0.91 0.90 0.83 0.82 0.82 0.83 0.83 0.82 0.79 0.77 0.78 0.80
0.45 0.47 0.49 0.49 0.50 0.55 0.59 0.60 0.60 0.61 0.59 0.57 0.56 0.55 0.55 0.55 0.55 0.55 0.55 0.54 0.54 0.57 0.61 0.63 0.67 0.72 0.78 0.79 0.80 0.80 0.84 0.86 0.88 0.90 0.88 0.86 0.85 0.84 0.83 0.82 0.80 0.80 0.80 0.78

GEFSNGP_prec_meanprecacc_210.txt.gz
Total_Precipitation_Accumulation
0.29 0.22 0.28 0.31 0.27 0.30 0.46 0.45 0.35 0.11 0.07 0.09 0.09 0.09 0.08 0.08 0.08 0.08 0.07 0.07 0.06 0.06 0.09 0.11 0.13 0.18 0.22 0.27 0.29 0.28 0.29 0.40 0.56 0.66 0.76 0.84 0.89 0.91 0.94 0.94 0.88 0.88 0.89 0.88
0.32 0.17 0.23 0.26 0.17 0.17 0.19 0.19 0.17 0.09 0.06 0.05 0.05 0.07 0.08 0.08 0.09 0.10 0.10 0.09 0.07 0.06 0.07 0.08 0.10 0.14 0.19 0.23 0.25 0.27 0.30 0.31 0.43 0.59 0.71 0.80 0.86 0.95 0.96 0.98 0.98 0.94 0.91 0.88
0.59 0.22 0.45 0.49 0.20 0.14 0.14 0.14 0.14 0.17 0.14 0.07 0.04 0.05 0.08 0.10 0.12 0.13 0.12 0.10 0.09 0.07 0.07 0.08 0.09 0.11 0.16 0.21 0.22 0.22 0.22 0.24 0.32 0.44 0.62 0.75 0.81 0.90 1.02 1.03 1.01 0.99 0.92 0.86
0.94 0.65 0.89 0.40 0.14 0.12 0.14 0.17 0.17 0.18 0.15 0.10 0.06 0.06 0.08 0.13 0.15 0.13 0.12 0.11 0.09 0.08 0.08 0.09 0.08 0.09 0.14 0.18 0.20 0.22 0.20 0.19 0.23 0.30 0.45 0.61 0.77 0.86 0.96 1.06 1.07 1.02 0.95 0.87
1.33 0.97 0.52 0.17 0.12 0.18 0.20 0.22 0.19 0.16 0.12 0.08 0.04 0.05 0.07 0.08 0.11 0.12 0.11 0.11 0.10 0.09 0.10 0.09 0.07 0.08 0.12 0.13 0.17 0.18 0.18 0.18 0.18 0.21 0.31 0.46 0.61 0.75 0.85 0.97 1.01 1.00 0.95 0.86
1.48 1.09 0.51 0.21 0.12 0.12 0.18 0.28 0.18 0.15 0.14 0.11 0.09 0.11 0.10 0.09 0.09 0.10 0.10 0.10 0.10 0.10 0.11 0.09 0.07 0.09 0.12 0.12 0.14 0.16 0.16 0.16 0.16 0.17 0.22 0.34 0.47 0.61 0.77 0.88 0.95 0.96 0.96 0.89
1.14 0.92 0.42 0.19 0.13 0.13 0.33 0.38 0.19 0.17 0.16 0.14 0.15 0.15 0.12 0.09 0.09 0.10 0.10 0.10 0.11 0.12 0.11 0.09 0.08 0.12 0.15 0.13 0.13 0.16 0.17 0.15 0.14 0.15 0.19 0.27 0.41 0.54 0.72 0.85 0.94 0.94 0.90 0.90
0.73 0.87 0.50 0.21 0.19 0.33 0.38 0.23 0.19 0.16 0.14 0.14 0.12 0.10 0.08 0.08 0.09 0.09 0.10 0.10 0.13 0.14 0.12 0.11 0.11 0.14 0.18 0.16 0.16 0.17 0.16 0.16 0.15 0.14 0.17 0.24 0.39 0.53 0.67 0.82 0.95 0.97 0.90 0.94
0.49 0.41 0.26 0.22 0.26 0.28 0.23 0.21 0.18 0.16 0.13 0.11 0.10 0.09 0.08 0.07 0.08 0.09 0.10 0.11 0.13 0.15 0.14 0.13 0.15 0.17 0.20 0.19 0.20 0.18 0.16 0.15 0.16 0.16 0.18 0.24 0.35 0.50 0.70 0.81 0.92 0.99 0.91 0.91
0.34 0.21 0.16 0.16 0.18 0.19 0.20 0.19 0.16 0.14 0.13 0.12 0.11 0.10 0.09 0.08 0.08 0.10 0.12 0.12 0.13 0.14 0.15 0.17 0.18 0.20 0.21 0.22 0.22 0.18 0.18 0.16 0.16 0.20 0.24 0.26 0.34 0.46 0.65 0.81 0.92 1.01 0.95 0.87
0.28 0.19 0.16 0.13 0.11 0.12 0.13 0.13 0.12 0.11 0.11 0.12 0.11 0.09 0.08 0.08 0.09 0.11 0.13 0.12 0.13 0.13 0.15 0.20 0.23 0.22 0.21 0.24 0.24 0.21 0.19 0.19 0.19 0.23 0.28 0.32 0.38 0.47 0.58 0.71 0.91 1.09 1.01 0.93
0.28 0.20 0.21 0.15 0.09 0.07 0.08 0.09 0.09 0.09 0.09 0.09 0.10 0.09 0.07 0.08 0.11 0.13 0.13 0.11 0.12 0.13 0.14 0.17 0.22 0.24 0.23 0.24 0.25 0.25 0.23 0.22 0.24 0.28 0.30 0.32 0.41 0.51 0.62 0.69 0.79 0.83 0.92 0.99
0.17 0.15 0.14 0.13 0.10 0.07 0.06 0.06 0.07 0.08 0.08 0.08 0.08 0.08 0.08 0.08 0.10 0.13 0.14 0.11 0.11 0.12 0.14 0.17 0.21 0.23 0.24 0.26 0.28 0.29 0.28 0.27 0.30 0.31 0.30 0.32 0.39 0.52 0.64 0.72 0.79 0.81 0.84 0.91
0.09 0.11 0.13 0.10 0.09 0.06 0.05 0.05 0.06 0.07 0.07 0.07 0.08 0.08 0.08 0.08 0.09 0.12 0.13 0.12 0.13 0.12 0.14 0.17 0.21 0.25 0.25 0.26 0.30 0.31 0.31 0.34 0.37 0.35 0.33 0.36 0.42 0.53 0.65 0.76 0.84 0.87 0.91 0.98
0.08 0.09 0.11 0.08 0.07 0.06 0.05 0.06 0.07 0.08 0.08 0.08 0.08 0.09 0.09 0.09 0.09 0.11 0.13 0.14 0.15 0.14 0.15 0.17 0.20 0.26 0.27 0.28 0.31 0.32 0.33 0.36 0.40 0.42 0.40 0.41 0.46 0.55 0.65 0.73 0.78 0.85 0.92 1.09
0.09 0.09 0.09 0.09 0.08 0.07 0.06 0.07 0.08 0.09 0.11 0.11 0.10 0.09 0.09 0.10 0.10 0.12 0.15 0.17 0.18 0.17 0.16 0.17 0.19 0.24 0.29 0.32 0.34 0.33 0.34 0.42 0.47 0.48 0.47 0.47 0.52 0.59 0.67 0.75 0.78 0.83 0.87 0.96
0.18 0.14 0.11 0.11 0.10 0.09 0.08 0.08 0.09 0.10 0.12 0.12 0.12 0.11 0.11 0.11 0.10 0.12 0.16 0.18 0.20 0.20 0.17 0.17 0.18 0.23 0.29 0.31 0.35 0.38 0.38 0.41 0.48 0.49 0.49 0.53 0.58 0.64 0.71 0.79 0.80 0.80 0.81 0.87
0.20 0.19 0.17 0.18 0.17 0.14 0.10 0.09 0.10 0.11 0.13 0.14 0.14 0.13 0.13 0.13 0.12 0.14 0.19 0.20 0.23 0.23 0.19 0.18 0.19 0.25 0.28 0.30 0.35 0.39 0.42 0.44 0.48 0.50 0.54 0.59 0.65 0.69 0.75 0.81 0.79 0.79 0.81 0.88
0.17 0.16 0.16 0.16 0.17 0.19 0.16 0.13 0.12 0.12 0.13 0.15 0.17 0.17 0.15 0.15 0.15 0.17 0.22 0.24 0.27 0.26 0.23 0.22 0.25 0.27 0.28 0.32 0.40 0.39 0.44 0.49 0.54 0.55 0.57 0.65 0.69 0.67 0.73 0.79 0.80 0.79 0.81 0.84
0.17 0.17 0.18 0.17 0.17 0.19 0.19 0.15 0.13 0.14 0.14 0.16 0.19 0.19 0.18 0.18 0.19 0.22 0.26 0.28 0.28 0.28 0.27 0.29 0.29 0.31 0.33 0.38 0.44 0.43 0.47 0.53 0.60 0.63 0.63 0.65 0.69 0.72 0.73 0.79 0.84 0.83 0.81 0.81
0.21 0.21 0.22 0.21 0.19 0.17 0.19 0.20 0.19 0.18 0.17 0.19 0.22 0.24 0.25 0.25 0.23 0.24 0.29 0.30 0.28 0.29 0.31 0.34 0.35 0.38 0.43 0.48 0.50 0.48 0.52 0.56 0.63 0.69 0.71 0.72 0.74 0.75 0.76 0.81 0.86 0.84 0.82 0.82
0.27 0.27 0.27 0.26 0.23 0.21 0.21 0.23 0.25 0.26 0.24 0.23 0.24 0.26 0.29 0.29 0.25 0.24 0.26 0.31 0.33 0.37 0.36 0.35 0.39 0.46 0.52 0.56 0.51 0.51 0.53 0.57 0.65 0.71 0.73 0.76 0.79 0.81 0.81 0.82 0.85 0.83 0.81 0.82
0.35 0.34 0.33 0.32 0.31 0.30 0.27 0.28 0.32 0.34 0.33 0.32 0.32 0.33 0.34 0.32 0.31 0.33 0.33 0.32 0.36 0.43 0.44 0.42 0.49 0.56 0.61 0.58 0.55 0.54 0.57 0.60 0.67 0.74 0.76 0.80 0.82 0.82 0.83 0.82 0.82 0.82 0.83 0.84
0.39 0.38 0.38 0.37 0.34 0.34 0.36 0.36 0.37 0.39 0.40 0.41 0.40 0.40 0.41 0.40 0.36 0.35 0.41 0.44 0.46 0.51 0.50 0.51 0.57 0.63 0.67 0.64 0.61 0.62 0.66 0.68 0.73 0.80 0.81 0.82 0.84 0.84 0.82 0.82 0.83 0.80 0.79 0.81
0.42 0.42 0.40 0.39 0.38 0.41 0.45 0.45 0.43 0.43 0.43 0.44 0.43 0.43 0.45 0.48 0.49 0.46 0.47 0.50 0.52 0.54 0.53 0.54 0.59 0.66 0.68 0.69 0.68 0.69 0.73 0.76 0.86 0.92 0.88 0.85 0.84 0.85 0.83 0.82 0.81 0.80 0.80 0.82
0.45 0.47 0.49 0.50 0.52 0.54 0.55 0.53 0.52 0.51 0.50 0.48 0.46 0.48 0.50 0.50 0.52 0.52 0.55 0.55 0.55 0.58 0.57 0.56 0.59 0.65 0.71 0.74 0.73 0.73 0.78 0.85 0.92 0.91 0.84 0.83 0.83 0.84 0.84 0.83 0.80 0.79 0.80 0.81
0.46 0.48 0.49 0.49 0.51 0.56 0.60 0.61 0.61 0.62 0.60 0.58 0.57 0.56 0.56 0.56 0.56 0.57 0.57 0.56 0.56 0.58 0.62 0.64 0.68 0.73 0.80 0.81 0.81 0.81 0.85 0.87 0.89 0.91 0.89 0.87 0.86 0.85 0.84 0.83 0.82 0.82 0.82 0.80

GEFSNGP_prec_meanprecacc_216.txt.gz
Total_Precipitation_Accumulation
0.30 0.23 0.28 0.32 0.27 0.31 0.46 0.46 0.36 0.12 0.08 0.11 0.10 0.09 0.08 0.08 0.08 0.08 0.07 0.07 0.06 0.06 0.09 0.11 0.13 0.18 0.22 0.27 0.29 0.28 0.29 0.40 0.56 0.66 0.76 0.84 0.89 0.91 0.94 0.94 0.88 0.88 0.89 0.88
0.35 0.18 0.25 0.27 0.18 0.17 0.20 0.20 0.18 0.10 0.07 0.06 0.06 0.07 0.08 0.08 0.09 0.10 0.10 0.09 0.07 0.06 0.07 0.08 0.10 0.14 0.19 0.23 0.25 0.27 0.30 0.31 0.43 0.59 0.71 0.80 0.87 0.95 0.96 0.98 0.98 0.94 0.91 0.88
0.63 0.25 0.49 0.53 0.22 0.16 0.15 0.15 0.16 0.18 0.15 0.08 0.05 0.06 0.09 0.10 0.12 0.13 0.12 0.10 0.09 0.07 0.07 0.08 0.09 0.11 0.16 0.21 0.22 0.22 0.22 0.24 0.32 0.44 0.62 0.75 0.81 0.90 1.02 1.03 1.01 0.99 0.92 0.86
0.99 0.71 0.98 0.45 0.16 0.14 0.16 0.19 0.18 0.19 0.15 0.10 0.07 0.06 0.08 0.13 0.15 0.13 0.12 0.11 0.09 0.08 0.08 0.09 0.08 0.09 0.14 0.18 0.20 0.22 0.20 0.19 0.23 0.30 0.45 0.61 0.77 0.87 0.96 1.06 1.07 1.02 0.95 0.88
1.38 1.03 0.57 0.20 0.14 0.20 0.22 0.25 0.20 0.17 0.13 0.08 0.05 0.05 0.07 0.09 0.11 0.12 0.11 0.11 0.10 0.09 0.10 0.09 0.07 0.08 0.12 0.13 0.17 0.18 0.18 0.18 0.18 0.21 0.31 0.46 0.61 0.75 0.85 0.97 1.01 1.00 0.95 0.86
1.53 1.14 0.56 0.24 0.13 0.14 0.19 0.31 0.19 0.15 0.15 0.12 0.09 0.12 0.11 0.09 0.09 0.10 0.10 0.10 0.10 0.10 0.11 0.09 0.07 0.09 0.12 0.12 0.14 0.16 0.16 0.16 0.16 0.18 0.23 0.34 0.47 0.61 0.77 0.88 0.95 0.96 0.97 0.90
1.18 0.97 0.46 0.21 0.14 0.15 0.35 0.41 0.21 0.17 0.17 0.15 0.16 0.16 0.12 0.09 0.09 0.10 0.10 0.10 0.11 0.12 0.11 0.09 0.08 0.12 0.15 0.13 0.13 0.16 0.17 0.15 0.14 0.15 0.19 0.27 0.41 0.55 0.73 0.85 0.94 0.95 0.91 0.91
0.76 0.91 0.52 0.22 0.19 0.35 0.41 0.25 0.21 0.17 0.15 0.15 0.13 0.10 0.08 0.08 0.09 0.10 0.10 0.10 0.13 0.14 0.12 0.11 0.11 0.14 0.18 0.16 0.16 0.17 0.16 0.16 0.15 0.14 0.17 0.25 0.40 0.53 0.67 0.83 0.96 0.97 0.90 0.94
0.53 0.45 0.29 0.24 0.27 0.29 0.25 0.23 0.19 0.17 0.14 0.12 0.12 0.11 0.09 0.08 0.09 0.09 0.11 0.11 0.13 0.15 0.14 0.13 0.15 0.17 0.20 0.20 0.20 0.18 0.16 0.16 0.16 0.16 0.19 0.25 0.35 0.51 0.70 0.81 0.93 0.99 0.91 0.91
0.38 0.25 0.18 0.17 0.19 0.20 0.21 0.20 0.17 0.15 0.14 0.13 0.12 0.11 0.10 0.09 0.09 0.11 0.13 0.12 0.13 0.14 0.16 0.17 0.18 0.20 0.21 0.22 0.23 0.19 0.18 0.16 0.17 0.20 0.24 0.27 0.35 0.46 0.65 0.81 0.92 1.02 0.95 0.88
0.31 0.22 0.18 0.14 0.13 0.13 0.14 0.14 0.13 0.12 0.12 0.13 0.12 0.09 0.09 0.09 0.10 0.12 0.13 0.13 0.13 0.14 0.15 0.20 0.23 0.22 0.22 0.24 0.25 0.21 0.20 0.19 0.19 0.23 0.28 0.32 0.38 0.47 0.58 0.71 0.92 1.10 1.03 0.95
0.30 0.22 0.23 0.17 0.11 0.09 0.09 0.10 0.10 0.10 0.10 0.10 0.10 0.09 0.07 0.08 0.11 0.13 0.13 0.11 0.12 0.13 0.14 0.18 0.22 0.24 0.23 0.24 0.25 0.25 0.23 0.22 0.24 0.28 0.30 0.32 0.41 0.51 0.62 0.69 0.79 0.84 0.94 1.00
0.19 0.16 0.15 0.14 0.11 0.08 0.07 0.06 0.07 0.08 0.08 0.08 0.08 0.08 0.08 0.08 0.11 0.13 0.14 0.11 0.11 0.13 0.15 0.17 0.21 0.23 0.24 0.26 0.28 0.29 0.28 0.28 0.30 0.31 0.30 0.32 0.39 0.52 0.64 0.72 0.79 0.82 0.85 0.92
0.10 0.12 0.14 0.12 0.11 0.07 0.06 0.05 0.06 0.07 0.08 0.07 0.08 0.09 0.08 0.08 0.10 0.13 0.13 0.13 0.13 0.13 0.15 0.18 0.22 0.25 0.25 0.26 0.30 0.31 0.32 0.34 0.37 0.35 0.34 0.36 0.43 0.53 0.65 0.76 0.84 0.88 0.91 0.98
0.09 0.10 0.12 0.10 0.08 0.06 0.06 0.07 0.08 0.08 0.08 0.09 0.09 0.10 0.10 0.09 0.09 0.11 0.13 0.14 0.16 0.15 0.15 0.17 0.21 0.26 0.27 0.28 0.31 0.32 0.34 0.37 0.41 0.42 0.41 0.41 0.46 0.56 0.65 0.74 0.79 0.86 0.93 1.10
0.10 0.09 0.10 0.10 0.09 0.08 0.07 0.08 0.09 0.10 0.11 0.11 0.11 0.10 0.10 0.11 0.11 0.13 0.15 0.17 0.18 0.17 0.17 0.17 0.19 0.24 0.30 0.33 0.34 0.33 0.34 0.42 0.48 0.49 0.47 0.48 0.53 0.60 0.68 0.76 0.79 0.83 0.88 0.97
0.19 0.15 0.12 0.12 0.11 0.09 0.09 0.09 0.10 0.11 0.13 0.13 0.13 0.12 0.12 0.12 0.11 0.12 0.16 0.18 0.20 0.20 0.17 0.17 0.18 0.23 0.29 0.32 0.35 0.38 0.38 0.42 0.49 0.50 0.50 0.54 0.59 0.65 0.72 0.80 0.81 0.81 0.82 0.88
0.21 0.20 0.18 0.18 0.18 0.15 0.11 0.10 0.11 0.12 0.14 0.15 0.15 0.14 0.14 0.14 0.12 0.14 0.19 0.20 0.23 0.23 0.19 0.18 0.20 0.25 0.28 0.30 0.35 0.39 0.42 0.45 0.49 0.51 0.55 0.60 0.66 0.70 0.76 0.82 0.80 0.81 0.82 0.90
0.18 0.17 0.17 0.17 0.18 0.20 0.17 0.13 0.12 0.13 0.14 0.15 0.17 0.17 0.17 0.15 0.15 0.17 0.22 0.25 0.27 0.27 0.24 0.23 0.25 0.28 0.29 0.33 0.41 0.40 0.45 0.50 0.55 0.56 0.58 0.66 0.70 0.68 0.74 0.80 0.82 0.81 0.82 0.85
0.18 0.18 0.19 0.19 0.18 0.20 0.20 0.16 0.14 0.14 0.14 0.17 0.20 0.20 0.19 0.19 0.19 0.22 0.26 0.28 0.28 0.29 0.28 0.29 0.30 0.32 0.33 0.38 0.45 0.44 0.48 0.54 0.61 0.64 0.64 0.66 0.71 0.73 0.74 0.80 0.85 0.84 0.82 0.82
0.23 0.23 0.23 0.23 0.20 0.18 0.20 0.20 0.19 0.18 0.17 0.19 0.23 0.25 0.26 0.25 0.23 0.24 0.29 0.31 0.28 0.29 0.31 0.34 0.35 0.39 0.44 0.48 0.51 0.49 0.52 0.57 0.64 0.70 0.72 0.73 0.75 0.76 0.77 0.82 0.87 0.85 0.84 0.84
0.28 0.28 0.28 0.27 0.24 0.22 0.21 0.24 0.26 0.26 0.24 0.23 0.24 0.27 0.30 0.29 0.25 0.24 0.26 0.32 0.34 0.37 0.37 0.35 0.40 0.47 0.53 0.57 0.52 0.51 0.53 0.57 0.65 0.72 0.74 0.77 0.81 0.83 0.82 0.83 0.87 0.85 0.83 0.84
0.36 0.34 0.34 0.33 0.31 0.31 0.28 0.29 0.33 0.35 0.34 0.32 0.33 0.34 0.35 0.33 0.31 0.34 0.34 0.32 0.37 0.44 0.44 0.43 0.50 0.58 0.62 0.59 0.56 0.55 0.57 0.61 0.68 0.75 0.77 0.81 0.83 0.83 0.84 0.83 0.83 0.83 0.85 0.86
0.40 0.39 0.39 0.37 0.35 0.35 0.36 0.36 0.37 0.40 0.41 0.41 0.41 0.42 0.43 0.42 0.37 0.36 0.42 0.45 0.47 0.52 0.51 0.52 0.58 0.64 0.69 0.65 0.62 0.63 0.67 0.69 0.75 0.81 0.82 0.83 0.86 0.85 0.83 0.84 0.84 0.81 0.80 0.82
0.43 0.43 0.41 0.39 0.39 0.42 0.46 0.45 0.44 0.43 0.43 0.45 0.44 0.44 0.47 0.49 0.51 0.47 0.48 0.51 0.52 0.55 0.54 0.55 0.61 0.67 0.70 0.71 0.69 0.70 0.74 0.78 0.87 0.93 0.89 0.87 0.86 0.87 0.84 0.84 0.82 0.81 0.81 0.83
0.46 0.48 0.50 0.51 0.53 0.55 0.56 0.54 0.53 0.52 0.51 0.49 0.47 0.49 0.51 0.52 0.53 0.54 0.56 0.56 0.56 0.58 0.57 0.57 0.60 0.67 0.73 0.75 0.74 0.75 0.79 0.86 0.93 0.93 0.86 0.85 0.85 0.86 0.86 0.84 0.81 0.80 0.81 0.82
0.47 0.48 0.50 0.50 0.52 0.57 0.61 0.63 0.63 0.63 0.61 0.59 0.59 0.57 0.57 0.58 0.58 0.58 0.58 0.57 0.56 0.59 0.62 0.65 0.69 0.75 0.81 0.82 0.82 0.82 0.86 0.89 0.91 0.92 0.91 0.89 0.88 0.86 0.85 0.85 0.83 0.83 0.83 0.81

GEFSNGP_prec_meanprecacc_222.txt.gz
Total_Precipitation_Accumulation
0.31 0.24 0.30 0.34 0.29 0.32 0.47 0.47 0.37 0.13 0.09 0.11 0.11 0.10 0.09 0.08 0.08 0.08 0.07 0.07 0.07 0.06 0.09 0.11 0.13 0.18 0.22 0.27 0.29 0.28 0.29 0.40 0.56 0.66 0.76 0.84 0.89 0.91 0.94 0.94 0.88 0.88 0.89 0.88
0.36 0.19 0.26 0.28 0.19 0.19 0.21 0.20 0.19 0.10 0.08 0.06 0.06 0.08 0.08 0.08 0.09 0.10 0.10 0.09 0.07 0.06 0.07 0.08 0.11 0.14 0.19 0.23 0.25 0.27 0.30 0.31 0.43 0.59 0.72 0.80 0.87 0.95 0.97 0.98 0.98 0.94 0.91 0.88
0.65 0.27 0.51 0.56 0.24 0.18 0.18 0.17 0.17 0.19 0.15 0.08 0.05 0.06 0.09 0.10 0.12 0.13 0.12 0.10 0.09 0.07 0.07 0.08 0.09 0.11 0.17 0.21 0.22 0.22 0.22 0.25 0.32 0.44 0.62 0.75 0.82 0.90 1.02 1.03 1.01 0.99 0.92 0.86
1.02 0.74 1.03 0.48 0.18 0.16 0.19 0.22 0.20 0.20 0.16 0.11 0.07 0.06 0.08 0.13 0.15 0.13 0.12 0.11 0.10 0.08 0.08 0.09 0.08 0.09 0.14 0.18 0.20 0.22 0.20 0.19 0.23 0.30 0.45 0.61 0.77 0.87 0.97 1.07 1.07 1.02 0.95 0.88
1.42 1.07 0.61 0.22 0.16 0.23 0.26 0.28 0.22 0.18 0.13 0.09 0.06 0.05 0.07 0.09 0.11 0.12 0.12 0.11 0.10 0.09 0.10 0.09 0.07 0.08 0.12 0.14 0.17 0.18 0.18 0.18 0.18 0.21 0.31 0.46 0.61 0.75 0.85 0.97 1.01 1.00 0.95 0.87
1.58 1.17 0.59 0.25 0.15 0.16 0.22 0.36 0.21 0.17 0.16 0.13 0.11 0.13 0.11 0.10 0.10 0.10 0.10 0.10 0.10 0.10 0.11 0.09 0.07 0.09 0.12 0.12 0.14 0.16 0.16 0.16 0.16 0.18 0.23 0.34 0.47 0.61 0.77 0.89 0.95 0.96 0.97 0.90
1.23 1.00 0.48 0.23 0.16 0.16 0.38 0.45 0.23 0.20 0.19 0.17 0.18 0.17 0.13 0.10 0.10 0.10 0.10 0.10 0.11 0.12 0.11 0.09 0.08 0.12 0.15 0.13 0.13 0.16 0.17 0.16 0.14 0.15 0.19 0.27 0.42 0.55 0.73 0.85 0.95 0.95 0.91 0.91
0.79 0.94 0.54 0.24 0.21 0.37 0.45 0.27 0.23 0.19 0.18 0.17 0.15 0.12 0.10 0.09 0.10 0.10 0.10 0.10 0.13 0.14 0.12 0.11 0.11 0.14 0.18 0.16 0.16 0.17 0.16 0.16 0.15 0.14 0.17 0.25 0.40 0.54 0.67 0.83 0.96 0.97 0.91 0.94
0.56 0.48 0.32 0.27 0.30 0.32 0.28 0.25 0.22 0.19 0.16 0.15 0.14 0.13 0.11 0.09 0.10 0.10 0.11 0.12 0.14 0.16 0.15 0.14 0.15 0.18 0.21 0.20 0.20 0.18 0.16 0.16 0.17 0.17 0.19 0.25 0.36 0.51 0.71 0.82 0.93 0.99 0.91 0.91
0.40 0.27 0.20 0.19 0.21 0.22 0.23 0.22 0.19 0.17 0.16 0.14 0.14 0.12 0.11 0.10 0.11 0.12 0.14 0.14 0.14 0.15 0.16 0.18 0.19 0.21 0.22 0.23 0.23 0.19 0.18 0.17 0.17 0.20 0.24 0.27 0.35 0.46 0.66 0.82 0.93 1.03 0.96 0.88
0.33 0.24 0.19 0.16 0.14 0.14 0.15 0.15 0.14 0.13 0.14 0.14 0.13 0.11 0.10 0.10 0.11 0.13 0.14 0.13 0.13 0.14 0.16 0.20 0.24 0.23 0.22 0.24 0.25 0.22 0.20 0.19 0.20 0.24 0.28 0.32 0.39 0.47 0.59 0.71 0.93 1.12 1.04 0.96
0.31 0.23 0.24 0.18 0.12 0.10 0.10 0.11 0.12 0.11 0.11 0.11 0.11 0.10 0.08 0.09 0.11 0.13 0.14 0.11 0.12 0.13 0.14 0.18 0.23 0.24 0.23 0.25 0.26 0.25 0.24 0.23 0.24 0.29 0.30 0.32 0.41 0.52 0.62 0.70 0.80 0.85 0.95 1.01
0.21 0.18 0.17 0.15 0.13 0.10 0.08 0.07 0.08 0.09 0.09 0.09 0.09 0.08 0.08 0.09 0.11 0.14 0.14 0.12 0.12 0.13 0.15 0.18 0.22 0.24 0.24 0.26 0.29 0.29 0.29 0.28 0.30 0.32 0.31 0.32 0.40 0.52 0.65 0.72 0.79 0.82 0.86 0.93
0.12 0.13 0.15 0.13 0.13 0.09 0.07 0.06 0.07 0.07 0.08 0.08 0.08 0.09 0.08 0.08 0.10 0.13 0.14 0.13 0.13 0.13 0.15 0.18 0.22 0.26 0.25 0.27 0.31 0.32 0.33 0.35 0.38 0.36 0.34 0.36 0.43 0.54 0.66 0.76 0.85 0.88 0.91 0.99
0.10 0.12 0.14 0.12 0.10 0.08 0.08 0.08 0.09 0.09 0.09 0.09 0.09 0.10 0.10 0.10 0.09 0.12 0.14 0.15 0.16 0.15 0.16 0.18 0.21 0.26 0.28 0.29 0.31 0.33 0.34 0.38 0.41 0.43 0.41 0.42 0.47 0.56 0.66 0.74 0.80 0.86 0.93 1.10
0.11 0.11 0.12 0.11 0.10 0.09 0.08 0.09 0.10 0.11 0.13 0.12 0.12 0.11 0.11 0.11 0.11 0.13 0.16 0.17 0.19 0.18 0.17 0.18 0.20 0.24 0.30 0.33 0.34 0.34 0.35 0.43 0.48 0.50 0.48 0.48 0.53 0.60 0.68 0.76 0.80 0.84 0.88 0.98
0.21 0.17 0.14 0.13 0.12 0.10 0.09 0.10 0.11 0.12 0.15 0.15 0.14 0.13 0.13 0.12 0.11 0.13 0.17 0.18 0.20 0.20 0.18 0.17 0.19 0.23 0.29 0.32 0.36 0.38 0.39 0.42 0.49 0.50 0.50 0.54 0.60 0.66 0.73 0.81 0.82 0.82 0.83 0.89
0.23 0.21 0.19 0.20 0.19 0.16 0.12 0.11 0.12 0.13 0.15 0.17 0.17 0.16 0.16 0.14 0.13 0.15 0.19 0.21 0.23 0.23 0.19 0.19 0.20 0.25 0.28 0.31 0.36 0.40 0.43 0.46 0.49 0.52 0.55 0.61 0.66 0.70 0.77 0.83 0.81 0.81 0.83 0.91
0.19 0.19 0.18 0.19 0.20 0.20 0.17 0.14 0.13 0.13 0.14 0.16 0.18 0.19 0.18 0.16 0.15 0.17 0.22 0.25 0.27 0.27 0.24 0.23 0.26 0.28 0.29 0.33 0.41 0.41 0.45 0.51 0.55 0.56 0.59 0.67 0.71 0.69 0.74 0.80 0.83 0.82 0.84 0.86
0.19 0.19 0.20 0.20 0.19 0.21 0.20 0.16 0.14 0.14 0.14 0.17 0.20 0.20 0.20 0.20 0.20 0.22 0.26 0.28 0.28 0.29 0.28 0.30 0.30 0.32 0.33 0.39 0.45 0.44 0.49 0.55 0.61 0.64 0.65 0.67 0.71 0.73 0.75 0.81 0.86 0.85 0.84 0.83
0.23 0.24 0.24 0.24 0.21 0.18 0.20 0.20 0.20 0.19 0.17 0.19 0.23 0.25 0.26 0.26 0.23 0.24 0.29 0.31 0.29 0.30 0.31 0.35 0.36 0.40 0.45 0.49 0.51 0.49 0.53 0.58 0.65 0.71 0.73 0.74 0.76 0.77 0.78 0.83 0.88 0.86 0.85 0.85
0.29 0.29 0.29 0.27 0.25 0.22 0.22 0.24 0.26 0.26 0.24 0.23 0.25 0.27 0.31 0.30 0.25 0.24 0.26 0.33 0.34 0.37 0.37 0.36 0.40 0.48 0.54 0.58 0.53 0.52 0.54 0.58 0.66 0.72 0.75 0.78 0.82 0.84 0.83 0.84 0.88 0.86 0.84 0.85
0.37 0.36 0.35 0.33 0.32 0.31 0.28 0.29 0.33 0.35 0.34 0.33 0.33 0.35 0.36 0.34 0.32 0.34 0.34 0.33 0.38 0.44 0.45 0.44 0.51 0.59 0.64 0.61 0.57 0.55 0.58 0.62 0.69 0.76 0.78 0.82 0.84 0.84 0.85 0.85 0.84 0.85 0.86 0.87
0.41 0.40 0.40 0.38 0.35 0.35 0.37 0.37 0.38 0.41 0.42 0.43 0.42 0.43 0.45 0.43 0.38 0.37 0.43 0.46 0.48 0.53 0.52 0.53 0.60 0.66 0.70 0.67 0.63 0.64 0.68 0.71 0.76 0.82 0.83 0.84 0.87 0.86 0.84 0.85 0.85 0.82 0.82 0.83
0.44 0.43 0.42 0.40 0.40 0.43 0.47 0.46 0.45 0.45 0.44 0.46 0.45 0.45 0.48 0.50 0.52 0.48 0.50 0.53 0.54 0.56 0.55 0.56 0.62 0.69 0.71 0.72 0.70 0.72 0.75 0.79 0.89 0.95 0.91 0.89 0.87 0.88 0.86 0.85 0.84 0.82 0.83 0.84
0.47 0.49 0.50 0.52 0.54 0.56 0.57 0.55 0.55 0.53 0.52 0.50 0.48 0.50 0.52 0.53 0.54 0.55 0.57 0.57 0.57 0.59 0.58 0.57 0.61 0.68 0.74 0.76 0.75 0.76 0.81 0.87 0.95 0.95 0.88 0.86 0.86 0.87 0.87 0.86 0.83 0.81 0.81 0.83
0.48 0.49 0.51 0.51 0.53 0.58 0.63 0.64 0.64 0.64 0.63 0.61 0.60 0.58 0.58 0.59 0.59 0.60 0.60 0.58 0.57 0.59 0.63 0.66 0.69 0.76 0.83 0.84 0.84 0.84 0.87 0.90 0.92 0.94 0.93 0.90 0.89 0.88 0.86 0.86 0.84 0.84 0.83 0.82

GEFSNGP_prec_meanprecacc_228.txt.gz
Total_Precipitation_Accumulation
0.32 0.25 0.32 0.35 0.31 0.34 0.49 0.49 0.38 0.13 0.09 0.11 0.11 0.10 0.09 0.09 0.09 0.08 0.07 0.07 0.07 0.06 0.09 0.11 0.13 0.18 0.22 0.27 0.29 0.28 0.30 0.40 0.56 0.66 0.77 0.85 0.89 0.92 0.94 0.95 0.88 0.88 0.89 0.88
0.37 0.19 0.26 0.29 0.20 0.20 0.23 0.22 0.20 0.11 0.08 0.06 0.06 0.08 0.08 0.08 0.10 0.11 0.10 0.09 0.07 0.06 0.07 0.08 0.11 0.14 0.19 0.23 0.25 0.27 0.30 0.32 0.43 0.59 0.72 0.80 0.87 0.95 0.97 0.98 0.98 0.94 0.91 0.88
0.68 0.28 0.52 0.58 0.26 0.20 0.19 0.18 0.18 0.19 0.16 0.08 0.05 0.06 0.09 0.10 0.12 0.13 0.12 0.10 0.09 0.08 0.07 0.08 0.09 0.11 0.17 0.21 0.22 0.22 0.22 0.25 0.32 0.45 0.63 0.75 0.82 0.90 1.02 1.03 1.01 1.00 0.92 0.87
1.05 0.78 1.08 0.51 0.20 0.18 0.20 0.23 0.21 0.21 0.16 0.11 0.07 0.06 0.08 0.13 0.15 0.13 0.12 0.11 0.10 0.08 0.09 0.09 0.08 0.09 0.14 0.18 0.20 0.22 0.20 0.19 0.23 0.31 0.45 0.61 0.77 0.87 0.97 1.07 1.07 1.02 0.95 0.88
1.46 1.11 0.64 0.24 0.17 0.25 0.28 0.31 0.24 0.19 0.14 0.09 0.06 0.05 0.07 0.09 0.11 0.12 0.12 0.12 0.10 0.09 0.10 0.09 0.08 0.09 0.12 0.14 0.17 0.18 0.18 0.18 0.18 0.21 0.31 0.47 0.62 0.75 0.85 0.97 1.01 1.00 0.95 0.87
1.62 1.21 0.61 0.27 0.15 0.18 0.25 0.38 0.23 0.19 0.18 0.14 0.11 0.14 0.12 0.10 0.10 0.11 0.10 0.10 0.10 0.10 0.11 0.09 0.08 0.10 0.13 0.12 0.14 0.16 0.16 0.16 0.16 0.18 0.23 0.35 0.47 0.61 0.77 0.89 0.95 0.96 0.97 0.90
1.27 1.04 0.50 0.24 0.16 0.17 0.40 0.47 0.25 0.22 0.21 0.19 0.20 0.19 0.14 0.10 0.10 0.11 0.10 0.10 0.11 0.12 0.11 0.10 0.09 0.12 0.17 0.14 0.14 0.16 0.17 0.16 0.14 0.15 0.19 0.27 0.42 0.55 0.73 0.85 0.95 0.95 0.91 0.91
0.83 0.97 0.56 0.25 0.22 0.39 0.47 0.28 0.24 0.21 0.20 0.19 0.18 0.15 0.12 0.11 0.11 0.11 0.11 0.11 0.14 0.14 0.12 0.11 0.11 0.15 0.20 0.17 0.16 0.17 0.16 0.17 0.15 0.15 0.17 0.25 0.40 0.54 0.67 0.83 0.96 0.97 0.91 0.94
0.58 0.51 0.34 0.28 0.32 0.35 0.29 0.27 0.24 0.22 0.19 0.18 0.18 0.16 0.13 0.11 0.12 0.12 0.13 0.13 0.15 0.16 0.15 0.14 0.15 0.18 0.22 0.21 0.20 0.18 0.16 0.16 0.17 0.17 0.19 0.25 0.36 0.52 0.71 0.82 0.94 1.00 0.91 0.91
0.42 0.29 0.22 0.21 0.23 0.24 0.24 0.24 0.22 0.20 0.19 0.17 0.17 0.16 0.14 0.12 0.12 0.13 0.15 0.15 0.15 0.16 0.17 0.19 0.20 0.22 0.23 0.24 0.24 0.19 0.19 0.17 0.18 0.21 0.25 0.27 0.36 0.47 0.66 0.82 0.93 1.03 0.96 0.89
0.35 0.26 0.21 0.17 0.16 0.16 0.17 0.17 0.16 0.15 0.16 0.17 0.15 0.13 0.12 0.12 0.13 0.14 0.16 0.15 0.15 0.15 0.16 0.21 0.24 0.23 0.23 0.25 0.26 0.22 0.20 0.20 0.20 0.24 0.29 0.33 0.39 0.48 0.59 0.72 0.94 1.12 1.04 0.97
0.33 0.25 0.26 0.20 0.14 0.12 0.11 0.13 0.13 0.12 0.12 0.13 0.13 0.11 0.09 0.11 0.14 0.15 0.15 0.13 0.13 0.14 0.15 0.18 0.23 0.25 0.24 0.25 0.26 0.26 0.24 0.23 0.25 0.30 0.31 0.33 0.42 0.52 0.63 0.70 0.80 0.86 0.96 1.02
0.23 0.20 0.19 0.17 0.14 0.11 0.09 0.08 0.09 0.10 0.10 0.10 0.10 0.09 0.09 0.10 0.12 0.15 0.15 0.13 0.12 0.14 0.15 0.18 0.22 0.24 0.24 0.27 0.30 0.30 0.30 0.29 0.32 0.33 0.31 0.33 0.40 0.52 0.65 0.72 0.79 0.83 0.86 0.94
0.14 0.15 0.18 0.16 0.14 0.10 0.08 0.07 0.08 0.08 0.09 0.09 0.09 0.10 0.09 0.09 0.10 0.14 0.14 0.14 0.14 0.13 0.15 0.18 0.23 0.26 0.26 0.27 0.31 0.33 0.33 0.36 0.39 0.37 0.35 0.37 0.44 0.54 0.66 0.77 0.85 0.88 0.92 0.99
0.13 0.14 0.17 0.14 0.12 0.10 0.10 0.10 0.11 0.11 0.10 0.10 0.10 0.11 0.11 0.10 0.10 0.12 0.14 0.15 0.17 0.15 0.16 0.18 0.22 0.27 0.29 0.29 0.32 0.34 0.35 0.38 0.42 0.44 0.42 0.42 0.47 0.56 0.66 0.74 0.80 0.86 0.93 1.11
0.14 0.13 0.14 0.13 0.13 0.12 0.11 0.11 0.12 0.13 0.14 0.13 0.13 0.12 0.11 0.12 0.12 0.14 0.17 0.18 0.20 0.19 0.18 0.18 0.20 0.25 0.31 0.34 0.35 0.35 0.35 0.44 0.49 0.50 0.48 0.49 0.53 0.61 0.69 0.77 0.80 0.84 0.89 0.98
0.22 0.19 0.16 0.15 0.14 0.13 0.12 0.12 0.12 0.14 0.16 0.16 0.16 0.15 0.14 0.13 0.12 0.14 0.17 0.19 0.21 0.21 0.18 0.18 0.19 0.24 0.30 0.33 0.36 0.39 0.40 0.43 0.50 0.51 0.51 0.55 0.60 0.66 0.73 0.81 0.82 0.82 0.83 0.90
0.25 0.24 0.22 0.22 0.21 0.18 0.14 0.12 0.13 0.14 0.16 0.18 0.18 0.18 0.17 0.15 0.14 0.15 0.20 0.21 0.24 0.24 0.20 0.19 0.21 0.26 0.29 0.31 0.36 0.40 0.43 0.46 0.50 0.52 0.56 0.62 0.67 0.71 0.78 0.83 0.82 0.82 0.84 0.91
0.21 0.21 0.20 0.21 0.22 0.22 0.19 0.15 0.14 0.14 0.15 0.17 0.20 0.20 0.19 0.17 0.16 0.18 0.23 0.25 0.28 0.28 0.24 0.23 0.26 0.28 0.29 0.33 0.42 0.41 0.46 0.51 0.56 0.57 0.59 0.68 0.72 0.69 0.75 0.81 0.83 0.83 0.84 0.87
0.20 0.20 0.22 0.22 0.21 0.23 0.21 0.17 0.15 0.15 0.15 0.18 0.21 0.22 0.21 0.21 0.21 0.23 0.26 0.29 0.29 0.30 0.28 0.30 0.31 0.32 0.34 0.39 0.46 0.45 0.49 0.55 0.62 0.65 0.66 0.67 0.72 0.74 0.76 0.82 0.87 0.86 0.84 0.84
0.24 0.24 0.25 0.25 0.22 0.20 0.21 0.21 0.20 0.20 0.18 0.20 0.24 0.26 0.27 0.27 0.24 0.25 0.30 0.32 0.29 0.30 0.32 0.35 0.36 0.40 0.46 0.50 0.52 0.50 0.54 0.58 0.65 0.71 0.74 0.75 0.77 0.78 0.79 0.84 0.89 0.87 0.86 0.85
0.30 0.30 0.29 0.29 0.26 0.24 0.23 0.25 0.26 0.27 0.25 0.24 0.26 0.28 0.31 0.30 0.26 0.25 0.27 0.33 0.35 0.38 0.37 0.36 0.41 0.49 0.55 0.59 0.54 0.53 0.55 0.59 0.67 0.73 0.76 0.79 0.83 0.85 0.84 0.85 0.88 0.86 0.85 0.86
0.37 0.36 0.36 0.34 0.33 0.32 0.29 0.30 0.34 0.36 0.35 0.34 0.35 0.36 0.37 0.35 0.32 0.35 0.35 0.34 0.38 0.45 0.46 0.45 0.52 0.60 0.65 0.62 0.58 0.56 0.59 0.63 0.70 0.77 0.79 0.83 0.85 0.85 0.86 0.86 0.85 0.86 0.87 0.88
0.41 0.41 0.41 0.39 0.36 0.36 0.38 0.38 0.39 0.42 0.43 0.44 0.44 0.44 0.46 0.44 0.39 0.38 0.44 0.47 0.49 0.54 0.53 0.54 0.61 0.68 0.72 0.68 0.64 0.65 0.69 0.72 0.77 0.83 0.84 0.85 0.88 0.87 0.85 0.86 0.86 0.84 0.83 0.85
0.44 0.44 0.42 0.41 0.40 0.44 0.48 0.48 0.46 0.46 0.46 0.47 0.46 0.46 0.49 0.52 0.53 0.49 0.51 0.54 0.55 0.58 0.56 0.56 0.63 0.70 0.73 0.73 0.71 0.73 0.76 0.80 0.90 0.97 0.92 0.90 0.88 0.89 0.87 0.87 0.85 0.84 0.84 0.85
0.48 0.49 0.51 0.52 0.55 0.57 0.58 0.57 0.56 0.55 0.53 0.52 0.50 0.51 0.53 0.54 0.55 0.56 0.59 0.59 0.58 0.61 0.59 0.58 0.61 0.69 0.75 0.77 0.76 0.77 0.82 0.89 0.96 0.96 0.89 0.87 0.87 0.89 0.88 0.87 0.84 0.82 0.82 0.84
0.48 0.50 0.51 0.51 0.53 0.59 0.64 0.65 0.65 0.66 0.64 0.62 0.61 0.59 0.59 0.60 0.61 0.61 0.61 0.59 0.59 0.61 0.64 0.66 0.70 0.77 0.84 0.85 0.85 0.85 0.89 0.91 0.93 0.95 0.94 0.92 0.90 0.89 0.88 0.87 0.85 0.85 0.84 0.83

GEFSNGP_prec_meanprecacc_234.txt.gz
Total_Precipitation_Accumulation
0.34 0.27 0.33 0.36 0.31 0.34 0.51 0.51 0.40 0.14 0.09 0.11 0.11 0.10 0.09 0.09 0.09 0.08 0.07 0.07 0.07 0.06 0.09 0.12 0.14 0.18 0.22 0.27 0.29 0.28 0.30 0.40 0.56 0.66 0.77 0.85 0.89 0.92 0.94 0.95 0.88 0.88 0.89 0.88
0.39 0.20 0.27 0.30 0.21 0.21 0.23 0.23 0.21 0.12 0.08 0.06 0.07 0.08 0.08 0.08 0.10 0.11 0.10 0.09 0.08 0.07 0.08 0.09 0.11 0.14 0.19 0.23 0.25 0.27 0.30 0.32 0.43 0.59 0.72 0.81 0.87 0.95 0.97 0.98 0.98 0.94 0.91 0.88
0.71 0.30 0.55 0.61 0.28 0.22 0.20 0.19 0.19 0.20 0.16 0.08 0.05 0.06 0.09 0.11 0.12 0.14 0.12 0.11 0.09 0.08 0.08 0.09 0.09 0.11 0.17 0.21 0.22 0.22 0.23 0.25 0.33 0.45 0.63 0.75 0.82 0.90 1.02 1.03 1.01 1.00 0.93 0.87
1.09 0.82 1.14 0.55 0.22 0.19 0.22 0.25 0.22 0.21 0.17 0.11 0.07 0.06 0.08 0.13 0.16 0.13 0.12 0.11 0.10 0.09 0.09 0.10 0.08 0.09 0.15 0.18 0.20 0.22 0.20 0.20 0.23 0.31 0.45 0.62 0.77 0.87 0.97 1.07 1.07 1.02 0.96 0.89
1.50 1.15 0.68 0.26 0.18 0.26 0.30 0.32 0.25 0.20 0.14 0.09 0.06 0.06 0.08 0.09 0.12 0.13 0.12 0.12 0.10 0.10 0.10 0.10 0.08 0.09 0.13 0.14 0.17 0.19 0.18 0.19 0.19 0.21 0.31 0.47 0.62 0.76 0.86 0.98 1.02 1.01 0.96 0.87
1.66 1.25 0.64 0.29 0.16 0.18 0.26 0.41 0.23 0.19 0.18 0.14 0.12 0.15 0.13 0.10 0.10 0.11 0.11 0.11 0.11 0.10 0.11 0.09 0.08 0.11 0.13 0.13 0.15 0.16 0.16 0.16 0.16 0.18 0.23 0.35 0.48 0.62 0.78 0.90 0.96 0.97 0.97 0.90
1.30 1.07 0.52 0.25 0.17 0.18 0.42 0.50 0.25 0.22 0.21 0.20 0.21 0.21 0.15 0.11 0.10 0.11 0.11 0.11 0.12 0.12 0.12 0.10 0.09 0.13 0.17 0.15 0.14 0.17 0.17 0.16 0.15 0.16 0.19 0.28 0.42 0.55 0.73 0.86 0.95 0.95 0.91 0.91
0.86 1.00 0.58 0.26 0.22 0.40 0.49 0.29 0.25 0.22 0.20 0.20 0.19 0.16 0.13 0.12 0.12 0.11 0.11 0.11 0.14 0.14 0.12 0.11 0.12 0.15 0.20 0.18 0.17 0.18 0.17 0.17 0.16 0.15 0.18 0.25 0.40 0.54 0.68 0.84 0.96 0.98 0.91 0.94
0.60 0.53 0.35 0.29 0.33 0.36 0.30 0.28 0.25 0.23 0.20 0.19 0.19 0.17 0.15 0.13 0.13 0.13 0.13 0.14 0.15 0.17 0.15 0.14 0.15 0.19 0.22 0.21 0.21 0.19 0.18 0.17 0.17 0.17 0.20 0.25 0.36 0.52 0.71 0.82 0.94 1.00 0.92 0.92
0.44 0.31 0.23 0.22 0.23 0.25 0.25 0.25 0.23 0.21 0.20 0.18 0.18 0.17 0.16 0.14 0.15 0.16 0.17 0.16 0.16 0.16 0.17 0.19 0.21 0.23 0.24 0.24 0.24 0.20 0.19 0.18 0.19 0.21 0.25 0.28 0.36 0.47 0.66 0.82 0.94 1.03 0.96 0.89
0.37 0.27 0.22 0.18 0.17 0.17 0.18 0.17 0.16 0.16 0.17 0.18 0.16 0.14 0.13 0.13 0.14 0.16 0.18 0.17 0.16 0.16 0.17 0.22 0.26 0.25 0.24 0.26 0.26 0.23 0.21 0.20 0.21 0.25 0.30 0.33 0.40 0.48 0.60 0.72 0.94 1.13 1.05 0.97
0.36 0.27 0.28 0.22 0.15 0.13 0.12 0.13 0.14 0.13 0.13 0.13 0.13 0.12 0.10 0.12 0.15 0.16 0.17 0.14 0.14 0.16 0.16 0.19 0.24 0.26 0.25 0.26 0.27 0.26 0.25 0.24 0.26 0.30 0.32 0.34 0.43 0.53 0.63 0.71 0.81 0.86 0.96 1.03
0.24 0.21 0.20 0.18 0.15 0.12 0.10 0.09 0.10 0.11 0.11 0.11 0.11 0.10 0.10 0.11 0.14 0.16 0.17 0.14 0.13 0.15 0.16 0.19 0.23 0.25 0.26 0.28 0.31 0.31 0.30 0.30 0.32 0.33 0.32 0.33 0.41 0.53 0.66 0.73 0.80 0.83 0.86 0.95
0.15 0.16 0.19 0.16 0.16 0.11 0.09 0.08 0.09 0.09 0.10 0.09 0.10 0.11 0.10 0.11 0.12 0.15 0.16 0.15 0.15 0.15 0.16 0.19 0.23 0.27 0.27 0.28 0.32 0.33 0.34 0.37 0.39 0.37 0.35 0.38 0.44 0.54 0.66 0.77 0.86 0.89 0.92 1.00
0.14 0.15 0.18 0.15 0.13 0.11 0.11 0.11 0.12 0.12 0.11 0.11 0.12 0.12 0.12 0.11 0.11 0.14 0.16 0.17 0.19 0.17 0.18 0.19 0.23 0.27 0.29 0.30 0.33 0.34 0.35 0.39 0.43 0.44 0.43 0.43 0.48 0.57 0.66 0.75 0.81 0.87 0.93 1.11
0.15 0.14 0.15 0.14 0.14 0.13 0.12 0.13 0.13 0.15 0.16 0.15 0.15 0.14 0.14 0.14 0.14 0.15 0.18 0.19 0.21 0.20 0.19 0.19 0.21 0.26 0.31 0.34 0.36 0.35 0.36 0.45 0.50 0.51 0.49 0.49 0.54 0.61 0.69 0.77 0.80 0.85 0.89 0.99
0.23 0.20 0.17 0.16 0.16 0.15 0.14 0.14 0.15 0.16 0.18 0.19 0.18 0.18 0.17 0.16 0.14 0.15 0.19 0.20 0.22 0.22 0.19 0.19 0.21 0.25 0.31 0.33 0.37 0.40 0.41 0.44 0.51 0.52 0.51 0.55 0.61 0.67 0.74 0.82 0.83 0.83 0.84 0.91
0.26 0.25 0.23 0.24 0.23 0.20 0.15 0.14 0.15 0.16 0.18 0.20 0.21 0.20 0.19 0.18 0.16 0.17 0.21 0.22 0.25 0.25 0.21 0.20 0.22 0.27 0.30 0.32 0.37 0.41 0.44 0.47 0.50 0.53 0.57 0.62 0.68 0.72 0.78 0.84 0.83 0.83 0.85 0.92
0.22 0.22 0.22 0.22 0.23 0.24 0.20 0.17 0.16 0.16 0.17 0.19 0.22 0.23 0.21 0.19 0.18 0.20 0.24 0.26 0.29 0.29 0.25 0.24 0.27 0.29 0.30 0.34 0.43 0.42 0.47 0.52 0.56 0.57 0.60 0.68 0.72 0.70 0.76 0.82 0.84 0.84 0.85 0.87
0.21 0.21 0.23 0.23 0.22 0.24 0.23 0.18 0.17 0.17 0.17 0.20 0.23 0.23 0.23 0.22 0.22 0.24 0.27 0.30 0.30 0.31 0.29 0.31 0.31 0.33 0.35 0.40 0.46 0.46 0.50 0.56 0.63 0.66 0.67 0.68 0.73 0.75 0.77 0.83 0.88 0.87 0.85 0.85
0.25 0.25 0.26 0.26 0.24 0.21 0.22 0.22 0.22 0.21 0.20 0.21 0.25 0.27 0.28 0.28 0.25 0.26 0.31 0.32 0.30 0.31 0.32 0.36 0.37 0.41 0.47 0.50 0.53 0.51 0.54 0.59 0.66 0.72 0.75 0.76 0.78 0.79 0.80 0.85 0.90 0.88 0.86 0.86
0.31 0.31 0.30 0.29 0.27 0.25 0.24 0.26 0.27 0.28 0.27 0.26 0.27 0.29 0.32 0.31 0.27 0.26 0.28 0.34 0.36 0.39 0.38 0.37 0.42 0.50 0.56 0.60 0.55 0.53 0.56 0.60 0.68 0.74 0.76 0.80 0.84 0.86 0.85 0.86 0.89 0.87 0.85 0.87
0.38 0.37 0.36 0.35 0.34 0.33 0.30 0.31 0.34 0.37 0.37 0.35 0.36 0.37 0.38 0.35 0.33 0.36 0.36 0.35 0.39 0.46 0.47 0.45 0.53 0.62 0.66 0.63 0.58 0.57 0.60 0.64 0.70 0.77 0.80 0.84 0.86 0.86 0.87 0.86 0.86 0.86 0.88 0.89
0.42 0.42 0.42 0.40 0.37 0.37 0.39 0.39 0.40 0.42 0.44 0.45 0.44 0.45 0.47 0.44 0.39 0.38 0.45 0.48 0.50 0.55 0.54 0.55 0.62 0.69 0.73 0.69 0.65 0.66 0.70 0.73 0.78 0.85 0.85 0.86 0.88 0.88 0.86 0.87 0.87 0.85 0.84 0.86
0.45 0.45 0.43 0.41 0.41 0.44 0.49 0.49 0.47 0.47 0.47 0.48 0.47 0.47 0.50 0.52 0.54 0.50 0.52 0.55 0.56 0.59 0.57 0.57 0.64 0.72 0.74 0.74 0.72 0.74 0.77 0.81 0.91 0.98 0.94 0.91 0.89 0.90 0.88 0.87 0.86 0.85 0.85 0.86
0.48 0.50 0.52 0.53 0.56 0.58 0.59 0.58 0.57 0.56 0.54 0.52 0.51 0.52 0.54 0.55 0.56 0.57 0.60 0.60 0.59 0.62 0.60 0.60 0.63 0.70 0.76 0.79 0.78 0.78 0.83 0.90 0.98 0.97 0.90 0.89 0.88 0.89 0.89 0.88 0.84 0.83 0.83 0.85
0.49 0.50 0.52 0.52 0.54 0.60 0.64 0.66 0.67 0.67 0.65 0.63 0.62 0.60 0.60 0.61 0.62 0.62 0.62 0.60 0.60 0.62 0.65 0.68 0.72 0.79 0.86 0.86 0.86 0.86 0.90 0.93 0.94 0.97 0.95 0.93 0.91 0.90 0.88 0.87 0.86 0.86 0.85 0.83

GEFSNGP_prec_meanprecacc_240.txt.gz
Total_Precipitation_Accumulation
0.36 0.28 0.34 0.37 0.33 0.37 0.54 0.54 0.42 0.16 0.10 0.12 0.11 0.10 0.09 0.09 0.09 0.08 0.07 0.07 0.07 0.07 0.11 0.15 0.17 0.20 0.25 0.29 0.30 0.29 0.30 0.41 0.57 0.68 0.78 0.86 0.90 0.92 0.94 0.95 0.89 0.89 0.89 0.88
0.42 0.21 0.28 0.30 0.22 0.23 0.26 0.25 0.23 0.13 0.09 0.06 0.07 0.08 0.08 0.08 0.10 0.11 0.10 0.09 0.08 0.07 0.09 0.12 0.15 0.18 0.21 0.25 0.28 0.29 0.31 0.32 0.44 0.60 0.73 0.82 0.88 0.96 0.97 0.99 0.98 0.95 0.91 0.88
0.75 0.33 0.57 0.63 0.30 0.24 0.23 0.21 0.20 0.21 0.17 0.09 0.05 0.06 0.09 0.11 0.12 0.14 0.12 0.11 0.10 0.08 0.09 0.11 0.12 0.15 0.20 0.23 0.24 0.24 0.24 0.25 0.33 0.45 0.64 0.76 0.83 0.91 1.02 1.03 1.01 1.00 0.93 0.87
1.15 0.89 1.19 0.59 0.23 0.21 0.25 0.27 0.23 0.22 0.17 0.12 0.08 0.07 0.09 0.13 0.16 0.13 0.12 0.11 0.10 0.09 0.10 0.11 0.11 0.12 0.18 0.21 0.21 0.23 0.22 0.21 0.23 0.31 0.46 0.63 0.79 0.88 0.97 1.07 1.08 1.03 0.96 0.89
1.57 1.23 0.73 0.30 0.21 0.29 0.33 0.35 0.26 0.20 0.15 0.10 0.06 0.06 0.09 0.10 0.12 0.13 0.12 0.12 0.10 0.10 0.11 0.11 0.10 0.12 0.15 0.16 0.19 0.20 0.21 0.20 0.19 0.22 0.32 0.48 0.63 0.76 0.86 0.98 1.02 1.01 0.96 0.88
1.71 1.31 0.69 0.33 0.18 0.20 0.28 0.43 0.24 0.19 0.19 0.15 0.13 0.16 0.14 0.11 0.11 0.12 0.11 0.11 0.11 0.11 0.11 0.10 0.10 0.12 0.15 0.14 0.16 0.17 0.18 0.18 0.18 0.19 0.24 0.36 0.49 0.63 0.79 0.90 0.97 0.98 0.98 0.90
1.34 1.10 0.55 0.28 0.18 0.19 0.45 0.52 0.26 0.22 0.22 0.21 0.22 0.21 0.16 0.11 0.11 0.12 0.11 0.11 0.12 0.12 0.12 0.11 0.11 0.15 0.19 0.16 0.15 0.18 0.19 0.17 0.17 0.17 0.20 0.28 0.42 0.56 0.74 0.87 0.96 0.96 0.92 0.92
0.88 1.03 0.61 0.28 0.23 0.42 0.51 0.30 0.26 0.23 0.21 0.21 0.20 0.17 0.14 0.12 0.12 0.12 0.12 0.12 0.14 0.15 0.13 0.12 0.13 0.17 0.23 0.20 0.18 0.19 0.18 0.18 0.18 0.17 0.19 0.26 0.41 0.54 0.68 0.84 0.98 0.99 0.93 0.95
0.63 0.57 0.39 0.31 0.35 0.37 0.31 0.28 0.25 0.24 0.21 0.19 0.20 0.18 0.15 0.14 0.14 0.13 0.14 0.14 0.16 0.17 0.16 0.15 0.16 0.21 0.25 0.23 0.22 0.20 0.18 0.18 0.19 0.19 0.21 0.26 0.37 0.52 0.72 0.83 0.95 1.01 0.93 0.93
0.48 0.34 0.26 0.24 0.24 0.25 0.25 0.25 0.23 0.22 0.21 0.19 0.18 0.18 0.16 0.14 0.15 0.16 0.18 0.17 0.17 0.17 0.18 0.20 0.22 0.25 0.25 0.26 0.25 0.21 0.20 0.19 0.20 0.23 0.27 0.29 0.37 0.48 0.67 0.83 0.94 1.04 0.97 0.90
0.40 0.30 0.23 0.19 0.17 0.17 0.18 0.18 0.17 0.17 0.18 0.18 0.17 0.14 0.14 0.14 0.15 0.17 0.18 0.18 0.17 0.17 0.18 0.23 0.27 0.26 0.25 0.27 0.27 0.23 0.22 0.21 0.22 0.26 0.31 0.35 0.41 0.49 0.61 0.73 0.95 1.14 1.06 0.99
0.38 0.29 0.29 0.23 0.16 0.13 0.12 0.14 0.14 0.14 0.14 0.14 0.14 0.13 0.11 0.13 0.15 0.17 0.17 0.15 0.15 0.16 0.17 0.20 0.25 0.27 0.26 0.27 0.28 0.27 0.25 0.24 0.26 0.31 0.33 0.35 0.44 0.54 0.65 0.72 0.82 0.87 0.97 1.05
0.27 0.23 0.21 0.19 0.16 0.13 0.10 0.10 0.11 0.11 0.12 0.12 0.11 0.11 0.11 0.12 0.15 0.17 0.17 0.15 0.14 0.15 0.16 0.19 0.23 0.26 0.26 0.29 0.31 0.31 0.31 0.30 0.33 0.34 0.33 0.35 0.42 0.55 0.68 0.75 0.81 0.84 0.87 0.96
0.16 0.17 0.20 0.17 0.16 0.12 0.10 0.09 0.09 0.10 0.11 0.11 0.12 0.12 0.11 0.11 0.13 0.16 0.17 0.17 0.16 0.15 0.17 0.20 0.24 0.28 0.27 0.29 0.33 0.34 0.34 0.37 0.40 0.38 0.36 0.38 0.45 0.55 0.68 0.79 0.87 0.90 0.93 1.01
0.15 0.16 0.19 0.16 0.14 0.12 0.11 0.12 0.12 0.13 0.12 0.13 0.13 0.14 0.13 0.12 0.12 0.15 0.17 0.18 0.20 0.19 0.19 0.21 0.24 0.29 0.30 0.31 0.34 0.35 0.36 0.39 0.43 0.45 0.43 0.44 0.49 0.58 0.67 0.76 0.82 0.87 0.94 1.12
0.16 0.15 0.16 0.15 0.14 0.14 0.13 0.13 0.14 0.16 0.17 0.17 0.16 0.16 0.15 0.15 0.15 0.17 0.19 0.20 0.22 0.21 0.20 0.21 0.22 0.27 0.32 0.35 0.37 0.36 0.37 0.45 0.50 0.52 0.50 0.50 0.55 0.62 0.70 0.78 0.81 0.85 0.90 0.99
0.24 0.21 0.18 0.17 0.16 0.15 0.14 0.14 0.15 0.17 0.19 0.20 0.20 0.20 0.19 0.18 0.16 0.17 0.20 0.21 0.23 0.23 0.20 0.20 0.22 0.26 0.31 0.34 0.38 0.41 0.42 0.45 0.51 0.52 0.52 0.56 0.61 0.67 0.75 0.83 0.84 0.83 0.84 0.91
0.27 0.26 0.24 0.24 0.24 0.20 0.16 0.15 0.16 0.17 0.19 0.22 0.23 0.22 0.22 0.20 0.18 0.19 0.23 0.24 0.26 0.26 0.21 0.20 0.22 0.28 0.31 0.33 0.38 0.42 0.45 0.48 0.51 0.53 0.57 0.63 0.68 0.72 0.79 0.85 0.83 0.83 0.85 0.92
0.23 0.23 0.23 0.23 0.24 0.25 0.21 0.18 0.16 0.17 0.19 0.21 0.24 0.24 0.23 0.22 0.20 0.22 0.26 0.28 0.30 0.29 0.26 0.24 0.28 0.30 0.31 0.35 0.44 0.43 0.47 0.53 0.57 0.58 0.61 0.69 0.73 0.71 0.77 0.83 0.85 0.84 0.85 0.88
0.22 0.22 0.23 0.24 0.23 0.25 0.24 0.19 0.17 0.18 0.18 0.21 0.24 0.25 0.25 0.25 0.24 0.26 0.29 0.31 0.32 0.32 0.30 0.31 0.32 0.33 0.35 0.41 0.47 0.47 0.51 0.57 0.63 0.66 0.67 0.69 0.73 0.76 0.77 0.84 0.88 0.87 0.86 0.85
0.26 0.26 0.26 0.26 0.24 0.22 0.23 0.23 0.22 0.22 0.21 0.22 0.27 0.29 0.30 0.30 0.27 0.28 0.33 0.34 0.32 0.32 0.34 0.37 0.38 0.42 0.48 0.51 0.53 0.52 0.55 0.60 0.67 0.73 0.75 0.76 0.79 0.80 0.81 0.86 0.90 0.88 0.87 0.86
0.31 0.31 0.31 0.30 0.27 0.25 0.25 0.26 0.28 0.29 0.28 0.27 0.28 0.31 0.34 0.33 0.29 0.28 0.29 0.36 0.37 0.40 0.39 0.38 0.43 0.51 0.57 0.61 0.55 0.54 0.56 0.60 0.68 0.75 0.77 0.81 0.84 0.87 0.86 0.86 0.90 0.88 0.86 0.87
0.39 0.38 0.37 0.36 0.35 0.34 0.31 0.32 0.35 0.38 0.38 0.36 0.37 0.39 0.39 0.37 0.35 0.37 0.37 0.36 0.40 0.47 0.48 0.46 0.55 0.63 0.67 0.64 0.59 0.58 0.60 0.64 0.71 0.78 0.81 0.84 0.87 0.87 0.87 0.87 0.86 0.87 0.88 0.90
0.42 0.42 0.42 0.40 0.37 0.37 0.39 0.40 0.41 0.44 0.45 0.46 0.45 0.46 0.48 0.46 0.41 0.40 0.46 0.49 0.51 0.56 0.55 0.56 0.64 0.71 0.74 0.71 0.66 0.67 0.71 0.74 0.79 0.85 0.86 0.87 0.89 0.89 0.87 0.87 0.88 0.85 0.84 0.86
0.46 0.46 0.44 0.42 0.42 0.45 0.49 0.50 0.48 0.48 0.48 0.49 0.48 0.48 0.51 0.53 0.55 0.51 0.53 0.56 0.57 0.60 0.58 0.58 0.65 0.73 0.75 0.75 0.73 0.75 0.78 0.82 0.92 0.99 0.95 0.92 0.90 0.91 0.89 0.88 0.87 0.85 0.85 0.86
0.49 0.50 0.52 0.54 0.56 0.58 0.60 0.58 0.58 0.57 0.55 0.53 0.52 0.53 0.55 0.56 0.57 0.58 0.60 0.60 0.60 0.62 0.61 0.60 0.63 0.71 0.77 0.80 0.79 0.79 0.84 0.91 0.98 0.98 0.91 0.90 0.89 0.90 0.90 0.88 0.85 0.83 0.84 0.85
0.49 0.51 0.53 0.53 0.55 0.61 0.65 0.67 0.68 0.68 0.66 0.64 0.63 0.61 0.61 0.62 0.62 0.63 0.63 0.61 0.61 0.63 0.66 0.69 0.72 0.79 0.87 0.87 0.87 0.87 0.91 0.94 0.95 0.97 0.96 0.94 0.92 0.91 0.89 0.88 0.86 0.86 0.86 0.84